<?xml version="1.0" encoding="UTF-8" standalone="no" ?>
<gpx xmlns="http://www.topografix.com/GPX/1/1" xmlns:xsi="http://www.w3.org/2001/XMLSchema-instance" xsi:schemaLocation="http://www.topografix.com/GPX/1/1 http://www.topografix.com/GPX/1/1/gpx.xsd" version="1.1" creator="VisuGPX - https://www.visugpx.com">
  <metadata>
    <name>81 vtt castres la glène 32km 1100d+</name>
  </metadata>
  <trk>
    <name><![CDATA[vtt la glène 32km 1100d+]]></name>
    <extensions>
      <line xmlns="http://www.topografix.com/GPX/gpx_style/0/2">
        <color>0040ff</color>
        <width>4</width>
      </line>
    </extensions>
    <trkseg>
      <trkpt lat="43.62887" lon="2.26931">
        <ele>176.842212</ele>
        <time>2021-10-03T07:38:37.000Z</time>
        <extensions>
          <visugpx:TrkExtension xmlns:visugpx="https://www.visugpx.com/editgpx/">
            <visugpx:node>49</visugpx:node>
            </visugpx:TrkExtension>
        </extensions>
      </trkpt>
      <trkpt lat="43.62883" lon="2.26932">
        <ele>176.842212</ele>
        <time>2021-10-03T07:38:38.000Z</time>
      </trkpt>
      <trkpt lat="43.62879" lon="2.26932">
        <ele>176.842212</ele>
        <time>2021-10-03T07:38:39.000Z</time>
      </trkpt>
      <trkpt lat="43.62875" lon="2.26933">
        <ele>176.842212</ele>
        <time>2021-10-03T07:38:40.000Z</time>
      </trkpt>
      <trkpt lat="43.62871" lon="2.26934">
        <ele>176.842212</ele>
        <time>2021-10-03T07:38:41.000Z</time>
      </trkpt>
      <trkpt lat="43.62867" lon="2.26935">
        <ele>176.842212</ele>
        <time>2021-10-03T07:38:42.000Z</time>
      </trkpt>
      <trkpt lat="43.62863" lon="2.26935">
        <ele>176.842212</ele>
        <time>2021-10-03T07:38:43.000Z</time>
      </trkpt>
      <trkpt lat="43.62858" lon="2.26936">
        <ele>176.842212</ele>
        <time>2021-10-03T07:38:44.000Z</time>
      </trkpt>
      <trkpt lat="43.62854" lon="2.26936">
        <ele>176.842212</ele>
        <time>2021-10-03T07:38:45.000Z</time>
      </trkpt>
      <trkpt lat="43.6285" lon="2.26937">
        <ele>176.842212</ele>
        <time>2021-10-03T07:38:46.000Z</time>
      </trkpt>
      <trkpt lat="43.62846" lon="2.26937">
        <ele>176.842212</ele>
        <time>2021-10-03T07:38:47.000Z</time>
      </trkpt>
      <trkpt lat="43.62842" lon="2.2694">
        <ele>176.842212</ele>
        <time>2021-10-03T07:38:48.000Z</time>
      </trkpt>
      <trkpt lat="43.6284" lon="2.26943">
        <ele>176.842212</ele>
        <time>2021-10-03T07:38:49.000Z</time>
      </trkpt>
      <trkpt lat="43.6284" lon="2.26949">
        <ele>176.842212</ele>
        <time>2021-10-03T07:38:50.000Z</time>
      </trkpt>
      <trkpt lat="43.6284" lon="2.26954">
        <ele>176.842212</ele>
        <time>2021-10-03T07:38:51.000Z</time>
      </trkpt>
      <trkpt lat="43.6284" lon="2.2696">
        <ele>176.842212</ele>
        <time>2021-10-03T07:38:52.000Z</time>
      </trkpt>
      <trkpt lat="43.62841" lon="2.26965">
        <ele>176.842212</ele>
        <time>2021-10-03T07:38:53.000Z</time>
      </trkpt>
      <trkpt lat="43.62841" lon="2.26971">
        <ele>176.842212</ele>
        <time>2021-10-03T07:38:54.000Z</time>
      </trkpt>
      <trkpt lat="43.62842" lon="2.26977">
        <ele>176.851952</ele>
        <time>2021-10-03T07:38:55.000Z</time>
      </trkpt>
      <trkpt lat="43.62843" lon="2.26983">
        <ele>176.871347</ele>
        <time>2021-10-03T07:38:56.000Z</time>
      </trkpt>
      <trkpt lat="43.62843" lon="2.26989">
        <ele>176.890817</ele>
        <time>2021-10-03T07:38:57.000Z</time>
      </trkpt>
      <trkpt lat="43.62843" lon="2.26995">
        <ele>176.910285</ele>
        <time>2021-10-03T07:38:58.000Z</time>
      </trkpt>
      <trkpt lat="43.62844" lon="2.27001">
        <ele>176.92905</ele>
        <time>2021-10-03T07:38:59.000Z</time>
      </trkpt>
      <trkpt lat="43.62844" lon="2.27007">
        <ele>176.947962</ele>
        <time>2021-10-03T07:39:00.000Z</time>
      </trkpt>
      <trkpt lat="43.62845" lon="2.27013">
        <ele>176.966238</ele>
        <time>2021-10-03T07:39:01.000Z</time>
      </trkpt>
      <trkpt lat="43.62845" lon="2.27018">
        <ele>176.984514</ele>
        <time>2021-10-03T07:39:02.000Z</time>
      </trkpt>
      <trkpt lat="43.62846" lon="2.27024">
        <ele>177.00265</ele>
        <time>2021-10-03T07:39:03.000Z</time>
      </trkpt>
      <trkpt lat="43.62846" lon="2.2703">
        <ele>177.020527</ele>
        <time>2021-10-03T07:39:04.000Z</time>
      </trkpt>
      <trkpt lat="43.62846" lon="2.27035">
        <ele>177.038718</ele>
        <time>2021-10-03T07:39:05.000Z</time>
      </trkpt>
      <trkpt lat="43.62846" lon="2.27041">
        <ele>177.05763</ele>
        <time>2021-10-03T07:39:06.000Z</time>
      </trkpt>
      <trkpt lat="43.62846" lon="2.27047">
        <ele>177.076778</ele>
        <time>2021-10-03T07:39:07.000Z</time>
      </trkpt>
      <trkpt lat="43.62846" lon="2.27053">
        <ele>177.096643</ele>
        <time>2021-10-03T07:39:08.000Z</time>
      </trkpt>
      <trkpt lat="43.62846" lon="2.27059">
        <ele>177.115518</ele>
        <time>2021-10-03T07:39:09.000Z</time>
      </trkpt>
      <trkpt lat="43.62847" lon="2.27065">
        <ele>177.134962</ele>
        <time>2021-10-03T07:39:10.000Z</time>
      </trkpt>
      <trkpt lat="43.62848" lon="2.27071">
        <ele>177.154432</ele>
        <time>2021-10-03T07:39:11.000Z</time>
      </trkpt>
      <trkpt lat="43.62849" lon="2.27077">
        <ele>177.174531</ele>
        <time>2021-10-03T07:39:12.000Z</time>
      </trkpt>
      <trkpt lat="43.6285" lon="2.27084">
        <ele>177.194629</ele>
        <time>2021-10-03T07:39:13.000Z</time>
      </trkpt>
      <trkpt lat="43.6285" lon="2.27089">
        <ele>177.213541</ele>
        <time>2021-10-03T07:39:14.000Z</time>
      </trkpt>
      <trkpt lat="43.62851" lon="2.27096">
        <ele>177.233882</ele>
        <time>2021-10-03T07:39:15.000Z</time>
      </trkpt>
      <trkpt lat="43.62851" lon="2.27102">
        <ele>177.253111</ele>
        <time>2021-10-03T07:39:16.000Z</time>
      </trkpt>
      <trkpt lat="43.62852" lon="2.27108">
        <ele>177.272658</ele>
        <time>2021-10-03T07:39:17.000Z</time>
      </trkpt>
      <trkpt lat="43.62852" lon="2.27114">
        <ele>177.291887</ele>
        <time>2021-10-03T07:39:18.000Z</time>
      </trkpt>
      <trkpt lat="43.62853" lon="2.2712">
        <ele>177.311117</ele>
        <time>2021-10-03T07:39:19.000Z</time>
      </trkpt>
      <trkpt lat="43.62853" lon="2.27126">
        <ele>177.331142</ele>
        <time>2021-10-03T07:39:20.000Z</time>
      </trkpt>
      <trkpt lat="43.62854" lon="2.27132">
        <ele>177.350371</ele>
        <time>2021-10-03T07:39:21.000Z</time>
      </trkpt>
      <trkpt lat="43.62854" lon="2.27138">
        <ele>177.370554</ele>
        <time>2021-10-03T07:39:22.000Z</time>
      </trkpt>
      <trkpt lat="43.62855" lon="2.27145">
        <ele>177.391237</ele>
        <time>2021-10-03T07:39:23.000Z</time>
      </trkpt>
      <trkpt lat="43.62856" lon="2.27151">
        <ele>177.411737</ele>
        <time>2021-10-03T07:39:24.000Z</time>
      </trkpt>
      <trkpt lat="43.62856" lon="2.27157">
        <ele>177.431763</ele>
        <time>2021-10-03T07:39:25.000Z</time>
      </trkpt>
      <trkpt lat="43.62857" lon="2.27164">
        <ele>177.452582</ele>
        <time>2021-10-03T07:39:26.000Z</time>
      </trkpt>
      <trkpt lat="43.62857" lon="2.2717">
        <ele>177.472366</ele>
        <time>2021-10-03T07:39:27.000Z</time>
      </trkpt>
      <trkpt lat="43.62858" lon="2.27176">
        <ele>177.491913</ele>
        <time>2021-10-03T07:39:28.000Z</time>
      </trkpt>
      <trkpt lat="43.62859" lon="2.27181">
        <ele>177.509107</ele>
        <time>2021-10-03T07:39:29.000Z</time>
      </trkpt>
      <trkpt lat="43.6286" lon="2.27187">
        <ele>177.526829</ele>
        <time>2021-10-03T07:39:30.000Z</time>
      </trkpt>
      <trkpt lat="43.6286" lon="2.27192">
        <ele>177.544337</ele>
        <time>2021-10-03T07:39:31.000Z</time>
      </trkpt>
      <trkpt lat="43.62862" lon="2.27198">
        <ele>177.564293</ele>
        <time>2021-10-03T07:39:32.000Z</time>
      </trkpt>
      <trkpt lat="43.62863" lon="2.27204">
        <ele>177.583852</ele>
        <time>2021-10-03T07:39:33.000Z</time>
      </trkpt>
      <trkpt lat="43.62865" lon="2.2721">
        <ele>177.604714</ele>
        <time>2021-10-03T07:39:34.000Z</time>
      </trkpt>
      <trkpt lat="43.62865" lon="2.27216">
        <ele>177.623557</ele>
        <time>2021-10-03T07:39:35.000Z</time>
      </trkpt>
      <trkpt lat="43.62867" lon="2.27222">
        <ele>177.652908</ele>
        <time>2021-10-03T07:39:36.000Z</time>
      </trkpt>
      <trkpt lat="43.62868" lon="2.27227">
        <ele>177.695639</ele>
        <time>2021-10-03T07:39:37.000Z</time>
      </trkpt>
      <trkpt lat="43.62869" lon="2.27232">
        <ele>177.735853</ele>
        <time>2021-10-03T07:39:38.000Z</time>
      </trkpt>
      <trkpt lat="43.6287" lon="2.27238">
        <ele>177.779243</ele>
        <time>2021-10-03T07:39:39.000Z</time>
      </trkpt>
      <trkpt lat="43.62872" lon="2.27243">
        <ele>177.825489</ele>
        <time>2021-10-03T07:39:40.000Z</time>
      </trkpt>
      <trkpt lat="43.62873" lon="2.27249">
        <ele>177.870113</ele>
        <time>2021-10-03T07:39:41.000Z</time>
      </trkpt>
      <trkpt lat="43.62873" lon="2.27255">
        <ele>177.917008</ele>
        <time>2021-10-03T07:39:42.000Z</time>
      </trkpt>
      <trkpt lat="43.62874" lon="2.27261">
        <ele>177.964676</ele>
        <time>2021-10-03T07:39:43.000Z</time>
      </trkpt>
      <trkpt lat="43.62872" lon="2.27267">
        <ele>178.010764</ele>
        <time>2021-10-03T07:39:44.000Z</time>
      </trkpt>
      <trkpt lat="43.6287" lon="2.27272">
        <ele>178.057357</ele>
        <time>2021-10-03T07:39:45.000Z</time>
      </trkpt>
      <trkpt lat="43.62867" lon="2.27276">
        <ele>178.102253</ele>
        <time>2021-10-03T07:39:46.000Z</time>
      </trkpt>
      <trkpt lat="43.62863" lon="2.2728">
        <ele>178.146669</ele>
        <time>2021-10-03T07:39:47.000Z</time>
      </trkpt>
      <trkpt lat="43.62859" lon="2.27283">
        <ele>178.194807</ele>
        <time>2021-10-03T07:39:48.000Z</time>
      </trkpt>
      <trkpt lat="43.62855" lon="2.27286">
        <ele>178.240926</ele>
        <time>2021-10-03T07:39:49.000Z</time>
      </trkpt>
      <trkpt lat="43.62852" lon="2.2729">
        <ele>178.28847</ele>
        <time>2021-10-03T07:39:50.000Z</time>
      </trkpt>
      <trkpt lat="43.6285" lon="2.27295">
        <ele>178.331684</ele>
        <time>2021-10-03T07:39:51.000Z</time>
      </trkpt>
      <trkpt lat="43.62849" lon="2.27301">
        <ele>178.375123</ele>
        <time>2021-10-03T07:39:52.000Z</time>
      </trkpt>
      <trkpt lat="43.62848" lon="2.27305">
        <ele>178.412489</ele>
        <time>2021-10-03T07:39:53.000Z</time>
      </trkpt>
      <trkpt lat="43.62845" lon="2.2731">
        <ele>178.452942</ele>
        <time>2021-10-03T07:39:54.000Z</time>
      </trkpt>
      <trkpt lat="43.62842" lon="2.27313">
        <ele>178.492068</ele>
        <time>2021-10-03T07:39:55.000Z</time>
      </trkpt>
      <trkpt lat="43.62838" lon="2.27314">
        <ele>178.536205</ele>
        <time>2021-10-03T07:39:56.000Z</time>
      </trkpt>
      <trkpt lat="43.62834" lon="2.27314">
        <ele>178.580105</ele>
        <time>2021-10-03T07:39:57.000Z</time>
      </trkpt>
      <trkpt lat="43.62829" lon="2.27313">
        <ele>178.628558</ele>
        <time>2021-10-03T07:39:58.000Z</time>
      </trkpt>
      <trkpt lat="43.62825" lon="2.27312">
        <ele>178.676454</ele>
        <time>2021-10-03T07:39:59.000Z</time>
      </trkpt>
      <trkpt lat="43.6282" lon="2.27311">
        <ele>178.727304</ele>
        <time>2021-10-03T07:40:00.000Z</time>
      </trkpt>
      <trkpt lat="43.62815" lon="2.2731">
        <ele>178.777122</ele>
        <time>2021-10-03T07:40:01.000Z</time>
      </trkpt>
      <trkpt lat="43.62811" lon="2.27309">
        <ele>178.82591</ele>
        <time>2021-10-03T07:40:02.000Z</time>
      </trkpt>
      <trkpt lat="43.62806" lon="2.27308">
        <ele>178.874274</ele>
        <time>2021-10-03T07:40:03.000Z</time>
      </trkpt>
      <trkpt lat="43.62801" lon="2.27309">
        <ele>178.926725</ele>
        <time>2021-10-03T07:40:04.000Z</time>
      </trkpt>
      <trkpt lat="43.62797" lon="2.27311">
        <ele>178.970711</ele>
        <time>2021-10-03T07:40:05.000Z</time>
      </trkpt>
      <trkpt lat="43.62794" lon="2.27316">
        <ele>179.019373</ele>
        <time>2021-10-03T07:40:06.000Z</time>
      </trkpt>
      <trkpt lat="43.62792" lon="2.27321">
        <ele>179.066665</ele>
        <time>2021-10-03T07:40:07.000Z</time>
      </trkpt>
      <trkpt lat="43.6279" lon="2.27327">
        <ele>179.114824</ele>
        <time>2021-10-03T07:40:08.000Z</time>
      </trkpt>
      <trkpt lat="43.62788" lon="2.27333">
        <ele>179.160925</ele>
        <time>2021-10-03T07:40:09.000Z</time>
      </trkpt>
      <trkpt lat="43.62786" lon="2.27339">
        <ele>179.209084</ele>
        <time>2021-10-03T07:40:10.000Z</time>
      </trkpt>
      <trkpt lat="43.62784" lon="2.27344">
        <ele>179.256555</ele>
        <time>2021-10-03T07:40:11.000Z</time>
      </trkpt>
      <trkpt lat="43.62782" lon="2.2735">
        <ele>179.304714</ele>
        <time>2021-10-03T07:40:12.000Z</time>
      </trkpt>
      <trkpt lat="43.62781" lon="2.27356">
        <ele>179.350593</ele>
        <time>2021-10-03T07:40:13.000Z</time>
      </trkpt>
      <trkpt lat="43.62779" lon="2.27362">
        <ele>179.397547</ele>
        <time>2021-10-03T07:40:14.000Z</time>
      </trkpt>
      <trkpt lat="43.62777" lon="2.27367">
        <ele>179.442966</ele>
        <time>2021-10-03T07:40:15.000Z</time>
      </trkpt>
      <trkpt lat="43.62775" lon="2.27372">
        <ele>179.489183</ele>
        <time>2021-10-03T07:40:16.000Z</time>
      </trkpt>
      <trkpt lat="43.62773" lon="2.27378">
        <ele>179.597038</ele>
        <time>2021-10-03T07:40:17.000Z</time>
      </trkpt>
      <trkpt lat="43.62771" lon="2.27384">
        <ele>179.78991</ele>
        <time>2021-10-03T07:40:18.000Z</time>
      </trkpt>
      <trkpt lat="43.6277" lon="2.2739">
        <ele>179.979504</ele>
        <time>2021-10-03T07:40:19.000Z</time>
      </trkpt>
      <trkpt lat="43.62768" lon="2.27396">
        <ele>180.171923</ele>
        <time>2021-10-03T07:40:20.000Z</time>
      </trkpt>
      <trkpt lat="43.62767" lon="2.27401">
        <ele>180.354522</ele>
        <time>2021-10-03T07:40:21.000Z</time>
      </trkpt>
      <trkpt lat="43.62765" lon="2.27407">
        <ele>180.532087</ele>
        <time>2021-10-03T07:40:22.000Z</time>
      </trkpt>
      <trkpt lat="43.62763" lon="2.27413">
        <ele>180.721281</ele>
        <time>2021-10-03T07:40:23.000Z</time>
      </trkpt>
      <trkpt lat="43.62762" lon="2.27418">
        <ele>180.892853</ele>
        <time>2021-10-03T07:40:24.000Z</time>
      </trkpt>
      <trkpt lat="43.6276" lon="2.27423">
        <ele>181.070419</ele>
        <time>2021-10-03T07:40:25.000Z</time>
      </trkpt>
      <trkpt lat="43.62758" lon="2.27429">
        <ele>181.247462</ele>
        <time>2021-10-03T07:40:26.000Z</time>
      </trkpt>
      <trkpt lat="43.62757" lon="2.27435">
        <ele>181.43047</ele>
        <time>2021-10-03T07:40:27.000Z</time>
      </trkpt>
      <trkpt lat="43.62755" lon="2.2744">
        <ele>181.615192</ele>
        <time>2021-10-03T07:40:28.000Z</time>
      </trkpt>
      <trkpt lat="43.62753" lon="2.27446">
        <ele>181.800579</ele>
        <time>2021-10-03T07:40:29.000Z</time>
      </trkpt>
      <trkpt lat="43.62751" lon="2.27452">
        <ele>181.98801</ele>
        <time>2021-10-03T07:40:30.000Z</time>
      </trkpt>
      <trkpt lat="43.6275" lon="2.27457">
        <ele>182.171968</ele>
        <time>2021-10-03T07:40:31.000Z</time>
      </trkpt>
      <trkpt lat="43.62748" lon="2.27463">
        <ele>182.351786</ele>
        <time>2021-10-03T07:40:32.000Z</time>
      </trkpt>
      <trkpt lat="43.62747" lon="2.27469">
        <ele>182.527332</ele>
        <time>2021-10-03T07:40:33.000Z</time>
      </trkpt>
      <trkpt lat="43.62745" lon="2.27474">
        <ele>182.697302</ele>
        <time>2021-10-03T07:40:34.000Z</time>
      </trkpt>
      <trkpt lat="43.62743" lon="2.27479">
        <ele>182.873951</ele>
        <time>2021-10-03T07:40:35.000Z</time>
      </trkpt>
      <trkpt lat="43.62742" lon="2.27484">
        <ele>183.030107</ele>
        <time>2021-10-03T07:40:36.000Z</time>
      </trkpt>
      <trkpt lat="43.62739" lon="2.27488">
        <ele>183.194642</ele>
        <time>2021-10-03T07:40:37.000Z</time>
      </trkpt>
      <trkpt lat="43.62737" lon="2.27493">
        <ele>183.356746</ele>
        <time>2021-10-03T07:40:38.000Z</time>
      </trkpt>
      <trkpt lat="43.62735" lon="2.27497">
        <ele>183.509324</ele>
        <time>2021-10-03T07:40:39.000Z</time>
      </trkpt>
      <trkpt lat="43.62732" lon="2.27501">
        <ele>183.667686</ele>
        <time>2021-10-03T07:40:40.000Z</time>
      </trkpt>
      <trkpt lat="43.62729" lon="2.27504">
        <ele>183.818433</ele>
        <time>2021-10-03T07:40:41.000Z</time>
      </trkpt>
      <trkpt lat="43.62726" lon="2.27508">
        <ele>183.978546</ele>
        <time>2021-10-03T07:40:42.000Z</time>
      </trkpt>
      <trkpt lat="43.62723" lon="2.27511">
        <ele>184.145013</ele>
        <time>2021-10-03T07:40:43.000Z</time>
      </trkpt>
      <trkpt lat="43.6272" lon="2.27514">
        <ele>184.319862</ele>
        <time>2021-10-03T07:40:44.000Z</time>
      </trkpt>
      <trkpt lat="43.62716" lon="2.27517">
        <ele>184.49482</ele>
        <time>2021-10-03T07:40:45.000Z</time>
      </trkpt>
      <trkpt lat="43.62713" lon="2.27521">
        <ele>184.67158</ele>
        <time>2021-10-03T07:40:46.000Z</time>
      </trkpt>
      <trkpt lat="43.62709" lon="2.27525">
        <ele>184.851632</ele>
        <time>2021-10-03T07:40:47.000Z</time>
      </trkpt>
      <trkpt lat="43.62706" lon="2.27528">
        <ele>185.028391</ele>
        <time>2021-10-03T07:40:48.000Z</time>
      </trkpt>
      <trkpt lat="43.62702" lon="2.27532">
        <ele>185.20335</ele>
        <time>2021-10-03T07:40:49.000Z</time>
      </trkpt>
      <trkpt lat="43.62699" lon="2.27535">
        <ele>185.390162</ele>
        <time>2021-10-03T07:40:50.000Z</time>
      </trkpt>
      <trkpt lat="43.62695" lon="2.27538">
        <ele>185.575367</ele>
        <time>2021-10-03T07:40:51.000Z</time>
      </trkpt>
      <trkpt lat="43.62691" lon="2.27542">
        <ele>185.750215</ele>
        <time>2021-10-03T07:40:52.000Z</time>
      </trkpt>
      <trkpt lat="43.62688" lon="2.27545">
        <ele>185.925174</ele>
        <time>2021-10-03T07:40:53.000Z</time>
      </trkpt>
      <trkpt lat="43.62684" lon="2.27549">
        <ele>186.117005</ele>
        <time>2021-10-03T07:40:54.000Z</time>
      </trkpt>
      <trkpt lat="43.62681" lon="2.27553">
        <ele>186.298856</ele>
        <time>2021-10-03T07:40:55.000Z</time>
      </trkpt>
      <trkpt lat="43.62677" lon="2.27556">
        <ele>186.492423</ele>
        <time>2021-10-03T07:40:56.000Z</time>
      </trkpt>
      <trkpt lat="43.62673" lon="2.2756">
        <ele>186.671015</ele>
        <time>2021-10-03T07:40:57.000Z</time>
      </trkpt>
      <trkpt lat="43.6267" lon="2.27564">
        <ele>186.864582</ele>
        <time>2021-10-03T07:40:58.000Z</time>
      </trkpt>
      <trkpt lat="43.62666" lon="2.27568">
        <ele>186.907089</ele>
        <time>2021-10-03T07:40:59.000Z</time>
      </trkpt>
      <trkpt lat="43.62662" lon="2.27571">
        <ele>186.864292</ele>
        <time>2021-10-03T07:41:00.000Z</time>
      </trkpt>
      <trkpt lat="43.62659" lon="2.27575">
        <ele>186.818147</ele>
        <time>2021-10-03T07:41:01.000Z</time>
      </trkpt>
      <trkpt lat="43.62655" lon="2.27578">
        <ele>186.771951</ele>
        <time>2021-10-03T07:41:02.000Z</time>
      </trkpt>
      <trkpt lat="43.62652" lon="2.27582">
        <ele>186.726561</ele>
        <time>2021-10-03T07:41:03.000Z</time>
      </trkpt>
      <trkpt lat="43.62648" lon="2.27586">
        <ele>186.678728</ele>
        <time>2021-10-03T07:41:04.000Z</time>
      </trkpt>
      <trkpt lat="43.62644" lon="2.2759">
        <ele>186.631325</ele>
        <time>2021-10-03T07:41:05.000Z</time>
      </trkpt>
      <trkpt lat="43.6264" lon="2.27594">
        <ele>186.581239</ele>
        <time>2021-10-03T07:41:06.000Z</time>
      </trkpt>
      <trkpt lat="43.62636" lon="2.27598">
        <ele>186.524595</ele>
        <time>2021-10-03T07:41:07.000Z</time>
      </trkpt>
      <trkpt lat="43.62632" lon="2.27603">
        <ele>186.469483</ele>
        <time>2021-10-03T07:41:08.000Z</time>
      </trkpt>
      <trkpt lat="43.62627" lon="2.27608">
        <ele>186.410254</ele>
        <time>2021-10-03T07:41:09.000Z</time>
      </trkpt>
      <trkpt lat="43.62622" lon="2.27613">
        <ele>186.34644</ele>
        <time>2021-10-03T07:41:10.000Z</time>
      </trkpt>
      <trkpt lat="43.62617" lon="2.27618">
        <ele>186.283437</ele>
        <time>2021-10-03T07:41:11.000Z</time>
      </trkpt>
      <trkpt lat="43.62612" lon="2.27624">
        <ele>186.222362</ele>
        <time>2021-10-03T07:41:12.000Z</time>
      </trkpt>
      <trkpt lat="43.62608" lon="2.27629">
        <ele>186.158906</ele>
        <time>2021-10-03T07:41:13.000Z</time>
      </trkpt>
      <trkpt lat="43.62603" lon="2.27635">
        <ele>186.095404</ele>
        <time>2021-10-03T07:41:14.000Z</time>
      </trkpt>
      <trkpt lat="43.62599" lon="2.27641">
        <ele>186.032028</ele>
        <time>2021-10-03T07:41:15.000Z</time>
      </trkpt>
      <trkpt lat="43.62595" lon="2.27647">
        <ele>185.973434</ele>
        <time>2021-10-03T07:41:16.000Z</time>
      </trkpt>
      <trkpt lat="43.62591" lon="2.27654">
        <ele>185.912338</ele>
        <time>2021-10-03T07:41:17.000Z</time>
      </trkpt>
      <trkpt lat="43.62588" lon="2.2766">
        <ele>185.854268</ele>
        <time>2021-10-03T07:41:18.000Z</time>
      </trkpt>
      <trkpt lat="43.62585" lon="2.27667">
        <ele>185.794477</ele>
        <time>2021-10-03T07:41:19.000Z</time>
      </trkpt>
      <trkpt lat="43.62582" lon="2.27673">
        <ele>185.738251</ele>
        <time>2021-10-03T07:41:20.000Z</time>
      </trkpt>
      <trkpt lat="43.62579" lon="2.2768">
        <ele>185.681353</ele>
        <time>2021-10-03T07:41:21.000Z</time>
      </trkpt>
      <trkpt lat="43.62575" lon="2.27686">
        <ele>185.621559</ele>
        <time>2021-10-03T07:41:22.000Z</time>
      </trkpt>
      <trkpt lat="43.62573" lon="2.27693">
        <ele>185.564315</ele>
        <time>2021-10-03T07:41:23.000Z</time>
      </trkpt>
      <trkpt lat="43.6257" lon="2.277">
        <ele>185.508205</ele>
        <time>2021-10-03T07:41:24.000Z</time>
      </trkpt>
      <trkpt lat="43.62567" lon="2.27706">
        <ele>185.450204</ele>
        <time>2021-10-03T07:41:25.000Z</time>
      </trkpt>
      <trkpt lat="43.62563" lon="2.27712">
        <ele>185.393901</ele>
        <time>2021-10-03T07:41:26.000Z</time>
      </trkpt>
      <trkpt lat="43.62559" lon="2.27717">
        <ele>185.340392</ele>
        <time>2021-10-03T07:41:27.000Z</time>
      </trkpt>
      <trkpt lat="43.62555" lon="2.27721">
        <ele>185.28583</ele>
        <time>2021-10-03T07:41:28.000Z</time>
      </trkpt>
      <trkpt lat="43.62549" lon="2.27723">
        <ele>185.226041</ele>
        <time>2021-10-03T07:41:29.000Z</time>
      </trkpt>
      <trkpt lat="43.62543" lon="2.27723">
        <ele>185.167902</ele>
        <time>2021-10-03T07:41:30.000Z</time>
      </trkpt>
      <trkpt lat="43.62537" lon="2.27721">
        <ele>185.103619</ele>
        <time>2021-10-03T07:41:31.000Z</time>
      </trkpt>
      <trkpt lat="43.62531" lon="2.27717">
        <ele>185.339807</ele>
        <time>2021-10-03T07:41:32.000Z</time>
      </trkpt>
      <trkpt lat="43.62527" lon="2.27715">
        <ele>185.517554</ele>
        <time>2021-10-03T07:41:33.000Z</time>
      </trkpt>
      <trkpt lat="43.62523" lon="2.27715">
        <ele>185.661326</ele>
        <time>2021-10-03T07:41:34.000Z</time>
      </trkpt>
      <trkpt lat="43.6252" lon="2.27716">
        <ele>185.751037</ele>
        <time>2021-10-03T07:41:35.000Z</time>
      </trkpt>
      <trkpt lat="43.62519" lon="2.27719">
        <ele>185.842046</ele>
        <time>2021-10-03T07:41:36.000Z</time>
      </trkpt>
      <trkpt lat="43.62519" lon="2.27724">
        <ele>185.970589</ele>
        <time>2021-10-03T07:41:37.000Z</time>
      </trkpt>
      <trkpt lat="43.62521" lon="2.2773">
        <ele>186.12798</ele>
        <time>2021-10-03T07:41:38.000Z</time>
      </trkpt>
      <trkpt lat="43.62522" lon="2.27736">
        <ele>186.288924</ele>
        <time>2021-10-03T07:41:39.000Z</time>
      </trkpt>
      <trkpt lat="43.62523" lon="2.27742">
        <ele>186.454062</ele>
        <time>2021-10-03T07:41:40.000Z</time>
      </trkpt>
      <trkpt lat="43.62524" lon="2.27747">
        <ele>186.615006</ele>
        <time>2021-10-03T07:41:41.000Z</time>
      </trkpt>
      <trkpt lat="43.62525" lon="2.27753">
        <ele>186.780144</ele>
        <time>2021-10-03T07:41:42.000Z</time>
      </trkpt>
      <trkpt lat="43.62526" lon="2.2776">
        <ele>186.956535</ele>
        <time>2021-10-03T07:41:43.000Z</time>
      </trkpt>
      <trkpt lat="43.62527" lon="2.27766">
        <ele>187.121673</ele>
        <time>2021-10-03T07:41:44.000Z</time>
      </trkpt>
      <trkpt lat="43.62528" lon="2.27772">
        <ele>187.287748</ele>
        <time>2021-10-03T07:41:45.000Z</time>
      </trkpt>
      <trkpt lat="43.62529" lon="2.27778">
        <ele>187.458402</ele>
        <time>2021-10-03T07:41:46.000Z</time>
      </trkpt>
      <trkpt lat="43.62529" lon="2.27784">
        <ele>187.615285</ele>
        <time>2021-10-03T07:41:47.000Z</time>
      </trkpt>
      <trkpt lat="43.6253" lon="2.2779">
        <ele>187.772816</ele>
        <time>2021-10-03T07:41:48.000Z</time>
      </trkpt>
      <trkpt lat="43.62531" lon="2.27796">
        <ele>187.935593</ele>
        <time>2021-10-03T07:41:49.000Z</time>
      </trkpt>
      <trkpt lat="43.62532" lon="2.27802">
        <ele>188.097742</ele>
        <time>2021-10-03T07:41:50.000Z</time>
      </trkpt>
      <trkpt lat="43.62532" lon="2.27808">
        <ele>188.2552</ele>
        <time>2021-10-03T07:41:51.000Z</time>
      </trkpt>
      <trkpt lat="43.62532" lon="2.27814">
        <ele>188.415664</ele>
        <time>2021-10-03T07:41:52.000Z</time>
      </trkpt>
      <trkpt lat="43.62532" lon="2.2782">
        <ele>188.576425</ele>
        <time>2021-10-03T07:41:53.000Z</time>
      </trkpt>
      <trkpt lat="43.62533" lon="2.27826">
        <ele>188.739843</ele>
        <time>2021-10-03T07:41:54.000Z</time>
      </trkpt>
      <trkpt lat="43.62533" lon="2.27832">
        <ele>188.905262</ele>
        <time>2021-10-03T07:41:55.000Z</time>
      </trkpt>
      <trkpt lat="43.62533" lon="2.27838">
        <ele>189.068013</ele>
        <time>2021-10-03T07:41:56.000Z</time>
      </trkpt>
      <trkpt lat="43.62533" lon="2.27844">
        <ele>189.234088</ele>
        <time>2021-10-03T07:41:57.000Z</time>
      </trkpt>
      <trkpt lat="43.62533" lon="2.27851">
        <ele>189.399507</ele>
        <time>2021-10-03T07:41:58.000Z</time>
      </trkpt>
      <trkpt lat="43.62533" lon="2.27857">
        <ele>189.55959</ele>
        <time>2021-10-03T07:41:59.000Z</time>
      </trkpt>
      <trkpt lat="43.62533" lon="2.27862">
        <ele>189.706333</ele>
        <time>2021-10-03T07:42:00.000Z</time>
      </trkpt>
      <trkpt lat="43.62533" lon="2.27869">
        <ele>189.879756</ele>
        <time>2021-10-03T07:42:01.000Z</time>
      </trkpt>
      <trkpt lat="43.62533" lon="2.27874">
        <ele>190.037171</ele>
        <time>2021-10-03T07:42:02.000Z</time>
      </trkpt>
      <trkpt lat="43.62533" lon="2.27881">
        <ele>190.202591</ele>
        <time>2021-10-03T07:42:03.000Z</time>
      </trkpt>
      <trkpt lat="43.62533" lon="2.27887">
        <ele>190.360006</ele>
        <time>2021-10-03T07:42:04.000Z</time>
      </trkpt>
      <trkpt lat="43.62533" lon="2.27892">
        <ele>190.514753</ele>
        <time>2021-10-03T07:42:05.000Z</time>
      </trkpt>
      <trkpt lat="43.62533" lon="2.27899">
        <ele>190.680172</ele>
        <time>2021-10-03T07:42:06.000Z</time>
      </trkpt>
      <trkpt lat="43.62533" lon="2.27905">
        <ele>190.845591</ele>
        <time>2021-10-03T07:42:07.000Z</time>
      </trkpt>
      <trkpt lat="43.62533" lon="2.27911">
        <ele>191.014324</ele>
        <time>2021-10-03T07:42:08.000Z</time>
      </trkpt>
      <trkpt lat="43.62532" lon="2.27917">
        <ele>191.175084</ele>
        <time>2021-10-03T07:42:09.000Z</time>
      </trkpt>
      <trkpt lat="43.62532" lon="2.27923">
        <ele>191.340873</ele>
        <time>2021-10-03T07:42:10.000Z</time>
      </trkpt>
      <trkpt lat="43.62532" lon="2.27929">
        <ele>191.495664</ele>
        <time>2021-10-03T07:42:11.000Z</time>
      </trkpt>
      <trkpt lat="43.62533" lon="2.27935">
        <ele>191.653195</ele>
        <time>2021-10-03T07:42:12.000Z</time>
      </trkpt>
      <trkpt lat="43.62533" lon="2.27941">
        <ele>191.900797</ele>
        <time>2021-10-03T07:42:13.000Z</time>
      </trkpt>
      <trkpt lat="43.62532" lon="2.27947">
        <ele>192.27165</ele>
        <time>2021-10-03T07:42:14.000Z</time>
      </trkpt>
      <trkpt lat="43.62532" lon="2.27953">
        <ele>192.640941</ele>
        <time>2021-10-03T07:42:15.000Z</time>
      </trkpt>
      <trkpt lat="43.62533" lon="2.27958">
        <ele>192.999539</ele>
        <time>2021-10-03T07:42:16.000Z</time>
      </trkpt>
      <trkpt lat="43.62533" lon="2.27964">
        <ele>193.362675</ele>
        <time>2021-10-03T07:42:17.000Z</time>
      </trkpt>
      <trkpt lat="43.62533" lon="2.2797">
        <ele>193.70902</ele>
        <time>2021-10-03T07:42:18.000Z</time>
      </trkpt>
      <trkpt lat="43.62533" lon="2.27975">
        <ele>194.041382</ele>
        <time>2021-10-03T07:42:19.000Z</time>
      </trkpt>
      <trkpt lat="43.62534" lon="2.27981">
        <ele>194.399979</ele>
        <time>2021-10-03T07:42:20.000Z</time>
      </trkpt>
      <trkpt lat="43.62534" lon="2.27987">
        <ele>194.74465</ele>
        <time>2021-10-03T07:42:21.000Z</time>
      </trkpt>
      <trkpt lat="43.62534" lon="2.27992">
        <ele>195.070857</ele>
        <time>2021-10-03T07:42:22.000Z</time>
      </trkpt>
      <trkpt lat="43.62533" lon="2.27997">
        <ele>195.356016</ele>
        <time>2021-10-03T07:42:23.000Z</time>
      </trkpt>
      <trkpt lat="43.62533" lon="2.28001">
        <ele>195.616747</ele>
        <time>2021-10-03T07:42:24.000Z</time>
      </trkpt>
      <trkpt lat="43.62532" lon="2.28005">
        <ele>195.882014</ele>
        <time>2021-10-03T07:42:25.000Z</time>
      </trkpt>
      <trkpt lat="43.62531" lon="2.2801">
        <ele>196.197184</ele>
        <time>2021-10-03T07:42:26.000Z</time>
      </trkpt>
      <trkpt lat="43.62531" lon="2.28015">
        <ele>196.5068</ele>
        <time>2021-10-03T07:42:27.000Z</time>
      </trkpt>
      <trkpt lat="43.62531" lon="2.2802">
        <ele>196.8103</ele>
        <time>2021-10-03T07:42:28.000Z</time>
      </trkpt>
      <trkpt lat="43.62529" lon="2.28025">
        <ele>197.126057</ele>
        <time>2021-10-03T07:42:29.000Z</time>
      </trkpt>
      <trkpt lat="43.62529" lon="2.28029">
        <ele>197.397326</ele>
        <time>2021-10-03T07:42:30.000Z</time>
      </trkpt>
      <trkpt lat="43.62528" lon="2.28033">
        <ele>197.652498</ele>
        <time>2021-10-03T07:42:31.000Z</time>
      </trkpt>
      <trkpt lat="43.62526" lon="2.28037">
        <ele>197.933197</ele>
        <time>2021-10-03T07:42:32.000Z</time>
      </trkpt>
      <trkpt lat="43.62525" lon="2.28041">
        <ele>198.216843</ele>
        <time>2021-10-03T07:42:33.000Z</time>
      </trkpt>
      <trkpt lat="43.62524" lon="2.28046">
        <ele>198.509177</ele>
        <time>2021-10-03T07:42:34.000Z</time>
      </trkpt>
      <trkpt lat="43.62523" lon="2.28051">
        <ele>198.807349</ele>
        <time>2021-10-03T07:42:35.000Z</time>
      </trkpt>
      <trkpt lat="43.62522" lon="2.28055">
        <ele>199.096747</ele>
        <time>2021-10-03T07:42:36.000Z</time>
      </trkpt>
      <trkpt lat="43.62521" lon="2.28059">
        <ele>199.358103</ele>
        <time>2021-10-03T07:42:37.000Z</time>
      </trkpt>
      <trkpt lat="43.6252" lon="2.28063">
        <ele>199.61572</ele>
        <time>2021-10-03T07:42:38.000Z</time>
      </trkpt>
      <trkpt lat="43.62519" lon="2.28067">
        <ele>199.908055</ele>
        <time>2021-10-03T07:42:39.000Z</time>
      </trkpt>
      <trkpt lat="43.62517" lon="2.28072">
        <ele>200.229843</ele>
        <time>2021-10-03T07:42:40.000Z</time>
      </trkpt>
      <trkpt lat="43.62516" lon="2.28077">
        <ele>200.565766</ele>
        <time>2021-10-03T07:42:41.000Z</time>
      </trkpt>
      <trkpt lat="43.62515" lon="2.28082">
        <ele>200.898892</ele>
        <time>2021-10-03T07:42:42.000Z</time>
      </trkpt>
      <trkpt lat="43.62513" lon="2.28087">
        <ele>201.205638</ele>
        <time>2021-10-03T07:42:43.000Z</time>
      </trkpt>
      <trkpt lat="43.62513" lon="2.28093">
        <ele>201.581084</ele>
        <time>2021-10-03T07:42:44.000Z</time>
      </trkpt>
      <trkpt lat="43.62513" lon="2.28099">
        <ele>201.950376</ele>
        <time>2021-10-03T07:42:45.000Z</time>
      </trkpt>
      <trkpt lat="43.62513" lon="2.28105">
        <ele>202.313781</ele>
        <time>2021-10-03T07:42:46.000Z</time>
      </trkpt>
      <trkpt lat="43.62512" lon="2.2811">
        <ele>202.651432</ele>
        <time>2021-10-03T07:42:47.000Z</time>
      </trkpt>
      <trkpt lat="43.62512" lon="2.28116">
        <ele>202.997778</ele>
        <time>2021-10-03T07:42:48.000Z</time>
      </trkpt>
      <trkpt lat="43.6251" lon="2.28121">
        <ele>203.34305</ele>
        <time>2021-10-03T07:42:49.000Z</time>
      </trkpt>
      <trkpt lat="43.6251" lon="2.28127">
        <ele>203.682303</ele>
        <time>2021-10-03T07:42:50.000Z</time>
      </trkpt>
      <trkpt lat="43.62509" lon="2.28132">
        <ele>204.033623</ele>
        <time>2021-10-03T07:42:51.000Z</time>
      </trkpt>
      <trkpt lat="43.62508" lon="2.28138">
        <ele>204.373846</ele>
        <time>2021-10-03T07:42:52.000Z</time>
      </trkpt>
      <trkpt lat="43.62508" lon="2.28143">
        <ele>204.705439</ele>
        <time>2021-10-03T07:42:53.000Z</time>
      </trkpt>
      <trkpt lat="43.62507" lon="2.28149">
        <ele>205.050724</ele>
        <time>2021-10-03T07:42:54.000Z</time>
      </trkpt>
      <trkpt lat="43.62505" lon="2.28154">
        <ele>205.38385</ele>
        <time>2021-10-03T07:42:55.000Z</time>
      </trkpt>
      <trkpt lat="43.62504" lon="2.28159">
        <ele>205.735051</ele>
        <time>2021-10-03T07:42:56.000Z</time>
      </trkpt>
      <trkpt lat="43.62504" lon="2.28165">
        <ele>206.068276</ele>
        <time>2021-10-03T07:42:57.000Z</time>
      </trkpt>
      <trkpt lat="43.62503" lon="2.2817">
        <ele>206.401501</ele>
        <time>2021-10-03T07:42:58.000Z</time>
      </trkpt>
      <trkpt lat="43.62502" lon="2.28175">
        <ele>206.734941</ele>
        <time>2021-10-03T07:42:59.000Z</time>
      </trkpt>
      <trkpt lat="43.62501" lon="2.2818">
        <ele>207.059114</ele>
        <time>2021-10-03T07:43:00.000Z</time>
      </trkpt>
      <trkpt lat="43.62499" lon="2.28186">
        <ele>207.462851</ele>
        <time>2021-10-03T07:43:01.000Z</time>
      </trkpt>
      <trkpt lat="43.62498" lon="2.28191">
        <ele>207.826173</ele>
        <time>2021-10-03T07:43:02.000Z</time>
      </trkpt>
      <trkpt lat="43.62497" lon="2.28196">
        <ele>208.13459</ele>
        <time>2021-10-03T07:43:03.000Z</time>
      </trkpt>
      <trkpt lat="43.62497" lon="2.28201">
        <ele>208.48197</ele>
        <time>2021-10-03T07:43:04.000Z</time>
      </trkpt>
      <trkpt lat="43.62496" lon="2.28206">
        <ele>208.822847</ele>
        <time>2021-10-03T07:43:05.000Z</time>
      </trkpt>
      <trkpt lat="43.62495" lon="2.28211">
        <ele>209.168397</ele>
        <time>2021-10-03T07:43:06.000Z</time>
      </trkpt>
      <trkpt lat="43.62494" lon="2.28216">
        <ele>209.522285</ele>
        <time>2021-10-03T07:43:07.000Z</time>
      </trkpt>
      <trkpt lat="43.62494" lon="2.28221">
        <ele>209.861297</ele>
        <time>2021-10-03T07:43:08.000Z</time>
      </trkpt>
      <trkpt lat="43.62493" lon="2.28226">
        <ele>210.182703</ele>
        <time>2021-10-03T07:43:09.000Z</time>
      </trkpt>
      <trkpt lat="43.62492" lon="2.28231">
        <ele>210.530083</ele>
        <time>2021-10-03T07:43:10.000Z</time>
      </trkpt>
      <trkpt lat="43.62491" lon="2.28236">
        <ele>210.871596</ele>
        <time>2021-10-03T07:43:11.000Z</time>
      </trkpt>
      <trkpt lat="43.62491" lon="2.2824">
        <ele>211.193236</ele>
        <time>2021-10-03T07:43:12.000Z</time>
      </trkpt>
      <trkpt lat="43.62489" lon="2.28245">
        <ele>211.516995</ele>
        <time>2021-10-03T07:43:13.000Z</time>
      </trkpt>
      <trkpt lat="43.62487" lon="2.28249">
        <ele>211.847657</ele>
        <time>2021-10-03T07:43:14.000Z</time>
      </trkpt>
      <trkpt lat="43.62485" lon="2.28253">
        <ele>212.171278</ele>
        <time>2021-10-03T07:43:15.000Z</time>
      </trkpt>
      <trkpt lat="43.62484" lon="2.28257">
        <ele>212.483044</ele>
        <time>2021-10-03T07:43:16.000Z</time>
      </trkpt>
      <trkpt lat="43.62482" lon="2.28261">
        <ele>212.785031</ele>
        <time>2021-10-03T07:43:17.000Z</time>
      </trkpt>
      <trkpt lat="43.6248" lon="2.28265">
        <ele>213.061543</ele>
        <time>2021-10-03T07:43:18.000Z</time>
      </trkpt>
      <trkpt lat="43.62479" lon="2.28268">
        <ele>213.33144</ele>
        <time>2021-10-03T07:43:19.000Z</time>
      </trkpt>
      <trkpt lat="43.62478" lon="2.28272">
        <ele>213.585223</ele>
        <time>2021-10-03T07:43:20.000Z</time>
      </trkpt>
      <trkpt lat="43.62476" lon="2.28275">
        <ele>213.867525</ele>
        <time>2021-10-03T07:43:21.000Z</time>
      </trkpt>
      <trkpt lat="43.62475" lon="2.2828">
        <ele>214.19302</ele>
        <time>2021-10-03T07:43:22.000Z</time>
      </trkpt>
      <trkpt lat="43.62474" lon="2.28284">
        <ele>214.456463</ele>
        <time>2021-10-03T07:43:23.000Z</time>
      </trkpt>
      <trkpt lat="43.62474" lon="2.28288">
        <ele>214.725267</ele>
        <time>2021-10-03T07:43:24.000Z</time>
      </trkpt>
      <trkpt lat="43.62474" lon="2.28292">
        <ele>215.004857</ele>
        <time>2021-10-03T07:43:25.000Z</time>
      </trkpt>
      <trkpt lat="43.62474" lon="2.28297">
        <ele>215.337701</ele>
        <time>2021-10-03T07:43:26.000Z</time>
      </trkpt>
      <trkpt lat="43.62473" lon="2.28301">
        <ele>215.64612</ele>
        <time>2021-10-03T07:43:27.000Z</time>
      </trkpt>
      <trkpt lat="43.62474" lon="2.28306">
        <ele>215.953577</ele>
        <time>2021-10-03T07:43:28.000Z</time>
      </trkpt>
      <trkpt lat="43.62474" lon="2.28311">
        <ele>216.3205</ele>
        <time>2021-10-03T07:43:29.000Z</time>
      </trkpt>
      <trkpt lat="43.62474" lon="2.28317">
        <ele>216.673315</ele>
        <time>2021-10-03T07:43:30.000Z</time>
      </trkpt>
      <trkpt lat="43.62474" lon="2.28322">
        <ele>217.020571</ele>
        <time>2021-10-03T07:43:31.000Z</time>
      </trkpt>
      <trkpt lat="43.62474" lon="2.28327">
        <ele>217.347924</ele>
        <time>2021-10-03T07:43:32.000Z</time>
      </trkpt>
      <trkpt lat="43.62474" lon="2.28332">
        <ele>217.674111</ele>
        <time>2021-10-03T07:43:33.000Z</time>
      </trkpt>
      <trkpt lat="43.62474" lon="2.28337">
        <ele>218.006956</ele>
        <time>2021-10-03T07:43:34.000Z</time>
      </trkpt>
      <trkpt lat="43.62474" lon="2.28342">
        <ele>218.333143</ele>
        <time>2021-10-03T07:43:35.000Z</time>
      </trkpt>
      <trkpt lat="43.62475" lon="2.28347">
        <ele>218.668014</ele>
        <time>2021-10-03T07:43:36.000Z</time>
      </trkpt>
      <trkpt lat="43.62475" lon="2.28351">
        <ele>218.980888</ele>
        <time>2021-10-03T07:43:37.000Z</time>
      </trkpt>
      <trkpt lat="43.62475" lon="2.28357">
        <ele>219.333703</ele>
        <time>2021-10-03T07:43:38.000Z</time>
      </trkpt>
      <trkpt lat="43.62475" lon="2.28361">
        <ele>219.646577</ele>
        <time>2021-10-03T07:43:39.000Z</time>
      </trkpt>
      <trkpt lat="43.62475" lon="2.28366">
        <ele>219.986079</ele>
        <time>2021-10-03T07:43:40.000Z</time>
      </trkpt>
      <trkpt lat="43.62475" lon="2.28371">
        <ele>220.30772</ele>
        <time>2021-10-03T07:43:41.000Z</time>
      </trkpt>
      <trkpt lat="43.62476" lon="2.28376">
        <ele>220.62063</ele>
        <time>2021-10-03T07:43:42.000Z</time>
      </trkpt>
      <trkpt lat="43.62476" lon="2.2838">
        <ele>220.876252</ele>
        <time>2021-10-03T07:43:43.000Z</time>
      </trkpt>
      <trkpt lat="43.62477" lon="2.28384">
        <ele>221.152504</ele>
        <time>2021-10-03T07:43:44.000Z</time>
      </trkpt>
      <trkpt lat="43.62478" lon="2.28388">
        <ele>221.454314</ele>
        <time>2021-10-03T07:43:45.000Z</time>
      </trkpt>
      <trkpt lat="43.62478" lon="2.28393">
        <ele>221.767188</ele>
        <time>2021-10-03T07:43:46.000Z</time>
      </trkpt>
      <trkpt lat="43.62478" lon="2.28398">
        <ele>222.082216</ele>
        <time>2021-10-03T07:43:47.000Z</time>
      </trkpt>
      <trkpt lat="43.62478" lon="2.28402">
        <ele>222.357616</ele>
        <time>2021-10-03T07:43:48.000Z</time>
      </trkpt>
      <trkpt lat="43.62477" lon="2.28406">
        <ele>222.619828</ele>
        <time>2021-10-03T07:43:49.000Z</time>
      </trkpt>
      <trkpt lat="43.62478" lon="2.2841">
        <ele>222.948083</ele>
        <time>2021-10-03T07:43:50.000Z</time>
      </trkpt>
      <trkpt lat="43.62477" lon="2.28415">
        <ele>223.230082</ele>
        <time>2021-10-03T07:43:51.000Z</time>
      </trkpt>
      <trkpt lat="43.62477" lon="2.2842">
        <ele>223.562926</ele>
        <time>2021-10-03T07:43:52.000Z</time>
      </trkpt>
      <trkpt lat="43.62478" lon="2.28425">
        <ele>223.808031</ele>
        <time>2021-10-03T07:43:53.000Z</time>
      </trkpt>
      <trkpt lat="43.62479" lon="2.28429">
        <ele>224.0433</ele>
        <time>2021-10-03T07:43:54.000Z</time>
      </trkpt>
      <trkpt lat="43.6248" lon="2.28433">
        <ele>224.255252</ele>
        <time>2021-10-03T07:43:55.000Z</time>
      </trkpt>
      <trkpt lat="43.6248" lon="2.28437">
        <ele>224.47</ele>
        <time>2021-10-03T07:43:56.000Z</time>
      </trkpt>
      <trkpt lat="43.62481" lon="2.28443">
        <ele>224.747873</ele>
        <time>2021-10-03T07:43:57.000Z</time>
      </trkpt>
      <trkpt lat="43.62482" lon="2.28448">
        <ele>225.01605</ele>
        <time>2021-10-03T07:43:58.000Z</time>
      </trkpt>
      <trkpt lat="43.62483" lon="2.28452">
        <ele>225.24077</ele>
        <time>2021-10-03T07:43:59.000Z</time>
      </trkpt>
      <trkpt lat="43.62483" lon="2.28457">
        <ele>225.48844</ele>
        <time>2021-10-03T07:44:00.000Z</time>
      </trkpt>
      <trkpt lat="43.62483" lon="2.28462">
        <ele>225.716296</ele>
        <time>2021-10-03T07:44:01.000Z</time>
      </trkpt>
      <trkpt lat="43.62483" lon="2.28467">
        <ele>225.95988</ele>
        <time>2021-10-03T07:44:02.000Z</time>
      </trkpt>
      <trkpt lat="43.62483" lon="2.28472">
        <ele>226.20755</ele>
        <time>2021-10-03T07:44:03.000Z</time>
      </trkpt>
      <trkpt lat="43.62483" lon="2.28477">
        <ele>226.446198</ele>
        <time>2021-10-03T07:44:04.000Z</time>
      </trkpt>
      <trkpt lat="43.62482" lon="2.28481">
        <ele>226.674189</ele>
        <time>2021-10-03T07:44:05.000Z</time>
      </trkpt>
      <trkpt lat="43.62482" lon="2.28486">
        <ele>226.888937</ele>
        <time>2021-10-03T07:44:06.000Z</time>
      </trkpt>
      <trkpt lat="43.62481" lon="2.28491">
        <ele>227.147793</ele>
        <time>2021-10-03T07:44:07.000Z</time>
      </trkpt>
      <trkpt lat="43.62479" lon="2.28497">
        <ele>227.506439</ele>
        <time>2021-10-03T07:44:08.000Z</time>
      </trkpt>
      <trkpt lat="43.62478" lon="2.28503">
        <ele>227.790848</ele>
        <time>2021-10-03T07:44:09.000Z</time>
      </trkpt>
      <trkpt lat="43.62477" lon="2.2851">
        <ele>228.149494</ele>
        <time>2021-10-03T07:44:10.000Z</time>
      </trkpt>
      <trkpt lat="43.62475" lon="2.28515">
        <ele>228.401038</ele>
        <time>2021-10-03T07:44:11.000Z</time>
      </trkpt>
      <trkpt lat="43.62475" lon="2.28521">
        <ele>228.714973</ele>
        <time>2021-10-03T07:44:12.000Z</time>
      </trkpt>
      <trkpt lat="43.62473" lon="2.28528">
        <ele>229.074702</ele>
        <time>2021-10-03T07:44:13.000Z</time>
      </trkpt>
      <trkpt lat="43.62472" lon="2.28534">
        <ele>229.394569</ele>
        <time>2021-10-03T07:44:14.000Z</time>
      </trkpt>
      <trkpt lat="43.6247" lon="2.2854">
        <ele>229.712469</ele>
        <time>2021-10-03T07:44:15.000Z</time>
      </trkpt>
      <trkpt lat="43.62468" lon="2.28546">
        <ele>230.032336</ele>
        <time>2021-10-03T07:44:16.000Z</time>
      </trkpt>
      <trkpt lat="43.62467" lon="2.28551">
        <ele>230.323468</ele>
        <time>2021-10-03T07:44:17.000Z</time>
      </trkpt>
      <trkpt lat="43.62467" lon="2.28557">
        <ele>230.581136</ele>
        <time>2021-10-03T07:44:18.000Z</time>
      </trkpt>
      <trkpt lat="43.62466" lon="2.28563">
        <ele>230.891961</ele>
        <time>2021-10-03T07:44:19.000Z</time>
      </trkpt>
      <trkpt lat="43.62466" lon="2.28568">
        <ele>231.1707</ele>
        <time>2021-10-03T07:44:20.000Z</time>
      </trkpt>
      <trkpt lat="43.62465" lon="2.28574">
        <ele>231.448583</ele>
        <time>2021-10-03T07:44:21.000Z</time>
      </trkpt>
      <trkpt lat="43.62465" lon="2.28578">
        <ele>231.67243</ele>
        <time>2021-10-03T07:44:22.000Z</time>
      </trkpt>
      <trkpt lat="43.62465" lon="2.28584">
        <ele>231.940002</ele>
        <time>2021-10-03T07:44:23.000Z</time>
      </trkpt>
      <trkpt lat="43.62465" lon="2.28589">
        <ele>232.217393</ele>
        <time>2021-10-03T07:44:24.000Z</time>
      </trkpt>
      <trkpt lat="43.62465" lon="2.28596">
        <ele>232.534412</ele>
        <time>2021-10-03T07:44:25.000Z</time>
      </trkpt>
      <trkpt lat="43.62465" lon="2.28602">
        <ele>232.831617</ele>
        <time>2021-10-03T07:44:26.000Z</time>
      </trkpt>
      <trkpt lat="43.62465" lon="2.28607">
        <ele>233.099101</ele>
        <time>2021-10-03T07:44:27.000Z</time>
      </trkpt>
      <trkpt lat="43.62465" lon="2.28613">
        <ele>233.391353</ele>
        <time>2021-10-03T07:44:28.000Z</time>
      </trkpt>
      <trkpt lat="43.62463" lon="2.2862">
        <ele>233.717185</ele>
        <time>2021-10-03T07:44:29.000Z</time>
      </trkpt>
      <trkpt lat="43.62462" lon="2.28626">
        <ele>234.023774</ele>
        <time>2021-10-03T07:44:30.000Z</time>
      </trkpt>
      <trkpt lat="43.62462" lon="2.28631">
        <ele>234.297583</ele>
        <time>2021-10-03T07:44:31.000Z</time>
      </trkpt>
      <trkpt lat="43.62461" lon="2.28637">
        <ele>234.590051</ele>
        <time>2021-10-03T07:44:32.000Z</time>
      </trkpt>
      <trkpt lat="43.6246" lon="2.28643">
        <ele>234.891091</ele>
        <time>2021-10-03T07:44:33.000Z</time>
      </trkpt>
      <trkpt lat="43.62459" lon="2.2865">
        <ele>235.242603</ele>
        <time>2021-10-03T07:44:34.000Z</time>
      </trkpt>
      <trkpt lat="43.62459" lon="2.28656">
        <ele>235.548535</ele>
        <time>2021-10-03T07:44:35.000Z</time>
      </trkpt>
      <trkpt lat="43.62458" lon="2.28662">
        <ele>235.874543</ele>
        <time>2021-10-03T07:44:36.000Z</time>
      </trkpt>
      <trkpt lat="43.62457" lon="2.28669">
        <ele>235.998976</ele>
        <time>2021-10-03T07:44:37.000Z</time>
      </trkpt>
      <trkpt lat="43.62455" lon="2.28675">
        <ele>236.119097</ele>
        <time>2021-10-03T07:44:38.000Z</time>
      </trkpt>
      <trkpt lat="43.62454" lon="2.28681">
        <ele>236.230097</ele>
        <time>2021-10-03T07:44:39.000Z</time>
      </trkpt>
      <trkpt lat="43.62453" lon="2.28685">
        <ele>236.308758</ele>
        <time>2021-10-03T07:44:40.000Z</time>
      </trkpt>
      <trkpt lat="43.62452" lon="2.28689">
        <ele>236.386259</ele>
        <time>2021-10-03T07:44:41.000Z</time>
      </trkpt>
      <trkpt lat="43.62451" lon="2.28695">
        <ele>236.492712</ele>
        <time>2021-10-03T07:44:42.000Z</time>
      </trkpt>
      <trkpt lat="43.62449" lon="2.28699">
        <ele>236.579571</ele>
        <time>2021-10-03T07:44:43.000Z</time>
      </trkpt>
      <trkpt lat="43.62448" lon="2.28706">
        <ele>236.698883</ele>
        <time>2021-10-03T07:44:44.000Z</time>
      </trkpt>
      <trkpt lat="43.62446" lon="2.28711">
        <ele>236.802771</ele>
        <time>2021-10-03T07:44:45.000Z</time>
      </trkpt>
      <trkpt lat="43.62443" lon="2.28716">
        <ele>236.914694</ele>
        <time>2021-10-03T07:44:46.000Z</time>
      </trkpt>
      <trkpt lat="43.62442" lon="2.28722">
        <ele>237.039045</ele>
        <time>2021-10-03T07:44:47.000Z</time>
      </trkpt>
      <trkpt lat="43.62441" lon="2.28728">
        <ele>237.144141</ele>
        <time>2021-10-03T07:44:48.000Z</time>
      </trkpt>
      <trkpt lat="43.62439" lon="2.28734">
        <ele>237.256886</ele>
        <time>2021-10-03T07:44:49.000Z</time>
      </trkpt>
      <trkpt lat="43.62439" lon="2.28741">
        <ele>237.376305</ele>
        <time>2021-10-03T07:44:50.000Z</time>
      </trkpt>
      <trkpt lat="43.62437" lon="2.28748">
        <ele>237.517701</ele>
        <time>2021-10-03T07:44:51.000Z</time>
      </trkpt>
      <trkpt lat="43.62436" lon="2.28754">
        <ele>237.634292</ele>
        <time>2021-10-03T07:44:52.000Z</time>
      </trkpt>
      <trkpt lat="43.62435" lon="2.28761">
        <ele>237.749912</ele>
        <time>2021-10-03T07:44:53.000Z</time>
      </trkpt>
      <trkpt lat="43.62434" lon="2.28767">
        <ele>237.869053</ele>
        <time>2021-10-03T07:44:54.000Z</time>
      </trkpt>
      <trkpt lat="43.62434" lon="2.28773">
        <ele>237.976646</ele>
        <time>2021-10-03T07:44:55.000Z</time>
      </trkpt>
      <trkpt lat="43.62433" lon="2.28779">
        <ele>238.090299</ele>
        <time>2021-10-03T07:44:56.000Z</time>
      </trkpt>
      <trkpt lat="43.62432" lon="2.28785">
        <ele>238.204161</ele>
        <time>2021-10-03T07:44:57.000Z</time>
      </trkpt>
      <trkpt lat="43.62431" lon="2.28792">
        <ele>238.327415</ele>
        <time>2021-10-03T07:44:58.000Z</time>
      </trkpt>
      <trkpt lat="43.6243" lon="2.28799">
        <ele>238.458925</ele>
        <time>2021-10-03T07:44:59.000Z</time>
      </trkpt>
      <trkpt lat="43.62428" lon="2.28806">
        <ele>238.590434</ele>
        <time>2021-10-03T07:45:00.000Z</time>
      </trkpt>
      <trkpt lat="43.62428" lon="2.28813">
        <ele>238.72237</ele>
        <time>2021-10-03T07:45:01.000Z</time>
      </trkpt>
      <trkpt lat="43.62428" lon="2.28819">
        <ele>238.834694</ele>
        <time>2021-10-03T07:45:02.000Z</time>
      </trkpt>
      <trkpt lat="43.62427" lon="2.28825">
        <ele>238.94477</ele>
        <time>2021-10-03T07:45:03.000Z</time>
      </trkpt>
      <trkpt lat="43.62426" lon="2.28832">
        <ele>239.062404</ele>
        <time>2021-10-03T07:45:04.000Z</time>
      </trkpt>
      <trkpt lat="43.62425" lon="2.28838">
        <ele>239.185073</ele>
        <time>2021-10-03T07:45:05.000Z</time>
      </trkpt>
      <trkpt lat="43.62425" lon="2.28845">
        <ele>239.312254</ele>
        <time>2021-10-03T07:45:06.000Z</time>
      </trkpt>
      <trkpt lat="43.62424" lon="2.28852">
        <ele>239.42632</ele>
        <time>2021-10-03T07:45:07.000Z</time>
      </trkpt>
      <trkpt lat="43.62423" lon="2.28858">
        <ele>239.545346</ele>
        <time>2021-10-03T07:45:08.000Z</time>
      </trkpt>
      <trkpt lat="43.62423" lon="2.28865">
        <ele>239.668915</ele>
        <time>2021-10-03T07:45:09.000Z</time>
      </trkpt>
      <trkpt lat="43.62422" lon="2.28872">
        <ele>239.796096</ele>
        <time>2021-10-03T07:45:10.000Z</time>
      </trkpt>
      <trkpt lat="43.62422" lon="2.28879">
        <ele>239.920499</ele>
        <time>2021-10-03T07:45:11.000Z</time>
      </trkpt>
      <trkpt lat="43.62421" lon="2.28886">
        <ele>240.049485</ele>
        <time>2021-10-03T07:45:12.000Z</time>
      </trkpt>
      <trkpt lat="43.62421" lon="2.28893">
        <ele>240.174485</ele>
        <time>2021-10-03T07:45:13.000Z</time>
      </trkpt>
      <trkpt lat="43.62421" lon="2.289">
        <ele>240.303301</ele>
        <time>2021-10-03T07:45:14.000Z</time>
      </trkpt>
      <trkpt lat="43.62421" lon="2.28906">
        <ele>240.484459</ele>
        <time>2021-10-03T07:45:15.000Z</time>
      </trkpt>
      <trkpt lat="43.62421" lon="2.28913">
        <ele>240.739454</ele>
        <time>2021-10-03T07:45:16.000Z</time>
      </trkpt>
      <trkpt lat="43.62421" lon="2.28919">
        <ele>241.001867</ele>
        <time>2021-10-03T07:45:17.000Z</time>
      </trkpt>
      <trkpt lat="43.62422" lon="2.28926">
        <ele>241.251357</ele>
        <time>2021-10-03T07:45:18.000Z</time>
      </trkpt>
      <trkpt lat="43.62422" lon="2.28932">
        <ele>241.491491</ele>
        <time>2021-10-03T07:45:19.000Z</time>
      </trkpt>
      <trkpt lat="43.62423" lon="2.28937">
        <ele>241.709608</ele>
        <time>2021-10-03T07:45:20.000Z</time>
      </trkpt>
      <trkpt lat="43.62424" lon="2.28942">
        <ele>241.924867</ele>
        <time>2021-10-03T07:45:21.000Z</time>
      </trkpt>
      <trkpt lat="43.62424" lon="2.28948">
        <ele>242.144646</ele>
        <time>2021-10-03T07:45:22.000Z</time>
      </trkpt>
      <trkpt lat="43.62425" lon="2.28954">
        <ele>242.405928</ele>
        <time>2021-10-03T07:45:23.000Z</time>
      </trkpt>
      <trkpt lat="43.62425" lon="2.2896">
        <ele>242.628582</ele>
        <time>2021-10-03T07:45:24.000Z</time>
      </trkpt>
      <trkpt lat="43.62426" lon="2.28966">
        <ele>242.859432</ele>
        <time>2021-10-03T07:45:25.000Z</time>
      </trkpt>
      <trkpt lat="43.62426" lon="2.28972">
        <ele>243.098999</ele>
        <time>2021-10-03T07:45:26.000Z</time>
      </trkpt>
      <trkpt lat="43.62427" lon="2.28978">
        <ele>243.352419</ele>
        <time>2021-10-03T07:45:27.000Z</time>
      </trkpt>
      <trkpt lat="43.62428" lon="2.28984">
        <ele>243.583269</ele>
        <time>2021-10-03T07:45:28.000Z</time>
      </trkpt>
      <trkpt lat="43.62428" lon="2.2899">
        <ele>243.832759</ele>
        <time>2021-10-03T07:45:29.000Z</time>
      </trkpt>
      <trkpt lat="43.62429" lon="2.28996">
        <ele>244.064409</ele>
        <time>2021-10-03T07:45:30.000Z</time>
      </trkpt>
      <trkpt lat="43.62429" lon="2.29002">
        <ele>244.310891</ele>
        <time>2021-10-03T07:45:31.000Z</time>
      </trkpt>
      <trkpt lat="43.6243" lon="2.29008">
        <ele>244.560381</ele>
        <time>2021-10-03T07:45:32.000Z</time>
      </trkpt>
      <trkpt lat="43.62431" lon="2.29014">
        <ele>244.807876</ele>
        <time>2021-10-03T07:45:33.000Z</time>
      </trkpt>
      <trkpt lat="43.62432" lon="2.2902">
        <ele>245.046537</ele>
        <time>2021-10-03T07:45:34.000Z</time>
      </trkpt>
      <trkpt lat="43.62433" lon="2.29026">
        <ele>245.292627</ele>
        <time>2021-10-03T07:45:35.000Z</time>
      </trkpt>
      <trkpt lat="43.62434" lon="2.29032">
        <ele>245.554773</ele>
        <time>2021-10-03T07:45:36.000Z</time>
      </trkpt>
      <trkpt lat="43.62435" lon="2.29038">
        <ele>245.780722</ele>
        <time>2021-10-03T07:45:37.000Z</time>
      </trkpt>
      <trkpt lat="43.62436" lon="2.29043">
        <ele>245.992089</ele>
        <time>2021-10-03T07:45:38.000Z</time>
      </trkpt>
      <trkpt lat="43.62436" lon="2.29049">
        <ele>246.221957</ele>
        <time>2021-10-03T07:45:39.000Z</time>
      </trkpt>
      <trkpt lat="43.62437" lon="2.29054">
        <ele>246.450352</ele>
        <time>2021-10-03T07:45:40.000Z</time>
      </trkpt>
      <trkpt lat="43.62438" lon="2.2906">
        <ele>246.669503</ele>
        <time>2021-10-03T07:45:41.000Z</time>
      </trkpt>
      <trkpt lat="43.62439" lon="2.29066">
        <ele>246.915593</ele>
        <time>2021-10-03T07:45:42.000Z</time>
      </trkpt>
      <trkpt lat="43.6244" lon="2.29071">
        <ele>247.135371</ele>
        <time>2021-10-03T07:45:43.000Z</time>
      </trkpt>
      <trkpt lat="43.6244" lon="2.29076">
        <ele>247.341758</ele>
        <time>2021-10-03T07:45:44.000Z</time>
      </trkpt>
      <trkpt lat="43.62441" lon="2.29082">
        <ele>247.556529</ele>
        <time>2021-10-03T07:45:45.000Z</time>
      </trkpt>
      <trkpt lat="43.62441" lon="2.29087">
        <ele>247.766823</ele>
        <time>2021-10-03T07:45:46.000Z</time>
      </trkpt>
      <trkpt lat="43.62442" lon="2.29092">
        <ele>247.989872</ele>
        <time>2021-10-03T07:45:47.000Z</time>
      </trkpt>
      <trkpt lat="43.62442" lon="2.29098">
        <ele>248.213606</ele>
        <time>2021-10-03T07:45:48.000Z</time>
      </trkpt>
      <trkpt lat="43.62443" lon="2.29104">
        <ele>248.447395</ele>
        <time>2021-10-03T07:45:49.000Z</time>
      </trkpt>
      <trkpt lat="43.62443" lon="2.29109">
        <ele>248.666141</ele>
        <time>2021-10-03T07:45:50.000Z</time>
      </trkpt>
      <trkpt lat="43.62443" lon="2.29116">
        <ele>248.91265</ele>
        <time>2021-10-03T07:45:51.000Z</time>
      </trkpt>
      <trkpt lat="43.62444" lon="2.29122">
        <ele>249.173931</ele>
        <time>2021-10-03T07:45:52.000Z</time>
      </trkpt>
      <trkpt lat="43.62444" lon="2.29129">
        <ele>249.4333</ele>
        <time>2021-10-03T07:45:53.000Z</time>
      </trkpt>
      <trkpt lat="43.62445" lon="2.29135">
        <ele>249.696631</ele>
        <time>2021-10-03T07:45:54.000Z</time>
      </trkpt>
      <trkpt lat="43.62445" lon="2.29142">
        <ele>249.951092</ele>
        <time>2021-10-03T07:45:55.000Z</time>
      </trkpt>
      <trkpt lat="43.62445" lon="2.29149">
        <ele>250.23599</ele>
        <time>2021-10-03T07:45:56.000Z</time>
      </trkpt>
      <trkpt lat="43.62446" lon="2.29156">
        <ele>250.397842</ele>
        <time>2021-10-03T07:45:57.000Z</time>
      </trkpt>
      <trkpt lat="43.62446" lon="2.29164">
        <ele>250.559137</ele>
        <time>2021-10-03T07:45:58.000Z</time>
      </trkpt>
      <trkpt lat="43.62447" lon="2.29172">
        <ele>250.718399</ele>
        <time>2021-10-03T07:45:59.000Z</time>
      </trkpt>
      <trkpt lat="43.62447" lon="2.29178">
        <ele>250.849839</ele>
        <time>2021-10-03T07:46:00.000Z</time>
      </trkpt>
      <trkpt lat="43.62448" lon="2.29186">
        <ele>251.014733</ele>
        <time>2021-10-03T07:46:01.000Z</time>
      </trkpt>
      <trkpt lat="43.62449" lon="2.29194">
        <ele>251.166601</ele>
        <time>2021-10-03T07:46:02.000Z</time>
      </trkpt>
      <trkpt lat="43.6245" lon="2.29201">
        <ele>251.316976</ele>
        <time>2021-10-03T07:46:03.000Z</time>
      </trkpt>
      <trkpt lat="43.62451" lon="2.29208">
        <ele>251.468844</ele>
        <time>2021-10-03T07:46:04.000Z</time>
      </trkpt>
      <trkpt lat="43.62452" lon="2.29215">
        <ele>251.61795</ele>
        <time>2021-10-03T07:46:05.000Z</time>
      </trkpt>
      <trkpt lat="43.62452" lon="2.29223">
        <ele>251.762995</ele>
        <time>2021-10-03T07:46:06.000Z</time>
      </trkpt>
      <trkpt lat="43.62453" lon="2.29229">
        <ele>251.90532</ele>
        <time>2021-10-03T07:46:07.000Z</time>
      </trkpt>
      <trkpt lat="43.62453" lon="2.29236">
        <ele>252.047228</ele>
        <time>2021-10-03T07:46:08.000Z</time>
      </trkpt>
      <trkpt lat="43.62454" lon="2.29243">
        <ele>252.188211</ele>
        <time>2021-10-03T07:46:09.000Z</time>
      </trkpt>
      <trkpt lat="43.62454" lon="2.2925">
        <ele>252.333256</ele>
        <time>2021-10-03T07:46:10.000Z</time>
      </trkpt>
      <trkpt lat="43.62455" lon="2.29257">
        <ele>252.47627</ele>
        <time>2021-10-03T07:46:11.000Z</time>
      </trkpt>
      <trkpt lat="43.62455" lon="2.29264">
        <ele>252.621315</ele>
        <time>2021-10-03T07:46:12.000Z</time>
      </trkpt>
      <trkpt lat="43.62455" lon="2.29272">
        <ele>252.767959</ele>
        <time>2021-10-03T07:46:13.000Z</time>
      </trkpt>
      <trkpt lat="43.62455" lon="2.29279">
        <ele>252.916879</ele>
        <time>2021-10-03T07:46:14.000Z</time>
      </trkpt>
      <trkpt lat="43.62456" lon="2.29286">
        <ele>253.063955</ele>
        <time>2021-10-03T07:46:15.000Z</time>
      </trkpt>
      <trkpt lat="43.62456" lon="2.29293">
        <ele>253.206969</ele>
        <time>2021-10-03T07:46:16.000Z</time>
      </trkpt>
      <trkpt lat="43.62457" lon="2.293">
        <ele>253.354044</ele>
        <time>2021-10-03T07:46:17.000Z</time>
      </trkpt>
      <trkpt lat="43.62457" lon="2.29308">
        <ele>253.500688</ele>
        <time>2021-10-03T07:46:18.000Z</time>
      </trkpt>
      <trkpt lat="43.62457" lon="2.29315">
        <ele>253.645733</ele>
        <time>2021-10-03T07:46:19.000Z</time>
      </trkpt>
      <trkpt lat="43.62457" lon="2.29322">
        <ele>253.78652</ele>
        <time>2021-10-03T07:46:20.000Z</time>
      </trkpt>
      <trkpt lat="43.62458" lon="2.29328">
        <ele>253.923443</ele>
        <time>2021-10-03T07:46:21.000Z</time>
      </trkpt>
      <trkpt lat="43.62458" lon="2.29336">
        <ele>254.072151</ele>
        <time>2021-10-03T07:46:22.000Z</time>
      </trkpt>
      <trkpt lat="43.62458" lon="2.29343">
        <ele>254.214721</ele>
        <time>2021-10-03T07:46:23.000Z</time>
      </trkpt>
      <trkpt lat="43.62457" lon="2.2935">
        <ele>254.359766</ele>
        <time>2021-10-03T07:46:24.000Z</time>
      </trkpt>
      <trkpt lat="43.62457" lon="2.29357">
        <ele>254.50278</ele>
        <time>2021-10-03T07:46:25.000Z</time>
      </trkpt>
      <trkpt lat="43.62457" lon="2.29363">
        <ele>254.641734</ele>
        <time>2021-10-03T07:46:26.000Z</time>
      </trkpt>
      <trkpt lat="43.62456" lon="2.2937">
        <ele>254.782521</ele>
        <time>2021-10-03T07:46:27.000Z</time>
      </trkpt>
      <trkpt lat="43.62455" lon="2.29377">
        <ele>254.924846</ele>
        <time>2021-10-03T07:46:28.000Z</time>
      </trkpt>
      <trkpt lat="43.62455" lon="2.29384">
        <ele>255.0638</ele>
        <time>2021-10-03T07:46:29.000Z</time>
      </trkpt>
      <trkpt lat="43.62454" lon="2.29391">
        <ele>255.199659</ele>
        <time>2021-10-03T07:46:30.000Z</time>
      </trkpt>
      <trkpt lat="43.62453" lon="2.29397">
        <ele>255.331157</ele>
        <time>2021-10-03T07:46:31.000Z</time>
      </trkpt>
      <trkpt lat="43.62452" lon="2.29404">
        <ele>255.426448</ele>
        <time>2021-10-03T07:46:32.000Z</time>
      </trkpt>
      <trkpt lat="43.62451" lon="2.2941">
        <ele>255.520568</ele>
        <time>2021-10-03T07:46:33.000Z</time>
      </trkpt>
      <trkpt lat="43.62451" lon="2.29417">
        <ele>255.613691</ele>
        <time>2021-10-03T07:46:34.000Z</time>
      </trkpt>
      <trkpt lat="43.6245" lon="2.29423">
        <ele>255.706815</ele>
        <time>2021-10-03T07:46:35.000Z</time>
      </trkpt>
      <trkpt lat="43.6245" lon="2.2943">
        <ele>255.803449</ele>
        <time>2021-10-03T07:46:36.000Z</time>
      </trkpt>
      <trkpt lat="43.62449" lon="2.29437">
        <ele>255.908495</ele>
        <time>2021-10-03T07:46:37.000Z</time>
      </trkpt>
      <trkpt lat="43.62448" lon="2.29444">
        <ele>256.01248</ele>
        <time>2021-10-03T07:46:38.000Z</time>
      </trkpt>
      <trkpt lat="43.62447" lon="2.29452">
        <ele>256.119288</ele>
        <time>2021-10-03T07:46:39.000Z</time>
      </trkpt>
      <trkpt lat="43.62446" lon="2.2946">
        <ele>256.232728</ele>
        <time>2021-10-03T07:46:40.000Z</time>
      </trkpt>
      <trkpt lat="43.62445" lon="2.29467">
        <ele>256.345187</ele>
        <time>2021-10-03T07:46:41.000Z</time>
      </trkpt>
      <trkpt lat="43.62444" lon="2.29475">
        <ele>256.457645</ele>
        <time>2021-10-03T07:46:42.000Z</time>
      </trkpt>
      <trkpt lat="43.62444" lon="2.29483">
        <ele>256.56418</ele>
        <time>2021-10-03T07:46:43.000Z</time>
      </trkpt>
      <trkpt lat="43.62443" lon="2.2949">
        <ele>256.6724</ele>
        <time>2021-10-03T07:46:44.000Z</time>
      </trkpt>
      <trkpt lat="43.62442" lon="2.29498">
        <ele>256.783182</ele>
        <time>2021-10-03T07:46:45.000Z</time>
      </trkpt>
      <trkpt lat="43.62441" lon="2.29505">
        <ele>256.892815</ele>
        <time>2021-10-03T07:46:46.000Z</time>
      </trkpt>
      <trkpt lat="43.62441" lon="2.29513">
        <ele>256.999623</ele>
        <time>2021-10-03T07:46:47.000Z</time>
      </trkpt>
      <trkpt lat="43.62439" lon="2.2952">
        <ele>257.111662</ele>
        <time>2021-10-03T07:46:48.000Z</time>
      </trkpt>
      <trkpt lat="43.62438" lon="2.29528">
        <ele>257.219503</ele>
        <time>2021-10-03T07:46:49.000Z</time>
      </trkpt>
      <trkpt lat="43.62438" lon="2.29536">
        <ele>257.330548</ele>
        <time>2021-10-03T07:46:50.000Z</time>
      </trkpt>
      <trkpt lat="43.62437" lon="2.29543">
        <ele>257.438769</ele>
        <time>2021-10-03T07:46:51.000Z</time>
      </trkpt>
      <trkpt lat="43.62436" lon="2.29551">
        <ele>257.552209</ele>
        <time>2021-10-03T07:46:52.000Z</time>
      </trkpt>
      <trkpt lat="43.62435" lon="2.29558">
        <ele>257.66005</ele>
        <time>2021-10-03T07:46:53.000Z</time>
      </trkpt>
      <trkpt lat="43.62434" lon="2.29566">
        <ele>257.771095</ele>
        <time>2021-10-03T07:46:54.000Z</time>
      </trkpt>
      <trkpt lat="43.62433" lon="2.29573">
        <ele>257.879316</ele>
        <time>2021-10-03T07:46:55.000Z</time>
      </trkpt>
      <trkpt lat="43.62432" lon="2.29581">
        <ele>257.988948</ele>
        <time>2021-10-03T07:46:56.000Z</time>
      </trkpt>
      <trkpt lat="43.62431" lon="2.29589">
        <ele>258.096899</ele>
        <time>2021-10-03T07:46:57.000Z</time>
      </trkpt>
      <trkpt lat="43.62431" lon="2.29596">
        <ele>258.206532</ele>
        <time>2021-10-03T07:46:58.000Z</time>
      </trkpt>
      <trkpt lat="43.6243" lon="2.29603">
        <ele>258.311651</ele>
        <time>2021-10-03T07:46:59.000Z</time>
      </trkpt>
      <trkpt lat="43.6243" lon="2.29611">
        <ele>258.414735</ele>
        <time>2021-10-03T07:47:00.000Z</time>
      </trkpt>
      <trkpt lat="43.62429" lon="2.29618">
        <ele>258.527194</ele>
        <time>2021-10-03T07:47:01.000Z</time>
      </trkpt>
      <trkpt lat="43.62428" lon="2.29626">
        <ele>258.634002</ele>
        <time>2021-10-03T07:47:02.000Z</time>
      </trkpt>
      <trkpt lat="43.62427" lon="2.29633">
        <ele>258.741953</ele>
        <time>2021-10-03T07:47:03.000Z</time>
      </trkpt>
      <trkpt lat="43.62426" lon="2.29641">
        <ele>258.850173</ele>
        <time>2021-10-03T07:47:04.000Z</time>
      </trkpt>
      <trkpt lat="43.62426" lon="2.29648">
        <ele>258.831864</ele>
        <time>2021-10-03T07:47:05.000Z</time>
      </trkpt>
      <trkpt lat="43.62425" lon="2.29656">
        <ele>258.798202</ele>
        <time>2021-10-03T07:47:06.000Z</time>
      </trkpt>
      <trkpt lat="43.62425" lon="2.29663">
        <ele>258.765239</ele>
        <time>2021-10-03T07:47:07.000Z</time>
      </trkpt>
      <trkpt lat="43.62424" lon="2.29671">
        <ele>258.732444</ele>
        <time>2021-10-03T07:47:08.000Z</time>
      </trkpt>
      <trkpt lat="43.62423" lon="2.29678">
        <ele>258.702338</ele>
        <time>2021-10-03T07:47:09.000Z</time>
      </trkpt>
      <trkpt lat="43.62422" lon="2.29685">
        <ele>258.671276</ele>
        <time>2021-10-03T07:47:10.000Z</time>
      </trkpt>
      <trkpt lat="43.62422" lon="2.29692">
        <ele>258.639868</ele>
        <time>2021-10-03T07:47:11.000Z</time>
      </trkpt>
      <trkpt lat="43.62421" lon="2.29698">
        <ele>258.610631</ele>
        <time>2021-10-03T07:47:12.000Z</time>
      </trkpt>
      <trkpt lat="43.62419" lon="2.29707">
        <ele>258.572983</ele>
        <time>2021-10-03T07:47:13.000Z</time>
      </trkpt>
      <trkpt lat="43.62418" lon="2.29714">
        <ele>258.538459</ele>
        <time>2021-10-03T07:47:14.000Z</time>
      </trkpt>
      <trkpt lat="43.62417" lon="2.29722">
        <ele>258.505347</ele>
        <time>2021-10-03T07:47:15.000Z</time>
      </trkpt>
      <trkpt lat="43.62417" lon="2.29729">
        <ele>258.473695</ele>
        <time>2021-10-03T07:47:16.000Z</time>
      </trkpt>
      <trkpt lat="43.62415" lon="2.29736">
        <ele>258.442727</ele>
        <time>2021-10-03T07:47:17.000Z</time>
      </trkpt>
      <trkpt lat="43.62415" lon="2.29742">
        <ele>258.416847</ele>
        <time>2021-10-03T07:47:18.000Z</time>
      </trkpt>
      <trkpt lat="43.62414" lon="2.29747">
        <ele>258.392182</ele>
        <time>2021-10-03T07:47:19.000Z</time>
      </trkpt>
      <trkpt lat="43.62413" lon="2.29752">
        <ele>258.370165</ele>
        <time>2021-10-03T07:47:20.000Z</time>
      </trkpt>
      <trkpt lat="43.62414" lon="2.29756">
        <ele>258.351597</ele>
        <time>2021-10-03T07:47:21.000Z</time>
      </trkpt>
      <trkpt lat="43.62415" lon="2.2976">
        <ele>258.333685</ele>
        <time>2021-10-03T07:47:22.000Z</time>
      </trkpt>
      <trkpt lat="43.62418" lon="2.29763">
        <ele>258.314227</ele>
        <time>2021-10-03T07:47:23.000Z</time>
      </trkpt>
      <trkpt lat="43.62421" lon="2.29766">
        <ele>258.292547</ele>
        <time>2021-10-03T07:47:24.000Z</time>
      </trkpt>
      <trkpt lat="43.62424" lon="2.29769">
        <ele>258.268579</ele>
        <time>2021-10-03T07:47:25.000Z</time>
      </trkpt>
      <trkpt lat="43.62428" lon="2.29772">
        <ele>258.241857</ele>
        <time>2021-10-03T07:47:26.000Z</time>
      </trkpt>
      <trkpt lat="43.62431" lon="2.29775">
        <ele>258.213941</ele>
        <time>2021-10-03T07:47:27.000Z</time>
      </trkpt>
      <trkpt lat="43.62436" lon="2.2978">
        <ele>258.182304</ele>
        <time>2021-10-03T07:47:28.000Z</time>
      </trkpt>
      <trkpt lat="43.6244" lon="2.29783">
        <ele>258.151904</ele>
        <time>2021-10-03T07:47:29.000Z</time>
      </trkpt>
      <trkpt lat="43.62444" lon="2.29788">
        <ele>258.12025</ele>
        <time>2021-10-03T07:47:30.000Z</time>
      </trkpt>
      <trkpt lat="43.62448" lon="2.29792">
        <ele>258.088595</ele>
        <time>2021-10-03T07:47:31.000Z</time>
      </trkpt>
      <trkpt lat="43.62452" lon="2.29796">
        <ele>258.060445</ele>
        <time>2021-10-03T07:47:32.000Z</time>
      </trkpt>
      <trkpt lat="43.62457" lon="2.29799">
        <ele>258.029388</ele>
        <time>2021-10-03T07:47:33.000Z</time>
      </trkpt>
      <trkpt lat="43.62461" lon="2.29802">
        <ele>257.999603</ele>
        <time>2021-10-03T07:47:34.000Z</time>
      </trkpt>
      <trkpt lat="43.62465" lon="2.29806">
        <ele>257.970346</ele>
        <time>2021-10-03T07:47:35.000Z</time>
      </trkpt>
      <trkpt lat="43.62469" lon="2.2981">
        <ele>257.939704</ele>
        <time>2021-10-03T07:47:36.000Z</time>
      </trkpt>
      <trkpt lat="43.62473" lon="2.29814">
        <ele>257.908534</ele>
        <time>2021-10-03T07:47:37.000Z</time>
      </trkpt>
      <trkpt lat="43.62478" lon="2.29818">
        <ele>257.877139</ele>
        <time>2021-10-03T07:47:38.000Z</time>
      </trkpt>
      <trkpt lat="43.62482" lon="2.29822">
        <ele>257.846496</ele>
        <time>2021-10-03T07:47:39.000Z</time>
      </trkpt>
      <trkpt lat="43.62486" lon="2.29826">
        <ele>257.817849</ele>
        <time>2021-10-03T07:47:40.000Z</time>
      </trkpt>
      <trkpt lat="43.62489" lon="2.2983">
        <ele>257.79109</ele>
        <time>2021-10-03T07:47:41.000Z</time>
      </trkpt>
      <trkpt lat="43.62493" lon="2.29833">
        <ele>257.727774</ele>
        <time>2021-10-03T07:47:42.000Z</time>
      </trkpt>
      <trkpt lat="43.62496" lon="2.29837">
        <ele>257.59823</ele>
        <time>2021-10-03T07:47:43.000Z</time>
      </trkpt>
      <trkpt lat="43.62499" lon="2.29841">
        <ele>257.461544</ele>
        <time>2021-10-03T07:47:44.000Z</time>
      </trkpt>
      <trkpt lat="43.62501" lon="2.29844">
        <ele>257.361778</ele>
        <time>2021-10-03T07:47:45.000Z</time>
      </trkpt>
      <trkpt lat="43.62503" lon="2.29847">
        <ele>257.271212</ele>
        <time>2021-10-03T07:47:46.000Z</time>
      </trkpt>
      <trkpt lat="43.62504" lon="2.2985">
        <ele>257.173705</ele>
        <time>2021-10-03T07:47:47.000Z</time>
      </trkpt>
      <trkpt lat="43.62506" lon="2.29854">
        <ele>257.07032</ele>
        <time>2021-10-03T07:47:48.000Z</time>
      </trkpt>
      <trkpt lat="43.62509" lon="2.29857">
        <ele>256.957329</ele>
        <time>2021-10-03T07:47:49.000Z</time>
      </trkpt>
      <trkpt lat="43.62511" lon="2.29862">
        <ele>256.812009</ele>
        <time>2021-10-03T07:47:50.000Z</time>
      </trkpt>
      <trkpt lat="43.62514" lon="2.29867">
        <ele>256.660566</ele>
        <time>2021-10-03T07:47:51.000Z</time>
      </trkpt>
      <trkpt lat="43.62518" lon="2.29872">
        <ele>256.491107</ele>
        <time>2021-10-03T07:47:52.000Z</time>
      </trkpt>
      <trkpt lat="43.62523" lon="2.29876">
        <ele>256.31793</ele>
        <time>2021-10-03T07:47:53.000Z</time>
      </trkpt>
      <trkpt lat="43.62528" lon="2.29879">
        <ele>256.136254</ele>
        <time>2021-10-03T07:47:54.000Z</time>
      </trkpt>
      <trkpt lat="43.62534" lon="2.29882">
        <ele>255.933265</ele>
        <time>2021-10-03T07:47:55.000Z</time>
      </trkpt>
      <trkpt lat="43.62539" lon="2.29883">
        <ele>255.74365</ele>
        <time>2021-10-03T07:47:56.000Z</time>
      </trkpt>
      <trkpt lat="43.62545" lon="2.29884">
        <ele>255.566838</ele>
        <time>2021-10-03T07:47:57.000Z</time>
      </trkpt>
      <trkpt lat="43.6255" lon="2.29884">
        <ele>255.38078</ele>
        <time>2021-10-03T07:47:58.000Z</time>
      </trkpt>
      <trkpt lat="43.62556" lon="2.29885">
        <ele>255.203464</ele>
        <time>2021-10-03T07:47:59.000Z</time>
      </trkpt>
      <trkpt lat="43.62561" lon="2.29886">
        <ele>255.041235</ele>
        <time>2021-10-03T07:48:00.000Z</time>
      </trkpt>
      <trkpt lat="43.62566" lon="2.29887">
        <ele>254.876182</ele>
        <time>2021-10-03T07:48:01.000Z</time>
      </trkpt>
      <trkpt lat="43.62571" lon="2.29889">
        <ele>254.709869</ele>
        <time>2021-10-03T07:48:02.000Z</time>
      </trkpt>
      <trkpt lat="43.62575" lon="2.2989">
        <ele>254.569021</ele>
        <time>2021-10-03T07:48:03.000Z</time>
      </trkpt>
      <trkpt lat="43.62579" lon="2.29892">
        <ele>254.424948</ele>
        <time>2021-10-03T07:48:04.000Z</time>
      </trkpt>
      <trkpt lat="43.62583" lon="2.29894">
        <ele>254.293989</ele>
        <time>2021-10-03T07:48:05.000Z</time>
      </trkpt>
      <trkpt lat="43.62587" lon="2.29897">
        <ele>254.143952</ele>
        <time>2021-10-03T07:48:06.000Z</time>
      </trkpt>
      <trkpt lat="43.62591" lon="2.299">
        <ele>254.000086</ele>
        <time>2021-10-03T07:48:07.000Z</time>
      </trkpt>
      <trkpt lat="43.62595" lon="2.29903">
        <ele>253.849748</ele>
        <time>2021-10-03T07:48:08.000Z</time>
      </trkpt>
      <trkpt lat="43.62599" lon="2.29906">
        <ele>253.710445</ele>
        <time>2021-10-03T07:48:09.000Z</time>
      </trkpt>
      <trkpt lat="43.62603" lon="2.29909">
        <ele>253.560286</ele>
        <time>2021-10-03T07:48:10.000Z</time>
      </trkpt>
      <trkpt lat="43.62607" lon="2.29911">
        <ele>253.410249</ele>
        <time>2021-10-03T07:48:11.000Z</time>
      </trkpt>
      <trkpt lat="43.62611" lon="2.29914">
        <ele>253.25213</ele>
        <time>2021-10-03T07:48:12.000Z</time>
      </trkpt>
      <trkpt lat="43.62616" lon="2.29919">
        <ele>253.061613</ele>
        <time>2021-10-03T07:48:13.000Z</time>
      </trkpt>
      <trkpt lat="43.6262" lon="2.29924">
        <ele>252.892155</ele>
        <time>2021-10-03T07:48:14.000Z</time>
      </trkpt>
      <trkpt lat="43.62623" lon="2.29929">
        <ele>252.726318</ele>
        <time>2021-10-03T07:48:15.000Z</time>
      </trkpt>
      <trkpt lat="43.62627" lon="2.29934">
        <ele>252.552027</ele>
        <time>2021-10-03T07:48:16.000Z</time>
      </trkpt>
      <trkpt lat="43.62631" lon="2.29941">
        <ele>252.348177</ele>
        <time>2021-10-03T07:48:17.000Z</time>
      </trkpt>
      <trkpt lat="43.62635" lon="2.29947">
        <ele>252.158266</ele>
        <time>2021-10-03T07:48:18.000Z</time>
      </trkpt>
      <trkpt lat="43.62638" lon="2.29954">
        <ele>251.977745</ele>
        <time>2021-10-03T07:48:19.000Z</time>
      </trkpt>
      <trkpt lat="43.6264" lon="2.2996">
        <ele>251.635504</ele>
        <time>2021-10-03T07:48:20.000Z</time>
      </trkpt>
      <trkpt lat="43.62641" lon="2.29968">
        <ele>251.168465</ele>
        <time>2021-10-03T07:48:21.000Z</time>
      </trkpt>
      <trkpt lat="43.62643" lon="2.29975">
        <ele>250.715575</ele>
        <time>2021-10-03T07:48:22.000Z</time>
      </trkpt>
      <trkpt lat="43.62644" lon="2.29982">
        <ele>250.270978</ele>
        <time>2021-10-03T07:48:23.000Z</time>
      </trkpt>
      <trkpt lat="43.62645" lon="2.29989">
        <ele>249.812831</ele>
        <time>2021-10-03T07:48:24.000Z</time>
      </trkpt>
      <trkpt lat="43.62644" lon="2.29996">
        <ele>249.407901</ele>
        <time>2021-10-03T07:48:25.000Z</time>
      </trkpt>
      <trkpt lat="43.62644" lon="2.30003">
        <ele>248.967027</ele>
        <time>2021-10-03T07:48:26.000Z</time>
      </trkpt>
      <trkpt lat="43.62644" lon="2.3001">
        <ele>248.51875</ele>
        <time>2021-10-03T07:48:27.000Z</time>
      </trkpt>
      <trkpt lat="43.62644" lon="2.30018">
        <ele>248.052692</ele>
        <time>2021-10-03T07:48:28.000Z</time>
      </trkpt>
      <trkpt lat="43.62644" lon="2.30026">
        <ele>247.55606</ele>
        <time>2021-10-03T07:48:29.000Z</time>
      </trkpt>
      <trkpt lat="43.62644" lon="2.30034">
        <ele>247.090001</ele>
        <time>2021-10-03T07:48:30.000Z</time>
      </trkpt>
      <trkpt lat="43.62644" lon="2.30042">
        <ele>246.605599</ele>
        <time>2021-10-03T07:48:31.000Z</time>
      </trkpt>
      <trkpt lat="43.62644" lon="2.3005">
        <ele>246.102851</ele>
        <time>2021-10-03T07:48:32.000Z</time>
      </trkpt>
      <trkpt lat="43.62643" lon="2.30057">
        <ele>245.632589</ele>
        <time>2021-10-03T07:48:33.000Z</time>
      </trkpt>
      <trkpt lat="43.62642" lon="2.30065">
        <ele>245.174443</ele>
        <time>2021-10-03T07:48:34.000Z</time>
      </trkpt>
      <trkpt lat="43.62643" lon="2.30073">
        <ele>244.656692</ele>
        <time>2021-10-03T07:48:35.000Z</time>
      </trkpt>
      <trkpt lat="43.62644" lon="2.30082">
        <ele>244.114384</ele>
        <time>2021-10-03T07:48:36.000Z</time>
      </trkpt>
      <trkpt lat="43.62645" lon="2.30089">
        <ele>243.637933</ele>
        <time>2021-10-03T07:48:37.000Z</time>
      </trkpt>
      <trkpt lat="43.62647" lon="2.30096">
        <ele>243.220185</ele>
        <time>2021-10-03T07:48:38.000Z</time>
      </trkpt>
      <trkpt lat="43.62649" lon="2.30101">
        <ele>242.86351</ele>
        <time>2021-10-03T07:48:39.000Z</time>
      </trkpt>
      <trkpt lat="43.6265" lon="2.30105">
        <ele>242.571231</ele>
        <time>2021-10-03T07:48:40.000Z</time>
      </trkpt>
      <trkpt lat="43.62651" lon="2.30111">
        <ele>242.22772</ele>
        <time>2021-10-03T07:48:41.000Z</time>
      </trkpt>
      <trkpt lat="43.62653" lon="2.30117">
        <ele>241.821623</ele>
        <time>2021-10-03T07:48:42.000Z</time>
      </trkpt>
      <trkpt lat="43.62654" lon="2.30124">
        <ele>241.380477</ele>
        <time>2021-10-03T07:48:43.000Z</time>
      </trkpt>
      <trkpt lat="43.62656" lon="2.30129">
        <ele>241.029258</ele>
        <time>2021-10-03T07:48:44.000Z</time>
      </trkpt>
      <trkpt lat="43.62658" lon="2.30135">
        <ele>240.639434</ele>
        <time>2021-10-03T07:48:45.000Z</time>
      </trkpt>
      <trkpt lat="43.6266" lon="2.3014">
        <ele>240.315134</ele>
        <time>2021-10-03T07:48:46.000Z</time>
      </trkpt>
      <trkpt lat="43.62662" lon="2.30144">
        <ele>239.996139</ele>
        <time>2021-10-03T07:48:47.000Z</time>
      </trkpt>
      <trkpt lat="43.62664" lon="2.30149">
        <ele>239.658826</ele>
        <time>2021-10-03T07:48:48.000Z</time>
      </trkpt>
      <trkpt lat="43.62666" lon="2.30154">
        <ele>239.274573</ele>
        <time>2021-10-03T07:48:49.000Z</time>
      </trkpt>
      <trkpt lat="43.62668" lon="2.30161">
        <ele>238.862312</ele>
        <time>2021-10-03T07:48:50.000Z</time>
      </trkpt>
      <trkpt lat="43.6267" lon="2.30167">
        <ele>238.402718</ele>
        <time>2021-10-03T07:48:51.000Z</time>
      </trkpt>
      <trkpt lat="43.62672" lon="2.30174">
        <ele>237.970712</ele>
        <time>2021-10-03T07:48:52.000Z</time>
      </trkpt>
      <trkpt lat="43.62674" lon="2.30181">
        <ele>237.480865</ele>
        <time>2021-10-03T07:48:53.000Z</time>
      </trkpt>
      <trkpt lat="43.62675" lon="2.30188">
        <ele>237.083582</ele>
        <time>2021-10-03T07:48:54.000Z</time>
      </trkpt>
      <trkpt lat="43.62677" lon="2.30194">
        <ele>236.707442</ele>
        <time>2021-10-03T07:48:55.000Z</time>
      </trkpt>
      <trkpt lat="43.62679" lon="2.30199">
        <ele>236.848985</ele>
        <time>2021-10-03T07:48:56.000Z</time>
      </trkpt>
      <trkpt lat="43.6268" lon="2.30204">
        <ele>236.964239</ele>
        <time>2021-10-03T07:48:57.000Z</time>
      </trkpt>
      <trkpt lat="43.62681" lon="2.30207">
        <ele>237.061432</ele>
        <time>2021-10-03T07:48:58.000Z</time>
      </trkpt>
      <trkpt lat="43.62682" lon="2.3021">
        <ele>237.142198</ele>
        <time>2021-10-03T07:48:59.000Z</time>
      </trkpt>
      <trkpt lat="43.62684" lon="2.30211">
        <ele>237.218524</ele>
        <time>2021-10-03T07:49:00.000Z</time>
      </trkpt>
      <trkpt lat="43.62686" lon="2.30212">
        <ele>237.29485</ele>
        <time>2021-10-03T07:49:01.000Z</time>
      </trkpt>
      <trkpt lat="43.62689" lon="2.30213">
        <ele>237.378484</ele>
        <time>2021-10-03T07:49:02.000Z</time>
      </trkpt>
      <trkpt lat="43.6269" lon="2.30215">
        <ele>237.449386</ele>
        <time>2021-10-03T07:49:03.000Z</time>
      </trkpt>
      <trkpt lat="43.62691" lon="2.30218">
        <ele>237.544292</ele>
        <time>2021-10-03T07:49:04.000Z</time>
      </trkpt>
      <trkpt lat="43.62693" lon="2.3022">
        <ele>237.608905</ele>
        <time>2021-10-03T07:49:05.000Z</time>
      </trkpt>
      <trkpt lat="43.62693" lon="2.30222">
        <ele>237.651008</ele>
        <time>2021-10-03T07:49:06.000Z</time>
      </trkpt>
      <trkpt lat="43.62693" lon="2.30223">
        <ele>237.678368</ele>
        <time>2021-10-03T07:49:07.000Z</time>
      </trkpt>
      <trkpt lat="43.62709" lon="2.30241">
        <ele>238.38178</ele>
        <time>2021-10-03T07:49:53.000Z</time>
      </trkpt>
      <trkpt lat="43.6271" lon="2.30243">
        <ele>238.450052</ele>
        <time>2021-10-03T07:49:54.000Z</time>
      </trkpt>
      <trkpt lat="43.62711" lon="2.30244">
        <ele>238.474512</ele>
        <time>2021-10-03T07:49:55.000Z</time>
      </trkpt>
      <trkpt lat="43.62712" lon="2.30245">
        <ele>238.530713</ele>
        <time>2021-10-03T07:49:57.000Z</time>
      </trkpt>
      <trkpt lat="43.6272" lon="2.30247">
        <ele>238.798599</ele>
        <time>2021-10-03T07:50:09.000Z</time>
      </trkpt>
      <trkpt lat="43.62721" lon="2.30246">
        <ele>238.85162</ele>
        <time>2021-10-03T07:50:10.000Z</time>
      </trkpt>
      <trkpt lat="43.62722" lon="2.30246">
        <ele>238.893235</ele>
        <time>2021-10-03T07:50:11.000Z</time>
      </trkpt>
      <trkpt lat="43.62724" lon="2.30244">
        <ele>238.958354</ele>
        <time>2021-10-03T07:50:12.000Z</time>
      </trkpt>
      <trkpt lat="43.62726" lon="2.30242">
        <ele>239.036137</ele>
        <time>2021-10-03T07:50:13.000Z</time>
      </trkpt>
      <trkpt lat="43.62728" lon="2.30241">
        <ele>239.12577</ele>
        <time>2021-10-03T07:50:14.000Z</time>
      </trkpt>
      <trkpt lat="43.6273" lon="2.30239">
        <ele>239.20223</ele>
        <time>2021-10-03T07:50:15.000Z</time>
      </trkpt>
      <trkpt lat="43.62732" lon="2.30238">
        <ele>239.28762</ele>
        <time>2021-10-03T07:50:16.000Z</time>
      </trkpt>
      <trkpt lat="43.62735" lon="2.30237">
        <ele>239.369119</ele>
        <time>2021-10-03T07:50:17.000Z</time>
      </trkpt>
      <trkpt lat="43.62736" lon="2.30236">
        <ele>239.440905</ele>
        <time>2021-10-03T07:50:18.000Z</time>
      </trkpt>
      <trkpt lat="43.62738" lon="2.30234">
        <ele>239.516101</ele>
        <time>2021-10-03T07:50:19.000Z</time>
      </trkpt>
      <trkpt lat="43.6274" lon="2.30232">
        <ele>239.596697</ele>
        <time>2021-10-03T07:50:20.000Z</time>
      </trkpt>
      <trkpt lat="43.62743" lon="2.30231">
        <ele>239.684093</ele>
        <time>2021-10-03T07:50:21.000Z</time>
      </trkpt>
      <trkpt lat="43.62744" lon="2.30229">
        <ele>239.759288</ele>
        <time>2021-10-03T07:50:22.000Z</time>
      </trkpt>
      <trkpt lat="43.62747" lon="2.30228">
        <ele>239.85012</ele>
        <time>2021-10-03T07:50:23.000Z</time>
      </trkpt>
      <trkpt lat="43.62748" lon="2.30226">
        <ele>239.910966</ele>
        <time>2021-10-03T07:50:24.000Z</time>
      </trkpt>
      <trkpt lat="43.6275" lon="2.30225">
        <ele>239.981754</ele>
        <time>2021-10-03T07:50:25.000Z</time>
      </trkpt>
      <trkpt lat="43.62752" lon="2.30224">
        <ele>240.068117</ele>
        <time>2021-10-03T07:50:26.000Z</time>
      </trkpt>
      <trkpt lat="43.62754" lon="2.30223">
        <ele>240.139903</ele>
        <time>2021-10-03T07:50:27.000Z</time>
      </trkpt>
      <trkpt lat="43.62756" lon="2.30222">
        <ele>240.209768</ele>
        <time>2021-10-03T07:50:28.000Z</time>
      </trkpt>
      <trkpt lat="43.62759" lon="2.30219">
        <ele>240.307332</ele>
        <time>2021-10-03T07:50:29.000Z</time>
      </trkpt>
      <trkpt lat="43.6276" lon="2.30217">
        <ele>240.3849</ele>
        <time>2021-10-03T07:50:30.000Z</time>
      </trkpt>
      <trkpt lat="43.62762" lon="2.30215">
        <ele>240.46851</ele>
        <time>2021-10-03T07:50:31.000Z</time>
      </trkpt>
      <trkpt lat="43.62764" lon="2.30213">
        <ele>240.540142</ele>
        <time>2021-10-03T07:50:32.000Z</time>
      </trkpt>
      <trkpt lat="43.62766" lon="2.30211">
        <ele>240.630637</ele>
        <time>2021-10-03T07:50:33.000Z</time>
      </trkpt>
      <trkpt lat="43.62768" lon="2.30209">
        <ele>240.724021</ele>
        <time>2021-10-03T07:50:34.000Z</time>
      </trkpt>
      <trkpt lat="43.6277" lon="2.30206">
        <ele>240.819481</ele>
        <time>2021-10-03T07:50:35.000Z</time>
      </trkpt>
      <trkpt lat="43.62772" lon="2.30204">
        <ele>240.902482</ele>
        <time>2021-10-03T07:50:36.000Z</time>
      </trkpt>
      <trkpt lat="43.62773" lon="2.30201">
        <ele>240.991135</ele>
        <time>2021-10-03T07:50:37.000Z</time>
      </trkpt>
      <trkpt lat="43.62775" lon="2.30198">
        <ele>241.085958</ele>
        <time>2021-10-03T07:50:38.000Z</time>
      </trkpt>
      <trkpt lat="43.62776" lon="2.30194">
        <ele>241.182692</ele>
        <time>2021-10-03T07:50:39.000Z</time>
      </trkpt>
      <trkpt lat="43.62778" lon="2.30191">
        <ele>241.28817</ele>
        <time>2021-10-03T07:50:40.000Z</time>
      </trkpt>
      <trkpt lat="43.6278" lon="2.30188">
        <ele>241.400335</ele>
        <time>2021-10-03T07:50:41.000Z</time>
      </trkpt>
      <trkpt lat="43.62782" lon="2.30184">
        <ele>241.50915</ele>
        <time>2021-10-03T07:50:42.000Z</time>
      </trkpt>
      <trkpt lat="43.62784" lon="2.30176">
        <ele>242.184569</ele>
        <time>2021-10-03T07:51:04.000Z</time>
      </trkpt>
      <trkpt lat="43.62784" lon="2.30173">
        <ele>242.245146</ele>
        <time>2021-10-03T07:51:05.000Z</time>
      </trkpt>
      <trkpt lat="43.62785" lon="2.30171">
        <ele>242.311258</ele>
        <time>2021-10-03T07:51:06.000Z</time>
      </trkpt>
      <trkpt lat="43.62785" lon="2.30168">
        <ele>242.394405</ele>
        <time>2021-10-03T07:51:07.000Z</time>
      </trkpt>
      <trkpt lat="43.62786" lon="2.30164">
        <ele>242.477626</ele>
        <time>2021-10-03T07:51:08.000Z</time>
      </trkpt>
      <trkpt lat="43.62786" lon="2.30161">
        <ele>242.567167</ele>
        <time>2021-10-03T07:51:09.000Z</time>
      </trkpt>
      <trkpt lat="43.62786" lon="2.30157">
        <ele>242.662286</ele>
        <time>2021-10-03T07:51:10.000Z</time>
      </trkpt>
      <trkpt lat="43.62788" lon="2.30154">
        <ele>242.754914</ele>
        <time>2021-10-03T07:51:11.000Z</time>
      </trkpt>
      <trkpt lat="43.62789" lon="2.3015">
        <ele>242.866962</ele>
        <time>2021-10-03T07:51:12.000Z</time>
      </trkpt>
      <trkpt lat="43.62791" lon="2.30146">
        <ele>242.844564</ele>
        <time>2021-10-03T07:51:13.000Z</time>
      </trkpt>
      <trkpt lat="43.62792" lon="2.30142">
        <ele>242.813982</ele>
        <time>2021-10-03T07:51:14.000Z</time>
      </trkpt>
      <trkpt lat="43.62794" lon="2.30138">
        <ele>242.78027</ele>
        <time>2021-10-03T07:51:15.000Z</time>
      </trkpt>
      <trkpt lat="43.62796" lon="2.30134">
        <ele>242.748045</ele>
        <time>2021-10-03T07:51:16.000Z</time>
      </trkpt>
      <trkpt lat="43.62799" lon="2.3013">
        <ele>242.71267</ele>
        <time>2021-10-03T07:51:17.000Z</time>
      </trkpt>
      <trkpt lat="43.62801" lon="2.30126">
        <ele>242.678974</ele>
        <time>2021-10-03T07:51:18.000Z</time>
      </trkpt>
      <trkpt lat="43.62803" lon="2.30123">
        <ele>242.646239</ele>
        <time>2021-10-03T07:51:19.000Z</time>
      </trkpt>
      <trkpt lat="43.62805" lon="2.3012">
        <ele>242.615901</ele>
        <time>2021-10-03T07:51:20.000Z</time>
      </trkpt>
      <trkpt lat="43.62807" lon="2.30116">
        <ele>242.588917</ele>
        <time>2021-10-03T07:51:21.000Z</time>
      </trkpt>
      <trkpt lat="43.62809" lon="2.30113">
        <ele>242.559718</ele>
        <time>2021-10-03T07:51:22.000Z</time>
      </trkpt>
      <trkpt lat="43.6281" lon="2.30109">
        <ele>242.526664</ele>
        <time>2021-10-03T07:51:23.000Z</time>
      </trkpt>
      <trkpt lat="43.62812" lon="2.30104">
        <ele>242.493798</ele>
        <time>2021-10-03T07:51:24.000Z</time>
      </trkpt>
      <trkpt lat="43.62813" lon="2.301">
        <ele>242.460119</ele>
        <time>2021-10-03T07:51:25.000Z</time>
      </trkpt>
      <trkpt lat="43.62814" lon="2.30095">
        <ele>242.426011</ele>
        <time>2021-10-03T07:51:26.000Z</time>
      </trkpt>
      <trkpt lat="43.62816" lon="2.3009">
        <ele>242.386097</ele>
        <time>2021-10-03T07:51:27.000Z</time>
      </trkpt>
      <trkpt lat="43.62818" lon="2.30085">
        <ele>242.345141</ele>
        <time>2021-10-03T07:51:28.000Z</time>
      </trkpt>
      <trkpt lat="43.62819" lon="2.3008">
        <ele>242.308547</ele>
        <time>2021-10-03T07:51:29.000Z</time>
      </trkpt>
      <trkpt lat="43.62821" lon="2.30075">
        <ele>242.269205</ele>
        <time>2021-10-03T07:51:30.000Z</time>
      </trkpt>
      <trkpt lat="43.62824" lon="2.30071">
        <ele>242.231054</ele>
        <time>2021-10-03T07:51:31.000Z</time>
      </trkpt>
      <trkpt lat="43.62826" lon="2.30067">
        <ele>242.197897</ele>
        <time>2021-10-03T07:51:32.000Z</time>
      </trkpt>
      <trkpt lat="43.62828" lon="2.30064">
        <ele>242.170392</ele>
        <time>2021-10-03T07:51:33.000Z</time>
      </trkpt>
      <trkpt lat="43.62829" lon="2.3006">
        <ele>242.141408</ele>
        <time>2021-10-03T07:51:34.000Z</time>
      </trkpt>
      <trkpt lat="43.62831" lon="2.30056">
        <ele>242.106522</ele>
        <time>2021-10-03T07:51:35.000Z</time>
      </trkpt>
      <trkpt lat="43.62833" lon="2.30052">
        <ele>242.07567</ele>
        <time>2021-10-03T07:51:36.000Z</time>
      </trkpt>
      <trkpt lat="43.62834" lon="2.30048">
        <ele>242.044256</ele>
        <time>2021-10-03T07:51:37.000Z</time>
      </trkpt>
      <trkpt lat="43.62836" lon="2.30045">
        <ele>242.016652</ele>
        <time>2021-10-03T07:51:38.000Z</time>
      </trkpt>
      <trkpt lat="43.62838" lon="2.30041">
        <ele>241.984099</ele>
        <time>2021-10-03T07:51:39.000Z</time>
      </trkpt>
      <trkpt lat="43.6284" lon="2.30037">
        <ele>241.952452</ele>
        <time>2021-10-03T07:51:40.000Z</time>
      </trkpt>
      <trkpt lat="43.62841" lon="2.30034">
        <ele>241.925634</ele>
        <time>2021-10-03T07:51:41.000Z</time>
      </trkpt>
      <trkpt lat="43.62842" lon="2.3003">
        <ele>241.899845</ele>
        <time>2021-10-03T07:51:42.000Z</time>
      </trkpt>
      <trkpt lat="43.62842" lon="2.30027">
        <ele>241.876282</ele>
        <time>2021-10-03T07:51:43.000Z</time>
      </trkpt>
      <trkpt lat="43.62843" lon="2.30024">
        <ele>241.853251</ele>
        <time>2021-10-03T07:51:44.000Z</time>
      </trkpt>
      <trkpt lat="43.62843" lon="2.30021">
        <ele>241.834954</ele>
        <time>2021-10-03T07:51:45.000Z</time>
      </trkpt>
      <trkpt lat="43.62844" lon="2.30018">
        <ele>241.811047</ele>
        <time>2021-10-03T07:51:46.000Z</time>
      </trkpt>
      <trkpt lat="43.62845" lon="2.30014">
        <ele>241.78231</ele>
        <time>2021-10-03T07:51:47.000Z</time>
      </trkpt>
      <trkpt lat="43.62846" lon="2.30011">
        <ele>241.759823</ele>
        <time>2021-10-03T07:51:48.000Z</time>
      </trkpt>
      <trkpt lat="43.62847" lon="2.30008">
        <ele>241.73638</ele>
        <time>2021-10-03T07:51:49.000Z</time>
      </trkpt>
      <trkpt lat="43.62848" lon="2.30006">
        <ele>241.714422</ele>
        <time>2021-10-03T07:51:50.000Z</time>
      </trkpt>
      <trkpt lat="43.6285" lon="2.30004">
        <ele>241.689602</ele>
        <time>2021-10-03T07:51:51.000Z</time>
      </trkpt>
      <trkpt lat="43.62853" lon="2.30002">
        <ele>241.659959</ele>
        <time>2021-10-03T07:51:52.000Z</time>
      </trkpt>
      <trkpt lat="43.62856" lon="2.29998">
        <ele>241.621782</ele>
        <time>2021-10-03T07:51:53.000Z</time>
      </trkpt>
      <trkpt lat="43.6286" lon="2.29995">
        <ele>241.580448</ele>
        <time>2021-10-03T07:51:54.000Z</time>
      </trkpt>
      <trkpt lat="43.62863" lon="2.29992">
        <ele>241.542221</ele>
        <time>2021-10-03T07:51:55.000Z</time>
      </trkpt>
      <trkpt lat="43.62866" lon="2.2999">
        <ele>241.510313</ele>
        <time>2021-10-03T07:51:56.000Z</time>
      </trkpt>
      <trkpt lat="43.6287" lon="2.29988">
        <ele>241.476972</ele>
        <time>2021-10-03T07:51:57.000Z</time>
      </trkpt>
      <trkpt lat="43.62872" lon="2.29986">
        <ele>241.446627</ele>
        <time>2021-10-03T07:51:58.000Z</time>
      </trkpt>
      <trkpt lat="43.62875" lon="2.29983">
        <ele>241.413771</ele>
        <time>2021-10-03T07:51:59.000Z</time>
      </trkpt>
      <trkpt lat="43.62878" lon="2.2998">
        <ele>241.379738</ele>
        <time>2021-10-03T07:52:00.000Z</time>
      </trkpt>
      <trkpt lat="43.6288" lon="2.29976">
        <ele>241.342368</ele>
        <time>2021-10-03T07:52:01.000Z</time>
      </trkpt>
      <trkpt lat="43.62882" lon="2.29972">
        <ele>241.310954</ele>
        <time>2021-10-03T07:52:02.000Z</time>
      </trkpt>
      <trkpt lat="43.62884" lon="2.29967">
        <ele>241.271093</ele>
        <time>2021-10-03T07:52:03.000Z</time>
      </trkpt>
      <trkpt lat="43.62887" lon="2.29963">
        <ele>241.234623</ele>
        <time>2021-10-03T07:52:04.000Z</time>
      </trkpt>
      <trkpt lat="43.62889" lon="2.29959">
        <ele>241.200851</ele>
        <time>2021-10-03T07:52:05.000Z</time>
      </trkpt>
      <trkpt lat="43.62891" lon="2.29956">
        <ele>241.172685</ele>
        <time>2021-10-03T07:52:06.000Z</time>
      </trkpt>
      <trkpt lat="43.62892" lon="2.29953">
        <ele>241.151104</ele>
        <time>2021-10-03T07:52:07.000Z</time>
      </trkpt>
      <trkpt lat="43.62893" lon="2.29952">
        <ele>241.134741</ele>
        <time>2021-10-03T07:52:08.000Z</time>
      </trkpt>
      <trkpt lat="43.62896" lon="2.29947">
        <ele>241.066337</ele>
        <time>2021-10-03T07:52:16.000Z</time>
      </trkpt>
      <trkpt lat="43.62897" lon="2.29945">
        <ele>241.032937</ele>
        <time>2021-10-03T07:52:17.000Z</time>
      </trkpt>
      <trkpt lat="43.62899" lon="2.29943">
        <ele>240.997221</ele>
        <time>2021-10-03T07:52:18.000Z</time>
      </trkpt>
      <trkpt lat="43.629" lon="2.2994">
        <ele>240.961504</ele>
        <time>2021-10-03T07:52:19.000Z</time>
      </trkpt>
      <trkpt lat="43.62903" lon="2.29937">
        <ele>240.914181</ele>
        <time>2021-10-03T07:52:20.000Z</time>
      </trkpt>
      <trkpt lat="43.62906" lon="2.29933">
        <ele>240.858586</ele>
        <time>2021-10-03T07:52:21.000Z</time>
      </trkpt>
      <trkpt lat="43.62909" lon="2.2993">
        <ele>240.799527</ele>
        <time>2021-10-03T07:52:22.000Z</time>
      </trkpt>
      <trkpt lat="43.62912" lon="2.29927">
        <ele>240.744656</ele>
        <time>2021-10-03T07:52:23.000Z</time>
      </trkpt>
      <trkpt lat="43.62915" lon="2.29924">
        <ele>240.690343</ele>
        <time>2021-10-03T07:52:24.000Z</time>
      </trkpt>
      <trkpt lat="43.62918" lon="2.29921">
        <ele>240.641399</ele>
        <time>2021-10-03T07:52:25.000Z</time>
      </trkpt>
      <trkpt lat="43.62921" lon="2.29919">
        <ele>240.587122</ele>
        <time>2021-10-03T07:52:26.000Z</time>
      </trkpt>
      <trkpt lat="43.62924" lon="2.29916">
        <ele>240.538677</ele>
        <time>2021-10-03T07:52:27.000Z</time>
      </trkpt>
      <trkpt lat="43.62926" lon="2.29913">
        <ele>240.492691</ele>
        <time>2021-10-03T07:52:28.000Z</time>
      </trkpt>
      <trkpt lat="43.62929" lon="2.29912">
        <ele>240.457734</ele>
        <time>2021-10-03T07:52:29.000Z</time>
      </trkpt>
      <trkpt lat="43.62931" lon="2.29912">
        <ele>240.423349</ele>
        <time>2021-10-03T07:52:30.000Z</time>
      </trkpt>
      <trkpt lat="43.62933" lon="2.29912">
        <ele>240.389988</ele>
        <time>2021-10-03T07:52:31.000Z</time>
      </trkpt>
      <trkpt lat="43.62936" lon="2.29912">
        <ele>240.350494</ele>
        <time>2021-10-03T07:52:32.000Z</time>
      </trkpt>
      <trkpt lat="43.62937" lon="2.29914">
        <ele>240.323649</ele>
        <time>2021-10-03T07:52:33.000Z</time>
      </trkpt>
      <trkpt lat="43.62939" lon="2.29916">
        <ele>240.291654</ele>
        <time>2021-10-03T07:52:34.000Z</time>
      </trkpt>
      <trkpt lat="43.62941" lon="2.29918">
        <ele>240.261432</ele>
        <time>2021-10-03T07:52:35.000Z</time>
      </trkpt>
      <trkpt lat="43.62942" lon="2.29921">
        <ele>240.218806</ele>
        <time>2021-10-03T07:52:36.000Z</time>
      </trkpt>
      <trkpt lat="43.62945" lon="2.29925">
        <ele>240.165199</ele>
        <time>2021-10-03T07:52:37.000Z</time>
      </trkpt>
      <trkpt lat="43.62947" lon="2.29928">
        <ele>240.111833</ele>
        <time>2021-10-03T07:52:38.000Z</time>
      </trkpt>
      <trkpt lat="43.62951" lon="2.29933">
        <ele>240.043572</ele>
        <time>2021-10-03T07:52:39.000Z</time>
      </trkpt>
      <trkpt lat="43.62955" lon="2.29937">
        <ele>239.970787</ele>
        <time>2021-10-03T07:52:40.000Z</time>
      </trkpt>
      <trkpt lat="43.62959" lon="2.2994">
        <ele>239.897887</ele>
        <time>2021-10-03T07:52:41.000Z</time>
      </trkpt>
      <trkpt lat="43.62964" lon="2.29942">
        <ele>239.828281</ele>
        <time>2021-10-03T07:52:42.000Z</time>
      </trkpt>
      <trkpt lat="43.62969" lon="2.29942">
        <ele>239.761296</ele>
        <time>2021-10-03T07:52:43.000Z</time>
      </trkpt>
      <trkpt lat="43.62975" lon="2.29943">
        <ele>239.674152</ele>
        <time>2021-10-03T07:52:44.000Z</time>
      </trkpt>
      <trkpt lat="43.62979" lon="2.29943">
        <ele>239.605981</ele>
        <time>2021-10-03T07:52:45.000Z</time>
      </trkpt>
      <trkpt lat="43.62985" lon="2.29943">
        <ele>239.530586</ele>
        <time>2021-10-03T07:52:46.000Z</time>
      </trkpt>
      <trkpt lat="43.62991" lon="2.29943">
        <ele>239.442144</ele>
        <time>2021-10-03T07:52:47.000Z</time>
      </trkpt>
      <trkpt lat="43.62997" lon="2.29944">
        <ele>239.352958</ele>
        <time>2021-10-03T07:52:48.000Z</time>
      </trkpt>
      <trkpt lat="43.63003" lon="2.29945">
        <ele>239.264367</ele>
        <time>2021-10-03T07:52:49.000Z</time>
      </trkpt>
      <trkpt lat="43.63009" lon="2.29947">
        <ele>239.173712</ele>
        <time>2021-10-03T07:52:50.000Z</time>
      </trkpt>
      <trkpt lat="43.63015" lon="2.29949">
        <ele>239.087011</ele>
        <time>2021-10-03T07:52:51.000Z</time>
      </trkpt>
      <trkpt lat="43.63021" lon="2.29953">
        <ele>238.980668</ele>
        <time>2021-10-03T07:52:52.000Z</time>
      </trkpt>
      <trkpt lat="43.63027" lon="2.29957">
        <ele>238.892938</ele>
        <time>2021-10-03T07:52:53.000Z</time>
      </trkpt>
      <trkpt lat="43.63033" lon="2.29964">
        <ele>238.784313</ele>
        <time>2021-10-03T07:52:54.000Z</time>
      </trkpt>
      <trkpt lat="43.63037" lon="2.29971">
        <ele>238.682572</ele>
        <time>2021-10-03T07:52:55.000Z</time>
      </trkpt>
      <trkpt lat="43.63042" lon="2.29978">
        <ele>238.582993</ele>
        <time>2021-10-03T07:52:56.000Z</time>
      </trkpt>
      <trkpt lat="43.63046" lon="2.29985">
        <ele>238.401673</ele>
        <time>2021-10-03T07:52:57.000Z</time>
      </trkpt>
      <trkpt lat="43.63049" lon="2.29992">
        <ele>238.20569</ele>
        <time>2021-10-03T07:52:58.000Z</time>
      </trkpt>
      <trkpt lat="43.63052" lon="2.3">
        <ele>237.995166</ele>
        <time>2021-10-03T07:52:59.000Z</time>
      </trkpt>
      <trkpt lat="43.63054" lon="2.30008">
        <ele>237.780703</ele>
        <time>2021-10-03T07:53:00.000Z</time>
      </trkpt>
      <trkpt lat="43.63057" lon="2.30019">
        <ele>237.497033</ele>
        <time>2021-10-03T07:53:01.000Z</time>
      </trkpt>
      <trkpt lat="43.63059" lon="2.3003">
        <ele>237.237349</ele>
        <time>2021-10-03T07:53:02.000Z</time>
      </trkpt>
      <trkpt lat="43.6306" lon="2.3004">
        <ele>236.976052</ele>
        <time>2021-10-03T07:53:03.000Z</time>
      </trkpt>
      <trkpt lat="43.63063" lon="2.30051">
        <ele>236.721518</ele>
        <time>2021-10-03T07:53:04.000Z</time>
      </trkpt>
      <trkpt lat="43.63065" lon="2.30059">
        <ele>236.501232</ele>
        <time>2021-10-03T07:53:05.000Z</time>
      </trkpt>
      <trkpt lat="43.63066" lon="2.30067">
        <ele>236.297125</ele>
        <time>2021-10-03T07:53:06.000Z</time>
      </trkpt>
      <trkpt lat="43.63067" lon="2.30075">
        <ele>236.109402</ele>
        <time>2021-10-03T07:53:07.000Z</time>
      </trkpt>
      <trkpt lat="43.63068" lon="2.30083">
        <ele>235.922365</ele>
        <time>2021-10-03T07:53:08.000Z</time>
      </trkpt>
      <trkpt lat="43.63069" lon="2.3009">
        <ele>235.741805</ele>
        <time>2021-10-03T07:53:09.000Z</time>
      </trkpt>
      <trkpt lat="43.6307" lon="2.30098">
        <ele>235.554082</ele>
        <time>2021-10-03T07:53:10.000Z</time>
      </trkpt>
      <trkpt lat="43.63069" lon="2.30106">
        <ele>235.351124</ele>
        <time>2021-10-03T07:53:11.000Z</time>
      </trkpt>
      <trkpt lat="43.63069" lon="2.30115">
        <ele>235.13876</ele>
        <time>2021-10-03T07:53:12.000Z</time>
      </trkpt>
      <trkpt lat="43.63068" lon="2.30123">
        <ele>234.939086</ele>
        <time>2021-10-03T07:53:13.000Z</time>
      </trkpt>
      <trkpt lat="43.63068" lon="2.30131">
        <ele>234.740752</ele>
        <time>2021-10-03T07:53:14.000Z</time>
      </trkpt>
      <trkpt lat="43.63068" lon="2.30139">
        <ele>234.55252</ele>
        <time>2021-10-03T07:53:15.000Z</time>
      </trkpt>
      <trkpt lat="43.63068" lon="2.30147">
        <ele>234.373444</ele>
        <time>2021-10-03T07:53:16.000Z</time>
      </trkpt>
      <trkpt lat="43.63067" lon="2.30153">
        <ele>234.218674</ele>
        <time>2021-10-03T07:53:17.000Z</time>
      </trkpt>
      <trkpt lat="43.63067" lon="2.30158">
        <ele>234.095776</ele>
        <time>2021-10-03T07:53:18.000Z</time>
      </trkpt>
      <trkpt lat="43.63066" lon="2.30165">
        <ele>233.938033</ele>
        <time>2021-10-03T07:53:19.000Z</time>
      </trkpt>
      <trkpt lat="43.63065" lon="2.3017">
        <ele>233.797337</ele>
        <time>2021-10-03T07:53:20.000Z</time>
      </trkpt>
      <trkpt lat="43.63063" lon="2.30174">
        <ele>233.67576</ele>
        <time>2021-10-03T07:53:21.000Z</time>
      </trkpt>
      <trkpt lat="43.63061" lon="2.30179">
        <ele>233.556202</ele>
        <time>2021-10-03T07:53:22.000Z</time>
      </trkpt>
      <trkpt lat="43.63059" lon="2.30184">
        <ele>233.417284</ele>
        <time>2021-10-03T07:53:23.000Z</time>
      </trkpt>
      <trkpt lat="43.63057" lon="2.30188">
        <ele>233.291562</ele>
        <time>2021-10-03T07:53:24.000Z</time>
      </trkpt>
      <trkpt lat="43.63056" lon="2.30193">
        <ele>233.157423</ele>
        <time>2021-10-03T07:53:25.000Z</time>
      </trkpt>
      <trkpt lat="43.63054" lon="2.302">
        <ele>232.995541</ele>
        <time>2021-10-03T07:53:26.000Z</time>
      </trkpt>
      <trkpt lat="43.63054" lon="2.30208">
        <ele>232.801077</ele>
        <time>2021-10-03T07:53:27.000Z</time>
      </trkpt>
      <trkpt lat="43.63052" lon="2.30215">
        <ele>232.625128</ele>
        <time>2021-10-03T07:53:28.000Z</time>
      </trkpt>
      <trkpt lat="43.63052" lon="2.30224">
        <ele>232.567716</ele>
        <time>2021-10-03T07:53:29.000Z</time>
      </trkpt>
      <trkpt lat="43.63052" lon="2.30231">
        <ele>232.591723</ele>
        <time>2021-10-03T07:53:30.000Z</time>
      </trkpt>
      <trkpt lat="43.63052" lon="2.30238">
        <ele>232.618084</ele>
        <time>2021-10-03T07:53:31.000Z</time>
      </trkpt>
      <trkpt lat="43.63052" lon="2.30244">
        <ele>232.637725</ele>
        <time>2021-10-03T07:53:32.000Z</time>
      </trkpt>
      <trkpt lat="43.63053" lon="2.3025">
        <ele>232.659245</ele>
        <time>2021-10-03T07:53:33.000Z</time>
      </trkpt>
      <trkpt lat="43.63054" lon="2.30256">
        <ele>232.677496</ele>
        <time>2021-10-03T07:53:34.000Z</time>
      </trkpt>
      <trkpt lat="43.63055" lon="2.30262">
        <ele>232.697651</ele>
        <time>2021-10-03T07:53:35.000Z</time>
      </trkpt>
      <trkpt lat="43.63055" lon="2.30269">
        <ele>232.723949</ele>
        <time>2021-10-03T07:53:36.000Z</time>
      </trkpt>
      <trkpt lat="43.63055" lon="2.30274">
        <ele>232.738512</ele>
        <time>2021-10-03T07:53:37.000Z</time>
      </trkpt>
      <trkpt lat="43.63055" lon="2.30279">
        <ele>232.757147</ele>
        <time>2021-10-03T07:53:38.000Z</time>
      </trkpt>
      <trkpt lat="43.63056" lon="2.30286">
        <ele>232.778633</ele>
        <time>2021-10-03T07:53:39.000Z</time>
      </trkpt>
      <trkpt lat="43.63057" lon="2.30292">
        <ele>232.800269</ele>
        <time>2021-10-03T07:53:40.000Z</time>
      </trkpt>
      <trkpt lat="43.63059" lon="2.30297">
        <ele>232.820004</ele>
        <time>2021-10-03T07:53:41.000Z</time>
      </trkpt>
      <trkpt lat="43.6306" lon="2.303">
        <ele>232.830382</ele>
        <time>2021-10-03T07:53:42.000Z</time>
      </trkpt>
      <trkpt lat="43.6306" lon="2.30304">
        <ele>232.844663</ele>
        <time>2021-10-03T07:53:43.000Z</time>
      </trkpt>
      <trkpt lat="43.6306" lon="2.30309">
        <ele>232.860616</ele>
        <time>2021-10-03T07:53:44.000Z</time>
      </trkpt>
      <trkpt lat="43.6306" lon="2.30313">
        <ele>232.873764</ele>
        <time>2021-10-03T07:53:45.000Z</time>
      </trkpt>
      <trkpt lat="43.63061" lon="2.30316">
        <ele>232.884307</ele>
        <time>2021-10-03T07:53:46.000Z</time>
      </trkpt>
      <trkpt lat="43.63061" lon="2.30319">
        <ele>232.895778</ele>
        <time>2021-10-03T07:53:47.000Z</time>
      </trkpt>
      <trkpt lat="43.63061" lon="2.30322">
        <ele>232.903195</ele>
        <time>2021-10-03T07:53:48.000Z</time>
      </trkpt>
      <trkpt lat="43.63061" lon="2.30324">
        <ele>232.912403</ele>
        <time>2021-10-03T07:53:49.000Z</time>
      </trkpt>
      <trkpt lat="43.63061" lon="2.30328">
        <ele>232.92395</ele>
        <time>2021-10-03T07:53:50.000Z</time>
      </trkpt>
      <trkpt lat="43.63059" lon="2.3033">
        <ele>232.935424</ele>
        <time>2021-10-03T07:53:51.000Z</time>
      </trkpt>
      <trkpt lat="43.63059" lon="2.30333">
        <ele>232.944055</ele>
        <time>2021-10-03T07:53:52.000Z</time>
      </trkpt>
      <trkpt lat="43.63057" lon="2.30335">
        <ele>232.953533</ele>
        <time>2021-10-03T07:53:53.000Z</time>
      </trkpt>
      <trkpt lat="43.63056" lon="2.30336">
        <ele>232.960731</ele>
        <time>2021-10-03T07:53:54.000Z</time>
      </trkpt>
      <trkpt lat="43.63056" lon="2.30338">
        <ele>232.967864</ele>
        <time>2021-10-03T07:53:55.000Z</time>
      </trkpt>
      <trkpt lat="43.63055" lon="2.3034">
        <ele>232.975353</ele>
        <time>2021-10-03T07:53:56.000Z</time>
      </trkpt>
      <trkpt lat="43.63055" lon="2.30343">
        <ele>232.985637</ele>
        <time>2021-10-03T07:53:57.000Z</time>
      </trkpt>
      <trkpt lat="43.63053" lon="2.30345">
        <ele>232.995792</ele>
        <time>2021-10-03T07:53:58.000Z</time>
      </trkpt>
      <trkpt lat="43.63051" lon="2.30347">
        <ele>233.005402</ele>
        <time>2021-10-03T07:53:59.000Z</time>
      </trkpt>
      <trkpt lat="43.63049" lon="2.30349">
        <ele>233.018251</ele>
        <time>2021-10-03T07:54:00.000Z</time>
      </trkpt>
      <trkpt lat="43.63047" lon="2.30351">
        <ele>233.030732</ele>
        <time>2021-10-03T07:54:01.000Z</time>
      </trkpt>
      <trkpt lat="43.63045" lon="2.30354">
        <ele>233.042759</ele>
        <time>2021-10-03T07:54:02.000Z</time>
      </trkpt>
      <trkpt lat="43.63043" lon="2.30356">
        <ele>233.055416</ele>
        <time>2021-10-03T07:54:03.000Z</time>
      </trkpt>
      <trkpt lat="43.6304" lon="2.30361">
        <ele>233.077833</ele>
        <time>2021-10-03T07:54:04.000Z</time>
      </trkpt>
      <trkpt lat="43.63039" lon="2.30364">
        <ele>233.089246</ele>
        <time>2021-10-03T07:54:05.000Z</time>
      </trkpt>
      <trkpt lat="43.63038" lon="2.30367">
        <ele>233.099641</ele>
        <time>2021-10-03T07:54:06.000Z</time>
      </trkpt>
      <trkpt lat="43.63037" lon="2.30369">
        <ele>233.108109</ele>
        <time>2021-10-03T07:54:07.000Z</time>
      </trkpt>
      <trkpt lat="43.63036" lon="2.30371">
        <ele>233.11674</ele>
        <time>2021-10-03T07:54:08.000Z</time>
      </trkpt>
      <trkpt lat="43.63036" lon="2.30374">
        <ele>233.126361</ele>
        <time>2021-10-03T07:54:09.000Z</time>
      </trkpt>
      <trkpt lat="43.63035" lon="2.30377">
        <ele>233.138105</ele>
        <time>2021-10-03T07:54:10.000Z</time>
      </trkpt>
      <trkpt lat="43.63033" lon="2.30379">
        <ele>233.147398</ele>
        <time>2021-10-03T07:54:11.000Z</time>
      </trkpt>
      <trkpt lat="43.63032" lon="2.30382">
        <ele>233.160584</ele>
        <time>2021-10-03T07:54:12.000Z</time>
      </trkpt>
      <trkpt lat="43.63031" lon="2.30384">
        <ele>233.169492</ele>
        <time>2021-10-03T07:54:13.000Z</time>
      </trkpt>
      <trkpt lat="43.6303" lon="2.30388">
        <ele>233.18316</ele>
        <time>2021-10-03T07:54:14.000Z</time>
      </trkpt>
      <trkpt lat="43.63028" lon="2.30392">
        <ele>233.199905</ele>
        <time>2021-10-03T07:54:15.000Z</time>
      </trkpt>
      <trkpt lat="43.63025" lon="2.30396">
        <ele>233.219323</ele>
        <time>2021-10-03T07:54:16.000Z</time>
      </trkpt>
      <trkpt lat="43.63023" lon="2.30401">
        <ele>233.236832</ele>
        <time>2021-10-03T07:54:17.000Z</time>
      </trkpt>
      <trkpt lat="43.63022" lon="2.30404">
        <ele>233.248684</ele>
        <time>2021-10-03T07:54:18.000Z</time>
      </trkpt>
      <trkpt lat="43.63021" lon="2.30408">
        <ele>233.261238</ele>
        <time>2021-10-03T07:54:19.000Z</time>
      </trkpt>
      <trkpt lat="43.6302" lon="2.30411">
        <ele>233.271945</ele>
        <time>2021-10-03T07:54:20.000Z</time>
      </trkpt>
      <trkpt lat="43.6302" lon="2.30413">
        <ele>233.280488</ele>
        <time>2021-10-03T07:54:21.000Z</time>
      </trkpt>
      <trkpt lat="43.6302" lon="2.30417">
        <ele>233.293307</ele>
        <time>2021-10-03T07:54:22.000Z</time>
      </trkpt>
      <trkpt lat="43.63019" lon="2.3042">
        <ele>233.304899</ele>
        <time>2021-10-03T07:54:23.000Z</time>
      </trkpt>
      <trkpt lat="43.63019" lon="2.30424">
        <ele>233.318846</ele>
        <time>2021-10-03T07:54:24.000Z</time>
      </trkpt>
      <trkpt lat="43.63019" lon="2.30429">
        <ele>233.33413</ele>
        <time>2021-10-03T07:54:25.000Z</time>
      </trkpt>
      <trkpt lat="43.6302" lon="2.30431">
        <ele>233.343993</ele>
        <time>2021-10-03T07:54:26.000Z</time>
      </trkpt>
      <trkpt lat="43.63022" lon="2.30435">
        <ele>233.35739</ele>
        <time>2021-10-03T07:54:27.000Z</time>
      </trkpt>
      <trkpt lat="43.63025" lon="2.30438">
        <ele>233.376576</ele>
        <time>2021-10-03T07:54:28.000Z</time>
      </trkpt>
      <trkpt lat="43.63028" lon="2.30442">
        <ele>233.530613</ele>
        <time>2021-10-03T07:54:29.000Z</time>
      </trkpt>
      <trkpt lat="43.63029" lon="2.30444">
        <ele>233.677708</ele>
        <time>2021-10-03T07:54:30.000Z</time>
      </trkpt>
      <trkpt lat="43.63031" lon="2.30447">
        <ele>233.899692</ele>
        <time>2021-10-03T07:54:31.000Z</time>
      </trkpt>
      <trkpt lat="43.63032" lon="2.30449">
        <ele>234.085782</ele>
        <time>2021-10-03T07:54:32.000Z</time>
      </trkpt>
      <trkpt lat="43.63034" lon="2.30451">
        <ele>234.250777</ele>
        <time>2021-10-03T07:54:33.000Z</time>
      </trkpt>
      <trkpt lat="43.63036" lon="2.30452">
        <ele>234.482512</ele>
        <time>2021-10-03T07:54:34.000Z</time>
      </trkpt>
      <trkpt lat="43.63039" lon="2.30453">
        <ele>234.716278</ele>
        <time>2021-10-03T07:54:35.000Z</time>
      </trkpt>
      <trkpt lat="43.63042" lon="2.30454">
        <ele>234.940405</ele>
        <time>2021-10-03T07:54:36.000Z</time>
      </trkpt>
      <trkpt lat="43.63043" lon="2.30457">
        <ele>235.130349</ele>
        <time>2021-10-03T07:54:37.000Z</time>
      </trkpt>
      <trkpt lat="43.63045" lon="2.30458">
        <ele>235.289318</ele>
        <time>2021-10-03T07:54:38.000Z</time>
      </trkpt>
      <trkpt lat="43.63047" lon="2.30459">
        <ele>235.471046</ele>
        <time>2021-10-03T07:54:39.000Z</time>
      </trkpt>
      <trkpt lat="43.6305" lon="2.30461">
        <ele>235.740322</ele>
        <time>2021-10-03T07:54:40.000Z</time>
      </trkpt>
      <trkpt lat="43.63052" lon="2.30462">
        <ele>235.940559</ele>
        <time>2021-10-03T07:54:41.000Z</time>
      </trkpt>
      <trkpt lat="43.63054" lon="2.30463">
        <ele>236.139075</ele>
        <time>2021-10-03T07:54:42.000Z</time>
      </trkpt>
      <trkpt lat="43.63056" lon="2.30464">
        <ele>236.317842</ele>
        <time>2021-10-03T07:54:43.000Z</time>
      </trkpt>
      <trkpt lat="43.63059" lon="2.30466">
        <ele>236.551827</ele>
        <time>2021-10-03T07:54:44.000Z</time>
      </trkpt>
      <trkpt lat="43.63061" lon="2.30467">
        <ele>236.758195</ele>
        <time>2021-10-03T07:54:45.000Z</time>
      </trkpt>
      <trkpt lat="43.63063" lon="2.30469">
        <ele>236.993981</ele>
        <time>2021-10-03T07:54:46.000Z</time>
      </trkpt>
      <trkpt lat="43.63066" lon="2.30471">
        <ele>237.235488</ele>
        <time>2021-10-03T07:54:47.000Z</time>
      </trkpt>
      <trkpt lat="43.63069" lon="2.30473">
        <ele>237.510304</ele>
        <time>2021-10-03T07:54:48.000Z</time>
      </trkpt>
      <trkpt lat="43.63071" lon="2.30475">
        <ele>237.735989</ele>
        <time>2021-10-03T07:54:49.000Z</time>
      </trkpt>
      <trkpt lat="43.63074" lon="2.30477">
        <ele>237.990404</ele>
        <time>2021-10-03T07:54:50.000Z</time>
      </trkpt>
      <trkpt lat="43.63077" lon="2.30479">
        <ele>238.24051</ele>
        <time>2021-10-03T07:54:51.000Z</time>
      </trkpt>
      <trkpt lat="43.63079" lon="2.3048">
        <ele>238.426701</ele>
        <time>2021-10-03T07:54:52.000Z</time>
      </trkpt>
      <trkpt lat="43.63081" lon="2.30481">
        <ele>238.630869</ele>
        <time>2021-10-03T07:54:53.000Z</time>
      </trkpt>
      <trkpt lat="43.63083" lon="2.30482">
        <ele>238.799715</ele>
        <time>2021-10-03T07:54:54.000Z</time>
      </trkpt>
      <trkpt lat="43.63085" lon="2.30483">
        <ele>238.957957</ele>
        <time>2021-10-03T07:54:55.000Z</time>
      </trkpt>
      <trkpt lat="43.63087" lon="2.30485">
        <ele>239.194515</ele>
        <time>2021-10-03T07:54:56.000Z</time>
      </trkpt>
      <trkpt lat="43.63089" lon="2.30489">
        <ele>239.487676</ele>
        <time>2021-10-03T07:54:57.000Z</time>
      </trkpt>
      <trkpt lat="43.63091" lon="2.30493">
        <ele>239.783651</ele>
        <time>2021-10-03T07:54:58.000Z</time>
      </trkpt>
      <trkpt lat="43.63092" lon="2.30497">
        <ele>240.033092</ele>
        <time>2021-10-03T07:54:59.000Z</time>
      </trkpt>
      <trkpt lat="43.63092" lon="2.30501">
        <ele>240.251353</ele>
        <time>2021-10-03T07:55:00.000Z</time>
      </trkpt>
      <trkpt lat="43.63092" lon="2.30505">
        <ele>240.491927</ele>
        <time>2021-10-03T07:55:01.000Z</time>
      </trkpt>
      <trkpt lat="43.63092" lon="2.30507">
        <ele>240.636186</ele>
        <time>2021-10-03T07:55:02.000Z</time>
      </trkpt>
      <trkpt lat="43.63092" lon="2.30509">
        <ele>240.738369</ele>
        <time>2021-10-03T07:55:03.000Z</time>
      </trkpt>
      <trkpt lat="43.63091" lon="2.3051">
        <ele>240.875431</ele>
        <time>2021-10-03T07:55:04.000Z</time>
      </trkpt>
      <trkpt lat="43.63091" lon="2.30512">
        <ele>240.988609</ele>
        <time>2021-10-03T07:55:05.000Z</time>
      </trkpt>
      <trkpt lat="43.6309" lon="2.30515">
        <ele>241.138582</ele>
        <time>2021-10-03T07:55:06.000Z</time>
      </trkpt>
      <trkpt lat="43.63089" lon="2.30517">
        <ele>241.315923</ele>
        <time>2021-10-03T07:55:07.000Z</time>
      </trkpt>
      <trkpt lat="43.63088" lon="2.30518">
        <ele>241.463018</ele>
        <time>2021-10-03T07:55:08.000Z</time>
      </trkpt>
      <trkpt lat="43.63086" lon="2.30521">
        <ele>241.623739</ele>
        <time>2021-10-03T07:55:09.000Z</time>
      </trkpt>
      <trkpt lat="43.63085" lon="2.30522">
        <ele>241.784855</ele>
        <time>2021-10-03T07:55:10.000Z</time>
      </trkpt>
      <trkpt lat="43.63084" lon="2.30525">
        <ele>241.970204</ele>
        <time>2021-10-03T07:55:11.000Z</time>
      </trkpt>
      <trkpt lat="43.63083" lon="2.30527">
        <ele>242.123587</ele>
        <time>2021-10-03T07:55:12.000Z</time>
      </trkpt>
      <trkpt lat="43.63082" lon="2.3053">
        <ele>242.289289</ele>
        <time>2021-10-03T07:55:13.000Z</time>
      </trkpt>
      <trkpt lat="43.6308" lon="2.30532">
        <ele>242.470958</ele>
        <time>2021-10-03T07:55:14.000Z</time>
      </trkpt>
      <trkpt lat="43.63079" lon="2.30533">
        <ele>242.601389</ele>
        <time>2021-10-03T07:55:15.000Z</time>
      </trkpt>
      <trkpt lat="43.63078" lon="2.30534">
        <ele>242.685008</ele>
        <time>2021-10-03T07:55:16.000Z</time>
      </trkpt>
      <trkpt lat="43.63077" lon="2.30536">
        <ele>242.80921</ele>
        <time>2021-10-03T07:55:17.000Z</time>
      </trkpt>
      <trkpt lat="43.63078" lon="2.30538">
        <ele>242.942486</ele>
        <time>2021-10-03T07:55:18.000Z</time>
      </trkpt>
      <trkpt lat="43.63078" lon="2.30541">
        <ele>243.119936</ele>
        <time>2021-10-03T07:55:19.000Z</time>
      </trkpt>
      <trkpt lat="43.63079" lon="2.30544">
        <ele>243.303686</ele>
        <time>2021-10-03T07:55:20.000Z</time>
      </trkpt>
      <trkpt lat="43.63079" lon="2.30546">
        <ele>243.457583</ele>
        <time>2021-10-03T07:55:21.000Z</time>
      </trkpt>
      <trkpt lat="43.63079" lon="2.30549">
        <ele>243.645576</ele>
        <time>2021-10-03T07:55:22.000Z</time>
      </trkpt>
      <trkpt lat="43.63079" lon="2.30552">
        <ele>243.833568</ele>
        <time>2021-10-03T07:55:23.000Z</time>
      </trkpt>
      <trkpt lat="43.63078" lon="2.30554">
        <ele>243.974881</ele>
        <time>2021-10-03T07:55:24.000Z</time>
      </trkpt>
      <trkpt lat="43.63078" lon="2.30557">
        <ele>244.128264</ele>
        <time>2021-10-03T07:55:25.000Z</time>
      </trkpt>
      <trkpt lat="43.63078" lon="2.3056">
        <ele>244.316257</ele>
        <time>2021-10-03T07:55:26.000Z</time>
      </trkpt>
      <trkpt lat="43.63079" lon="2.30563">
        <ele>244.540317</ele>
        <time>2021-10-03T07:55:27.000Z</time>
      </trkpt>
      <trkpt lat="43.63079" lon="2.30568">
        <ele>244.81093</ele>
        <time>2021-10-03T07:55:28.000Z</time>
      </trkpt>
      <trkpt lat="43.63079" lon="2.30572">
        <ele>245.04535</ele>
        <time>2021-10-03T07:55:29.000Z</time>
      </trkpt>
      <trkpt lat="43.63079" lon="2.30576">
        <ele>245.305012</ele>
        <time>2021-10-03T07:55:30.000Z</time>
      </trkpt>
      <trkpt lat="43.63079" lon="2.3058">
        <ele>245.535825</ele>
        <time>2021-10-03T07:55:31.000Z</time>
      </trkpt>
      <trkpt lat="43.6308" lon="2.30584">
        <ele>245.791065</ele>
        <time>2021-10-03T07:55:32.000Z</time>
      </trkpt>
      <trkpt lat="43.63081" lon="2.30588">
        <ele>246.048265</ele>
        <time>2021-10-03T07:55:33.000Z</time>
      </trkpt>
      <trkpt lat="43.63082" lon="2.30592">
        <ele>246.268883</ele>
        <time>2021-10-03T07:55:34.000Z</time>
      </trkpt>
      <trkpt lat="43.63083" lon="2.30595">
        <ele>246.505645</ele>
        <time>2021-10-03T07:55:35.000Z</time>
      </trkpt>
      <trkpt lat="43.63083" lon="2.30599">
        <ele>246.729706</ele>
        <time>2021-10-03T07:55:36.000Z</time>
      </trkpt>
      <trkpt lat="43.63083" lon="2.30602">
        <ele>246.92962</ele>
        <time>2021-10-03T07:55:37.000Z</time>
      </trkpt>
      <trkpt lat="43.63082" lon="2.30605">
        <ele>247.119082</ele>
        <time>2021-10-03T07:55:38.000Z</time>
      </trkpt>
      <trkpt lat="43.63082" lon="2.30608">
        <ele>247.255427</ele>
        <time>2021-10-03T07:55:39.000Z</time>
      </trkpt>
      <trkpt lat="43.63082" lon="2.30609">
        <ele>247.333502</ele>
        <time>2021-10-03T07:55:40.000Z</time>
      </trkpt>
      <trkpt lat="43.63083" lon="2.30609">
        <ele>247.341806</ele>
        <time>2021-10-03T07:55:41.000Z</time>
      </trkpt>
      <trkpt lat="43.63085" lon="2.30614">
        <ele>247.737287</ele>
        <time>2021-10-03T07:56:06.000Z</time>
      </trkpt>
      <trkpt lat="43.63087" lon="2.30616">
        <ele>247.932292</ele>
        <time>2021-10-03T07:56:07.000Z</time>
      </trkpt>
      <trkpt lat="43.63089" lon="2.30618">
        <ele>248.127071</ele>
        <time>2021-10-03T07:56:08.000Z</time>
      </trkpt>
      <trkpt lat="43.63091" lon="2.3062">
        <ele>248.272006</ele>
        <time>2021-10-03T07:56:09.000Z</time>
      </trkpt>
      <trkpt lat="43.63093" lon="2.30623">
        <ele>247.915351</ele>
        <time>2021-10-03T07:56:10.000Z</time>
      </trkpt>
      <trkpt lat="43.63096" lon="2.30626">
        <ele>247.549838</ele>
        <time>2021-10-03T07:56:11.000Z</time>
      </trkpt>
      <trkpt lat="43.63098" lon="2.30629">
        <ele>247.122982</ele>
        <time>2021-10-03T07:56:12.000Z</time>
      </trkpt>
      <trkpt lat="43.63101" lon="2.30633">
        <ele>246.611293</ele>
        <time>2021-10-03T07:56:13.000Z</time>
      </trkpt>
      <trkpt lat="43.63104" lon="2.30637">
        <ele>246.14554</ele>
        <time>2021-10-03T07:56:14.000Z</time>
      </trkpt>
      <trkpt lat="43.63107" lon="2.30641">
        <ele>245.661991</ele>
        <time>2021-10-03T07:56:15.000Z</time>
      </trkpt>
      <trkpt lat="43.63109" lon="2.30646">
        <ele>245.213593</ele>
        <time>2021-10-03T07:56:16.000Z</time>
      </trkpt>
      <trkpt lat="43.6311" lon="2.3065">
        <ele>244.801644</ele>
        <time>2021-10-03T07:56:17.000Z</time>
      </trkpt>
      <trkpt lat="43.63111" lon="2.30655">
        <ele>244.365362</ele>
        <time>2021-10-03T07:56:18.000Z</time>
      </trkpt>
      <trkpt lat="43.63112" lon="2.30661">
        <ele>243.845359</ele>
        <time>2021-10-03T07:56:19.000Z</time>
      </trkpt>
      <trkpt lat="43.63112" lon="2.30666">
        <ele>243.394063</ele>
        <time>2021-10-03T07:56:20.000Z</time>
      </trkpt>
      <trkpt lat="43.63113" lon="2.30671">
        <ele>242.951312</ele>
        <time>2021-10-03T07:56:21.000Z</time>
      </trkpt>
      <trkpt lat="43.63113" lon="2.30676">
        <ele>242.474262</ele>
        <time>2021-10-03T07:56:22.000Z</time>
      </trkpt>
      <trkpt lat="43.63114" lon="2.30681">
        <ele>242.065849</ele>
        <time>2021-10-03T07:56:23.000Z</time>
      </trkpt>
      <trkpt lat="43.63114" lon="2.30687">
        <ele>241.572631</ele>
        <time>2021-10-03T07:56:24.000Z</time>
      </trkpt>
      <trkpt lat="43.63115" lon="2.30692">
        <ele>241.164218</ele>
        <time>2021-10-03T07:56:25.000Z</time>
      </trkpt>
      <trkpt lat="43.63115" lon="2.30696">
        <ele>240.810381</ele>
        <time>2021-10-03T07:56:26.000Z</time>
      </trkpt>
      <trkpt lat="43.63113" lon="2.30702">
        <ele>240.266329</ele>
        <time>2021-10-03T07:56:27.000Z</time>
      </trkpt>
      <trkpt lat="43.63113" lon="2.30708">
        <ele>239.757009</ele>
        <time>2021-10-03T07:56:28.000Z</time>
      </trkpt>
      <trkpt lat="43.63113" lon="2.30713">
        <ele>239.272397</ele>
        <time>2021-10-03T07:56:29.000Z</time>
      </trkpt>
      <trkpt lat="43.63113" lon="2.30719">
        <ele>238.796392</ele>
        <time>2021-10-03T07:56:30.000Z</time>
      </trkpt>
      <trkpt lat="43.63113" lon="2.30724">
        <ele>238.336513</ele>
        <time>2021-10-03T07:56:31.000Z</time>
      </trkpt>
      <trkpt lat="43.63114" lon="2.30728">
        <ele>238.022187</ele>
        <time>2021-10-03T07:56:32.000Z</time>
      </trkpt>
      <trkpt lat="43.63113" lon="2.3073">
        <ele>237.79279</ele>
        <time>2021-10-03T07:56:33.000Z</time>
      </trkpt>
      <trkpt lat="43.63114" lon="2.30733">
        <ele>237.529528</ele>
        <time>2021-10-03T07:56:34.000Z</time>
      </trkpt>
      <trkpt lat="43.63115" lon="2.30735">
        <ele>237.329999</ele>
        <time>2021-10-03T07:56:35.000Z</time>
      </trkpt>
      <trkpt lat="43.63115" lon="2.30739">
        <ele>237.032722</ele>
        <time>2021-10-03T07:56:36.000Z</time>
      </trkpt>
      <trkpt lat="43.63115" lon="2.30745">
        <ele>236.521235</ele>
        <time>2021-10-03T07:56:51.000Z</time>
      </trkpt>
      <trkpt lat="43.63116" lon="2.30747">
        <ele>236.297927</ele>
        <time>2021-10-03T07:56:52.000Z</time>
      </trkpt>
      <trkpt lat="43.63117" lon="2.3075">
        <ele>236.038137</ele>
        <time>2021-10-03T07:56:53.000Z</time>
      </trkpt>
      <trkpt lat="43.63118" lon="2.30753">
        <ele>235.716732</ele>
        <time>2021-10-03T07:56:54.000Z</time>
      </trkpt>
      <trkpt lat="43.63119" lon="2.30758">
        <ele>235.302855</ele>
        <time>2021-10-03T07:56:55.000Z</time>
      </trkpt>
      <trkpt lat="43.6312" lon="2.30763">
        <ele>234.860104</ele>
        <time>2021-10-03T07:56:56.000Z</time>
      </trkpt>
      <trkpt lat="43.63121" lon="2.30768">
        <ele>234.372605</ele>
        <time>2021-10-03T07:56:57.000Z</time>
      </trkpt>
      <trkpt lat="43.63122" lon="2.30772">
        <ele>233.992238</ele>
        <time>2021-10-03T07:56:58.000Z</time>
      </trkpt>
      <trkpt lat="43.63123" lon="2.30776">
        <ele>233.602553</ele>
        <time>2021-10-03T07:56:59.000Z</time>
      </trkpt>
      <trkpt lat="43.63124" lon="2.3078">
        <ele>233.261701</ele>
        <time>2021-10-03T07:57:00.000Z</time>
      </trkpt>
      <trkpt lat="43.63126" lon="2.30785">
        <ele>232.815273</ele>
        <time>2021-10-03T07:57:01.000Z</time>
      </trkpt>
      <trkpt lat="43.63126" lon="2.3079">
        <ele>232.364918</ele>
        <time>2021-10-03T07:57:02.000Z</time>
      </trkpt>
      <trkpt lat="43.63127" lon="2.30794">
        <ele>231.981758</ele>
        <time>2021-10-03T07:57:03.000Z</time>
      </trkpt>
      <trkpt lat="43.63128" lon="2.30799">
        <ele>231.584533</ele>
        <time>2021-10-03T07:57:04.000Z</time>
      </trkpt>
      <trkpt lat="43.63129" lon="2.30804">
        <ele>231.105278</ele>
        <time>2021-10-03T07:57:05.000Z</time>
      </trkpt>
      <trkpt lat="43.6313" lon="2.30809">
        <ele>230.646014</ele>
        <time>2021-10-03T07:57:06.000Z</time>
      </trkpt>
      <trkpt lat="43.63132" lon="2.30814">
        <ele>230.19641</ele>
        <time>2021-10-03T07:57:07.000Z</time>
      </trkpt>
      <trkpt lat="43.63133" lon="2.30819">
        <ele>229.735143</ele>
        <time>2021-10-03T07:57:08.000Z</time>
      </trkpt>
      <trkpt lat="43.63133" lon="2.30825">
        <ele>229.219169</ele>
        <time>2021-10-03T07:57:09.000Z</time>
      </trkpt>
      <trkpt lat="43.63134" lon="2.3083">
        <ele>228.754218</ele>
        <time>2021-10-03T07:57:10.000Z</time>
      </trkpt>
      <trkpt lat="43.63134" lon="2.30835">
        <ele>228.382931</ele>
        <time>2021-10-03T07:57:11.000Z</time>
      </trkpt>
      <trkpt lat="43.63135" lon="2.30839">
        <ele>227.960359</ele>
        <time>2021-10-03T07:57:12.000Z</time>
      </trkpt>
      <trkpt lat="43.63135" lon="2.30844">
        <ele>227.589071</ele>
        <time>2021-10-03T07:57:13.000Z</time>
      </trkpt>
      <trkpt lat="43.63136" lon="2.30848">
        <ele>227.250671</ele>
        <time>2021-10-03T07:57:14.000Z</time>
      </trkpt>
      <trkpt lat="43.63136" lon="2.30851">
        <ele>226.991767</ele>
        <time>2021-10-03T07:57:15.000Z</time>
      </trkpt>
      <trkpt lat="43.63135" lon="2.30854">
        <ele>227.017442</ele>
        <time>2021-10-03T07:57:16.000Z</time>
      </trkpt>
      <trkpt lat="43.63134" lon="2.30857">
        <ele>227.273622</ele>
        <time>2021-10-03T07:57:17.000Z</time>
      </trkpt>
      <trkpt lat="43.63133" lon="2.3086">
        <ele>227.501694</ele>
        <time>2021-10-03T07:57:18.000Z</time>
      </trkpt>
      <trkpt lat="43.63133" lon="2.30862">
        <ele>227.689534</ele>
        <time>2021-10-03T07:57:19.000Z</time>
      </trkpt>
      <trkpt lat="43.63132" lon="2.30865">
        <ele>227.943096</ele>
        <time>2021-10-03T07:57:20.000Z</time>
      </trkpt>
      <trkpt lat="43.63131" lon="2.3087">
        <ele>228.278812</ele>
        <time>2021-10-03T07:57:21.000Z</time>
      </trkpt>
      <trkpt lat="43.6313" lon="2.30873">
        <ele>228.531946</ele>
        <time>2021-10-03T07:57:22.000Z</time>
      </trkpt>
      <trkpt lat="43.63129" lon="2.30877">
        <ele>228.831362</ele>
        <time>2021-10-03T07:57:23.000Z</time>
      </trkpt>
      <trkpt lat="43.63128" lon="2.3088">
        <ele>229.104777</ele>
        <time>2021-10-03T07:57:24.000Z</time>
      </trkpt>
      <trkpt lat="43.63127" lon="2.30884">
        <ele>229.386289</ele>
        <time>2021-10-03T07:57:25.000Z</time>
      </trkpt>
      <trkpt lat="43.63126" lon="2.30888">
        <ele>229.677604</ele>
        <time>2021-10-03T07:57:26.000Z</time>
      </trkpt>
      <trkpt lat="43.63126" lon="2.30891">
        <ele>229.967555</ele>
        <time>2021-10-03T07:57:27.000Z</time>
      </trkpt>
      <trkpt lat="43.63125" lon="2.30895">
        <ele>230.248434</ele>
        <time>2021-10-03T07:57:28.000Z</time>
      </trkpt>
      <trkpt lat="43.63123" lon="2.30899">
        <ele>230.580052</ele>
        <time>2021-10-03T07:57:29.000Z</time>
      </trkpt>
      <trkpt lat="43.63122" lon="2.30902">
        <ele>230.838832</ele>
        <time>2021-10-03T07:57:30.000Z</time>
      </trkpt>
      <trkpt lat="43.63121" lon="2.30904">
        <ele>231.03566</ele>
        <time>2021-10-03T07:57:31.000Z</time>
      </trkpt>
      <trkpt lat="43.63121" lon="2.30907">
        <ele>231.245748</ele>
        <time>2021-10-03T07:57:32.000Z</time>
      </trkpt>
      <trkpt lat="43.6312" lon="2.3091">
        <ele>231.47754</ele>
        <time>2021-10-03T07:57:33.000Z</time>
      </trkpt>
      <trkpt lat="43.6312" lon="2.30913">
        <ele>231.719806</ele>
        <time>2021-10-03T07:57:34.000Z</time>
      </trkpt>
      <trkpt lat="43.63118" lon="2.30916">
        <ele>231.970314</ele>
        <time>2021-10-03T07:57:35.000Z</time>
      </trkpt>
      <trkpt lat="43.63117" lon="2.30918">
        <ele>232.173096</ele>
        <time>2021-10-03T07:57:36.000Z</time>
      </trkpt>
      <trkpt lat="43.63116" lon="2.30922">
        <ele>232.447239</ele>
        <time>2021-10-03T07:57:37.000Z</time>
      </trkpt>
      <trkpt lat="43.63115" lon="2.30925">
        <ele>232.689505</ele>
        <time>2021-10-03T07:57:38.000Z</time>
      </trkpt>
      <trkpt lat="43.63114" lon="2.30928">
        <ele>232.983947</ele>
        <time>2021-10-03T07:57:39.000Z</time>
      </trkpt>
      <trkpt lat="43.63113" lon="2.30931">
        <ele>233.165181</ele>
        <time>2021-10-03T07:57:40.000Z</time>
      </trkpt>
      <trkpt lat="43.63112" lon="2.30933">
        <ele>233.353022</ele>
        <time>2021-10-03T07:57:41.000Z</time>
      </trkpt>
      <trkpt lat="43.63111" lon="2.30934">
        <ele>233.529303</ele>
        <time>2021-10-03T07:57:42.000Z</time>
      </trkpt>
      <trkpt lat="43.63109" lon="2.30935">
        <ele>233.736082</ele>
        <time>2021-10-03T07:57:43.000Z</time>
      </trkpt>
      <trkpt lat="43.63107" lon="2.30936">
        <ele>233.916165</ele>
        <time>2021-10-03T07:57:44.000Z</time>
      </trkpt>
      <trkpt lat="43.63107" lon="2.30938">
        <ele>234.071651</ele>
        <time>2021-10-03T07:57:45.000Z</time>
      </trkpt>
      <trkpt lat="43.63105" lon="2.3094">
        <ele>234.288834</ele>
        <time>2021-10-03T07:57:46.000Z</time>
      </trkpt>
      <trkpt lat="43.63103" lon="2.30943">
        <ele>234.569416</ele>
        <time>2021-10-03T07:57:47.000Z</time>
      </trkpt>
      <trkpt lat="43.63101" lon="2.30945">
        <ele>234.783985</ele>
        <time>2021-10-03T07:57:48.000Z</time>
      </trkpt>
      <trkpt lat="43.631" lon="2.30946">
        <ele>234.95359</ele>
        <time>2021-10-03T07:57:49.000Z</time>
      </trkpt>
      <trkpt lat="43.63098" lon="2.30948">
        <ele>235.187888</ele>
        <time>2021-10-03T07:57:50.000Z</time>
      </trkpt>
      <trkpt lat="43.63096" lon="2.3095">
        <ele>235.418103</ele>
        <time>2021-10-03T07:57:51.000Z</time>
      </trkpt>
      <trkpt lat="43.63094" lon="2.30952">
        <ele>235.675015</ele>
        <time>2021-10-03T07:57:52.000Z</time>
      </trkpt>
      <trkpt lat="43.63092" lon="2.30955">
        <ele>236.010279</ele>
        <time>2021-10-03T07:57:53.000Z</time>
      </trkpt>
      <trkpt lat="43.63089" lon="2.30956">
        <ele>236.34005</ele>
        <time>2021-10-03T07:57:54.000Z</time>
      </trkpt>
      <trkpt lat="43.63086" lon="2.30958">
        <ele>236.604999</ele>
        <time>2021-10-03T07:57:55.000Z</time>
      </trkpt>
      <trkpt lat="43.63085" lon="2.3096">
        <ele>236.807781</ele>
        <time>2021-10-03T07:57:56.000Z</time>
      </trkpt>
      <trkpt lat="43.63083" lon="2.3096">
        <ele>236.992171</ele>
        <time>2021-10-03T07:57:57.000Z</time>
      </trkpt>
      <trkpt lat="43.63081" lon="2.3096">
        <ele>237.226085</ele>
        <time>2021-10-03T07:57:58.000Z</time>
      </trkpt>
      <trkpt lat="43.6308" lon="2.3096">
        <ele>237.388807</ele>
        <time>2021-10-03T07:57:59.000Z</time>
      </trkpt>
      <trkpt lat="43.63077" lon="2.30961">
        <ele>237.615558</ele>
        <time>2021-10-03T07:58:00.000Z</time>
      </trkpt>
      <trkpt lat="43.63075" lon="2.30961">
        <ele>237.842308</ele>
        <time>2021-10-03T07:58:01.000Z</time>
      </trkpt>
      <trkpt lat="43.63073" lon="2.30962">
        <ele>238.024955</ele>
        <time>2021-10-03T07:58:02.000Z</time>
      </trkpt>
      <trkpt lat="43.63072" lon="2.30963">
        <ele>238.188479</ele>
        <time>2021-10-03T07:58:03.000Z</time>
      </trkpt>
      <trkpt lat="43.6307" lon="2.30963">
        <ele>238.341209</ele>
        <time>2021-10-03T07:58:04.000Z</time>
      </trkpt>
      <trkpt lat="43.63069" lon="2.30962">
        <ele>238.51392</ele>
        <time>2021-10-03T07:58:05.000Z</time>
      </trkpt>
      <trkpt lat="43.63067" lon="2.30961">
        <ele>238.713905</ele>
        <time>2021-10-03T07:58:06.000Z</time>
      </trkpt>
      <trkpt lat="43.63066" lon="2.30962">
        <ele>238.806482</ele>
        <time>2021-10-03T07:58:07.000Z</time>
      </trkpt>
      <trkpt lat="43.63065" lon="2.30961">
        <ele>238.972799</ele>
        <time>2021-10-03T07:58:08.000Z</time>
      </trkpt>
      <trkpt lat="43.63064" lon="2.3096">
        <ele>239.108306</ele>
        <time>2021-10-03T07:58:09.000Z</time>
      </trkpt>
      <trkpt lat="43.63062" lon="2.30959">
        <ele>239.288389</ele>
        <time>2021-10-03T07:58:10.000Z</time>
      </trkpt>
      <trkpt lat="43.63061" lon="2.30958">
        <ele>239.439045</ele>
        <time>2021-10-03T07:58:11.000Z</time>
      </trkpt>
      <trkpt lat="43.63059" lon="2.30957">
        <ele>239.608429</ele>
        <time>2021-10-03T07:58:12.000Z</time>
      </trkpt>
      <trkpt lat="43.63057" lon="2.30956">
        <ele>239.815208</ele>
        <time>2021-10-03T07:58:13.000Z</time>
      </trkpt>
      <trkpt lat="43.63056" lon="2.30955">
        <ele>239.93089</ele>
        <time>2021-10-03T07:58:14.000Z</time>
      </trkpt>
      <trkpt lat="43.63054" lon="2.30954">
        <ele>240.140403</ele>
        <time>2021-10-03T07:58:15.000Z</time>
      </trkpt>
      <trkpt lat="43.63053" lon="2.30953">
        <ele>240.282927</ele>
        <time>2021-10-03T07:58:16.000Z</time>
      </trkpt>
      <trkpt lat="43.63052" lon="2.30952">
        <ele>240.452311</ele>
        <time>2021-10-03T07:58:17.000Z</time>
      </trkpt>
      <trkpt lat="43.63051" lon="2.30951">
        <ele>240.61689</ele>
        <time>2021-10-03T07:58:18.000Z</time>
      </trkpt>
      <trkpt lat="43.63048" lon="2.3095">
        <ele>240.854835</ele>
        <time>2021-10-03T07:58:19.000Z</time>
      </trkpt>
      <trkpt lat="43.63047" lon="2.30948">
        <ele>240.992671</ele>
        <time>2021-10-03T07:58:20.000Z</time>
      </trkpt>
      <trkpt lat="43.63046" lon="2.30947">
        <ele>241.182848</ele>
        <time>2021-10-03T07:58:21.000Z</time>
      </trkpt>
      <trkpt lat="43.63044" lon="2.30946">
        <ele>241.38491</ele>
        <time>2021-10-03T07:58:22.000Z</time>
      </trkpt>
      <trkpt lat="43.63042" lon="2.30945">
        <ele>241.589185</ele>
        <time>2021-10-03T07:58:23.000Z</time>
      </trkpt>
      <trkpt lat="43.63041" lon="2.30944">
        <ele>241.770941</ele>
        <time>2021-10-03T07:58:24.000Z</time>
      </trkpt>
      <trkpt lat="43.63039" lon="2.30943">
        <ele>241.975216</ele>
        <time>2021-10-03T07:58:25.000Z</time>
      </trkpt>
      <trkpt lat="43.63037" lon="2.30942">
        <ele>242.173432</ele>
        <time>2021-10-03T07:58:26.000Z</time>
      </trkpt>
      <trkpt lat="43.63035" lon="2.30941">
        <ele>242.413982</ele>
        <time>2021-10-03T07:58:27.000Z</time>
      </trkpt>
      <trkpt lat="43.63033" lon="2.30941">
        <ele>242.576871</ele>
        <time>2021-10-03T07:58:28.000Z</time>
      </trkpt>
      <trkpt lat="43.63031" lon="2.30939">
        <ele>242.840732</ele>
        <time>2021-10-03T07:58:29.000Z</time>
      </trkpt>
      <trkpt lat="43.63029" lon="2.30937">
        <ele>243.12949</ele>
        <time>2021-10-03T07:58:30.000Z</time>
      </trkpt>
      <trkpt lat="43.63027" lon="2.30935">
        <ele>243.380584</ele>
        <time>2021-10-03T07:58:31.000Z</time>
      </trkpt>
      <trkpt lat="43.63025" lon="2.30932">
        <ele>243.647429</ele>
        <time>2021-10-03T07:58:32.000Z</time>
      </trkpt>
      <trkpt lat="43.63023" lon="2.3093">
        <ele>243.897979</ele>
        <time>2021-10-03T07:58:33.000Z</time>
      </trkpt>
      <trkpt lat="43.63021" lon="2.30928">
        <ele>244.128194</ele>
        <time>2021-10-03T07:58:34.000Z</time>
      </trkpt>
      <trkpt lat="43.63019" lon="2.30925">
        <ele>244.400169</ele>
        <time>2021-10-03T07:58:35.000Z</time>
      </trkpt>
      <trkpt lat="43.63018" lon="2.30924">
        <ele>244.602231</ele>
        <time>2021-10-03T07:58:36.000Z</time>
      </trkpt>
      <trkpt lat="43.63015" lon="2.3092">
        <ele>244.983234</ele>
        <time>2021-10-03T07:58:37.000Z</time>
      </trkpt>
      <trkpt lat="43.63013" lon="2.30919">
        <ele>245.236502</ele>
        <time>2021-10-03T07:58:38.000Z</time>
      </trkpt>
      <trkpt lat="43.63011" lon="2.30917">
        <ele>245.455124</ele>
        <time>2021-10-03T07:58:39.000Z</time>
      </trkpt>
      <trkpt lat="43.6301" lon="2.30916">
        <ele>245.667213</ele>
        <time>2021-10-03T07:58:40.000Z</time>
      </trkpt>
      <trkpt lat="43.63008" lon="2.30915">
        <ele>245.941961</ele>
        <time>2021-10-03T07:58:41.000Z</time>
      </trkpt>
      <trkpt lat="43.63006" lon="2.30914">
        <ele>246.194269</ele>
        <time>2021-10-03T07:58:42.000Z</time>
      </trkpt>
      <trkpt lat="43.63004" lon="2.30913">
        <ele>246.44307</ele>
        <time>2021-10-03T07:58:43.000Z</time>
      </trkpt>
      <trkpt lat="43.63001" lon="2.30912">
        <ele>246.774847</ele>
        <time>2021-10-03T07:58:44.000Z</time>
      </trkpt>
      <trkpt lat="43.62999" lon="2.30912">
        <ele>246.968872</ele>
        <time>2021-10-03T07:58:45.000Z</time>
      </trkpt>
      <trkpt lat="43.62998" lon="2.30912">
        <ele>247.160086</ele>
        <time>2021-10-03T07:58:46.000Z</time>
      </trkpt>
      <trkpt lat="43.62995" lon="2.3091">
        <ele>247.525697</ele>
        <time>2021-10-03T07:58:47.000Z</time>
      </trkpt>
      <trkpt lat="43.62992" lon="2.30908">
        <ele>247.902447</ele>
        <time>2021-10-03T07:58:48.000Z</time>
      </trkpt>
      <trkpt lat="43.6299" lon="2.30908">
        <ele>248.177195</ele>
        <time>2021-10-03T07:58:49.000Z</time>
      </trkpt>
      <trkpt lat="43.62987" lon="2.30907">
        <ele>248.591157</ele>
        <time>2021-10-03T07:58:50.000Z</time>
      </trkpt>
      <trkpt lat="43.62984" lon="2.30906">
        <ele>248.873842</ele>
        <time>2021-10-03T07:58:51.000Z</time>
      </trkpt>
      <trkpt lat="43.62982" lon="2.30906">
        <ele>249.123017</ele>
        <time>2021-10-03T07:58:52.000Z</time>
      </trkpt>
      <trkpt lat="43.6298" lon="2.30905">
        <ele>249.444718</ele>
        <time>2021-10-03T07:58:53.000Z</time>
      </trkpt>
      <trkpt lat="43.62977" lon="2.30905">
        <ele>249.722632</ele>
        <time>2021-10-03T07:58:54.000Z</time>
      </trkpt>
      <trkpt lat="43.62974" lon="2.30905">
        <ele>250.097027</ele>
        <time>2021-10-03T07:58:55.000Z</time>
      </trkpt>
      <trkpt lat="43.62972" lon="2.30905">
        <ele>250.412976</ele>
        <time>2021-10-03T07:58:56.000Z</time>
      </trkpt>
      <trkpt lat="43.62969" lon="2.30905">
        <ele>250.69417</ele>
        <time>2021-10-03T07:58:57.000Z</time>
      </trkpt>
      <trkpt lat="43.62967" lon="2.30905">
        <ele>251.020723</ele>
        <time>2021-10-03T07:58:58.000Z</time>
      </trkpt>
      <trkpt lat="43.62964" lon="2.30905">
        <ele>251.307168</ele>
        <time>2021-10-03T07:58:59.000Z</time>
      </trkpt>
      <trkpt lat="43.62963" lon="2.30906">
        <ele>251.528908</ele>
        <time>2021-10-03T07:59:00.000Z</time>
      </trkpt>
      <trkpt lat="43.6296" lon="2.30906">
        <ele>251.822039</ele>
        <time>2021-10-03T07:59:01.000Z</time>
      </trkpt>
      <trkpt lat="43.62958" lon="2.30907">
        <ele>252.102008</ele>
        <time>2021-10-03T07:59:02.000Z</time>
      </trkpt>
      <trkpt lat="43.62956" lon="2.30907">
        <ele>252.36785</ele>
        <time>2021-10-03T07:59:03.000Z</time>
      </trkpt>
      <trkpt lat="43.62953" lon="2.30907">
        <ele>252.646176</ele>
        <time>2021-10-03T07:59:04.000Z</time>
      </trkpt>
      <trkpt lat="43.62951" lon="2.30907">
        <ele>252.887721</ele>
        <time>2021-10-03T07:59:05.000Z</time>
      </trkpt>
      <trkpt lat="43.62949" lon="2.30907">
        <ele>253.165497</ele>
        <time>2021-10-03T07:59:06.000Z</time>
      </trkpt>
      <trkpt lat="43.62947" lon="2.30906">
        <ele>253.400883</ele>
        <time>2021-10-03T07:59:07.000Z</time>
      </trkpt>
      <trkpt lat="43.62945" lon="2.30906">
        <ele>253.632999</ele>
        <time>2021-10-03T07:59:08.000Z</time>
      </trkpt>
      <trkpt lat="43.62943" lon="2.30906">
        <ele>253.910776</ele>
        <time>2021-10-03T07:59:09.000Z</time>
      </trkpt>
      <trkpt lat="43.62941" lon="2.30906">
        <ele>254.144369</ele>
        <time>2021-10-03T07:59:10.000Z</time>
      </trkpt>
      <trkpt lat="43.62939" lon="2.30906">
        <ele>254.373836</ele>
        <time>2021-10-03T07:59:11.000Z</time>
      </trkpt>
      <trkpt lat="43.62937" lon="2.30906">
        <ele>254.609222</ele>
        <time>2021-10-03T07:59:12.000Z</time>
      </trkpt>
      <trkpt lat="43.62935" lon="2.30906">
        <ele>254.887548</ele>
        <time>2021-10-03T07:59:13.000Z</time>
      </trkpt>
      <trkpt lat="43.62933" lon="2.30906">
        <ele>255.165462</ele>
        <time>2021-10-03T07:59:14.000Z</time>
      </trkpt>
      <trkpt lat="43.62931" lon="2.30905">
        <ele>255.402948</ele>
        <time>2021-10-03T07:59:15.000Z</time>
      </trkpt>
      <trkpt lat="43.62929" lon="2.30905">
        <ele>255.681274</ele>
        <time>2021-10-03T07:59:16.000Z</time>
      </trkpt>
      <trkpt lat="43.62926" lon="2.30905">
        <ele>255.959188</ele>
        <time>2021-10-03T07:59:17.000Z</time>
      </trkpt>
      <trkpt lat="43.62924" lon="2.30904">
        <ele>256.207989</ele>
        <time>2021-10-03T07:59:18.000Z</time>
      </trkpt>
      <trkpt lat="43.62923" lon="2.30903">
        <ele>256.399203</ele>
        <time>2021-10-03T07:59:19.000Z</time>
      </trkpt>
      <trkpt lat="43.62921" lon="2.30904">
        <ele>256.580572</ele>
        <time>2021-10-03T07:59:20.000Z</time>
      </trkpt>
      <trkpt lat="43.62919" lon="2.30904">
        <ele>256.858349</ele>
        <time>2021-10-03T07:59:21.000Z</time>
      </trkpt>
      <trkpt lat="43.62916" lon="2.30904">
        <ele>257.274887</ele>
        <time>2021-10-03T07:59:22.000Z</time>
      </trkpt>
      <trkpt lat="43.62913" lon="2.30905">
        <ele>257.568837</ele>
        <time>2021-10-03T07:59:23.000Z</time>
      </trkpt>
      <trkpt lat="43.62911" lon="2.30907">
        <ele>257.876008</ele>
        <time>2021-10-03T07:59:24.000Z</time>
      </trkpt>
      <trkpt lat="43.62909" lon="2.30908">
        <ele>258.132074</ele>
        <time>2021-10-03T07:59:25.000Z</time>
      </trkpt>
      <trkpt lat="43.62908" lon="2.3091">
        <ele>258.386882</ele>
        <time>2021-10-03T07:59:26.000Z</time>
      </trkpt>
      <trkpt lat="43.62905" lon="2.30913">
        <ele>258.814588</ele>
        <time>2021-10-03T07:59:27.000Z</time>
      </trkpt>
      <trkpt lat="43.62902" lon="2.30916">
        <ele>259.267766</ele>
        <time>2021-10-03T07:59:28.000Z</time>
      </trkpt>
      <trkpt lat="43.629" lon="2.30921">
        <ele>259.724807</ele>
        <time>2021-10-03T07:59:29.000Z</time>
      </trkpt>
      <trkpt lat="43.62899" lon="2.30925">
        <ele>260.101579</ele>
        <time>2021-10-03T07:59:30.000Z</time>
      </trkpt>
      <trkpt lat="43.62897" lon="2.30927">
        <ele>260.445611</ele>
        <time>2021-10-03T07:59:31.000Z</time>
      </trkpt>
      <trkpt lat="43.62893" lon="2.30931">
        <ele>260.990656</ele>
        <time>2021-10-03T07:59:32.000Z</time>
      </trkpt>
      <trkpt lat="43.62891" lon="2.30935">
        <ele>261.39434</ele>
        <time>2021-10-03T07:59:33.000Z</time>
      </trkpt>
      <trkpt lat="43.62889" lon="2.30939">
        <ele>261.857842</ele>
        <time>2021-10-03T07:59:34.000Z</time>
      </trkpt>
      <trkpt lat="43.62887" lon="2.30944">
        <ele>262.326933</ele>
        <time>2021-10-03T07:59:35.000Z</time>
      </trkpt>
      <trkpt lat="43.62884" lon="2.30949">
        <ele>262.921774</ele>
        <time>2021-10-03T07:59:36.000Z</time>
      </trkpt>
      <trkpt lat="43.62881" lon="2.30954">
        <ele>263.453546</ele>
        <time>2021-10-03T07:59:37.000Z</time>
      </trkpt>
      <trkpt lat="43.6288" lon="2.30959">
        <ele>263.872774</ele>
        <time>2021-10-03T07:59:38.000Z</time>
      </trkpt>
      <trkpt lat="43.62879" lon="2.30963">
        <ele>264.27971</ele>
        <time>2021-10-03T07:59:39.000Z</time>
      </trkpt>
      <trkpt lat="43.62878" lon="2.30967">
        <ele>264.625664</ele>
        <time>2021-10-03T07:59:40.000Z</time>
      </trkpt>
      <trkpt lat="43.62877" lon="2.30971">
        <ele>265.016116</ele>
        <time>2021-10-03T07:59:41.000Z</time>
      </trkpt>
      <trkpt lat="43.62876" lon="2.30975">
        <ele>265.336972</ele>
        <time>2021-10-03T07:59:42.000Z</time>
      </trkpt>
      <trkpt lat="43.62875" lon="2.30978">
        <ele>265.691403</ele>
        <time>2021-10-03T07:59:43.000Z</time>
      </trkpt>
      <trkpt lat="43.62874" lon="2.30981">
        <ele>265.939731</ele>
        <time>2021-10-03T07:59:44.000Z</time>
      </trkpt>
      <trkpt lat="43.62872" lon="2.30983">
        <ele>266.223598</ele>
        <time>2021-10-03T07:59:45.000Z</time>
      </trkpt>
      <trkpt lat="43.62872" lon="2.30986">
        <ele>266.519551</ele>
        <time>2021-10-03T07:59:46.000Z</time>
      </trkpt>
      <trkpt lat="43.6287" lon="2.3099">
        <ele>266.88077</ele>
        <time>2021-10-03T07:59:47.000Z</time>
      </trkpt>
      <trkpt lat="43.62869" lon="2.30992">
        <ele>267.200378</ele>
        <time>2021-10-03T07:59:48.000Z</time>
      </trkpt>
      <trkpt lat="43.62867" lon="2.30994">
        <ele>267.570969</ele>
        <time>2021-10-03T07:59:49.000Z</time>
      </trkpt>
      <trkpt lat="43.62866" lon="2.30997">
        <ele>268.083329</ele>
        <time>2021-10-03T07:59:50.000Z</time>
      </trkpt>
      <trkpt lat="43.62865" lon="2.31">
        <ele>268.427391</ele>
        <time>2021-10-03T07:59:51.000Z</time>
      </trkpt>
      <trkpt lat="43.62863" lon="2.31001">
        <ele>268.786216</ele>
        <time>2021-10-03T07:59:52.000Z</time>
      </trkpt>
      <trkpt lat="43.62862" lon="2.31004">
        <ele>269.172909</ele>
        <time>2021-10-03T07:59:53.000Z</time>
      </trkpt>
      <trkpt lat="43.6286" lon="2.31007">
        <ele>269.735225</ele>
        <time>2021-10-03T07:59:54.000Z</time>
      </trkpt>
      <trkpt lat="43.62859" lon="2.31008">
        <ele>269.976164</ele>
        <time>2021-10-03T07:59:55.000Z</time>
      </trkpt>
      <trkpt lat="43.62857" lon="2.31011">
        <ele>270.467737</ele>
        <time>2021-10-03T07:59:56.000Z</time>
      </trkpt>
      <trkpt lat="43.62855" lon="2.31012">
        <ele>270.811479</ele>
        <time>2021-10-03T07:59:57.000Z</time>
      </trkpt>
      <trkpt lat="43.62853" lon="2.31014">
        <ele>271.214178</ele>
        <time>2021-10-03T07:59:58.000Z</time>
      </trkpt>
      <trkpt lat="43.62852" lon="2.31016">
        <ele>271.59776</ele>
        <time>2021-10-03T07:59:59.000Z</time>
      </trkpt>
      <trkpt lat="43.6285" lon="2.31018">
        <ele>271.968351</ele>
        <time>2021-10-03T08:00:00.000Z</time>
      </trkpt>
      <trkpt lat="43.62847" lon="2.31022">
        <ele>272.658158</ele>
        <time>2021-10-03T08:00:01.000Z</time>
      </trkpt>
      <trkpt lat="43.62845" lon="2.31023">
        <ele>273.082492</ele>
        <time>2021-10-03T08:00:02.000Z</time>
      </trkpt>
      <trkpt lat="43.62843" lon="2.31025">
        <ele>273.518627</ele>
        <time>2021-10-03T08:00:03.000Z</time>
      </trkpt>
      <trkpt lat="43.62841" lon="2.31027">
        <ele>274.001753</ele>
        <time>2021-10-03T08:00:04.000Z</time>
      </trkpt>
      <trkpt lat="43.62838" lon="2.3103">
        <ele>274.645368</ele>
        <time>2021-10-03T08:00:05.000Z</time>
      </trkpt>
      <trkpt lat="43.62835" lon="2.31031">
        <ele>275.108495</ele>
        <time>2021-10-03T08:00:06.000Z</time>
      </trkpt>
      <trkpt lat="43.62833" lon="2.31032">
        <ele>275.512916</ele>
        <time>2021-10-03T08:00:07.000Z</time>
      </trkpt>
      <trkpt lat="43.62831" lon="2.31032">
        <ele>275.868693</ele>
        <time>2021-10-03T08:00:08.000Z</time>
      </trkpt>
      <trkpt lat="43.62829" lon="2.31032">
        <ele>276.260638</ele>
        <time>2021-10-03T08:00:09.000Z</time>
      </trkpt>
      <trkpt lat="43.62827" lon="2.31031">
        <ele>276.584285</ele>
        <time>2021-10-03T08:00:10.000Z</time>
      </trkpt>
      <trkpt lat="43.62826" lon="2.3103">
        <ele>276.861895</ele>
        <time>2021-10-03T08:00:11.000Z</time>
      </trkpt>
      <trkpt lat="43.62825" lon="2.3103">
        <ele>277.078687</ele>
        <time>2021-10-03T08:00:12.000Z</time>
      </trkpt>
      <trkpt lat="43.62823" lon="2.31031">
        <ele>277.445902</ele>
        <time>2021-10-03T08:00:13.000Z</time>
      </trkpt>
      <trkpt lat="43.62821" lon="2.31031">
        <ele>277.7315</ele>
        <time>2021-10-03T08:00:14.000Z</time>
      </trkpt>
      <trkpt lat="43.62819" lon="2.31032">
        <ele>278.075341</ele>
        <time>2021-10-03T08:00:15.000Z</time>
      </trkpt>
      <trkpt lat="43.62818" lon="2.31032">
        <ele>278.413353</ele>
        <time>2021-10-03T08:00:16.000Z</time>
      </trkpt>
      <trkpt lat="43.62816" lon="2.31032">
        <ele>278.698951</ele>
        <time>2021-10-03T08:00:17.000Z</time>
      </trkpt>
      <trkpt lat="43.62814" lon="2.31031">
        <ele>278.973262</ele>
        <time>2021-10-03T08:00:18.000Z</time>
      </trkpt>
      <trkpt lat="43.62813" lon="2.31031">
        <ele>279.293511</ele>
        <time>2021-10-03T08:00:19.000Z</time>
      </trkpt>
      <trkpt lat="43.62811" lon="2.31031">
        <ele>279.649288</ele>
        <time>2021-10-03T08:00:20.000Z</time>
      </trkpt>
      <trkpt lat="43.62809" lon="2.31032">
        <ele>279.94001</ele>
        <time>2021-10-03T08:00:21.000Z</time>
      </trkpt>
      <trkpt lat="43.62807" lon="2.31031">
        <ele>280.297079</ele>
        <time>2021-10-03T08:00:22.000Z</time>
      </trkpt>
      <trkpt lat="43.62805" lon="2.31031">
        <ele>280.634847</ele>
        <time>2021-10-03T08:00:23.000Z</time>
      </trkpt>
      <trkpt lat="43.62804" lon="2.31031">
        <ele>280.923902</ele>
        <time>2021-10-03T08:00:24.000Z</time>
      </trkpt>
      <trkpt lat="43.62802" lon="2.31031">
        <ele>281.193341</ele>
        <time>2021-10-03T08:00:25.000Z</time>
      </trkpt>
      <trkpt lat="43.628" lon="2.31032">
        <ele>281.538235</ele>
        <time>2021-10-03T08:00:26.000Z</time>
      </trkpt>
      <trkpt lat="43.62798" lon="2.31033">
        <ele>281.950338</ele>
        <time>2021-10-03T08:00:27.000Z</time>
      </trkpt>
      <trkpt lat="43.62796" lon="2.31032">
        <ele>282.324269</ele>
        <time>2021-10-03T08:00:28.000Z</time>
      </trkpt>
      <trkpt lat="43.62795" lon="2.3103">
        <ele>282.632409</ele>
        <time>2021-10-03T08:00:29.000Z</time>
      </trkpt>
      <trkpt lat="43.62793" lon="2.3103">
        <ele>282.985515</ele>
        <time>2021-10-03T08:00:30.000Z</time>
      </trkpt>
      <trkpt lat="43.62791" lon="2.3103">
        <ele>283.335087</ele>
        <time>2021-10-03T08:00:31.000Z</time>
      </trkpt>
      <trkpt lat="43.62789" lon="2.31031">
        <ele>283.633445</ele>
        <time>2021-10-03T08:00:32.000Z</time>
      </trkpt>
      <trkpt lat="43.62788" lon="2.31031">
        <ele>283.900414</ele>
        <time>2021-10-03T08:00:33.000Z</time>
      </trkpt>
      <trkpt lat="43.62786" lon="2.31031">
        <ele>284.24038</ele>
        <time>2021-10-03T08:00:34.000Z</time>
      </trkpt>
      <trkpt lat="43.62784" lon="2.31031">
        <ele>284.507039</ele>
        <time>2021-10-03T08:00:35.000Z</time>
      </trkpt>
      <trkpt lat="43.62783" lon="2.31031">
        <ele>284.72383</ele>
        <time>2021-10-03T08:00:36.000Z</time>
      </trkpt>
      <trkpt lat="43.62781" lon="2.31031">
        <ele>285.115141</ele>
        <time>2021-10-03T08:00:37.000Z</time>
      </trkpt>
      <trkpt lat="43.62779" lon="2.31031">
        <ele>285.452909</ele>
        <time>2021-10-03T08:00:38.000Z</time>
      </trkpt>
      <trkpt lat="43.62777" lon="2.31031">
        <ele>285.790921</ele>
        <time>2021-10-03T08:00:39.000Z</time>
      </trkpt>
      <trkpt lat="43.62776" lon="2.31031">
        <ele>286.075357</ele>
        <time>2021-10-03T08:00:40.000Z</time>
      </trkpt>
      <trkpt lat="43.62774" lon="2.31031">
        <ele>286.415324</ele>
        <time>2021-10-03T08:00:41.000Z</time>
      </trkpt>
      <trkpt lat="43.62771" lon="2.31031">
        <ele>286.807269</ele>
        <time>2021-10-03T08:00:42.000Z</time>
      </trkpt>
      <trkpt lat="43.62769" lon="2.3103">
        <ele>287.301028</ele>
        <time>2021-10-03T08:00:43.000Z</time>
      </trkpt>
      <trkpt lat="43.62767" lon="2.31029">
        <ele>287.672418</ele>
        <time>2021-10-03T08:00:44.000Z</time>
      </trkpt>
      <trkpt lat="43.62765" lon="2.31028">
        <ele>288.086326</ele>
        <time>2021-10-03T08:00:45.000Z</time>
      </trkpt>
      <trkpt lat="43.62763" lon="2.31028">
        <ele>288.371053</ele>
        <time>2021-10-03T08:00:46.000Z</time>
      </trkpt>
      <trkpt lat="43.62761" lon="2.31029">
        <ele>288.638951</ele>
        <time>2021-10-03T08:00:47.000Z</time>
      </trkpt>
      <trkpt lat="43.62759" lon="2.31028">
        <ele>289.031951</ele>
        <time>2021-10-03T08:00:48.000Z</time>
      </trkpt>
      <trkpt lat="43.62757" lon="2.31028">
        <ele>289.518106</ele>
        <time>2021-10-03T08:00:49.000Z</time>
      </trkpt>
      <trkpt lat="43.62755" lon="2.31026">
        <ele>289.889496</ele>
        <time>2021-10-03T08:00:50.000Z</time>
      </trkpt>
      <trkpt lat="43.62753" lon="2.31026">
        <ele>290.191988</ele>
        <time>2021-10-03T08:00:51.000Z</time>
      </trkpt>
      <trkpt lat="43.62752" lon="2.31025">
        <ele>290.469599</ele>
        <time>2021-10-03T08:00:52.000Z</time>
      </trkpt>
      <trkpt lat="43.6275" lon="2.31024">
        <ele>290.835826</ele>
        <time>2021-10-03T08:00:53.000Z</time>
      </trkpt>
      <trkpt lat="43.62748" lon="2.31022">
        <ele>291.245381</ele>
        <time>2021-10-03T08:00:54.000Z</time>
      </trkpt>
      <trkpt lat="43.62746" lon="2.31021">
        <ele>291.63441</ele>
        <time>2021-10-03T08:00:55.000Z</time>
      </trkpt>
      <trkpt lat="43.62744" lon="2.31019">
        <ele>291.971097</ele>
        <time>2021-10-03T08:00:56.000Z</time>
      </trkpt>
      <trkpt lat="43.62742" lon="2.31019">
        <ele>292.291346</ele>
        <time>2021-10-03T08:00:57.000Z</time>
      </trkpt>
      <trkpt lat="43.62741" lon="2.31019">
        <ele>292.629113</ele>
        <time>2021-10-03T08:00:58.000Z</time>
      </trkpt>
      <trkpt lat="43.62739" lon="2.3102">
        <ele>292.916157</ele>
        <time>2021-10-03T08:00:59.000Z</time>
      </trkpt>
      <trkpt lat="43.62737" lon="2.3102">
        <ele>293.222722</ele>
        <time>2021-10-03T08:01:00.000Z</time>
      </trkpt>
      <trkpt lat="43.62736" lon="2.31021">
        <ele>293.531708</ele>
        <time>2021-10-03T08:01:01.000Z</time>
      </trkpt>
      <trkpt lat="43.62735" lon="2.31022">
        <ele>293.792628</ele>
        <time>2021-10-03T08:01:02.000Z</time>
      </trkpt>
      <trkpt lat="43.62734" lon="2.31024">
        <ele>294.086668</ele>
        <time>2021-10-03T08:01:03.000Z</time>
      </trkpt>
      <trkpt lat="43.62734" lon="2.31026">
        <ele>294.280345</ele>
        <time>2021-10-03T08:01:04.000Z</time>
      </trkpt>
      <trkpt lat="43.62732" lon="2.31027">
        <ele>294.564298</ele>
        <time>2021-10-03T08:01:05.000Z</time>
      </trkpt>
      <trkpt lat="43.62732" lon="2.31029">
        <ele>294.856187</ele>
        <time>2021-10-03T08:01:06.000Z</time>
      </trkpt>
      <trkpt lat="43.62732" lon="2.31032">
        <ele>295.135613</ele>
        <time>2021-10-03T08:01:07.000Z</time>
      </trkpt>
      <trkpt lat="43.62731" lon="2.31033">
        <ele>295.365635</ele>
        <time>2021-10-03T08:01:08.000Z</time>
      </trkpt>
      <trkpt lat="43.62731" lon="2.31034">
        <ele>295.554105</ele>
        <time>2021-10-03T08:01:09.000Z</time>
      </trkpt>
      <trkpt lat="43.6273" lon="2.31035">
        <ele>295.620856</ele>
        <time>2021-10-03T08:01:10.000Z</time>
      </trkpt>
      <trkpt lat="43.62729" lon="2.31038">
        <ele>296.102</ele>
        <time>2021-10-03T08:01:18.000Z</time>
      </trkpt>
      <trkpt lat="43.62729" lon="2.3104">
        <ele>296.326255</ele>
        <time>2021-10-03T08:01:19.000Z</time>
      </trkpt>
      <trkpt lat="43.62728" lon="2.31041">
        <ele>296.531956</ele>
        <time>2021-10-03T08:01:20.000Z</time>
      </trkpt>
      <trkpt lat="43.62727" lon="2.31043">
        <ele>296.866239</ele>
        <time>2021-10-03T08:01:21.000Z</time>
      </trkpt>
      <trkpt lat="43.62726" lon="2.31046">
        <ele>297.183049</ele>
        <time>2021-10-03T08:01:22.000Z</time>
      </trkpt>
      <trkpt lat="43.62726" lon="2.31048">
        <ele>297.499859</ele>
        <time>2021-10-03T08:01:23.000Z</time>
      </trkpt>
      <trkpt lat="43.62725" lon="2.3105">
        <ele>297.805226</ele>
        <time>2021-10-03T08:01:24.000Z</time>
      </trkpt>
      <trkpt lat="43.62724" lon="2.31053">
        <ele>298.174273</ele>
        <time>2021-10-03T08:01:25.000Z</time>
      </trkpt>
      <trkpt lat="43.62723" lon="2.31056">
        <ele>298.597773</ele>
        <time>2021-10-03T08:01:26.000Z</time>
      </trkpt>
      <trkpt lat="43.62722" lon="2.31059">
        <ele>298.972091</ele>
        <time>2021-10-03T08:01:27.000Z</time>
      </trkpt>
      <trkpt lat="43.62721" lon="2.31061">
        <ele>299.161961</ele>
        <time>2021-10-03T08:01:28.000Z</time>
      </trkpt>
      <trkpt lat="43.62721" lon="2.31064">
        <ele>299.379836</ele>
        <time>2021-10-03T08:01:29.000Z</time>
      </trkpt>
      <trkpt lat="43.6272" lon="2.31066">
        <ele>299.608288</ele>
        <time>2021-10-03T08:01:30.000Z</time>
      </trkpt>
      <trkpt lat="43.62719" lon="2.3107">
        <ele>299.881486</ele>
        <time>2021-10-03T08:01:31.000Z</time>
      </trkpt>
      <trkpt lat="43.62717" lon="2.31073">
        <ele>300.162676</ele>
        <time>2021-10-03T08:01:32.000Z</time>
      </trkpt>
      <trkpt lat="43.62716" lon="2.31075">
        <ele>300.402015</ele>
        <time>2021-10-03T08:01:33.000Z</time>
      </trkpt>
      <trkpt lat="43.62715" lon="2.31079">
        <ele>300.68682</ele>
        <time>2021-10-03T08:01:34.000Z</time>
      </trkpt>
      <trkpt lat="43.62714" lon="2.31082">
        <ele>300.94617</ele>
        <time>2021-10-03T08:01:35.000Z</time>
      </trkpt>
      <trkpt lat="43.62713" lon="2.31085">
        <ele>301.210505</ele>
        <time>2021-10-03T08:01:36.000Z</time>
      </trkpt>
      <trkpt lat="43.62712" lon="2.31088">
        <ele>301.486219</ele>
        <time>2021-10-03T08:01:37.000Z</time>
      </trkpt>
      <trkpt lat="43.62711" lon="2.31092">
        <ele>301.787573</ele>
        <time>2021-10-03T08:01:38.000Z</time>
      </trkpt>
      <trkpt lat="43.62709" lon="2.31095">
        <ele>302.112428</ele>
        <time>2021-10-03T08:01:39.000Z</time>
      </trkpt>
      <trkpt lat="43.62708" lon="2.31099">
        <ele>302.425178</ele>
        <time>2021-10-03T08:01:40.000Z</time>
      </trkpt>
      <trkpt lat="43.62706" lon="2.31102">
        <ele>302.712747</ele>
        <time>2021-10-03T08:01:41.000Z</time>
      </trkpt>
      <trkpt lat="43.62705" lon="2.31105">
        <ele>303.019819</ele>
        <time>2021-10-03T08:01:42.000Z</time>
      </trkpt>
      <trkpt lat="43.62703" lon="2.31108">
        <ele>303.304624</ele>
        <time>2021-10-03T08:01:43.000Z</time>
      </trkpt>
      <trkpt lat="43.62702" lon="2.31112">
        <ele>303.59889</ele>
        <time>2021-10-03T08:01:44.000Z</time>
      </trkpt>
      <trkpt lat="43.62702" lon="2.31115">
        <ele>303.859978</ele>
        <time>2021-10-03T08:01:45.000Z</time>
      </trkpt>
      <trkpt lat="43.62701" lon="2.31119">
        <ele>304.1504</ele>
        <time>2021-10-03T08:01:46.000Z</time>
      </trkpt>
      <trkpt lat="43.627" lon="2.31122">
        <ele>304.426114</ele>
        <time>2021-10-03T08:01:47.000Z</time>
      </trkpt>
      <trkpt lat="43.627" lon="2.31125">
        <ele>304.668955</ele>
        <time>2021-10-03T08:01:48.000Z</time>
      </trkpt>
      <trkpt lat="43.62699" lon="2.31127">
        <ele>304.834031</ele>
        <time>2021-10-03T08:01:49.000Z</time>
      </trkpt>
      <trkpt lat="43.62698" lon="2.3113">
        <ele>305.037802</ele>
        <time>2021-10-03T08:01:50.000Z</time>
      </trkpt>
      <trkpt lat="43.62698" lon="2.31132">
        <ele>305.255678</ele>
        <time>2021-10-03T08:01:51.000Z</time>
      </trkpt>
      <trkpt lat="43.62697" lon="2.31134">
        <ele>305.408278</ele>
        <time>2021-10-03T08:01:52.000Z</time>
      </trkpt>
      <trkpt lat="43.62697" lon="2.31136">
        <ele>305.588511</ele>
        <time>2021-10-03T08:01:53.000Z</time>
      </trkpt>
      <trkpt lat="43.62696" lon="2.31139">
        <ele>305.813505</ele>
        <time>2021-10-03T08:01:54.000Z</time>
      </trkpt>
      <trkpt lat="43.62695" lon="2.31141">
        <ele>305.991805</ele>
        <time>2021-10-03T08:01:55.000Z</time>
      </trkpt>
      <trkpt lat="43.62695" lon="2.31144">
        <ele>306.174229</ele>
        <time>2021-10-03T08:01:56.000Z</time>
      </trkpt>
      <trkpt lat="43.62694" lon="2.31146">
        <ele>306.419919</ele>
        <time>2021-10-03T08:01:57.000Z</time>
      </trkpt>
      <trkpt lat="43.62693" lon="2.31149">
        <ele>306.644913</ele>
        <time>2021-10-03T08:01:58.000Z</time>
      </trkpt>
      <trkpt lat="43.62692" lon="2.31152">
        <ele>306.89586</ele>
        <time>2021-10-03T08:01:59.000Z</time>
      </trkpt>
      <trkpt lat="43.62691" lon="2.31155">
        <ele>307.168469</ele>
        <time>2021-10-03T08:02:00.000Z</time>
      </trkpt>
      <trkpt lat="43.62691" lon="2.31158">
        <ele>307.403722</ele>
        <time>2021-10-03T08:02:01.000Z</time>
      </trkpt>
      <trkpt lat="43.6269" lon="2.31162">
        <ele>307.705077</ele>
        <time>2021-10-03T08:02:02.000Z</time>
      </trkpt>
      <trkpt lat="43.62689" lon="2.31165">
        <ele>307.988136</ele>
        <time>2021-10-03T08:02:03.000Z</time>
      </trkpt>
      <trkpt lat="43.62688" lon="2.31169">
        <ele>308.271194</ele>
        <time>2021-10-03T08:02:04.000Z</time>
      </trkpt>
      <trkpt lat="43.62687" lon="2.31172">
        <ele>308.532284</ele>
        <time>2021-10-03T08:02:05.000Z</time>
      </trkpt>
      <trkpt lat="43.62687" lon="2.31175">
        <ele>308.752386</ele>
        <time>2021-10-03T08:02:06.000Z</time>
      </trkpt>
      <trkpt lat="43.62687" lon="2.31178">
        <ele>308.96305</ele>
        <time>2021-10-03T08:02:07.000Z</time>
      </trkpt>
      <trkpt lat="43.62686" lon="2.3118">
        <ele>309.195199</ele>
        <time>2021-10-03T08:02:08.000Z</time>
      </trkpt>
      <trkpt lat="43.62685" lon="2.31184">
        <ele>309.475234</ele>
        <time>2021-10-03T08:02:09.000Z</time>
      </trkpt>
      <trkpt lat="43.62684" lon="2.31186">
        <ele>309.700187</ele>
        <time>2021-10-03T08:02:10.000Z</time>
      </trkpt>
      <trkpt lat="43.62683" lon="2.31188">
        <ele>309.876037</ele>
        <time>2021-10-03T08:02:11.000Z</time>
      </trkpt>
      <trkpt lat="43.62682" lon="2.3119">
        <ele>310.065969</ele>
        <time>2021-10-03T08:02:12.000Z</time>
      </trkpt>
      <trkpt lat="43.62681" lon="2.31192">
        <ele>310.259683</ele>
        <time>2021-10-03T08:02:13.000Z</time>
      </trkpt>
      <trkpt lat="43.6268" lon="2.31195">
        <ele>310.510631</ele>
        <time>2021-10-03T08:02:14.000Z</time>
      </trkpt>
      <trkpt lat="43.62679" lon="2.31199">
        <ele>310.830975</ele>
        <time>2021-10-03T08:02:15.000Z</time>
      </trkpt>
      <trkpt lat="43.62677" lon="2.31202">
        <ele>311.118545</ele>
        <time>2021-10-03T08:02:16.000Z</time>
      </trkpt>
      <trkpt lat="43.62676" lon="2.31204">
        <ele>311.36897</ele>
        <time>2021-10-03T08:02:17.000Z</time>
      </trkpt>
      <trkpt lat="43.62674" lon="2.31208">
        <ele>311.709562</ele>
        <time>2021-10-03T08:02:18.000Z</time>
      </trkpt>
      <trkpt lat="43.62673" lon="2.31212">
        <ele>312.055281</ele>
        <time>2021-10-03T08:02:19.000Z</time>
      </trkpt>
      <trkpt lat="43.62671" lon="2.31216">
        <ele>312.368965</ele>
        <time>2021-10-03T08:02:20.000Z</time>
      </trkpt>
      <trkpt lat="43.6267" lon="2.31219">
        <ele>312.626579</ele>
        <time>2021-10-03T08:02:21.000Z</time>
      </trkpt>
      <trkpt lat="43.62669" lon="2.31221">
        <ele>312.840513</ele>
        <time>2021-10-03T08:02:22.000Z</time>
      </trkpt>
      <trkpt lat="43.62667" lon="2.31223">
        <ele>313.109661</ele>
        <time>2021-10-03T08:02:23.000Z</time>
      </trkpt>
      <trkpt lat="43.62665" lon="2.31227">
        <ele>313.428849</ele>
        <time>2021-10-03T08:02:24.000Z</time>
      </trkpt>
      <trkpt lat="43.62664" lon="2.3123">
        <ele>313.710058</ele>
        <time>2021-10-03T08:02:25.000Z</time>
      </trkpt>
      <trkpt lat="43.62663" lon="2.31232">
        <ele>313.935685</ele>
        <time>2021-10-03T08:02:26.000Z</time>
      </trkpt>
      <trkpt lat="43.62662" lon="2.31235">
        <ele>314.188181</ele>
        <time>2021-10-03T08:02:27.000Z</time>
      </trkpt>
      <trkpt lat="43.6266" lon="2.31238">
        <ele>314.488696</ele>
        <time>2021-10-03T08:02:28.000Z</time>
      </trkpt>
      <trkpt lat="43.62658" lon="2.31242">
        <ele>314.795011</ele>
        <time>2021-10-03T08:02:29.000Z</time>
      </trkpt>
      <trkpt lat="43.62657" lon="2.31245">
        <ele>315.100668</ele>
        <time>2021-10-03T08:02:30.000Z</time>
      </trkpt>
      <trkpt lat="43.62655" lon="2.31249">
        <ele>315.463903</ele>
        <time>2021-10-03T08:02:31.000Z</time>
      </trkpt>
      <trkpt lat="43.62653" lon="2.31253">
        <ele>315.861593</ele>
        <time>2021-10-03T08:02:32.000Z</time>
      </trkpt>
      <trkpt lat="43.6265" lon="2.31256">
        <ele>316.27389</ele>
        <time>2021-10-03T08:02:33.000Z</time>
      </trkpt>
      <trkpt lat="43.62647" lon="2.31259">
        <ele>316.620189</ele>
        <time>2021-10-03T08:02:34.000Z</time>
      </trkpt>
      <trkpt lat="43.62645" lon="2.31261">
        <ele>316.916174</ele>
        <time>2021-10-03T08:02:35.000Z</time>
      </trkpt>
      <trkpt lat="43.62642" lon="2.31265">
        <ele>317.397007</ele>
        <time>2021-10-03T08:02:36.000Z</time>
      </trkpt>
      <trkpt lat="43.62639" lon="2.31269">
        <ele>317.786243</ele>
        <time>2021-10-03T08:02:37.000Z</time>
      </trkpt>
      <trkpt lat="43.62636" lon="2.31272">
        <ele>318.104788</ele>
        <time>2021-10-03T08:02:38.000Z</time>
      </trkpt>
      <trkpt lat="43.62632" lon="2.31276">
        <ele>318.267701</ele>
        <time>2021-10-03T08:02:39.000Z</time>
      </trkpt>
      <trkpt lat="43.62628" lon="2.31279">
        <ele>318.444977</ele>
        <time>2021-10-03T08:02:40.000Z</time>
      </trkpt>
      <trkpt lat="43.62625" lon="2.31283">
        <ele>318.603994</ele>
        <time>2021-10-03T08:02:41.000Z</time>
      </trkpt>
      <trkpt lat="43.62622" lon="2.31286">
        <ele>318.754612</ele>
        <time>2021-10-03T08:02:42.000Z</time>
      </trkpt>
      <trkpt lat="43.62619" lon="2.31289">
        <ele>318.92591</ele>
        <time>2021-10-03T08:02:43.000Z</time>
      </trkpt>
      <trkpt lat="43.62615" lon="2.31293">
        <ele>319.107997</ele>
        <time>2021-10-03T08:02:44.000Z</time>
      </trkpt>
      <trkpt lat="43.62611" lon="2.31297">
        <ele>319.277751</ele>
        <time>2021-10-03T08:02:45.000Z</time>
      </trkpt>
      <trkpt lat="43.62607" lon="2.313">
        <ele>319.452402</ele>
        <time>2021-10-03T08:02:46.000Z</time>
      </trkpt>
      <trkpt lat="43.62604" lon="2.31304">
        <ele>319.61327</ele>
        <time>2021-10-03T08:02:47.000Z</time>
      </trkpt>
      <trkpt lat="43.62601" lon="2.31308">
        <ele>319.800425</ele>
        <time>2021-10-03T08:02:48.000Z</time>
      </trkpt>
      <trkpt lat="43.62597" lon="2.31312">
        <ele>319.980879</ele>
        <time>2021-10-03T08:02:49.000Z</time>
      </trkpt>
      <trkpt lat="43.62593" lon="2.31315">
        <ele>320.156613</ele>
        <time>2021-10-03T08:02:50.000Z</time>
      </trkpt>
      <trkpt lat="43.62589" lon="2.31319">
        <ele>320.333889</ele>
        <time>2021-10-03T08:02:51.000Z</time>
      </trkpt>
      <trkpt lat="43.62585" lon="2.31322">
        <ele>320.51274</ele>
        <time>2021-10-03T08:02:52.000Z</time>
      </trkpt>
      <trkpt lat="43.62582" lon="2.31326">
        <ele>320.690016</ele>
        <time>2021-10-03T08:02:53.000Z</time>
      </trkpt>
      <trkpt lat="43.62577" lon="2.31329">
        <ele>320.87897</ele>
        <time>2021-10-03T08:02:54.000Z</time>
      </trkpt>
      <trkpt lat="43.62574" lon="2.31333">
        <ele>321.057821</ele>
        <time>2021-10-03T08:02:55.000Z</time>
      </trkpt>
      <trkpt lat="43.6257" lon="2.31336">
        <ele>321.23389</ele>
        <time>2021-10-03T08:02:56.000Z</time>
      </trkpt>
      <trkpt lat="43.62566" lon="2.31339">
        <ele>321.413979</ele>
        <time>2021-10-03T08:02:57.000Z</time>
      </trkpt>
      <trkpt lat="43.62561" lon="2.31341">
        <ele>321.604841</ele>
        <time>2021-10-03T08:02:58.000Z</time>
      </trkpt>
      <trkpt lat="43.62557" lon="2.31345">
        <ele>321.780574</ele>
        <time>2021-10-03T08:02:59.000Z</time>
      </trkpt>
      <trkpt lat="43.62554" lon="2.31348">
        <ele>321.948287</ele>
        <time>2021-10-03T08:03:00.000Z</time>
      </trkpt>
      <trkpt lat="43.6255" lon="2.31352">
        <ele>322.111208</ele>
        <time>2021-10-03T08:03:01.000Z</time>
      </trkpt>
      <trkpt lat="43.62546" lon="2.31355">
        <ele>322.281094</ele>
        <time>2021-10-03T08:03:02.000Z</time>
      </trkpt>
      <trkpt lat="43.62543" lon="2.31357">
        <ele>322.448263</ele>
        <time>2021-10-03T08:03:03.000Z</time>
      </trkpt>
      <trkpt lat="43.62539" lon="2.3136">
        <ele>322.614129</ele>
        <time>2021-10-03T08:03:04.000Z</time>
      </trkpt>
      <trkpt lat="43.62535" lon="2.31362">
        <ele>322.77985</ele>
        <time>2021-10-03T08:03:05.000Z</time>
      </trkpt>
      <trkpt lat="43.62531" lon="2.31366">
        <ele>322.960305</ele>
        <time>2021-10-03T08:03:06.000Z</time>
      </trkpt>
      <trkpt lat="43.62527" lon="2.31369">
        <ele>323.126171</ele>
        <time>2021-10-03T08:03:07.000Z</time>
      </trkpt>
      <trkpt lat="43.62523" lon="2.31372">
        <ele>323.316605</ele>
        <time>2021-10-03T08:03:08.000Z</time>
      </trkpt>
      <trkpt lat="43.62518" lon="2.31374">
        <ele>323.523521</ele>
        <time>2021-10-03T08:03:09.000Z</time>
      </trkpt>
      <trkpt lat="43.62513" lon="2.31378">
        <ele>323.726024</ele>
        <time>2021-10-03T08:03:10.000Z</time>
      </trkpt>
      <trkpt lat="43.62508" lon="2.31381">
        <ele>323.94488</ele>
        <time>2021-10-03T08:03:11.000Z</time>
      </trkpt>
      <trkpt lat="43.62504" lon="2.31384">
        <ele>324.131122</ele>
        <time>2021-10-03T08:03:12.000Z</time>
      </trkpt>
      <trkpt lat="43.625" lon="2.31386">
        <ele>324.305524</ele>
        <time>2021-10-03T08:03:13.000Z</time>
      </trkpt>
      <trkpt lat="43.62496" lon="2.31387">
        <ele>324.462388</ele>
        <time>2021-10-03T08:03:14.000Z</time>
      </trkpt>
      <trkpt lat="43.62491" lon="2.3139">
        <ele>324.643083</ele>
        <time>2021-10-03T08:03:15.000Z</time>
      </trkpt>
      <trkpt lat="43.62488" lon="2.31391">
        <ele>324.796302</ele>
        <time>2021-10-03T08:03:16.000Z</time>
      </trkpt>
      <trkpt lat="43.62484" lon="2.31395">
        <ele>324.981918</ele>
        <time>2021-10-03T08:03:17.000Z</time>
      </trkpt>
      <trkpt lat="43.6248" lon="2.31397">
        <ele>325.213386</ele>
        <time>2021-10-03T08:03:18.000Z</time>
      </trkpt>
      <trkpt lat="43.62476" lon="2.31399">
        <ele>325.487627</ele>
        <time>2021-10-03T08:03:19.000Z</time>
      </trkpt>
      <trkpt lat="43.62472" lon="2.31403">
        <ele>325.761508</ele>
        <time>2021-10-03T08:03:20.000Z</time>
      </trkpt>
      <trkpt lat="43.62468" lon="2.31405">
        <ele>326.02404</ele>
        <time>2021-10-03T08:03:21.000Z</time>
      </trkpt>
      <trkpt lat="43.62464" lon="2.31407">
        <ele>326.266082</ele>
        <time>2021-10-03T08:03:22.000Z</time>
      </trkpt>
      <trkpt lat="43.62461" lon="2.3141">
        <ele>326.500099</ele>
        <time>2021-10-03T08:03:23.000Z</time>
      </trkpt>
      <trkpt lat="43.62456" lon="2.31412">
        <ele>326.77434</ele>
        <time>2021-10-03T08:03:24.000Z</time>
      </trkpt>
      <trkpt lat="43.62453" lon="2.31414">
        <ele>327.028692</ele>
        <time>2021-10-03T08:03:25.000Z</time>
      </trkpt>
      <trkpt lat="43.62449" lon="2.31416">
        <ele>327.274219</ele>
        <time>2021-10-03T08:03:26.000Z</time>
      </trkpt>
      <trkpt lat="43.62445" lon="2.31419">
        <ele>327.49909</ele>
        <time>2021-10-03T08:03:27.000Z</time>
      </trkpt>
      <trkpt lat="43.62442" lon="2.31422">
        <ele>327.747789</ele>
        <time>2021-10-03T08:03:28.000Z</time>
      </trkpt>
      <trkpt lat="43.62438" lon="2.31424">
        <ele>327.978323</ele>
        <time>2021-10-03T08:03:29.000Z</time>
      </trkpt>
      <trkpt lat="43.62436" lon="2.31428">
        <ele>328.214187</ele>
        <time>2021-10-03T08:03:30.000Z</time>
      </trkpt>
      <trkpt lat="43.62433" lon="2.31431">
        <ele>328.451276</ele>
        <time>2021-10-03T08:03:31.000Z</time>
      </trkpt>
      <trkpt lat="43.6243" lon="2.31436">
        <ele>328.716522</ele>
        <time>2021-10-03T08:03:32.000Z</time>
      </trkpt>
      <trkpt lat="43.62427" lon="2.3144">
        <ele>328.965314</ele>
        <time>2021-10-03T08:03:33.000Z</time>
      </trkpt>
      <trkpt lat="43.62424" lon="2.31444">
        <ele>329.214043</ele>
        <time>2021-10-03T08:03:34.000Z</time>
      </trkpt>
      <trkpt lat="43.62422" lon="2.31448">
        <ele>329.451253</ele>
        <time>2021-10-03T08:03:35.000Z</time>
      </trkpt>
      <trkpt lat="43.6242" lon="2.31453">
        <ele>329.678333</ele>
        <time>2021-10-03T08:03:36.000Z</time>
      </trkpt>
      <trkpt lat="43.62417" lon="2.31457">
        <ele>329.8979</ele>
        <time>2021-10-03T08:03:37.000Z</time>
      </trkpt>
      <trkpt lat="43.62415" lon="2.31462">
        <ele>330.174058</ele>
        <time>2021-10-03T08:03:38.000Z</time>
      </trkpt>
      <trkpt lat="43.62412" lon="2.31467">
        <ele>330.436083</ele>
        <time>2021-10-03T08:03:39.000Z</time>
      </trkpt>
      <trkpt lat="43.6241" lon="2.31471">
        <ele>330.687474</ele>
        <time>2021-10-03T08:03:40.000Z</time>
      </trkpt>
      <trkpt lat="43.62408" lon="2.31476">
        <ele>330.938168</ele>
        <time>2021-10-03T08:03:41.000Z</time>
      </trkpt>
      <trkpt lat="43.62406" lon="2.31482">
        <ele>331.196666</ele>
        <time>2021-10-03T08:03:42.000Z</time>
      </trkpt>
      <trkpt lat="43.62404" lon="2.31486">
        <ele>331.448258</ele>
        <time>2021-10-03T08:03:43.000Z</time>
      </trkpt>
      <trkpt lat="43.62402" lon="2.31492">
        <ele>331.691198</ele>
        <time>2021-10-03T08:03:44.000Z</time>
      </trkpt>
      <trkpt lat="43.62401" lon="2.31496">
        <ele>331.923725</ele>
        <time>2021-10-03T08:03:45.000Z</time>
      </trkpt>
      <trkpt lat="43.62399" lon="2.31501">
        <ele>332.153959</ele>
        <time>2021-10-03T08:03:46.000Z</time>
      </trkpt>
      <trkpt lat="43.62399" lon="2.31506">
        <ele>332.376544</ele>
        <time>2021-10-03T08:03:47.000Z</time>
      </trkpt>
      <trkpt lat="43.62398" lon="2.31512">
        <ele>332.608897</ele>
        <time>2021-10-03T08:03:48.000Z</time>
      </trkpt>
      <trkpt lat="43.62398" lon="2.31517">
        <ele>332.853657</ele>
        <time>2021-10-03T08:03:49.000Z</time>
      </trkpt>
      <trkpt lat="43.62397" lon="2.31523">
        <ele>333.099605</ele>
        <time>2021-10-03T08:03:50.000Z</time>
      </trkpt>
      <trkpt lat="43.62397" lon="2.31528">
        <ele>333.335624</ele>
        <time>2021-10-03T08:03:51.000Z</time>
      </trkpt>
      <trkpt lat="43.62397" lon="2.31534">
        <ele>333.585922</ele>
        <time>2021-10-03T08:03:52.000Z</time>
      </trkpt>
      <trkpt lat="43.62397" lon="2.31539">
        <ele>333.787789</ele>
        <time>2021-10-03T08:03:53.000Z</time>
      </trkpt>
      <trkpt lat="43.62397" lon="2.31544">
        <ele>334.01143</ele>
        <time>2021-10-03T08:03:54.000Z</time>
      </trkpt>
      <trkpt lat="43.62397" lon="2.31548">
        <ele>334.196582</ele>
        <time>2021-10-03T08:03:55.000Z</time>
      </trkpt>
      <trkpt lat="43.62397" lon="2.31552">
        <ele>334.37141</ele>
        <time>2021-10-03T08:03:56.000Z</time>
      </trkpt>
      <trkpt lat="43.62397" lon="2.31557">
        <ele>334.585575</ele>
        <time>2021-10-03T08:03:57.000Z</time>
      </trkpt>
      <trkpt lat="43.62397" lon="2.31562">
        <ele>334.827175</ele>
        <time>2021-10-03T08:03:58.000Z</time>
      </trkpt>
      <trkpt lat="43.62397" lon="2.31567">
        <ele>335.032598</ele>
        <time>2021-10-03T08:03:59.000Z</time>
      </trkpt>
      <trkpt lat="43.62397" lon="2.31571">
        <ele>335.21271</ele>
        <time>2021-10-03T08:04:00.000Z</time>
      </trkpt>
      <trkpt lat="43.62397" lon="2.31576">
        <ele>335.440067</ele>
        <time>2021-10-03T08:04:01.000Z</time>
      </trkpt>
      <trkpt lat="43.62397" lon="2.31581">
        <ele>335.638227</ele>
        <time>2021-10-03T08:04:02.000Z</time>
      </trkpt>
      <trkpt lat="43.62396" lon="2.31585">
        <ele>335.822343</ele>
        <time>2021-10-03T08:04:03.000Z</time>
      </trkpt>
      <trkpt lat="43.62395" lon="2.31589">
        <ele>335.895579</ele>
        <time>2021-10-03T08:04:04.000Z</time>
      </trkpt>
      <trkpt lat="43.62393" lon="2.31593">
        <ele>335.927174</ele>
        <time>2021-10-03T08:04:05.000Z</time>
      </trkpt>
      <trkpt lat="43.62392" lon="2.31597">
        <ele>335.960039</ele>
        <time>2021-10-03T08:04:06.000Z</time>
      </trkpt>
      <trkpt lat="43.6239" lon="2.31601">
        <ele>335.99211</ele>
        <time>2021-10-03T08:04:07.000Z</time>
      </trkpt>
      <trkpt lat="43.62388" lon="2.31605">
        <ele>336.028266</ele>
        <time>2021-10-03T08:04:08.000Z</time>
      </trkpt>
      <trkpt lat="43.62386" lon="2.3161">
        <ele>336.070393</ele>
        <time>2021-10-03T08:04:09.000Z</time>
      </trkpt>
      <trkpt lat="43.62384" lon="2.31615">
        <ele>336.112253</ele>
        <time>2021-10-03T08:04:10.000Z</time>
      </trkpt>
      <trkpt lat="43.62382" lon="2.3162">
        <ele>336.152897</ele>
        <time>2021-10-03T08:04:11.000Z</time>
      </trkpt>
      <trkpt lat="43.6238" lon="2.31625">
        <ele>336.194873</ele>
        <time>2021-10-03T08:04:12.000Z</time>
      </trkpt>
      <trkpt lat="43.62378" lon="2.3163">
        <ele>336.236123</ele>
        <time>2021-10-03T08:04:13.000Z</time>
      </trkpt>
      <trkpt lat="43.62376" lon="2.31635">
        <ele>336.276545</ele>
        <time>2021-10-03T08:04:14.000Z</time>
      </trkpt>
      <trkpt lat="43.62374" lon="2.31641">
        <ele>336.320254</ele>
        <time>2021-10-03T08:04:15.000Z</time>
      </trkpt>
      <trkpt lat="43.62372" lon="2.31645">
        <ele>336.360497</ele>
        <time>2021-10-03T08:04:16.000Z</time>
      </trkpt>
      <trkpt lat="43.6237" lon="2.31651">
        <ele>336.405453</ele>
        <time>2021-10-03T08:04:17.000Z</time>
      </trkpt>
      <trkpt lat="43.62368" lon="2.31656">
        <ele>336.449486</ele>
        <time>2021-10-03T08:04:18.000Z</time>
      </trkpt>
      <trkpt lat="43.62366" lon="2.31662">
        <ele>336.493194</ele>
        <time>2021-10-03T08:04:19.000Z</time>
      </trkpt>
      <trkpt lat="43.62364" lon="2.31667">
        <ele>336.535506</ele>
        <time>2021-10-03T08:04:20.000Z</time>
      </trkpt>
      <trkpt lat="43.62361" lon="2.31673">
        <ele>336.580947</ele>
        <time>2021-10-03T08:04:21.000Z</time>
      </trkpt>
      <trkpt lat="43.6236" lon="2.31679">
        <ele>336.626692</ele>
        <time>2021-10-03T08:04:22.000Z</time>
      </trkpt>
      <trkpt lat="43.62358" lon="2.31685">
        <ele>336.672105</ele>
        <time>2021-10-03T08:04:23.000Z</time>
      </trkpt>
      <trkpt lat="43.62356" lon="2.31691">
        <ele>336.722254</ele>
        <time>2021-10-03T08:04:24.000Z</time>
      </trkpt>
      <trkpt lat="43.62355" lon="2.31698">
        <ele>336.771371</ele>
        <time>2021-10-03T08:04:25.000Z</time>
      </trkpt>
      <trkpt lat="43.62353" lon="2.31704">
        <ele>336.821828</ele>
        <time>2021-10-03T08:04:26.000Z</time>
      </trkpt>
      <trkpt lat="43.62351" lon="2.31711">
        <ele>336.872302</ele>
        <time>2021-10-03T08:04:27.000Z</time>
      </trkpt>
      <trkpt lat="43.62349" lon="2.31717">
        <ele>336.9185</ele>
        <time>2021-10-03T08:04:28.000Z</time>
      </trkpt>
      <trkpt lat="43.62348" lon="2.31722">
        <ele>336.961218</ele>
        <time>2021-10-03T08:04:29.000Z</time>
      </trkpt>
      <trkpt lat="43.62347" lon="2.31728">
        <ele>337.005062</ele>
        <time>2021-10-03T08:04:30.000Z</time>
      </trkpt>
      <trkpt lat="43.62346" lon="2.31734">
        <ele>337.044506</ele>
        <time>2021-10-03T08:04:31.000Z</time>
      </trkpt>
      <trkpt lat="43.62344" lon="2.31738">
        <ele>337.077476</ele>
        <time>2021-10-03T08:04:32.000Z</time>
      </trkpt>
      <trkpt lat="43.62343" lon="2.31747">
        <ele>337.147987</ele>
        <time>2021-10-03T08:04:51.000Z</time>
      </trkpt>
      <trkpt lat="43.62346" lon="2.31767">
        <ele>327.489084</ele>
        <time>2021-10-03T08:06:39.000Z</time>
      </trkpt>
      <trkpt lat="43.62347" lon="2.31768">
        <ele>327.411894</ele>
        <time>2021-10-03T08:06:40.000Z</time>
      </trkpt>
      <trkpt lat="43.62349" lon="2.31769">
        <ele>327.267888</ele>
        <time>2021-10-03T08:06:41.000Z</time>
      </trkpt>
      <trkpt lat="43.6235" lon="2.3177">
        <ele>327.120904</ele>
        <time>2021-10-03T08:06:42.000Z</time>
      </trkpt>
      <trkpt lat="43.62352" lon="2.31771">
        <ele>326.979673</ele>
        <time>2021-10-03T08:06:43.000Z</time>
      </trkpt>
      <trkpt lat="43.62353" lon="2.31772">
        <ele>326.812928</ele>
        <time>2021-10-03T08:06:44.000Z</time>
      </trkpt>
      <trkpt lat="43.62355" lon="2.31773">
        <ele>326.702472</ele>
        <time>2021-10-03T08:06:45.000Z</time>
      </trkpt>
      <trkpt lat="43.62356" lon="2.31773">
        <ele>326.570053</ele>
        <time>2021-10-03T08:06:46.000Z</time>
      </trkpt>
      <trkpt lat="43.62357" lon="2.31774">
        <ele>326.459597</ele>
        <time>2021-10-03T08:06:47.000Z</time>
      </trkpt>
      <trkpt lat="43.62358" lon="2.31774">
        <ele>326.389304</ele>
        <time>2021-10-03T08:06:48.000Z</time>
      </trkpt>
      <trkpt lat="43.62358" lon="2.31775">
        <ele>326.364751</ele>
        <time>2021-10-03T08:06:49.000Z</time>
      </trkpt>
      <trkpt lat="43.62359" lon="2.31775">
        <ele>326.330833</ele>
        <time>2021-10-03T08:06:50.000Z</time>
      </trkpt>
      <trkpt lat="43.62365" lon="2.31777">
        <ele>325.793004</ele>
        <time>2021-10-03T08:07:06.000Z</time>
      </trkpt>
      <trkpt lat="43.62367" lon="2.31777">
        <ele>325.580215</ele>
        <time>2021-10-03T08:07:07.000Z</time>
      </trkpt>
      <trkpt lat="43.62369" lon="2.31778">
        <ele>325.418052</ele>
        <time>2021-10-03T08:07:08.000Z</time>
      </trkpt>
      <trkpt lat="43.62372" lon="2.31777">
        <ele>325.195455</ele>
        <time>2021-10-03T08:07:09.000Z</time>
      </trkpt>
      <trkpt lat="43.62375" lon="2.31777">
        <ele>324.90656</ele>
        <time>2021-10-03T08:07:10.000Z</time>
      </trkpt>
      <trkpt lat="43.62379" lon="2.31778">
        <ele>324.582875</ele>
        <time>2021-10-03T08:07:11.000Z</time>
      </trkpt>
      <trkpt lat="43.62382" lon="2.31779">
        <ele>324.312934</ele>
        <time>2021-10-03T08:07:12.000Z</time>
      </trkpt>
      <trkpt lat="43.62385" lon="2.31779">
        <ele>324.073528</ele>
        <time>2021-10-03T08:07:13.000Z</time>
      </trkpt>
      <trkpt lat="43.62388" lon="2.3178">
        <ele>323.817294</ele>
        <time>2021-10-03T08:07:14.000Z</time>
      </trkpt>
      <trkpt lat="43.62391" lon="2.3178">
        <ele>323.56106</ele>
        <time>2021-10-03T08:07:15.000Z</time>
      </trkpt>
      <trkpt lat="43.62394" lon="2.31781">
        <ele>323.296405</ele>
        <time>2021-10-03T08:07:16.000Z</time>
      </trkpt>
      <trkpt lat="43.62397" lon="2.31781">
        <ele>323.042016</ele>
        <time>2021-10-03T08:07:17.000Z</time>
      </trkpt>
      <trkpt lat="43.62399" lon="2.3178">
        <ele>322.837029</ele>
        <time>2021-10-03T08:07:18.000Z</time>
      </trkpt>
      <trkpt lat="43.62402" lon="2.31779">
        <ele>322.570159</ele>
        <time>2021-10-03T08:07:19.000Z</time>
      </trkpt>
      <trkpt lat="43.62405" lon="2.31778">
        <ele>322.282174</ele>
        <time>2021-10-03T08:07:20.000Z</time>
      </trkpt>
      <trkpt lat="43.62408" lon="2.31777">
        <ele>321.996104</ele>
        <time>2021-10-03T08:07:21.000Z</time>
      </trkpt>
      <trkpt lat="43.62411" lon="2.31776">
        <ele>321.735474</ele>
        <time>2021-10-03T08:07:22.000Z</time>
      </trkpt>
      <trkpt lat="43.62414" lon="2.31775">
        <ele>321.415626</ele>
        <time>2021-10-03T08:07:23.000Z</time>
      </trkpt>
      <trkpt lat="43.62418" lon="2.31775">
        <ele>321.101675</ele>
        <time>2021-10-03T08:07:24.000Z</time>
      </trkpt>
      <trkpt lat="43.62421" lon="2.31775">
        <ele>320.790254</ele>
        <time>2021-10-03T08:07:25.000Z</time>
      </trkpt>
      <trkpt lat="43.62425" lon="2.31775">
        <ele>320.469057</ele>
        <time>2021-10-03T08:07:26.000Z</time>
      </trkpt>
      <trkpt lat="43.62428" lon="2.31775">
        <ele>320.166723</ele>
        <time>2021-10-03T08:07:27.000Z</time>
      </trkpt>
      <trkpt lat="43.62431" lon="2.31774">
        <ele>319.871752</ele>
        <time>2021-10-03T08:07:28.000Z</time>
      </trkpt>
      <trkpt lat="43.62435" lon="2.31774">
        <ele>319.532852</ele>
        <time>2021-10-03T08:07:29.000Z</time>
      </trkpt>
      <trkpt lat="43.62439" lon="2.31774">
        <ele>319.184731</ele>
        <time>2021-10-03T08:07:30.000Z</time>
      </trkpt>
      <trkpt lat="43.62442" lon="2.31774">
        <ele>318.891628</ele>
        <time>2021-10-03T08:07:31.000Z</time>
      </trkpt>
      <trkpt lat="43.62445" lon="2.31775">
        <ele>318.584748</ele>
        <time>2021-10-03T08:07:32.000Z</time>
      </trkpt>
      <trkpt lat="43.62448" lon="2.31776">
        <ele>318.293167</ele>
        <time>2021-10-03T08:07:33.000Z</time>
      </trkpt>
      <trkpt lat="43.62452" lon="2.31778">
        <ele>317.943655</ele>
        <time>2021-10-03T08:07:34.000Z</time>
      </trkpt>
      <trkpt lat="43.62455" lon="2.3178">
        <ele>317.599765</ele>
        <time>2021-10-03T08:07:35.000Z</time>
      </trkpt>
      <trkpt lat="43.62458" lon="2.31783">
        <ele>317.286507</ele>
        <time>2021-10-03T08:07:36.000Z</time>
      </trkpt>
      <trkpt lat="43.6246" lon="2.31786">
        <ele>317.034961</ele>
        <time>2021-10-03T08:07:37.000Z</time>
      </trkpt>
      <trkpt lat="43.62462" lon="2.31789">
        <ele>316.765642</ele>
        <time>2021-10-03T08:07:38.000Z</time>
      </trkpt>
      <trkpt lat="43.62464" lon="2.31792">
        <ele>316.482499</ele>
        <time>2021-10-03T08:07:39.000Z</time>
      </trkpt>
      <trkpt lat="43.62466" lon="2.31797">
        <ele>316.131348</ele>
        <time>2021-10-03T08:07:40.000Z</time>
      </trkpt>
      <trkpt lat="43.62468" lon="2.31801">
        <ele>315.781235</ele>
        <time>2021-10-03T08:07:41.000Z</time>
      </trkpt>
      <trkpt lat="43.62469" lon="2.31806">
        <ele>315.454655</ele>
        <time>2021-10-03T08:07:42.000Z</time>
      </trkpt>
      <trkpt lat="43.6247" lon="2.31809">
        <ele>315.207734</ele>
        <time>2021-10-03T08:07:43.000Z</time>
      </trkpt>
      <trkpt lat="43.62472" lon="2.31813">
        <ele>314.890264</ele>
        <time>2021-10-03T08:07:44.000Z</time>
      </trkpt>
      <trkpt lat="43.62474" lon="2.31818">
        <ele>314.551888</ele>
        <time>2021-10-03T08:07:45.000Z</time>
      </trkpt>
      <trkpt lat="43.62476" lon="2.31823">
        <ele>314.153489</ele>
        <time>2021-10-03T08:07:46.000Z</time>
      </trkpt>
      <trkpt lat="43.62479" lon="2.31827">
        <ele>313.766961</ele>
        <time>2021-10-03T08:07:47.000Z</time>
      </trkpt>
      <trkpt lat="43.62481" lon="2.3183">
        <ele>313.4925</ele>
        <time>2021-10-03T08:07:48.000Z</time>
      </trkpt>
      <trkpt lat="43.62482" lon="2.31833">
        <ele>313.245434</ele>
        <time>2021-10-03T08:07:49.000Z</time>
      </trkpt>
      <trkpt lat="43.62484" lon="2.31838">
        <ele>312.885399</ele>
        <time>2021-10-03T08:07:50.000Z</time>
      </trkpt>
      <trkpt lat="43.62486" lon="2.31842">
        <ele>312.579188</ele>
        <time>2021-10-03T08:07:51.000Z</time>
      </trkpt>
      <trkpt lat="43.62488" lon="2.31846">
        <ele>312.261258</ele>
        <time>2021-10-03T08:07:52.000Z</time>
      </trkpt>
      <trkpt lat="43.6249" lon="2.3185">
        <ele>311.94975</ele>
        <time>2021-10-03T08:07:53.000Z</time>
      </trkpt>
      <trkpt lat="43.62493" lon="2.31854">
        <ele>311.563223</ele>
        <time>2021-10-03T08:07:54.000Z</time>
      </trkpt>
      <trkpt lat="43.62496" lon="2.31858">
        <ele>311.147754</ele>
        <time>2021-10-03T08:07:55.000Z</time>
      </trkpt>
      <trkpt lat="43.62499" lon="2.31862">
        <ele>310.799414</ele>
        <time>2021-10-03T08:07:56.000Z</time>
      </trkpt>
      <trkpt lat="43.62501" lon="2.31865">
        <ele>310.494116</ele>
        <time>2021-10-03T08:07:57.000Z</time>
      </trkpt>
      <trkpt lat="43.62504" lon="2.31868">
        <ele>310.204384</ele>
        <time>2021-10-03T08:07:58.000Z</time>
      </trkpt>
      <trkpt lat="43.62506" lon="2.31871">
        <ele>309.867211</ele>
        <time>2021-10-03T08:07:59.000Z</time>
      </trkpt>
      <trkpt lat="43.62508" lon="2.31875">
        <ele>309.544884</ele>
        <time>2021-10-03T08:08:00.000Z</time>
      </trkpt>
      <trkpt lat="43.62511" lon="2.31879">
        <ele>309.252274</ele>
        <time>2021-10-03T08:08:01.000Z</time>
      </trkpt>
      <trkpt lat="43.62513" lon="2.31882">
        <ele>308.956624</ele>
        <time>2021-10-03T08:08:02.000Z</time>
      </trkpt>
      <trkpt lat="43.62516" lon="2.31885">
        <ele>308.628672</ele>
        <time>2021-10-03T08:08:03.000Z</time>
      </trkpt>
      <trkpt lat="43.62518" lon="2.31886">
        <ele>308.392802</ele>
        <time>2021-10-03T08:08:04.000Z</time>
      </trkpt>
      <trkpt lat="43.62521" lon="2.31886">
        <ele>308.142318</ele>
        <time>2021-10-03T08:08:05.000Z</time>
      </trkpt>
      <trkpt lat="43.62523" lon="2.31885">
        <ele>307.899692</ele>
        <time>2021-10-03T08:08:06.000Z</time>
      </trkpt>
      <trkpt lat="43.62525" lon="2.31885">
        <ele>307.689025</ele>
        <time>2021-10-03T08:08:07.000Z</time>
      </trkpt>
      <trkpt lat="43.62527" lon="2.31884">
        <ele>307.572134</ele>
        <time>2021-10-03T08:08:08.000Z</time>
      </trkpt>
      <trkpt lat="43.62528" lon="2.31883">
        <ele>307.419377</ele>
        <time>2021-10-03T08:08:09.000Z</time>
      </trkpt>
      <trkpt lat="43.6253" lon="2.31881">
        <ele>307.194796</ele>
        <time>2021-10-03T08:08:10.000Z</time>
      </trkpt>
      <trkpt lat="43.62531" lon="2.31879">
        <ele>307.027612</ele>
        <time>2021-10-03T08:08:11.000Z</time>
      </trkpt>
      <trkpt lat="43.62532" lon="2.31877">
        <ele>306.860428</ele>
        <time>2021-10-03T08:08:12.000Z</time>
      </trkpt>
      <trkpt lat="43.62534" lon="2.31875">
        <ele>306.660046</ele>
        <time>2021-10-03T08:08:13.000Z</time>
      </trkpt>
      <trkpt lat="43.62535" lon="2.31872">
        <ele>306.400708</ele>
        <time>2021-10-03T08:08:14.000Z</time>
      </trkpt>
      <trkpt lat="43.62537" lon="2.31868">
        <ele>306.165628</ele>
        <time>2021-10-03T08:08:15.000Z</time>
      </trkpt>
      <trkpt lat="43.62538" lon="2.31865">
        <ele>306.167934</ele>
        <time>2021-10-03T08:08:16.000Z</time>
      </trkpt>
      <trkpt lat="43.62539" lon="2.31861">
        <ele>306.170464</ele>
        <time>2021-10-03T08:08:17.000Z</time>
      </trkpt>
      <trkpt lat="43.6254" lon="2.31856">
        <ele>306.173193</ele>
        <time>2021-10-03T08:08:18.000Z</time>
      </trkpt>
      <trkpt lat="43.6254" lon="2.31852">
        <ele>306.175994</ele>
        <time>2021-10-03T08:08:19.000Z</time>
      </trkpt>
      <trkpt lat="43.62541" lon="2.31848">
        <ele>306.178494</ele>
        <time>2021-10-03T08:08:20.000Z</time>
      </trkpt>
      <trkpt lat="43.62541" lon="2.31843">
        <ele>306.181115</ele>
        <time>2021-10-03T08:08:21.000Z</time>
      </trkpt>
      <trkpt lat="43.62542" lon="2.31839">
        <ele>306.183701</ele>
        <time>2021-10-03T08:08:22.000Z</time>
      </trkpt>
      <trkpt lat="43.62543" lon="2.31836">
        <ele>306.186119</ele>
        <time>2021-10-03T08:08:23.000Z</time>
      </trkpt>
      <trkpt lat="43.62545" lon="2.31832">
        <ele>306.188569</ele>
        <time>2021-10-03T08:08:24.000Z</time>
      </trkpt>
      <trkpt lat="43.62546" lon="2.31828">
        <ele>306.190931</ele>
        <time>2021-10-03T08:08:25.000Z</time>
      </trkpt>
      <trkpt lat="43.62547" lon="2.31825">
        <ele>306.19339</ele>
        <time>2021-10-03T08:08:26.000Z</time>
      </trkpt>
      <trkpt lat="43.6255" lon="2.31822">
        <ele>306.196202</ele>
        <time>2021-10-03T08:08:27.000Z</time>
      </trkpt>
      <trkpt lat="43.62552" lon="2.31818">
        <ele>306.198971</ele>
        <time>2021-10-03T08:08:28.000Z</time>
      </trkpt>
      <trkpt lat="43.62554" lon="2.31815">
        <ele>306.201381</ele>
        <time>2021-10-03T08:08:29.000Z</time>
      </trkpt>
      <trkpt lat="43.62556" lon="2.31812">
        <ele>306.20379</ele>
        <time>2021-10-03T08:08:30.000Z</time>
      </trkpt>
      <trkpt lat="43.62558" lon="2.31809">
        <ele>306.206603</ele>
        <time>2021-10-03T08:08:31.000Z</time>
      </trkpt>
      <trkpt lat="43.6256" lon="2.31806">
        <ele>306.20906</ele>
        <time>2021-10-03T08:08:32.000Z</time>
      </trkpt>
      <trkpt lat="43.62562" lon="2.31803">
        <ele>306.21162</ele>
        <time>2021-10-03T08:08:33.000Z</time>
      </trkpt>
      <trkpt lat="43.62565" lon="2.31801">
        <ele>306.213889</ele>
        <time>2021-10-03T08:08:34.000Z</time>
      </trkpt>
      <trkpt lat="43.62567" lon="2.318">
        <ele>306.216297</ele>
        <time>2021-10-03T08:08:35.000Z</time>
      </trkpt>
      <trkpt lat="43.6257" lon="2.31798">
        <ele>306.218727</ele>
        <time>2021-10-03T08:08:36.000Z</time>
      </trkpt>
      <trkpt lat="43.62572" lon="2.31796">
        <ele>306.221031</ele>
        <time>2021-10-03T08:08:37.000Z</time>
      </trkpt>
      <trkpt lat="43.62575" lon="2.31794">
        <ele>306.223534</ele>
        <time>2021-10-03T08:08:38.000Z</time>
      </trkpt>
      <trkpt lat="43.62578" lon="2.31793">
        <ele>306.225942</ele>
        <time>2021-10-03T08:08:39.000Z</time>
      </trkpt>
      <trkpt lat="43.62581" lon="2.31793">
        <ele>306.228784</ele>
        <time>2021-10-03T08:08:40.000Z</time>
      </trkpt>
      <trkpt lat="43.62584" lon="2.31792">
        <ele>306.231118</ele>
        <time>2021-10-03T08:08:41.000Z</time>
      </trkpt>
      <trkpt lat="43.62587" lon="2.3179">
        <ele>306.234064</ele>
        <time>2021-10-03T08:08:42.000Z</time>
      </trkpt>
      <trkpt lat="43.6259" lon="2.3179">
        <ele>306.23606</ele>
        <time>2021-10-03T08:08:43.000Z</time>
      </trkpt>
      <trkpt lat="43.62592" lon="2.31789">
        <ele>306.23804</ele>
        <time>2021-10-03T08:08:44.000Z</time>
      </trkpt>
      <trkpt lat="43.62603" lon="2.31786">
        <ele>306.247112</ele>
        <time>2021-10-03T08:10:28.000Z</time>
      </trkpt>
      <trkpt lat="43.62604" lon="2.31784">
        <ele>306.249144</ele>
        <time>2021-10-03T08:10:29.000Z</time>
      </trkpt>
      <trkpt lat="43.62607" lon="2.31782">
        <ele>306.251587</ele>
        <time>2021-10-03T08:10:30.000Z</time>
      </trkpt>
      <trkpt lat="43.62609" lon="2.31778">
        <ele>306.254495</ele>
        <time>2021-10-03T08:10:31.000Z</time>
      </trkpt>
      <trkpt lat="43.62612" lon="2.31775">
        <ele>306.2578</ele>
        <time>2021-10-03T08:10:32.000Z</time>
      </trkpt>
      <trkpt lat="43.62615" lon="2.31772">
        <ele>306.260928</ele>
        <time>2021-10-03T08:10:33.000Z</time>
      </trkpt>
      <trkpt lat="43.62618" lon="2.31769">
        <ele>306.26386</ele>
        <time>2021-10-03T08:10:34.000Z</time>
      </trkpt>
      <trkpt lat="43.62621" lon="2.31766">
        <ele>306.26683</ele>
        <time>2021-10-03T08:10:35.000Z</time>
      </trkpt>
      <trkpt lat="43.62624" lon="2.31763">
        <ele>306.270046</ele>
        <time>2021-10-03T08:10:36.000Z</time>
      </trkpt>
      <trkpt lat="43.62627" lon="2.31761">
        <ele>306.272956</ele>
        <time>2021-10-03T08:10:37.000Z</time>
      </trkpt>
      <trkpt lat="43.6263" lon="2.31759">
        <ele>306.27508</ele>
        <time>2021-10-03T08:10:38.000Z</time>
      </trkpt>
      <trkpt lat="43.62632" lon="2.31758">
        <ele>306.27741</ele>
        <time>2021-10-03T08:10:39.000Z</time>
      </trkpt>
      <trkpt lat="43.62635" lon="2.31756">
        <ele>306.280174</ele>
        <time>2021-10-03T08:10:40.000Z</time>
      </trkpt>
      <trkpt lat="43.62639" lon="2.31754">
        <ele>306.283159</ele>
        <time>2021-10-03T08:10:41.000Z</time>
      </trkpt>
      <trkpt lat="43.62642" lon="2.31752">
        <ele>306.286042</ele>
        <time>2021-10-03T08:10:42.000Z</time>
      </trkpt>
      <trkpt lat="43.62645" lon="2.3175">
        <ele>306.289253</ele>
        <time>2021-10-03T08:10:43.000Z</time>
      </trkpt>
      <trkpt lat="43.62649" lon="2.31748">
        <ele>306.292508</ele>
        <time>2021-10-03T08:10:44.000Z</time>
      </trkpt>
      <trkpt lat="43.62653" lon="2.31747">
        <ele>306.296102</ele>
        <time>2021-10-03T08:10:45.000Z</time>
      </trkpt>
      <trkpt lat="43.62657" lon="2.31746">
        <ele>306.299467</ele>
        <time>2021-10-03T08:10:46.000Z</time>
      </trkpt>
      <trkpt lat="43.6266" lon="2.31745">
        <ele>306.302337</ele>
        <time>2021-10-03T08:10:47.000Z</time>
      </trkpt>
      <trkpt lat="43.62665" lon="2.31745">
        <ele>306.305774</ele>
        <time>2021-10-03T08:10:48.000Z</time>
      </trkpt>
      <trkpt lat="43.62669" lon="2.31744">
        <ele>306.309882</ele>
        <time>2021-10-03T08:10:49.000Z</time>
      </trkpt>
      <trkpt lat="43.62674" lon="2.31743">
        <ele>306.314092</ele>
        <time>2021-10-03T08:10:50.000Z</time>
      </trkpt>
      <trkpt lat="43.62679" lon="2.31743">
        <ele>306.261002</ele>
        <time>2021-10-03T08:10:51.000Z</time>
      </trkpt>
      <trkpt lat="43.62683" lon="2.31743">
        <ele>306.182898</ele>
        <time>2021-10-03T08:10:52.000Z</time>
      </trkpt>
      <trkpt lat="43.62686" lon="2.31744">
        <ele>306.123172</ele>
        <time>2021-10-03T08:10:53.000Z</time>
      </trkpt>
      <trkpt lat="43.6269" lon="2.31747">
        <ele>306.045542</ele>
        <time>2021-10-03T08:10:54.000Z</time>
      </trkpt>
      <trkpt lat="43.62695" lon="2.3175">
        <ele>305.952286</ele>
        <time>2021-10-03T08:10:55.000Z</time>
      </trkpt>
      <trkpt lat="43.62699" lon="2.31753">
        <ele>305.861289</ele>
        <time>2021-10-03T08:10:56.000Z</time>
      </trkpt>
      <trkpt lat="43.62702" lon="2.31757">
        <ele>305.782627</ele>
        <time>2021-10-03T08:10:57.000Z</time>
      </trkpt>
      <trkpt lat="43.62705" lon="2.31761">
        <ele>305.710744</ele>
        <time>2021-10-03T08:10:58.000Z</time>
      </trkpt>
      <trkpt lat="43.62707" lon="2.31765">
        <ele>305.642143</ele>
        <time>2021-10-03T08:10:59.000Z</time>
      </trkpt>
      <trkpt lat="43.6271" lon="2.31769">
        <ele>305.567929</ele>
        <time>2021-10-03T08:11:00.000Z</time>
      </trkpt>
      <trkpt lat="43.62714" lon="2.31773">
        <ele>305.473306</ele>
        <time>2021-10-03T08:11:01.000Z</time>
      </trkpt>
      <trkpt lat="43.62718" lon="2.31779">
        <ele>305.370228</ele>
        <time>2021-10-03T08:11:02.000Z</time>
      </trkpt>
      <trkpt lat="43.62721" lon="2.31785">
        <ele>305.274486</ele>
        <time>2021-10-03T08:11:03.000Z</time>
      </trkpt>
      <trkpt lat="43.62725" lon="2.31791">
        <ele>305.167425</ele>
        <time>2021-10-03T08:11:04.000Z</time>
      </trkpt>
      <trkpt lat="43.62728" lon="2.31796">
        <ele>305.071683</ele>
        <time>2021-10-03T08:11:05.000Z</time>
      </trkpt>
      <trkpt lat="43.62731" lon="2.31802">
        <ele>304.971458</ele>
        <time>2021-10-03T08:11:06.000Z</time>
      </trkpt>
      <trkpt lat="43.62734" lon="2.31807">
        <ele>304.885521</ele>
        <time>2021-10-03T08:11:07.000Z</time>
      </trkpt>
      <trkpt lat="43.62736" lon="2.31812">
        <ele>304.807096</ele>
        <time>2021-10-03T08:11:08.000Z</time>
      </trkpt>
      <trkpt lat="43.62738" lon="2.31816">
        <ele>304.745725</ele>
        <time>2021-10-03T08:11:09.000Z</time>
      </trkpt>
      <trkpt lat="43.6274" lon="2.3182">
        <ele>304.673531</ele>
        <time>2021-10-03T08:11:10.000Z</time>
      </trkpt>
      <trkpt lat="43.62743" lon="2.31824">
        <ele>304.61005</ele>
        <time>2021-10-03T08:11:11.000Z</time>
      </trkpt>
      <trkpt lat="43.62744" lon="2.31828">
        <ele>304.545803</ele>
        <time>2021-10-03T08:11:12.000Z</time>
      </trkpt>
      <trkpt lat="43.62747" lon="2.31831">
        <ele>304.48712</ele>
        <time>2021-10-03T08:11:13.000Z</time>
      </trkpt>
      <trkpt lat="43.62749" lon="2.31834">
        <ele>304.427507</ele>
        <time>2021-10-03T08:11:14.000Z</time>
      </trkpt>
      <trkpt lat="43.62752" lon="2.31836">
        <ele>304.374703</ele>
        <time>2021-10-03T08:11:15.000Z</time>
      </trkpt>
      <trkpt lat="43.62755" lon="2.31836">
        <ele>304.319046</ele>
        <time>2021-10-03T08:11:16.000Z</time>
      </trkpt>
      <trkpt lat="43.62757" lon="2.31836">
        <ele>304.268956</ele>
        <time>2021-10-03T08:11:17.000Z</time>
      </trkpt>
      <trkpt lat="43.6276" lon="2.31835">
        <ele>304.217428</ele>
        <time>2021-10-03T08:11:18.000Z</time>
      </trkpt>
      <trkpt lat="43.62762" lon="2.31833">
        <ele>304.170824</ele>
        <time>2021-10-03T08:11:19.000Z</time>
      </trkpt>
      <trkpt lat="43.62764" lon="2.31829">
        <ele>304.109305</ele>
        <time>2021-10-03T08:11:20.000Z</time>
      </trkpt>
      <trkpt lat="43.62768" lon="2.31827">
        <ele>304.030833</ele>
        <time>2021-10-03T08:11:21.000Z</time>
      </trkpt>
      <trkpt lat="43.62771" lon="2.31825">
        <ele>303.97296</ele>
        <time>2021-10-03T08:11:22.000Z</time>
      </trkpt>
      <trkpt lat="43.62774" lon="2.31822">
        <ele>303.902645</ele>
        <time>2021-10-03T08:11:23.000Z</time>
      </trkpt>
      <trkpt lat="43.62776" lon="2.31819">
        <ele>303.843032</ele>
        <time>2021-10-03T08:11:24.000Z</time>
      </trkpt>
      <trkpt lat="43.62779" lon="2.31815">
        <ele>303.770562</ele>
        <time>2021-10-03T08:11:25.000Z</time>
      </trkpt>
      <trkpt lat="43.62781" lon="2.31812">
        <ele>303.714983</ele>
        <time>2021-10-03T08:11:26.000Z</time>
      </trkpt>
      <trkpt lat="43.62783" lon="2.31807">
        <ele>303.64645</ele>
        <time>2021-10-03T08:11:27.000Z</time>
      </trkpt>
      <trkpt lat="43.62784" lon="2.31804">
        <ele>303.589542</ele>
        <time>2021-10-03T08:11:28.000Z</time>
      </trkpt>
      <trkpt lat="43.62786" lon="2.31799">
        <ele>303.518831</ele>
        <time>2021-10-03T08:11:29.000Z</time>
      </trkpt>
      <trkpt lat="43.62788" lon="2.31795">
        <ele>303.448873</ele>
        <time>2021-10-03T08:11:30.000Z</time>
      </trkpt>
      <trkpt lat="43.62791" lon="2.31791">
        <ele>303.375675</ele>
        <time>2021-10-03T08:11:31.000Z</time>
      </trkpt>
      <trkpt lat="43.62792" lon="2.31786">
        <ele>303.309552</ele>
        <time>2021-10-03T08:11:32.000Z</time>
      </trkpt>
      <trkpt lat="43.62795" lon="2.31782">
        <ele>303.231178</ele>
        <time>2021-10-03T08:11:33.000Z</time>
      </trkpt>
      <trkpt lat="43.62797" lon="2.31778">
        <ele>303.170238</ele>
        <time>2021-10-03T08:11:34.000Z</time>
      </trkpt>
      <trkpt lat="43.62799" lon="2.31775">
        <ele>303.109895</ele>
        <time>2021-10-03T08:11:35.000Z</time>
      </trkpt>
      <trkpt lat="43.62801" lon="2.31773">
        <ele>303.058017</ele>
        <time>2021-10-03T08:11:36.000Z</time>
      </trkpt>
      <trkpt lat="43.62803" lon="2.3177">
        <ele>303.008725</ele>
        <time>2021-10-03T08:11:37.000Z</time>
      </trkpt>
      <trkpt lat="43.62804" lon="2.31767">
        <ele>302.993753</ele>
        <time>2021-10-03T08:11:38.000Z</time>
      </trkpt>
      <trkpt lat="43.62806" lon="2.31763">
        <ele>303.029641</ele>
        <time>2021-10-03T08:11:39.000Z</time>
      </trkpt>
      <trkpt lat="43.62806" lon="2.3176">
        <ele>303.06254</ele>
        <time>2021-10-03T08:11:40.000Z</time>
      </trkpt>
      <trkpt lat="43.62808" lon="2.31757">
        <ele>303.1014</ele>
        <time>2021-10-03T08:11:41.000Z</time>
      </trkpt>
      <trkpt lat="43.62809" lon="2.31753">
        <ele>303.145811</ele>
        <time>2021-10-03T08:11:42.000Z</time>
      </trkpt>
      <trkpt lat="43.62811" lon="2.31749">
        <ele>303.189896</ele>
        <time>2021-10-03T08:11:43.000Z</time>
      </trkpt>
      <trkpt lat="43.62813" lon="2.31745">
        <ele>303.231957</ele>
        <time>2021-10-03T08:11:44.000Z</time>
      </trkpt>
      <trkpt lat="43.62815" lon="2.31741">
        <ele>303.276042</ele>
        <time>2021-10-03T08:11:45.000Z</time>
      </trkpt>
      <trkpt lat="43.62817" lon="2.31737">
        <ele>303.324091</ele>
        <time>2021-10-03T08:11:46.000Z</time>
      </trkpt>
      <trkpt lat="43.62818" lon="2.31734">
        <ele>303.365974</ele>
        <time>2021-10-03T08:11:47.000Z</time>
      </trkpt>
      <trkpt lat="43.6282" lon="2.3173">
        <ele>303.413282</ele>
        <time>2021-10-03T08:11:48.000Z</time>
      </trkpt>
      <trkpt lat="43.62822" lon="2.31726">
        <ele>303.457367</ele>
        <time>2021-10-03T08:11:49.000Z</time>
      </trkpt>
      <trkpt lat="43.62824" lon="2.31723">
        <ele>303.497587</ele>
        <time>2021-10-03T08:11:50.000Z</time>
      </trkpt>
      <trkpt lat="43.62826" lon="2.3172">
        <ele>303.535381</ele>
        <time>2021-10-03T08:11:51.000Z</time>
      </trkpt>
      <trkpt lat="43.62828" lon="2.31717">
        <ele>303.574118</ele>
        <time>2021-10-03T08:11:52.000Z</time>
      </trkpt>
      <trkpt lat="43.6283" lon="2.31714">
        <ele>303.610712</ele>
        <time>2021-10-03T08:11:53.000Z</time>
      </trkpt>
      <trkpt lat="43.62832" lon="2.31711">
        <ele>303.65497</ele>
        <time>2021-10-03T08:11:54.000Z</time>
      </trkpt>
      <trkpt lat="43.62834" lon="2.31707">
        <ele>303.703106</ele>
        <time>2021-10-03T08:11:55.000Z</time>
      </trkpt>
      <trkpt lat="43.62837" lon="2.31704">
        <ele>303.752153</ele>
        <time>2021-10-03T08:11:56.000Z</time>
      </trkpt>
      <trkpt lat="43.6284" lon="2.31701">
        <ele>303.797631</ele>
        <time>2021-10-03T08:11:57.000Z</time>
      </trkpt>
      <trkpt lat="43.62843" lon="2.31698">
        <ele>303.849008</ele>
        <time>2021-10-03T08:11:58.000Z</time>
      </trkpt>
      <trkpt lat="43.62845" lon="2.31695">
        <ele>303.891536</ele>
        <time>2021-10-03T08:11:59.000Z</time>
      </trkpt>
      <trkpt lat="43.62848" lon="2.31693">
        <ele>303.936921</ele>
        <time>2021-10-03T08:12:00.000Z</time>
      </trkpt>
      <trkpt lat="43.62852" lon="2.31691">
        <ele>303.985348</ele>
        <time>2021-10-03T08:12:01.000Z</time>
      </trkpt>
      <trkpt lat="43.62854" lon="2.31688">
        <ele>304.030096</ele>
        <time>2021-10-03T08:12:02.000Z</time>
      </trkpt>
      <trkpt lat="43.62857" lon="2.31686">
        <ele>304.077336</ele>
        <time>2021-10-03T08:12:03.000Z</time>
      </trkpt>
      <trkpt lat="43.62861" lon="2.31683">
        <ele>304.127336</ele>
        <time>2021-10-03T08:12:04.000Z</time>
      </trkpt>
      <trkpt lat="43.62864" lon="2.31681">
        <ele>304.172056</ele>
        <time>2021-10-03T08:12:05.000Z</time>
      </trkpt>
      <trkpt lat="43.62867" lon="2.3168">
        <ele>304.22155</ele>
        <time>2021-10-03T08:12:06.000Z</time>
      </trkpt>
      <trkpt lat="43.6287" lon="2.31678">
        <ele>304.26062</ele>
        <time>2021-10-03T08:12:07.000Z</time>
      </trkpt>
      <trkpt lat="43.62874" lon="2.31677">
        <ele>304.31143</ele>
        <time>2021-10-03T08:12:08.000Z</time>
      </trkpt>
      <trkpt lat="43.62877" lon="2.31677">
        <ele>304.362677</ele>
        <time>2021-10-03T08:12:09.000Z</time>
      </trkpt>
      <trkpt lat="43.62881" lon="2.31677">
        <ele>304.415036</ele>
        <time>2021-10-03T08:12:10.000Z</time>
      </trkpt>
      <trkpt lat="43.62884" lon="2.31677">
        <ele>304.456655</ele>
        <time>2021-10-03T08:12:11.000Z</time>
      </trkpt>
      <trkpt lat="43.62887" lon="2.31677">
        <ele>304.496931</ele>
        <time>2021-10-03T08:12:12.000Z</time>
      </trkpt>
      <trkpt lat="43.62891" lon="2.31677">
        <ele>304.542742</ele>
        <time>2021-10-03T08:12:13.000Z</time>
      </trkpt>
      <trkpt lat="43.62895" lon="2.31678">
        <ele>304.594502</ele>
        <time>2021-10-03T08:12:14.000Z</time>
      </trkpt>
      <trkpt lat="43.62898" lon="2.3168">
        <ele>304.639647</ele>
        <time>2021-10-03T08:12:15.000Z</time>
      </trkpt>
      <trkpt lat="43.62901" lon="2.31683">
        <ele>304.688285</ele>
        <time>2021-10-03T08:12:16.000Z</time>
      </trkpt>
      <trkpt lat="43.62904" lon="2.31686">
        <ele>304.747949</ele>
        <time>2021-10-03T08:12:17.000Z</time>
      </trkpt>
      <trkpt lat="43.62907" lon="2.31691">
        <ele>304.799127</ele>
        <time>2021-10-03T08:12:18.000Z</time>
      </trkpt>
      <trkpt lat="43.62909" lon="2.31695">
        <ele>304.857436</ele>
        <time>2021-10-03T08:12:19.000Z</time>
      </trkpt>
      <trkpt lat="43.62912" lon="2.317">
        <ele>304.919063</ele>
        <time>2021-10-03T08:12:20.000Z</time>
      </trkpt>
      <trkpt lat="43.62915" lon="2.31705">
        <ele>304.983779</ele>
        <time>2021-10-03T08:12:21.000Z</time>
      </trkpt>
      <trkpt lat="43.62919" lon="2.31711">
        <ele>305.059367</ele>
        <time>2021-10-03T08:12:22.000Z</time>
      </trkpt>
      <trkpt lat="43.62923" lon="2.31718">
        <ele>305.142081</ele>
        <time>2021-10-03T08:12:23.000Z</time>
      </trkpt>
      <trkpt lat="43.62926" lon="2.31725">
        <ele>305.22562</ele>
        <time>2021-10-03T08:12:24.000Z</time>
      </trkpt>
      <trkpt lat="43.62929" lon="2.31732">
        <ele>305.308294</ele>
        <time>2021-10-03T08:12:25.000Z</time>
      </trkpt>
      <trkpt lat="43.62934" lon="2.31739">
        <ele>305.392076</ele>
        <time>2021-10-03T08:12:26.000Z</time>
      </trkpt>
      <trkpt lat="43.62937" lon="2.31744">
        <ele>305.345877</ele>
        <time>2021-10-03T08:12:27.000Z</time>
      </trkpt>
      <trkpt lat="43.62942" lon="2.31749">
        <ele>305.299986</ele>
        <time>2021-10-03T08:12:28.000Z</time>
      </trkpt>
      <trkpt lat="43.62946" lon="2.31752">
        <ele>305.2559</ele>
        <time>2021-10-03T08:12:29.000Z</time>
      </trkpt>
      <trkpt lat="43.62951" lon="2.31754">
        <ele>305.215327</ele>
        <time>2021-10-03T08:12:30.000Z</time>
      </trkpt>
      <trkpt lat="43.62954" lon="2.31754">
        <ele>305.186013</ele>
        <time>2021-10-03T08:12:31.000Z</time>
      </trkpt>
      <trkpt lat="43.62958" lon="2.31753">
        <ele>305.155455</ele>
        <time>2021-10-03T08:12:32.000Z</time>
      </trkpt>
      <trkpt lat="43.6296" lon="2.31751">
        <ele>305.131358</ele>
        <time>2021-10-03T08:12:33.000Z</time>
      </trkpt>
      <trkpt lat="43.62963" lon="2.3175">
        <ele>305.106927</ele>
        <time>2021-10-03T08:12:34.000Z</time>
      </trkpt>
      <trkpt lat="43.62966" lon="2.31748">
        <ele>305.077958</ele>
        <time>2021-10-03T08:12:35.000Z</time>
      </trkpt>
      <trkpt lat="43.62968" lon="2.31745">
        <ele>305.048499</ele>
        <time>2021-10-03T08:12:36.000Z</time>
      </trkpt>
      <trkpt lat="43.62971" lon="2.31741">
        <ele>305.017447</ele>
        <time>2021-10-03T08:12:37.000Z</time>
      </trkpt>
      <trkpt lat="43.62974" lon="2.31737">
        <ele>304.981964</ele>
        <time>2021-10-03T08:12:38.000Z</time>
      </trkpt>
      <trkpt lat="43.62976" lon="2.31734">
        <ele>304.951449</ele>
        <time>2021-10-03T08:12:39.000Z</time>
      </trkpt>
      <trkpt lat="43.6298" lon="2.31729">
        <ele>304.911945</ele>
        <time>2021-10-03T08:12:40.000Z</time>
      </trkpt>
      <trkpt lat="43.62983" lon="2.31726">
        <ele>304.878612</ele>
        <time>2021-10-03T08:12:41.000Z</time>
      </trkpt>
      <trkpt lat="43.62986" lon="2.31723">
        <ele>304.847969</ele>
        <time>2021-10-03T08:12:42.000Z</time>
      </trkpt>
      <trkpt lat="43.62989" lon="2.3172">
        <ele>304.816069</ele>
        <time>2021-10-03T08:12:43.000Z</time>
      </trkpt>
      <trkpt lat="43.62992" lon="2.31717">
        <ele>304.783037</ele>
        <time>2021-10-03T08:12:44.000Z</time>
      </trkpt>
      <trkpt lat="43.62994" lon="2.31714">
        <ele>304.753578</ele>
        <time>2021-10-03T08:12:45.000Z</time>
      </trkpt>
      <trkpt lat="43.62997" lon="2.31711">
        <ele>304.720615</ele>
        <time>2021-10-03T08:12:46.000Z</time>
      </trkpt>
      <trkpt lat="43.63" lon="2.31708">
        <ele>304.689076</ele>
        <time>2021-10-03T08:12:47.000Z</time>
      </trkpt>
      <trkpt lat="43.63004" lon="2.31705">
        <ele>304.654326</ele>
        <time>2021-10-03T08:12:48.000Z</time>
      </trkpt>
      <trkpt lat="43.63007" lon="2.31701">
        <ele>304.6218</ele>
        <time>2021-10-03T08:12:49.000Z</time>
      </trkpt>
      <trkpt lat="43.6301" lon="2.31698">
        <ele>304.586742</ele>
        <time>2021-10-03T08:12:50.000Z</time>
      </trkpt>
      <trkpt lat="43.63012" lon="2.31695">
        <ele>304.559496</ele>
        <time>2021-10-03T08:12:51.000Z</time>
      </trkpt>
      <trkpt lat="43.63015" lon="2.31691">
        <ele>304.528444</ele>
        <time>2021-10-03T08:12:52.000Z</time>
      </trkpt>
      <trkpt lat="43.63018" lon="2.31689">
        <ele>304.497939</ele>
        <time>2021-10-03T08:12:53.000Z</time>
      </trkpt>
      <trkpt lat="43.6302" lon="2.31686">
        <ele>304.46959</ele>
        <time>2021-10-03T08:12:54.000Z</time>
      </trkpt>
      <trkpt lat="43.63023" lon="2.31682">
        <ele>304.432353</ele>
        <time>2021-10-03T08:12:55.000Z</time>
      </trkpt>
      <trkpt lat="43.63026" lon="2.31677">
        <ele>304.393958</ele>
        <time>2021-10-03T08:12:56.000Z</time>
      </trkpt>
      <trkpt lat="43.63028" lon="2.31672">
        <ele>304.357021</ele>
        <time>2021-10-03T08:12:57.000Z</time>
      </trkpt>
      <trkpt lat="43.63029" lon="2.31666">
        <ele>304.321803</ele>
        <time>2021-10-03T08:12:58.000Z</time>
      </trkpt>
      <trkpt lat="43.63031" lon="2.31663">
        <ele>304.294817</ele>
        <time>2021-10-03T08:12:59.000Z</time>
      </trkpt>
      <trkpt lat="43.63032" lon="2.31659">
        <ele>304.269457</ele>
        <time>2021-10-03T08:13:00.000Z</time>
      </trkpt>
      <trkpt lat="43.63034" lon="2.31656">
        <ele>304.246722</ele>
        <time>2021-10-03T08:13:01.000Z</time>
      </trkpt>
      <trkpt lat="43.63036" lon="2.31648">
        <ele>304.190145</ele>
        <time>2021-10-03T08:13:46.000Z</time>
      </trkpt>
      <trkpt lat="43.63037" lon="2.31645">
        <ele>304.171368</ele>
        <time>2021-10-03T08:13:47.000Z</time>
      </trkpt>
      <trkpt lat="43.63039" lon="2.31642">
        <ele>304.14698</ele>
        <time>2021-10-03T08:13:48.000Z</time>
      </trkpt>
      <trkpt lat="43.63041" lon="2.31637">
        <ele>333.2</ele>
      </trkpt>
      <trkpt lat="43.63043" lon="2.31629">
        <ele>332.4</ele>
      </trkpt>
      <trkpt lat="43.6305" lon="2.3162">
        <ele>332.6</ele>
      </trkpt>
      <trkpt lat="43.63067" lon="2.31616">
        <ele>329.9</ele>
      </trkpt>
      <trkpt lat="43.63078" lon="2.31624">
        <ele>326.7</ele>
      </trkpt>
      <trkpt lat="43.63105" lon="2.31674">
        <ele>320.5</ele>
      </trkpt>
      <trkpt lat="43.63136" lon="2.31687">
        <ele>309.4</ele>
      </trkpt>
      <trkpt lat="43.63173" lon="2.31728">
        <ele>300.4</ele>
      </trkpt>
      <trkpt lat="43.63203" lon="2.31796">
        <ele>289.5</ele>
        <extensions>
          <visugpx:TrkExtension xmlns:visugpx="https://www.visugpx.com/editgpx/">
            <visugpx:node>1</visugpx:node>
            </visugpx:TrkExtension>
        </extensions>
      </trkpt>
      <trkpt lat="43.63205" lon="2.318">
        <ele>288.8</ele>
      </trkpt>
      <trkpt lat="43.63205" lon="2.31839">
        <ele>284.5</ele>
      </trkpt>
      <trkpt lat="43.6319" lon="2.31903">
        <ele>275.6</ele>
      </trkpt>
      <trkpt lat="43.63191" lon="2.31932">
        <ele>268.1</ele>
      </trkpt>
      <trkpt lat="43.63192" lon="2.31962">
        <ele>262.9</ele>
      </trkpt>
      <trkpt lat="43.63186" lon="2.32014">
        <ele>258.8</ele>
      </trkpt>
      <trkpt lat="43.63185" lon="2.3204">
        <ele>254.5</ele>
      </trkpt>
      <trkpt lat="43.63182" lon="2.32056">
        <ele>254.1</ele>
      </trkpt>
      <trkpt lat="43.63182" lon="2.32071">
        <ele>253.4</ele>
      </trkpt>
      <trkpt lat="43.63184" lon="2.32079">
        <ele>252.1</ele>
      </trkpt>
      <trkpt lat="43.63187" lon="2.32084">
        <ele>250.6</ele>
      </trkpt>
      <trkpt lat="43.63192" lon="2.32084">
        <ele>248.3</ele>
      </trkpt>
      <trkpt lat="43.63196" lon="2.32082">
        <ele>246.4</ele>
      </trkpt>
      <trkpt lat="43.63203" lon="2.32071">
        <ele>243.5</ele>
      </trkpt>
      <trkpt lat="43.63209" lon="2.32076">
        <ele>241.1</ele>
      </trkpt>
      <trkpt lat="43.63212" lon="2.32084">
        <ele>240.2</ele>
      </trkpt>
      <trkpt lat="43.63217" lon="2.32109">
        <ele>242.1</ele>
      </trkpt>
      <trkpt lat="43.63217" lon="2.32114">
        <ele>243</ele>
        <extensions>
          <visugpx:TrkExtension xmlns:visugpx="https://www.visugpx.com/editgpx/">
            <visugpx:node>2</visugpx:node>
            </visugpx:TrkExtension>
        </extensions>
      </trkpt>
      <trkpt lat="43.63216" lon="2.32124">
        <ele>234.594838</ele>
        <time>2021-10-03T08:20:48.000Z</time>
        <extensions>
          <visugpx:TrkExtension xmlns:visugpx="https://www.visugpx.com/editgpx/">
            <visugpx:node>3</visugpx:node>
            </visugpx:TrkExtension>
        </extensions>
      </trkpt>
      <trkpt lat="43.63217" lon="2.32129">
        <ele>234.185474</ele>
        <time>2021-10-03T08:20:49.000Z</time>
      </trkpt>
      <trkpt lat="43.63218" lon="2.32134">
        <ele>233.838542</ele>
        <time>2021-10-03T08:20:50.000Z</time>
      </trkpt>
      <trkpt lat="43.63218" lon="2.32137">
        <ele>233.569848</ele>
        <time>2021-10-03T08:20:51.000Z</time>
      </trkpt>
      <trkpt lat="43.63219" lon="2.3214">
        <ele>233.378683</ele>
        <time>2021-10-03T08:20:52.000Z</time>
      </trkpt>
      <trkpt lat="43.63219" lon="2.32143">
        <ele>233.1411</ele>
        <time>2021-10-03T08:20:53.000Z</time>
      </trkpt>
      <trkpt lat="43.63219" lon="2.32147">
        <ele>232.867879</ele>
        <time>2021-10-03T08:20:54.000Z</time>
      </trkpt>
      <trkpt lat="43.6322" lon="2.32151">
        <ele>232.589166</ele>
        <time>2021-10-03T08:20:55.000Z</time>
      </trkpt>
      <trkpt lat="43.63221" lon="2.32155">
        <ele>232.321314</ele>
        <time>2021-10-03T08:20:56.000Z</time>
      </trkpt>
      <trkpt lat="43.63223" lon="2.32159">
        <ele>231.956056</ele>
        <time>2021-10-03T08:20:57.000Z</time>
      </trkpt>
      <trkpt lat="43.63225" lon="2.32163">
        <ele>231.589768</ele>
        <time>2021-10-03T08:20:58.000Z</time>
      </trkpt>
      <trkpt lat="43.63226" lon="2.32168">
        <ele>231.227283</ele>
        <time>2021-10-03T08:20:59.000Z</time>
      </trkpt>
      <trkpt lat="43.63228" lon="2.32173">
        <ele>230.891913</ele>
        <time>2021-10-03T08:21:00.000Z</time>
      </trkpt>
      <trkpt lat="43.63229" lon="2.32176">
        <ele>230.633588</ele>
        <time>2021-10-03T08:21:01.000Z</time>
      </trkpt>
      <trkpt lat="43.6323" lon="2.32179">
        <ele>230.40188</ele>
        <time>2021-10-03T08:21:02.000Z</time>
      </trkpt>
      <trkpt lat="43.63231" lon="2.32182">
        <ele>230.224284</ele>
        <time>2021-10-03T08:21:03.000Z</time>
      </trkpt>
      <trkpt lat="43.63231" lon="2.32184">
        <ele>230.063915</ele>
        <time>2021-10-03T08:21:04.000Z</time>
      </trkpt>
      <trkpt lat="43.63231" lon="2.32185">
        <ele>229.980129</ele>
        <time>2021-10-03T08:21:05.000Z</time>
      </trkpt>
      <trkpt lat="43.63232" lon="2.32188">
        <ele>229.781195</ele>
        <time>2021-10-03T08:21:06.000Z</time>
      </trkpt>
      <trkpt lat="43.63233" lon="2.32189">
        <ele>229.623025</ele>
        <time>2021-10-03T08:21:07.000Z</time>
      </trkpt>
      <trkpt lat="43.63234" lon="2.3219">
        <ele>229.537637</ele>
        <time>2021-10-03T08:21:08.000Z</time>
      </trkpt>
      <trkpt lat="43.63237" lon="2.32204">
        <ele>228.536241</ele>
        <time>2021-10-03T08:21:40.000Z</time>
      </trkpt>
      <trkpt lat="43.63237" lon="2.32203">
        <ele>228.48892</ele>
        <time>2021-10-03T08:21:41.000Z</time>
      </trkpt>
      <trkpt lat="43.63251" lon="2.3219">
        <ele>226.836611</ele>
        <time>2021-10-03T08:24:24.000Z</time>
      </trkpt>
      <trkpt lat="43.63253" lon="2.3219">
        <ele>226.720776</ele>
        <time>2021-10-03T08:24:25.000Z</time>
      </trkpt>
      <trkpt lat="43.63254" lon="2.3219">
        <ele>226.613316</ele>
        <time>2021-10-03T08:24:27.000Z</time>
      </trkpt>
      <trkpt lat="43.63262" lon="2.32188">
        <ele>225.797459</ele>
        <time>2021-10-03T08:24:42.000Z</time>
      </trkpt>
      <trkpt lat="43.63263" lon="2.32188">
        <ele>225.679158</ele>
        <time>2021-10-03T08:24:43.000Z</time>
      </trkpt>
      <trkpt lat="43.63264" lon="2.32188">
        <ele>225.57374</ele>
        <time>2021-10-03T08:24:44.000Z</time>
      </trkpt>
      <trkpt lat="43.63265" lon="2.32187">
        <ele>225.511877</ele>
        <time>2021-10-03T08:24:45.000Z</time>
      </trkpt>
      <trkpt lat="43.63267" lon="2.32185">
        <ele>225.306757</ele>
        <time>2021-10-03T08:24:47.000Z</time>
      </trkpt>
      <trkpt lat="43.63268" lon="2.32184">
        <ele>225.128873</ele>
        <time>2021-10-03T08:24:48.000Z</time>
      </trkpt>
      <trkpt lat="43.6327" lon="2.32182">
        <ele>224.942945</ele>
        <time>2021-10-03T08:24:49.000Z</time>
      </trkpt>
      <trkpt lat="43.63271" lon="2.3218">
        <ele>224.736168</ele>
        <time>2021-10-03T08:24:50.000Z</time>
      </trkpt>
      <trkpt lat="43.63272" lon="2.32177">
        <ele>224.496691</ele>
        <time>2021-10-03T08:24:51.000Z</time>
      </trkpt>
      <trkpt lat="43.63274" lon="2.32175">
        <ele>224.293498</ele>
        <time>2021-10-03T08:24:52.000Z</time>
      </trkpt>
      <trkpt lat="43.63275" lon="2.32172">
        <ele>224.038962</ele>
        <time>2021-10-03T08:24:53.000Z</time>
      </trkpt>
      <trkpt lat="43.63276" lon="2.32169">
        <ele>223.819769</ele>
        <time>2021-10-03T08:24:54.000Z</time>
      </trkpt>
      <trkpt lat="43.63277" lon="2.32166">
        <ele>223.577026</ele>
        <time>2021-10-03T08:24:55.000Z</time>
      </trkpt>
      <trkpt lat="43.63277" lon="2.32163">
        <ele>223.389501</ele>
        <time>2021-10-03T08:24:56.000Z</time>
      </trkpt>
      <trkpt lat="43.63277" lon="2.32161">
        <ele>223.227396</ele>
        <time>2021-10-03T08:24:57.000Z</time>
      </trkpt>
      <trkpt lat="43.63278" lon="2.32159">
        <ele>223.090144</ele>
        <time>2021-10-03T08:24:58.000Z</time>
      </trkpt>
      <trkpt lat="43.63278" lon="2.32157">
        <ele>222.914369</ele>
        <time>2021-10-03T08:24:59.000Z</time>
      </trkpt>
      <trkpt lat="43.63277" lon="2.32154">
        <ele>222.719916</ele>
        <time>2021-10-03T08:25:00.000Z</time>
      </trkpt>
      <trkpt lat="43.63276" lon="2.32151">
        <ele>222.478149</ele>
        <time>2021-10-03T08:25:01.000Z</time>
      </trkpt>
      <trkpt lat="43.63275" lon="2.32148">
        <ele>222.236104</ele>
        <time>2021-10-03T08:25:02.000Z</time>
      </trkpt>
      <trkpt lat="43.63273" lon="2.32145">
        <ele>222.000014</ele>
        <time>2021-10-03T08:25:03.000Z</time>
      </trkpt>
      <trkpt lat="43.63271" lon="2.32142">
        <ele>221.718249</ele>
        <time>2021-10-03T08:25:04.000Z</time>
      </trkpt>
      <trkpt lat="43.63271" lon="2.32139">
        <ele>221.496485</ele>
        <time>2021-10-03T08:25:05.000Z</time>
      </trkpt>
      <trkpt lat="43.6327" lon="2.32135">
        <ele>221.243853</ele>
        <time>2021-10-03T08:25:06.000Z</time>
      </trkpt>
      <trkpt lat="43.63269" lon="2.32132">
        <ele>220.966402</ele>
        <time>2021-10-03T08:25:07.000Z</time>
      </trkpt>
      <trkpt lat="43.63268" lon="2.32128">
        <ele>220.691898</ele>
        <time>2021-10-03T08:25:08.000Z</time>
      </trkpt>
      <trkpt lat="43.63267" lon="2.32124">
        <ele>220.379417</ele>
        <time>2021-10-03T08:25:09.000Z</time>
      </trkpt>
      <trkpt lat="43.63265" lon="2.32122">
        <ele>220.159468</ele>
        <time>2021-10-03T08:25:10.000Z</time>
      </trkpt>
      <trkpt lat="43.63263" lon="2.32119">
        <ele>219.921893</ele>
        <time>2021-10-03T08:25:11.000Z</time>
      </trkpt>
      <trkpt lat="43.63263" lon="2.32117">
        <ele>219.734367</ele>
        <time>2021-10-03T08:25:12.000Z</time>
      </trkpt>
      <trkpt lat="43.63264" lon="2.32113">
        <ele>219.4691</ele>
        <time>2021-10-03T08:25:13.000Z</time>
      </trkpt>
      <trkpt lat="43.63265" lon="2.3211">
        <ele>219.219115</ele>
        <time>2021-10-03T08:25:14.000Z</time>
      </trkpt>
      <trkpt lat="43.63266" lon="2.32107">
        <ele>219.034742</ele>
        <time>2021-10-03T08:25:15.000Z</time>
      </trkpt>
      <trkpt lat="43.63265" lon="2.32105">
        <ele>218.861676</ele>
        <time>2021-10-03T08:25:16.000Z</time>
      </trkpt>
      <trkpt lat="43.63264" lon="2.32102">
        <ele>218.639912</ele>
        <time>2021-10-03T08:25:17.000Z</time>
      </trkpt>
      <trkpt lat="43.63264" lon="2.32097">
        <ele>218.311659</ele>
        <time>2021-10-03T08:25:18.000Z</time>
      </trkpt>
      <trkpt lat="43.63264" lon="2.32092">
        <ele>217.930161</ele>
        <time>2021-10-03T08:25:19.000Z</time>
      </trkpt>
      <trkpt lat="43.63263" lon="2.32087">
        <ele>217.608796</ele>
        <time>2021-10-03T08:25:20.000Z</time>
      </trkpt>
      <trkpt lat="43.63263" lon="2.32084">
        <ele>217.366024</ele>
        <time>2021-10-03T08:25:21.000Z</time>
      </trkpt>
      <trkpt lat="43.63263" lon="2.32081">
        <ele>217.164871</ele>
        <time>2021-10-03T08:25:22.000Z</time>
      </trkpt>
      <trkpt lat="43.63262" lon="2.32079">
        <ele>216.990509</ele>
        <time>2021-10-03T08:25:23.000Z</time>
      </trkpt>
      <trkpt lat="43.63261" lon="2.32076">
        <ele>216.799429</ele>
        <time>2021-10-03T08:25:24.000Z</time>
      </trkpt>
      <trkpt lat="43.63261" lon="2.32075">
        <ele>216.726171</ele>
        <time>2021-10-03T08:25:25.000Z</time>
      </trkpt>
      <trkpt lat="43.63261" lon="2.32074">
        <ele>216.642386</ele>
        <time>2021-10-03T08:25:26.000Z</time>
      </trkpt>
      <trkpt lat="43.63261" lon="2.32073">
        <ele>216.574942</ele>
        <time>2021-10-03T08:25:27.000Z</time>
      </trkpt>
      <trkpt lat="43.63255" lon="2.32062">
        <ele>215.493841</ele>
        <time>2021-10-03T08:26:32.000Z</time>
      </trkpt>
      <trkpt lat="43.63255" lon="2.32059">
        <ele>215.280024</ele>
        <time>2021-10-03T08:26:33.000Z</time>
      </trkpt>
      <trkpt lat="43.63256" lon="2.32057">
        <ele>215.072059</ele>
        <time>2021-10-03T08:26:34.000Z</time>
      </trkpt>
      <trkpt lat="43.63257" lon="2.32054">
        <ele>214.859991</ele>
        <time>2021-10-03T08:26:35.000Z</time>
      </trkpt>
      <trkpt lat="43.63257" lon="2.32052">
        <ele>214.666034</ele>
        <time>2021-10-03T08:26:36.000Z</time>
      </trkpt>
      <trkpt lat="43.63258" lon="2.32049">
        <ele>214.417991</ele>
        <time>2021-10-03T08:26:37.000Z</time>
      </trkpt>
      <trkpt lat="43.63257" lon="2.32046">
        <ele>214.158402</ele>
        <time>2021-10-03T08:26:38.000Z</time>
      </trkpt>
      <trkpt lat="43.63257" lon="2.32043">
        <ele>213.964445</ele>
        <time>2021-10-03T08:26:39.000Z</time>
      </trkpt>
      <trkpt lat="43.63258" lon="2.32041">
        <ele>213.819396</ele>
        <time>2021-10-03T08:26:40.000Z</time>
      </trkpt>
      <trkpt lat="43.63259" lon="2.3204">
        <ele>213.67484</ele>
        <time>2021-10-03T08:26:41.000Z</time>
      </trkpt>
      <trkpt lat="43.6326" lon="2.32039">
        <ele>213.533695</ele>
        <time>2021-10-03T08:26:42.000Z</time>
      </trkpt>
      <trkpt lat="43.63262" lon="2.32038">
        <ele>213.287754</ele>
        <time>2021-10-03T08:26:43.000Z</time>
      </trkpt>
      <trkpt lat="43.63263" lon="2.32037">
        <ele>213.128264</ele>
        <time>2021-10-03T08:26:44.000Z</time>
      </trkpt>
      <trkpt lat="43.63265" lon="2.32036">
        <ele>212.965868</ele>
        <time>2021-10-03T08:26:45.000Z</time>
      </trkpt>
      <trkpt lat="43.63266" lon="2.32036">
        <ele>212.861889</ele>
        <time>2021-10-03T08:26:46.000Z</time>
      </trkpt>
      <trkpt lat="43.63267" lon="2.32035">
        <ele>212.692178</ele>
        <time>2021-10-03T08:26:47.000Z</time>
      </trkpt>
      <trkpt lat="43.63269" lon="2.32034">
        <ele>212.451442</ele>
        <time>2021-10-03T08:26:48.000Z</time>
      </trkpt>
      <trkpt lat="43.63271" lon="2.32032">
        <ele>212.243481</ele>
        <time>2021-10-03T08:26:49.000Z</time>
      </trkpt>
      <trkpt lat="43.63272" lon="2.32031">
        <ele>212.066803</ele>
        <time>2021-10-03T08:26:50.000Z</time>
      </trkpt>
      <trkpt lat="43.63273" lon="2.32029">
        <ele>211.922246</ele>
        <time>2021-10-03T08:26:51.000Z</time>
      </trkpt>
      <trkpt lat="43.63273" lon="2.32028">
        <ele>211.783561</ele>
        <time>2021-10-03T08:26:52.000Z</time>
      </trkpt>
      <trkpt lat="43.63274" lon="2.32025">
        <ele>211.57734</ele>
        <time>2021-10-03T08:26:53.000Z</time>
      </trkpt>
      <trkpt lat="43.63274" lon="2.32023">
        <ele>211.369376</ele>
        <time>2021-10-03T08:26:54.000Z</time>
      </trkpt>
      <trkpt lat="43.63276" lon="2.3202">
        <ele>211.11744</ele>
        <time>2021-10-03T08:26:55.000Z</time>
      </trkpt>
      <trkpt lat="43.63278" lon="2.32017">
        <ele>210.82528</ele>
        <time>2021-10-03T08:26:56.000Z</time>
      </trkpt>
      <trkpt lat="43.63279" lon="2.32015">
        <ele>210.566371</ele>
        <time>2021-10-03T08:26:57.000Z</time>
      </trkpt>
      <trkpt lat="43.6328" lon="2.32013">
        <ele>210.405391</ele>
        <time>2021-10-03T08:26:58.000Z</time>
      </trkpt>
      <trkpt lat="43.6328" lon="2.32011">
        <ele>210.259309</ele>
        <time>2021-10-03T08:26:59.000Z</time>
      </trkpt>
      <trkpt lat="43.63281" lon="2.32009">
        <ele>210.098329</ele>
        <time>2021-10-03T08:27:00.000Z</time>
      </trkpt>
      <trkpt lat="43.63282" lon="2.32008">
        <ele>209.938016</ele>
        <time>2021-10-03T08:27:01.000Z</time>
      </trkpt>
      <trkpt lat="43.63283" lon="2.32007">
        <ele>209.730058</ele>
        <time>2021-10-03T08:27:02.000Z</time>
      </trkpt>
      <trkpt lat="43.63285" lon="2.32006">
        <ele>209.550159</ele>
        <time>2021-10-03T08:27:03.000Z</time>
      </trkpt>
      <trkpt lat="43.63288" lon="2.32005">
        <ele>209.262848</ele>
        <time>2021-10-03T08:27:04.000Z</time>
      </trkpt>
      <trkpt lat="43.63291" lon="2.32003">
        <ele>208.834701</ele>
        <time>2021-10-03T08:27:05.000Z</time>
      </trkpt>
      <trkpt lat="43.63295" lon="2.32001">
        <ele>208.421853</ele>
        <time>2021-10-03T08:27:06.000Z</time>
      </trkpt>
      <trkpt lat="43.63298" lon="2.31996">
        <ele>207.974316</ele>
        <time>2021-10-03T08:27:07.000Z</time>
      </trkpt>
      <trkpt lat="43.63301" lon="2.31993">
        <ele>207.546292</ele>
        <time>2021-10-03T08:27:08.000Z</time>
      </trkpt>
      <trkpt lat="43.63304" lon="2.3199">
        <ele>207.103461</ele>
        <time>2021-10-03T08:27:09.000Z</time>
      </trkpt>
      <trkpt lat="43.63308" lon="2.31988">
        <ele>206.63475</ele>
        <time>2021-10-03T08:27:10.000Z</time>
      </trkpt>
      <trkpt lat="43.63313" lon="2.31985">
        <ele>206.082996</ele>
        <time>2021-10-03T08:27:11.000Z</time>
      </trkpt>
      <trkpt lat="43.63317" lon="2.31982">
        <ele>205.646342</ele>
        <time>2021-10-03T08:27:12.000Z</time>
      </trkpt>
      <trkpt lat="43.6332" lon="2.31978">
        <ele>205.169199</ele>
        <time>2021-10-03T08:27:13.000Z</time>
      </trkpt>
      <trkpt lat="43.63323" lon="2.31975">
        <ele>204.705276</ele>
        <time>2021-10-03T08:27:14.000Z</time>
      </trkpt>
      <trkpt lat="43.63327" lon="2.31971">
        <ele>204.281015</ele>
        <time>2021-10-03T08:27:15.000Z</time>
      </trkpt>
      <trkpt lat="43.63329" lon="2.31968">
        <ele>203.931113</ele>
        <time>2021-10-03T08:27:16.000Z</time>
      </trkpt>
      <trkpt lat="43.63332" lon="2.31964">
        <ele>203.49939</ele>
        <time>2021-10-03T08:27:17.000Z</time>
      </trkpt>
      <trkpt lat="43.63334" lon="2.31961">
        <ele>203.099301</ele>
        <time>2021-10-03T08:27:18.000Z</time>
      </trkpt>
      <trkpt lat="43.63337" lon="2.31957">
        <ele>202.678593</ele>
        <time>2021-10-03T08:27:19.000Z</time>
      </trkpt>
      <trkpt lat="43.6334" lon="2.31953">
        <ele>202.287319</ele>
        <time>2021-10-03T08:27:20.000Z</time>
      </trkpt>
      <trkpt lat="43.63343" lon="2.31948">
        <ele>201.790223</ele>
        <time>2021-10-03T08:27:21.000Z</time>
      </trkpt>
      <trkpt lat="43.63345" lon="2.31944">
        <ele>201.354407</ele>
        <time>2021-10-03T08:27:22.000Z</time>
      </trkpt>
      <trkpt lat="43.63348" lon="2.3194">
        <ele>200.912761</ele>
        <time>2021-10-03T08:27:23.000Z</time>
      </trkpt>
      <trkpt lat="43.63351" lon="2.31935">
        <ele>200.472081</ele>
        <time>2021-10-03T08:27:24.000Z</time>
      </trkpt>
      <trkpt lat="43.63354" lon="2.31929">
        <ele>199.868599</ele>
        <time>2021-10-03T08:27:25.000Z</time>
      </trkpt>
      <trkpt lat="43.63357" lon="2.31923">
        <ele>199.271282</ele>
        <time>2021-10-03T08:27:26.000Z</time>
      </trkpt>
      <trkpt lat="43.63361" lon="2.31915">
        <ele>198.54825</ele>
        <time>2021-10-03T08:27:27.000Z</time>
      </trkpt>
      <trkpt lat="43.63365" lon="2.31908">
        <ele>197.849392</ele>
        <time>2021-10-03T08:27:28.000Z</time>
      </trkpt>
      <trkpt lat="43.63367" lon="2.31899">
        <ele>197.163177</ele>
        <time>2021-10-03T08:27:29.000Z</time>
      </trkpt>
      <trkpt lat="43.63369" lon="2.31891">
        <ele>196.887103</ele>
        <time>2021-10-03T08:27:30.000Z</time>
      </trkpt>
      <trkpt lat="43.63371" lon="2.31882">
        <ele>196.62344</ele>
        <time>2021-10-03T08:27:31.000Z</time>
      </trkpt>
      <trkpt lat="43.63373" lon="2.31874">
        <ele>196.380396</ele>
        <time>2021-10-03T08:27:32.000Z</time>
      </trkpt>
      <trkpt lat="43.63376" lon="2.31867">
        <ele>196.16213</ele>
        <time>2021-10-03T08:27:33.000Z</time>
      </trkpt>
      <trkpt lat="43.6338" lon="2.31862">
        <ele>195.960207</ele>
        <time>2021-10-03T08:27:34.000Z</time>
      </trkpt>
      <trkpt lat="43.63383" lon="2.31857">
        <ele>195.76382</ele>
        <time>2021-10-03T08:27:35.000Z</time>
      </trkpt>
      <trkpt lat="43.63387" lon="2.31853">
        <ele>195.58355</ele>
        <time>2021-10-03T08:27:36.000Z</time>
      </trkpt>
      <trkpt lat="43.63392" lon="2.31851">
        <ele>195.371411</ele>
        <time>2021-10-03T08:27:37.000Z</time>
      </trkpt>
      <trkpt lat="43.63398" lon="2.3185">
        <ele>195.164788</ele>
        <time>2021-10-03T08:27:38.000Z</time>
      </trkpt>
      <trkpt lat="43.63403" lon="2.3185">
        <ele>194.959632</ele>
        <time>2021-10-03T08:27:39.000Z</time>
      </trkpt>
      <trkpt lat="43.63408" lon="2.31852">
        <ele>194.757419</ele>
        <time>2021-10-03T08:27:40.000Z</time>
      </trkpt>
      <trkpt lat="43.63413" lon="2.31856">
        <ele>194.531312</ele>
        <time>2021-10-03T08:27:41.000Z</time>
      </trkpt>
      <trkpt lat="43.63418" lon="2.31859">
        <ele>194.321486</ele>
        <time>2021-10-03T08:27:42.000Z</time>
      </trkpt>
      <trkpt lat="43.63423" lon="2.31861">
        <ele>194.13313</ele>
        <time>2021-10-03T08:27:43.000Z</time>
      </trkpt>
      <trkpt lat="43.63428" lon="2.31863">
        <ele>193.930917</ele>
        <time>2021-10-03T08:27:44.000Z</time>
      </trkpt>
      <trkpt lat="43.63432" lon="2.31866">
        <ele>193.751672</ele>
        <time>2021-10-03T08:27:45.000Z</time>
      </trkpt>
      <trkpt lat="43.63437" lon="2.31868">
        <ele>193.568761</ele>
        <time>2021-10-03T08:27:46.000Z</time>
      </trkpt>
      <trkpt lat="43.63441" lon="2.3187">
        <ele>193.382984</ele>
        <time>2021-10-03T08:27:47.000Z</time>
      </trkpt>
      <trkpt lat="43.63446" lon="2.31871">
        <ele>193.175555</ele>
        <time>2021-10-03T08:27:48.000Z</time>
      </trkpt>
      <trkpt lat="43.63451" lon="2.31874">
        <ele>192.986265</ele>
        <time>2021-10-03T08:27:49.000Z</time>
      </trkpt>
      <trkpt lat="43.63456" lon="2.31877">
        <ele>192.776438</ele>
        <time>2021-10-03T08:27:50.000Z</time>
      </trkpt>
      <trkpt lat="43.63461" lon="2.31879">
        <ele>192.556945</ele>
        <time>2021-10-03T08:27:51.000Z</time>
      </trkpt>
      <trkpt lat="43.63466" lon="2.31881">
        <ele>192.366684</ele>
        <time>2021-10-03T08:27:52.000Z</time>
      </trkpt>
      <trkpt lat="43.6347" lon="2.31883">
        <ele>192.198827</ele>
        <time>2021-10-03T08:27:53.000Z</time>
      </trkpt>
      <trkpt lat="43.63474" lon="2.31885">
        <ele>192.039722</ele>
        <time>2021-10-03T08:27:54.000Z</time>
      </trkpt>
      <trkpt lat="43.6349" lon="2.31888">
        <ele>208.9</ele>
        <extensions>
          <visugpx:TrkExtension xmlns:visugpx="https://www.visugpx.com/editgpx/">
            <visugpx:node>4</visugpx:node>
            </visugpx:TrkExtension>
        </extensions>
      </trkpt>
      <trkpt lat="43.63507" lon="2.31896">
        <ele>194.8</ele>
      </trkpt>
      <trkpt lat="43.63512" lon="2.31901">
        <ele>195.3</ele>
      </trkpt>
      <trkpt lat="43.63519" lon="2.31906">
        <ele>195.6</ele>
      </trkpt>
      <trkpt lat="43.63529" lon="2.3191">
        <ele>195.3</ele>
      </trkpt>
      <trkpt lat="43.63533" lon="2.31908">
        <ele>194.6</ele>
      </trkpt>
      <trkpt lat="43.63533" lon="2.31906">
        <ele>194.1</ele>
      </trkpt>
      <trkpt lat="43.63533" lon="2.31902">
        <ele>193.1</ele>
      </trkpt>
      <trkpt lat="43.63534" lon="2.31898">
        <ele>192.1</ele>
      </trkpt>
      <trkpt lat="43.63553" lon="2.31836">
        <ele>194.9</ele>
      </trkpt>
      <trkpt lat="43.63554" lon="2.31834">
        <ele>195.5</ele>
      </trkpt>
      <trkpt lat="43.63593" lon="2.31865">
        <ele>192.5</ele>
      </trkpt>
      <trkpt lat="43.63603" lon="2.31871">
        <ele>193</ele>
      </trkpt>
      <trkpt lat="43.63608" lon="2.31874">
        <ele>193.3</ele>
      </trkpt>
      <trkpt lat="43.63629" lon="2.31887">
        <ele>193.1</ele>
      </trkpt>
      <trkpt lat="43.63631" lon="2.31888">
        <ele>193</ele>
      </trkpt>
      <trkpt lat="43.63634" lon="2.31873">
        <ele>193.6</ele>
        <extensions>
          <visugpx:TrkExtension xmlns:visugpx="https://www.visugpx.com/editgpx/">
            <visugpx:node>5</visugpx:node>
            </visugpx:TrkExtension>
        </extensions>
      </trkpt>
      <trkpt lat="43.63648" lon="2.31875">
        <ele>193.8</ele>
      </trkpt>
      <trkpt lat="43.63655" lon="2.31877">
        <ele>194</ele>
      </trkpt>
      <trkpt lat="43.63658" lon="2.31876">
        <ele>194.2</ele>
      </trkpt>
      <trkpt lat="43.63659" lon="2.31899">
        <ele>193.4</ele>
        <extensions>
          <visugpx:TrkExtension xmlns:visugpx="https://www.visugpx.com/editgpx/">
            <visugpx:node>6</visugpx:node>
            </visugpx:TrkExtension>
        </extensions>
      </trkpt>
      <trkpt lat="43.63661" lon="2.31926">
        <ele>192.1</ele>
      </trkpt>
      <trkpt lat="43.63672" lon="2.31928">
        <ele>192.2</ele>
        <extensions>
          <visugpx:TrkExtension xmlns:visugpx="https://www.visugpx.com/editgpx/">
            <visugpx:node>7</visugpx:node>
            </visugpx:TrkExtension>
        </extensions>
      </trkpt>
      <trkpt lat="43.63678" lon="2.31929">
        <ele>192.1</ele>
        <extensions>
          <visugpx:TrkExtension xmlns:visugpx="https://www.visugpx.com/editgpx/">
            <visugpx:node>8</visugpx:node>
            </visugpx:TrkExtension>
        </extensions>
      </trkpt>
      <trkpt lat="43.63683" lon="2.31937">
        <ele>191.5</ele>
      </trkpt>
      <trkpt lat="43.63699" lon="2.31942">
        <ele>191.3</ele>
      </trkpt>
      <trkpt lat="43.63703" lon="2.31945">
        <ele>191.3</ele>
        <extensions>
          <visugpx:TrkExtension xmlns:visugpx="https://www.visugpx.com/editgpx/">
            <visugpx:node>9</visugpx:node>
            </visugpx:TrkExtension>
        </extensions>
      </trkpt>
      <trkpt lat="43.63713" lon="2.31951">
        <ele>191.3</ele>
      </trkpt>
      <trkpt lat="43.63722" lon="2.31924">
        <ele>192.7</ele>
      </trkpt>
      <trkpt lat="43.63732" lon="2.31924">
        <ele>192.7</ele>
      </trkpt>
      <trkpt lat="43.63742" lon="2.31925">
        <ele>192.7</ele>
      </trkpt>
      <trkpt lat="43.63746" lon="2.31925">
        <ele>192.7</ele>
      </trkpt>
      <trkpt lat="43.63755" lon="2.31926">
        <ele>192.9</ele>
      </trkpt>
      <trkpt lat="43.63763" lon="2.31938">
        <ele>193.1</ele>
      </trkpt>
      <trkpt lat="43.63768" lon="2.31942">
        <ele>193.3</ele>
      </trkpt>
      <trkpt lat="43.63773" lon="2.31937">
        <ele>193.7</ele>
      </trkpt>
      <trkpt lat="43.6378" lon="2.31918">
        <ele>194</ele>
      </trkpt>
      <trkpt lat="43.63785" lon="2.31915">
        <ele>193.9</ele>
        <extensions>
          <visugpx:TrkExtension xmlns:visugpx="https://www.visugpx.com/editgpx/">
            <visugpx:node>10</visugpx:node>
            </visugpx:TrkExtension>
        </extensions>
      </trkpt>
      <trkpt lat="43.63791" lon="2.3191">
        <ele>193.6</ele>
      </trkpt>
      <trkpt lat="43.63803" lon="2.31907">
        <ele>193.6</ele>
      </trkpt>
      <trkpt lat="43.6383" lon="2.31901">
        <ele>193.5</ele>
      </trkpt>
      <trkpt lat="43.63861" lon="2.31871">
        <ele>193</ele>
      </trkpt>
      <trkpt lat="43.63918" lon="2.31838">
        <ele>192</ele>
      </trkpt>
      <trkpt lat="43.63918" lon="2.31829">
        <ele>192.4</ele>
      </trkpt>
      <trkpt lat="43.63918" lon="2.31825">
        <ele>192.6</ele>
      </trkpt>
      <trkpt lat="43.6392" lon="2.31824">
        <ele>192.8</ele>
        <extensions>
          <visugpx:TrkExtension xmlns:visugpx="https://www.visugpx.com/editgpx/">
            <visugpx:node>11</visugpx:node>
            </visugpx:TrkExtension>
        </extensions>
      </trkpt>
      <trkpt lat="43.63924" lon="2.31822">
        <ele>193</ele>
        <extensions>
          <visugpx:TrkExtension xmlns:visugpx="https://www.visugpx.com/editgpx/">
            <visugpx:node>12</visugpx:node>
            </visugpx:TrkExtension>
        </extensions>
      </trkpt>
      <trkpt lat="43.63947" lon="2.31812">
        <ele>193.7</ele>
      </trkpt>
      <trkpt lat="43.63962" lon="2.31807">
        <ele>193.3</ele>
      </trkpt>
      <trkpt lat="43.63976" lon="2.31801">
        <ele>195.4</ele>
      </trkpt>
      <trkpt lat="43.6399" lon="2.31798">
        <ele>197.7</ele>
      </trkpt>
      <trkpt lat="43.64001" lon="2.318">
        <ele>196.9</ele>
      </trkpt>
      <trkpt lat="43.64021" lon="2.31809">
        <ele>195.6</ele>
      </trkpt>
      <trkpt lat="43.64032" lon="2.31812">
        <ele>195.7</ele>
      </trkpt>
      <trkpt lat="43.64059" lon="2.31805">
        <ele>194.3</ele>
      </trkpt>
      <trkpt lat="43.64072" lon="2.31806">
        <ele>194</ele>
      </trkpt>
      <trkpt lat="43.64113" lon="2.31815">
        <ele>197.2</ele>
      </trkpt>
      <trkpt lat="43.64123" lon="2.31819">
        <ele>197.2</ele>
      </trkpt>
      <trkpt lat="43.6416" lon="2.31824">
        <ele>196.7</ele>
      </trkpt>
      <trkpt lat="43.64192" lon="2.31835">
        <ele>194.7</ele>
      </trkpt>
      <trkpt lat="43.64226" lon="2.31851">
        <ele>195.2</ele>
      </trkpt>
      <trkpt lat="43.6424" lon="2.31863">
        <ele>193.6</ele>
      </trkpt>
      <trkpt lat="43.64253" lon="2.3187">
        <ele>194</ele>
      </trkpt>
      <trkpt lat="43.64268" lon="2.31875">
        <ele>194.8</ele>
      </trkpt>
      <trkpt lat="43.64284" lon="2.31884">
        <ele>194.2</ele>
      </trkpt>
      <trkpt lat="43.64308" lon="2.31892">
        <ele>194</ele>
      </trkpt>
      <trkpt lat="43.64327" lon="2.31894">
        <ele>195.1</ele>
      </trkpt>
      <trkpt lat="43.64347" lon="2.31903">
        <ele>196.4</ele>
      </trkpt>
      <trkpt lat="43.64368" lon="2.31917">
        <ele>195.2</ele>
      </trkpt>
      <trkpt lat="43.64371" lon="2.31919">
        <ele>195.5</ele>
        <extensions>
          <visugpx:TrkExtension xmlns:visugpx="https://www.visugpx.com/editgpx/">
            <visugpx:node>13</visugpx:node>
            </visugpx:TrkExtension>
        </extensions>
      </trkpt>
      <trkpt lat="43.64393" lon="2.31931">
        <ele>196.5</ele>
      </trkpt>
      <trkpt lat="43.64397" lon="2.31936">
        <ele>195.6</ele>
      </trkpt>
      <trkpt lat="43.644" lon="2.31943">
        <ele>193.8</ele>
      </trkpt>
      <trkpt lat="43.64406" lon="2.31947">
        <ele>193.7</ele>
      </trkpt>
      <trkpt lat="43.64446" lon="2.3197">
        <ele>193.6</ele>
      </trkpt>
      <trkpt lat="43.64476" lon="2.31982">
        <ele>193.2</ele>
      </trkpt>
      <trkpt lat="43.6449" lon="2.31985">
        <ele>193.7</ele>
      </trkpt>
      <trkpt lat="43.64521" lon="2.3198">
        <ele>195</ele>
      </trkpt>
      <trkpt lat="43.64548" lon="2.31985">
        <ele>195.7</ele>
      </trkpt>
      <trkpt lat="43.64561" lon="2.31984">
        <ele>196.8</ele>
      </trkpt>
      <trkpt lat="43.64572" lon="2.31988">
        <ele>196.8</ele>
      </trkpt>
      <trkpt lat="43.64625" lon="2.32023">
        <ele>196.5</ele>
      </trkpt>
      <trkpt lat="43.64647" lon="2.32053">
        <ele>196.8</ele>
      </trkpt>
      <trkpt lat="43.64672" lon="2.32094">
        <ele>196.9</ele>
      </trkpt>
      <trkpt lat="43.64676" lon="2.32105">
        <ele>196.9</ele>
      </trkpt>
      <trkpt lat="43.64704" lon="2.32197">
        <ele>197.7</ele>
      </trkpt>
      <trkpt lat="43.64706" lon="2.32213">
        <ele>197.8</ele>
      </trkpt>
      <trkpt lat="43.64715" lon="2.32256">
        <ele>197.6</ele>
      </trkpt>
      <trkpt lat="43.64716" lon="2.32275">
        <ele>196.7</ele>
      </trkpt>
      <trkpt lat="43.64716" lon="2.32277">
        <ele>196.6</ele>
        <extensions>
          <visugpx:TrkExtension xmlns:visugpx="https://www.visugpx.com/editgpx/">
            <visugpx:node>14</visugpx:node>
            </visugpx:TrkExtension>
        </extensions>
      </trkpt>
      <trkpt lat="43.64724" lon="2.32315">
        <ele>196.2</ele>
      </trkpt>
      <trkpt lat="43.6473" lon="2.32328">
        <ele>197.7</ele>
      </trkpt>
      <trkpt lat="43.64738" lon="2.32359">
        <ele>199.1</ele>
      </trkpt>
      <trkpt lat="43.6474" lon="2.32387">
        <ele>198.3</ele>
      </trkpt>
      <trkpt lat="43.64742" lon="2.32397">
        <ele>197.9</ele>
      </trkpt>
      <trkpt lat="43.64746" lon="2.32409">
        <ele>197.4</ele>
      </trkpt>
      <trkpt lat="43.64754" lon="2.32446">
        <ele>196.6</ele>
      </trkpt>
      <trkpt lat="43.64768" lon="2.3248">
        <ele>200.9</ele>
      </trkpt>
      <trkpt lat="43.64773" lon="2.32512">
        <ele>199</ele>
      </trkpt>
      <trkpt lat="43.64781" lon="2.32542">
        <ele>197.7</ele>
      </trkpt>
      <trkpt lat="43.64793" lon="2.32566">
        <ele>200.5</ele>
      </trkpt>
      <trkpt lat="43.648" lon="2.32575">
        <ele>200.9</ele>
      </trkpt>
      <trkpt lat="43.64832" lon="2.32633">
        <ele>198.9</ele>
      </trkpt>
      <trkpt lat="43.64855" lon="2.32648">
        <ele>199.5</ele>
      </trkpt>
      <trkpt lat="43.64877" lon="2.32659">
        <ele>197.4</ele>
      </trkpt>
      <trkpt lat="43.64898" lon="2.32658">
        <ele>197.5</ele>
      </trkpt>
      <trkpt lat="43.64908" lon="2.32654">
        <ele>198.2</ele>
      </trkpt>
      <trkpt lat="43.64934" lon="2.32647">
        <ele>197.9</ele>
      </trkpt>
      <trkpt lat="43.64964" lon="2.32646">
        <ele>196.7</ele>
      </trkpt>
      <trkpt lat="43.64986" lon="2.32643">
        <ele>196.7</ele>
      </trkpt>
      <trkpt lat="43.6502" lon="2.32617">
        <ele>200.4</ele>
      </trkpt>
      <trkpt lat="43.65039" lon="2.32612">
        <ele>198.7</ele>
      </trkpt>
      <trkpt lat="43.65051" lon="2.32607">
        <ele>199.2</ele>
      </trkpt>
      <trkpt lat="43.65079" lon="2.32607">
        <ele>196.4</ele>
      </trkpt>
      <trkpt lat="43.65098" lon="2.326">
        <ele>197.4</ele>
      </trkpt>
      <trkpt lat="43.6511" lon="2.326">
        <ele>197</ele>
      </trkpt>
      <trkpt lat="43.65134" lon="2.32601">
        <ele>196.8</ele>
        <extensions>
          <visugpx:TrkExtension xmlns:visugpx="https://www.visugpx.com/editgpx/">
            <visugpx:node>15</visugpx:node>
            </visugpx:TrkExtension>
        </extensions>
      </trkpt>
      <trkpt lat="43.65141" lon="2.32602">
        <ele>196.8</ele>
      </trkpt>
      <trkpt lat="43.65151" lon="2.32605">
        <ele>196.9</ele>
      </trkpt>
      <trkpt lat="43.65172" lon="2.32607">
        <ele>197.6</ele>
      </trkpt>
      <trkpt lat="43.65176" lon="2.32605">
        <ele>198.5</ele>
      </trkpt>
      <trkpt lat="43.65197" lon="2.32608">
        <ele>198.7</ele>
      </trkpt>
      <trkpt lat="43.6529" lon="2.32652">
        <ele>203.7</ele>
      </trkpt>
      <trkpt lat="43.65297" lon="2.32659">
        <ele>204.9</ele>
      </trkpt>
      <trkpt lat="43.65305" lon="2.32673">
        <ele>204.5</ele>
      </trkpt>
      <trkpt lat="43.65311" lon="2.32696">
        <ele>203</ele>
      </trkpt>
      <trkpt lat="43.65318" lon="2.32706">
        <ele>205.8</ele>
      </trkpt>
      <trkpt lat="43.65323" lon="2.32719">
        <ele>206.4</ele>
      </trkpt>
      <trkpt lat="43.65329" lon="2.32725">
        <ele>208.2</ele>
      </trkpt>
      <trkpt lat="43.65353" lon="2.32741">
        <ele>216.2</ele>
      </trkpt>
      <trkpt lat="43.65356" lon="2.32749">
        <ele>215.6</ele>
      </trkpt>
      <trkpt lat="43.6537" lon="2.3276">
        <ele>219.6</ele>
      </trkpt>
      <trkpt lat="43.65384" lon="2.32778">
        <ele>222.7</ele>
      </trkpt>
      <trkpt lat="43.65418" lon="2.328">
        <ele>230.6</ele>
      </trkpt>
      <trkpt lat="43.65424" lon="2.328">
        <ele>231.2</ele>
      </trkpt>
      <trkpt lat="43.65442" lon="2.32794">
        <ele>235</ele>
      </trkpt>
      <trkpt lat="43.65445" lon="2.32787">
        <ele>237.3</ele>
      </trkpt>
      <trkpt lat="43.65445" lon="2.32783">
        <ele>238.4</ele>
      </trkpt>
      <trkpt lat="43.65442" lon="2.32779">
        <ele>239.3</ele>
      </trkpt>
      <trkpt lat="43.65433" lon="2.32772">
        <ele>240.1</ele>
      </trkpt>
      <trkpt lat="43.65422" lon="2.32751">
        <ele>243.9</ele>
      </trkpt>
      <trkpt lat="43.65423" lon="2.32746">
        <ele>245.4</ele>
      </trkpt>
      <trkpt lat="43.65424" lon="2.32744">
        <ele>246.1</ele>
      </trkpt>
      <trkpt lat="43.65428" lon="2.32743">
        <ele>247.2</ele>
      </trkpt>
      <trkpt lat="43.6544" lon="2.32745">
        <ele>249.3</ele>
      </trkpt>
      <trkpt lat="43.65447" lon="2.32745">
        <ele>249.9</ele>
      </trkpt>
      <trkpt lat="43.65451" lon="2.32742">
        <ele>250</ele>
      </trkpt>
      <trkpt lat="43.6546" lon="2.32729">
        <ele>251.6</ele>
      </trkpt>
      <trkpt lat="43.65463" lon="2.32716">
        <ele>253.5</ele>
      </trkpt>
      <trkpt lat="43.65461" lon="2.32703">
        <ele>255.7</ele>
      </trkpt>
      <trkpt lat="43.65456" lon="2.327">
        <ele>257.3</ele>
      </trkpt>
      <trkpt lat="43.65445" lon="2.32701">
        <ele>259.7</ele>
      </trkpt>
      <trkpt lat="43.6544" lon="2.32698">
        <ele>259.5</ele>
      </trkpt>
      <trkpt lat="43.65435" lon="2.32693">
        <ele>259.5</ele>
      </trkpt>
      <trkpt lat="43.65433" lon="2.32688">
        <ele>260.1</ele>
      </trkpt>
      <trkpt lat="43.65434" lon="2.32682">
        <ele>261.2</ele>
      </trkpt>
      <trkpt lat="43.65445" lon="2.32677">
        <ele>263.3</ele>
      </trkpt>
      <trkpt lat="43.65447" lon="2.3267">
        <ele>263.4</ele>
      </trkpt>
      <trkpt lat="43.65444" lon="2.32658">
        <ele>265.3</ele>
      </trkpt>
      <trkpt lat="43.65439" lon="2.32647">
        <ele>266</ele>
      </trkpt>
      <trkpt lat="43.6543" lon="2.32641">
        <ele>267.2</ele>
      </trkpt>
      <trkpt lat="43.65424" lon="2.32631">
        <ele>269.1</ele>
      </trkpt>
      <trkpt lat="43.65424" lon="2.32621">
        <ele>270.2</ele>
      </trkpt>
      <trkpt lat="43.65421" lon="2.32612">
        <ele>272.3</ele>
      </trkpt>
      <trkpt lat="43.65409" lon="2.32594">
        <ele>275.8</ele>
      </trkpt>
      <trkpt lat="43.65389" lon="2.32548">
        <ele>282.9</ele>
      </trkpt>
      <trkpt lat="43.65387" lon="2.32535">
        <ele>285.3</ele>
      </trkpt>
      <trkpt lat="43.65378" lon="2.32514">
        <ele>285.4</ele>
      </trkpt>
      <trkpt lat="43.65378" lon="2.32508">
        <ele>286.5</ele>
      </trkpt>
      <trkpt lat="43.6538" lon="2.32506">
        <ele>287.8</ele>
      </trkpt>
      <trkpt lat="43.65388" lon="2.3251">
        <ele>290.8</ele>
      </trkpt>
      <trkpt lat="43.65398" lon="2.32521">
        <ele>289.6</ele>
      </trkpt>
      <trkpt lat="43.65405" lon="2.32522">
        <ele>289.8</ele>
      </trkpt>
      <trkpt lat="43.65407" lon="2.32519">
        <ele>290.3</ele>
      </trkpt>
      <trkpt lat="43.65404" lon="2.32496">
        <ele>293</ele>
      </trkpt>
      <trkpt lat="43.65405" lon="2.32433">
        <ele>299.4</ele>
        <extensions>
          <visugpx:TrkExtension xmlns:visugpx="https://www.visugpx.com/editgpx/">
            <visugpx:node>16</visugpx:node>
            </visugpx:TrkExtension>
        </extensions>
      </trkpt>
      <trkpt lat="43.6541" lon="2.32397">
        <ele>304.3</ele>
      </trkpt>
      <trkpt lat="43.65411" lon="2.32365">
        <ele>310</ele>
      </trkpt>
      <trkpt lat="43.65417" lon="2.32355">
        <ele>312.7</ele>
      </trkpt>
      <trkpt lat="43.65418" lon="2.32349">
        <ele>313.2</ele>
      </trkpt>
      <trkpt lat="43.65415" lon="2.32336">
        <ele>315.3</ele>
      </trkpt>
      <trkpt lat="43.65409" lon="2.3232">
        <ele>317.1</ele>
      </trkpt>
      <trkpt lat="43.65409" lon="2.32314">
        <ele>318.3</ele>
      </trkpt>
      <trkpt lat="43.65404" lon="2.32299">
        <ele>320.1</ele>
      </trkpt>
      <trkpt lat="43.65404" lon="2.32295">
        <ele>320.9</ele>
      </trkpt>
      <trkpt lat="43.65406" lon="2.32293">
        <ele>321.7</ele>
      </trkpt>
      <trkpt lat="43.65409" lon="2.32297">
        <ele>321.7</ele>
      </trkpt>
      <trkpt lat="43.65413" lon="2.32298">
        <ele>322.5</ele>
      </trkpt>
      <trkpt lat="43.65417" lon="2.32296">
        <ele>323.7</ele>
      </trkpt>
      <trkpt lat="43.65418" lon="2.32292">
        <ele>324.2</ele>
      </trkpt>
      <trkpt lat="43.65413" lon="2.32283">
        <ele>325.2</ele>
      </trkpt>
      <trkpt lat="43.65398" lon="2.3227">
        <ele>324.8</ele>
      </trkpt>
      <trkpt lat="43.65401" lon="2.32262">
        <ele>327.5</ele>
      </trkpt>
      <trkpt lat="43.65399" lon="2.32259">
        <ele>327.7</ele>
      </trkpt>
      <trkpt lat="43.65368" lon="2.32246">
        <ele>327.9</ele>
      </trkpt>
      <trkpt lat="43.65358" lon="2.32248">
        <ele>328.7</ele>
      </trkpt>
      <trkpt lat="43.65352" lon="2.3226">
        <ele>328.8</ele>
      </trkpt>
      <trkpt lat="43.65344" lon="2.32267">
        <ele>330.2</ele>
      </trkpt>
      <trkpt lat="43.65284" lon="2.32296">
        <ele>338.1</ele>
      </trkpt>
      <trkpt lat="43.6526" lon="2.32306">
        <ele>341.6</ele>
      </trkpt>
      <trkpt lat="43.65241" lon="2.3231">
        <ele>344.6</ele>
      </trkpt>
      <trkpt lat="43.65232" lon="2.32309">
        <ele>346.7</ele>
      </trkpt>
      <trkpt lat="43.65192" lon="2.32299">
        <ele>353.2</ele>
      </trkpt>
      <trkpt lat="43.65188" lon="2.32294">
        <ele>355</ele>
      </trkpt>
      <trkpt lat="43.65188" lon="2.3229">
        <ele>356.5</ele>
      </trkpt>
      <trkpt lat="43.65189" lon="2.32286">
        <ele>358.1</ele>
      </trkpt>
      <trkpt lat="43.6521" lon="2.32282">
        <ele>358</ele>
      </trkpt>
      <trkpt lat="43.65211" lon="2.32278">
        <ele>359.1</ele>
      </trkpt>
      <trkpt lat="43.6521" lon="2.32273">
        <ele>361.1</ele>
      </trkpt>
      <trkpt lat="43.65207" lon="2.32271">
        <ele>362.2</ele>
      </trkpt>
      <trkpt lat="43.65194" lon="2.32273">
        <ele>362.7</ele>
      </trkpt>
      <trkpt lat="43.6517" lon="2.32266">
        <ele>366.1</ele>
      </trkpt>
      <trkpt lat="43.65164" lon="2.32258">
        <ele>369.4</ele>
      </trkpt>
      <trkpt lat="43.65165" lon="2.32251">
        <ele>371.8</ele>
      </trkpt>
      <trkpt lat="43.65172" lon="2.32245">
        <ele>373.6</ele>
      </trkpt>
      <trkpt lat="43.65185" lon="2.32243">
        <ele>373.7</ele>
      </trkpt>
      <trkpt lat="43.65205" lon="2.32231">
        <ele>376.1</ele>
      </trkpt>
      <trkpt lat="43.65229" lon="2.32209">
        <ele>379.7</ele>
      </trkpt>
      <trkpt lat="43.6523" lon="2.32199">
        <ele>382.3</ele>
      </trkpt>
      <trkpt lat="43.65225" lon="2.32194">
        <ele>384.6</ele>
      </trkpt>
      <trkpt lat="43.65198" lon="2.32192">
        <ele>387.3</ele>
      </trkpt>
      <trkpt lat="43.65189" lon="2.32188">
        <ele>389.2</ele>
      </trkpt>
      <trkpt lat="43.65179" lon="2.32187">
        <ele>390.5</ele>
      </trkpt>
      <trkpt lat="43.65164" lon="2.32188">
        <ele>391.8</ele>
      </trkpt>
      <trkpt lat="43.65147" lon="2.32181">
        <ele>394.8</ele>
      </trkpt>
      <trkpt lat="43.65098" lon="2.32153">
        <ele>403</ele>
      </trkpt>
      <trkpt lat="43.65085" lon="2.32124">
        <ele>407.2</ele>
      </trkpt>
      <trkpt lat="43.65086" lon="2.32101">
        <ele>409.5</ele>
      </trkpt>
      <trkpt lat="43.65097" lon="2.32072">
        <ele>411.9</ele>
      </trkpt>
      <trkpt lat="43.65126" lon="2.32033">
        <ele>417.3</ele>
      </trkpt>
      <trkpt lat="43.65166" lon="2.31967">
        <ele>423.1</ele>
      </trkpt>
      <trkpt lat="43.65176" lon="2.31949">
        <ele>425.1</ele>
      </trkpt>
      <trkpt lat="43.65178" lon="2.3194">
        <ele>425.7</ele>
      </trkpt>
      <trkpt lat="43.65187" lon="2.3191">
        <ele>427.8</ele>
        <extensions>
          <visugpx:TrkExtension xmlns:visugpx="https://www.visugpx.com/editgpx/">
            <visugpx:node>17</visugpx:node>
            </visugpx:TrkExtension>
        </extensions>
      </trkpt>
      <trkpt lat="43.65194" lon="2.31886">
        <ele>430</ele>
      </trkpt>
      <trkpt lat="43.652" lon="2.31837">
        <ele>431.5</ele>
      </trkpt>
      <trkpt lat="43.65209" lon="2.31794">
        <ele>432</ele>
      </trkpt>
      <trkpt lat="43.65214" lon="2.31775">
        <ele>432.1</ele>
      </trkpt>
      <trkpt lat="43.65218" lon="2.31763">
        <ele>432.6</ele>
      </trkpt>
      <trkpt lat="43.65247" lon="2.31695">
        <ele>434.6</ele>
        <extensions>
          <visugpx:TrkExtension xmlns:visugpx="https://www.visugpx.com/editgpx/">
            <visugpx:node>18</visugpx:node>
            </visugpx:TrkExtension>
        </extensions>
      </trkpt>
      <trkpt lat="43.65249" lon="2.31682">
        <ele>434.4</ele>
      </trkpt>
      <trkpt lat="43.65247" lon="2.31657">
        <ele>433.8</ele>
      </trkpt>
      <trkpt lat="43.65235" lon="2.3157">
        <ele>434.3</ele>
      </trkpt>
      <trkpt lat="43.65228" lon="2.31536">
        <ele>435.5</ele>
      </trkpt>
      <trkpt lat="43.65224" lon="2.31523">
        <ele>436.3</ele>
      </trkpt>
      <trkpt lat="43.65207" lon="2.31488">
        <ele>438.7</ele>
      </trkpt>
      <trkpt lat="43.65177" lon="2.31418">
        <ele>441.3</ele>
      </trkpt>
      <trkpt lat="43.65171" lon="2.31398">
        <ele>441.2</ele>
      </trkpt>
      <trkpt lat="43.65167" lon="2.31378">
        <ele>440.6</ele>
      </trkpt>
      <trkpt lat="43.65167" lon="2.3131">
        <ele>436.4</ele>
      </trkpt>
      <trkpt lat="43.65172" lon="2.31244">
        <ele>430.3</ele>
      </trkpt>
      <trkpt lat="43.65171" lon="2.31227">
        <ele>428.8</ele>
      </trkpt>
      <trkpt lat="43.65166" lon="2.31193">
        <ele>424.9</ele>
      </trkpt>
      <trkpt lat="43.65158" lon="2.31163">
        <ele>423.3</ele>
      </trkpt>
      <trkpt lat="43.65153" lon="2.31148">
        <ele>422.7</ele>
      </trkpt>
      <trkpt lat="43.65111" lon="2.31064">
        <ele>425.4</ele>
      </trkpt>
      <trkpt lat="43.6509" lon="2.31014">
        <ele>426.5</ele>
      </trkpt>
      <trkpt lat="43.6506" lon="2.30949">
        <ele>425</ele>
      </trkpt>
      <trkpt lat="43.65042" lon="2.309">
        <ele>426.6</ele>
      </trkpt>
      <trkpt lat="43.65021" lon="2.30882">
        <ele>426.8</ele>
      </trkpt>
      <trkpt lat="43.65014" lon="2.30833">
        <ele>429</ele>
      </trkpt>
      <trkpt lat="43.65005" lon="2.30814">
        <ele>429.7</ele>
      </trkpt>
      <trkpt lat="43.64987" lon="2.30841">
        <ele>427.9</ele>
      </trkpt>
      <trkpt lat="43.64961" lon="2.30853">
        <ele>424.8</ele>
      </trkpt>
      <trkpt lat="43.64906" lon="2.3087">
        <ele>419.4</ele>
      </trkpt>
      <trkpt lat="43.64876" lon="2.30873">
        <ele>419.5</ele>
        <extensions>
          <visugpx:TrkExtension xmlns:visugpx="https://www.visugpx.com/editgpx/">
            <visugpx:node>19</visugpx:node>
            </visugpx:TrkExtension>
        </extensions>
      </trkpt>
      <trkpt lat="43.64846" lon="2.30893">
        <ele>417.8</ele>
      </trkpt>
      <trkpt lat="43.64815" lon="2.30916">
        <ele>416.4</ele>
      </trkpt>
      <trkpt lat="43.64772" lon="2.30938">
        <ele>415.9</ele>
      </trkpt>
      <trkpt lat="43.64699" lon="2.30979">
        <ele>408.5</ele>
        <extensions>
          <visugpx:TrkExtension xmlns:visugpx="https://www.visugpx.com/editgpx/">
            <visugpx:node>20</visugpx:node>
            </visugpx:TrkExtension>
        </extensions>
      </trkpt>
      <trkpt lat="43.64694" lon="2.30982">
        <ele>407.9</ele>
        <extensions>
          <visugpx:TrkExtension xmlns:visugpx="https://www.visugpx.com/editgpx/">
            <visugpx:node>21</visugpx:node>
            </visugpx:TrkExtension>
        </extensions>
      </trkpt>
      <trkpt lat="43.64704" lon="2.31013">
        <ele>404</ele>
      </trkpt>
      <trkpt lat="43.64679" lon="2.31037">
        <ele>400.3</ele>
      </trkpt>
      <trkpt lat="43.64666" lon="2.31047">
        <ele>398.9</ele>
      </trkpt>
      <trkpt lat="43.64619" lon="2.31076">
        <ele>395.1</ele>
      </trkpt>
      <trkpt lat="43.64521" lon="2.31142">
        <ele>388.6</ele>
      </trkpt>
      <trkpt lat="43.64507" lon="2.31157">
        <ele>386.9</ele>
      </trkpt>
      <trkpt lat="43.64391" lon="2.31223">
        <ele>381.8</ele>
      </trkpt>
      <trkpt lat="43.64356" lon="2.3125">
        <ele>379.8</ele>
      </trkpt>
      <trkpt lat="43.64301" lon="2.31303">
        <ele>376.9</ele>
      </trkpt>
      <trkpt lat="43.64271" lon="2.31327">
        <ele>374.9</ele>
      </trkpt>
      <trkpt lat="43.64225" lon="2.31365">
        <ele>370.1</ele>
      </trkpt>
      <trkpt lat="43.64171" lon="2.3142">
        <ele>363.3</ele>
      </trkpt>
      <trkpt lat="43.64151" lon="2.31432">
        <ele>361.1</ele>
      </trkpt>
      <trkpt lat="43.64104" lon="2.3148">
        <ele>355.7</ele>
      </trkpt>
      <trkpt lat="43.6408" lon="2.31513">
        <ele>350.3</ele>
      </trkpt>
      <trkpt lat="43.64066" lon="2.31524">
        <ele>348.1</ele>
      </trkpt>
      <trkpt lat="43.64049" lon="2.31533">
        <ele>344.7</ele>
      </trkpt>
      <trkpt lat="43.63996" lon="2.31538">
        <ele>336.8</ele>
      </trkpt>
      <trkpt lat="43.63975" lon="2.3155">
        <ele>333.1</ele>
      </trkpt>
      <trkpt lat="43.63952" lon="2.31544">
        <ele>325.9</ele>
      </trkpt>
      <trkpt lat="43.63945" lon="2.31547">
        <ele>323.9</ele>
      </trkpt>
      <trkpt lat="43.63899" lon="2.31501">
        <ele>303.3</ele>
      </trkpt>
      <trkpt lat="43.63891" lon="2.315">
        <ele>300.7</ele>
      </trkpt>
      <trkpt lat="43.63857" lon="2.31512">
        <ele>297.3</ele>
      </trkpt>
      <trkpt lat="43.63839" lon="2.31533">
        <ele>291.4</ele>
      </trkpt>
      <trkpt lat="43.63838" lon="2.3154">
        <ele>288.3</ele>
      </trkpt>
      <trkpt lat="43.63784" lon="2.31572">
        <ele>278.6</ele>
      </trkpt>
      <trkpt lat="43.63751" lon="2.31569">
        <ele>273.1</ele>
      </trkpt>
      <trkpt lat="43.63739" lon="2.31562">
        <ele>272.7</ele>
      </trkpt>
      <trkpt lat="43.6373" lon="2.31559">
        <ele>270.6</ele>
      </trkpt>
      <trkpt lat="43.63711" lon="2.31567">
        <ele>261.4</ele>
      </trkpt>
      <trkpt lat="43.63693" lon="2.31571">
        <ele>257.2</ele>
      </trkpt>
      <trkpt lat="43.63666" lon="2.31569">
        <ele>250.1</ele>
      </trkpt>
      <trkpt lat="43.63657" lon="2.31553">
        <ele>256.5</ele>
      </trkpt>
      <trkpt lat="43.63648" lon="2.31545">
        <ele>258.8</ele>
      </trkpt>
      <trkpt lat="43.63632" lon="2.31543">
        <ele>260</ele>
      </trkpt>
      <trkpt lat="43.63617" lon="2.31545">
        <ele>262.5</ele>
        <extensions>
          <visugpx:TrkExtension xmlns:visugpx="https://www.visugpx.com/editgpx/">
            <visugpx:node>22</visugpx:node>
            </visugpx:TrkExtension>
        </extensions>
      </trkpt>
      <trkpt lat="43.63564" lon="2.31552">
        <ele>272.1</ele>
      </trkpt>
      <trkpt lat="43.63552" lon="2.31545">
        <ele>274.7</ele>
      </trkpt>
      <trkpt lat="43.63546" lon="2.31536">
        <ele>275.4</ele>
      </trkpt>
      <trkpt lat="43.63545" lon="2.3152">
        <ele>277.9</ele>
      </trkpt>
      <trkpt lat="43.63549" lon="2.31504">
        <ele>280.7</ele>
      </trkpt>
      <trkpt lat="43.63553" lon="2.31513">
        <ele>281.9</ele>
      </trkpt>
      <trkpt lat="43.63556" lon="2.31515">
        <ele>282.9</ele>
      </trkpt>
      <trkpt lat="43.6356" lon="2.31511">
        <ele>283.5</ele>
      </trkpt>
      <trkpt lat="43.63567" lon="2.31497">
        <ele>286.3</ele>
      </trkpt>
      <trkpt lat="43.63623" lon="2.3143">
        <ele>308.2</ele>
      </trkpt>
      <trkpt lat="43.63662" lon="2.31419">
        <ele>317.5</ele>
      </trkpt>
      <trkpt lat="43.6366" lon="2.31403">
        <ele>321.1</ele>
      </trkpt>
      <trkpt lat="43.63661" lon="2.31382">
        <ele>324.6</ele>
      </trkpt>
      <trkpt lat="43.63669" lon="2.31368">
        <ele>327.7</ele>
      </trkpt>
      <trkpt lat="43.63674" lon="2.31335">
        <ele>332.5</ele>
      </trkpt>
      <trkpt lat="43.63674" lon="2.31293">
        <ele>338.3</ele>
      </trkpt>
      <trkpt lat="43.6368" lon="2.31222">
        <ele>345.9</ele>
      </trkpt>
      <trkpt lat="43.63678" lon="2.31144">
        <ele>347.3</ele>
      </trkpt>
      <trkpt lat="43.63679" lon="2.31125">
        <ele>346.1</ele>
      </trkpt>
      <trkpt lat="43.63675" lon="2.31107">
        <ele>344.3</ele>
      </trkpt>
      <trkpt lat="43.6364" lon="2.31043">
        <ele>338.1</ele>
      </trkpt>
      <trkpt lat="43.63629" lon="2.31013">
        <ele>335.4</ele>
      </trkpt>
      <trkpt lat="43.63597" lon="2.30901">
        <ele>325.5</ele>
      </trkpt>
      <trkpt lat="43.63594" lon="2.30879">
        <ele>322.5</ele>
        <extensions>
          <visugpx:TrkExtension xmlns:visugpx="https://www.visugpx.com/editgpx/">
            <visugpx:node>23</visugpx:node>
            </visugpx:TrkExtension>
        </extensions>
      </trkpt>
      <trkpt lat="43.63594" lon="2.30877">
        <ele>322.2</ele>
      </trkpt>
      <trkpt lat="43.63596" lon="2.30846">
        <ele>318.7</ele>
      </trkpt>
      <trkpt lat="43.63599" lon="2.30822">
        <ele>315.1</ele>
        <extensions>
          <visugpx:TrkExtension xmlns:visugpx="https://www.visugpx.com/editgpx/">
            <visugpx:node>24</visugpx:node>
            </visugpx:TrkExtension>
        </extensions>
      </trkpt>
      <trkpt lat="43.63611" lon="2.30803">
        <ele>312.6</ele>
      </trkpt>
      <trkpt lat="43.63617" lon="2.30792">
        <ele>310.6</ele>
      </trkpt>
      <trkpt lat="43.63618" lon="2.30784">
        <ele>309.4</ele>
      </trkpt>
      <trkpt lat="43.63614" lon="2.30772">
        <ele>307.6</ele>
      </trkpt>
      <trkpt lat="43.63612" lon="2.30766">
        <ele>306.4</ele>
      </trkpt>
      <trkpt lat="43.63628" lon="2.30742">
        <ele>302.5</ele>
      </trkpt>
      <trkpt lat="43.63633" lon="2.30735">
        <ele>301.9</ele>
      </trkpt>
      <trkpt lat="43.6364" lon="2.30732">
        <ele>302</ele>
      </trkpt>
      <trkpt lat="43.63654" lon="2.30732">
        <ele>300.9</ele>
      </trkpt>
      <trkpt lat="43.63661" lon="2.30729">
        <ele>300.4</ele>
      </trkpt>
      <trkpt lat="43.63666" lon="2.3072">
        <ele>299.6</ele>
      </trkpt>
      <trkpt lat="43.63664" lon="2.30709">
        <ele>297.7</ele>
      </trkpt>
      <trkpt lat="43.63658" lon="2.30699">
        <ele>295.9</ele>
      </trkpt>
      <trkpt lat="43.63646" lon="2.30695">
        <ele>295.1</ele>
      </trkpt>
      <trkpt lat="43.63633" lon="2.30694">
        <ele>293.6</ele>
      </trkpt>
      <trkpt lat="43.63547" lon="2.30731">
        <ele>284.6</ele>
      </trkpt>
      <trkpt lat="43.63497" lon="2.30744">
        <ele>276.2</ele>
      </trkpt>
      <trkpt lat="43.63471" lon="2.3076">
        <ele>272.4</ele>
      </trkpt>
      <trkpt lat="43.63448" lon="2.30785">
        <ele>269.8</ele>
        <extensions>
          <visugpx:TrkExtension xmlns:visugpx="https://www.visugpx.com/editgpx/">
            <visugpx:node>25</visugpx:node>
            </visugpx:TrkExtension>
        </extensions>
      </trkpt>
      <trkpt lat="43.63411" lon="2.30826">
        <ele>262.7</ele>
      </trkpt>
      <trkpt lat="43.63408" lon="2.3087">
        <ele>259.3</ele>
      </trkpt>
      <trkpt lat="43.63383" lon="2.30912">
        <ele>253.6</ele>
      </trkpt>
      <trkpt lat="43.63376" lon="2.30919">
        <ele>251.6</ele>
      </trkpt>
      <trkpt lat="43.63374" lon="2.30914">
        <ele>250</ele>
      </trkpt>
      <trkpt lat="43.63374" lon="2.30901">
        <ele>247.4</ele>
      </trkpt>
      <trkpt lat="43.63384" lon="2.30877">
        <ele>249.5</ele>
      </trkpt>
      <trkpt lat="43.63379" lon="2.30867">
        <ele>247.4</ele>
      </trkpt>
      <trkpt lat="43.63368" lon="2.30858">
        <ele>244</ele>
      </trkpt>
      <trkpt lat="43.63352" lon="2.30832">
        <ele>241</ele>
      </trkpt>
      <trkpt lat="43.63348" lon="2.30809">
        <ele>238.5</ele>
      </trkpt>
      <trkpt lat="43.63349" lon="2.30769">
        <ele>234.2</ele>
      </trkpt>
      <trkpt lat="43.63367" lon="2.30685">
        <ele>226.7</ele>
      </trkpt>
      <trkpt lat="43.63365" lon="2.30677">
        <ele>224.6</ele>
      </trkpt>
      <trkpt lat="43.6336" lon="2.30673">
        <ele>222.7</ele>
      </trkpt>
      <trkpt lat="43.63351" lon="2.30675">
        <ele>219.1</ele>
      </trkpt>
      <trkpt lat="43.63342" lon="2.30693">
        <ele>218.5</ele>
      </trkpt>
      <trkpt lat="43.63311" lon="2.30774">
        <ele>216.5</ele>
      </trkpt>
      <trkpt lat="43.63303" lon="2.30798">
        <ele>213.8</ele>
      </trkpt>
      <trkpt lat="43.63298" lon="2.30817">
        <ele>211.9</ele>
      </trkpt>
      <trkpt lat="43.63296" lon="2.30844">
        <ele>211.3</ele>
      </trkpt>
      <trkpt lat="43.63294" lon="2.30888">
        <ele>208</ele>
      </trkpt>
      <trkpt lat="43.63293" lon="2.30922">
        <ele>207.2</ele>
      </trkpt>
      <trkpt lat="43.63295" lon="2.30938">
        <ele>206.8</ele>
      </trkpt>
      <trkpt lat="43.63294" lon="2.30951">
        <ele>205.3</ele>
      </trkpt>
      <trkpt lat="43.63293" lon="2.30954">
        <ele>204.5</ele>
      </trkpt>
      <trkpt lat="43.6329" lon="2.30952">
        <ele>202.6</ele>
      </trkpt>
      <trkpt lat="43.63288" lon="2.30946">
        <ele>201.6</ele>
      </trkpt>
      <trkpt lat="43.63288" lon="2.30941">
        <ele>202</ele>
        <extensions>
          <visugpx:TrkExtension xmlns:visugpx="https://www.visugpx.com/editgpx/">
            <visugpx:node>26</visugpx:node>
            </visugpx:TrkExtension>
        </extensions>
      </trkpt>
      <trkpt lat="43.63287" lon="2.30936">
        <ele>202</ele>
        <extensions>
          <visugpx:TrkExtension xmlns:visugpx="https://www.visugpx.com/editgpx/">
            <visugpx:node>27</visugpx:node>
            </visugpx:TrkExtension>
        </extensions>
      </trkpt>
      <trkpt lat="43.6327" lon="2.30864">
        <ele>198.1</ele>
      </trkpt>
      <trkpt lat="43.63268" lon="2.30851">
        <ele>197.6</ele>
      </trkpt>
      <trkpt lat="43.63267" lon="2.30847">
        <ele>197.3</ele>
      </trkpt>
      <trkpt lat="43.6327" lon="2.30815">
        <ele>196.6</ele>
      </trkpt>
      <trkpt lat="43.63272" lon="2.30795">
        <ele>195.6</ele>
      </trkpt>
      <trkpt lat="43.63277" lon="2.30772">
        <ele>194.7</ele>
      </trkpt>
      <trkpt lat="43.63276" lon="2.30766">
        <ele>194.3</ele>
      </trkpt>
      <trkpt lat="43.63273" lon="2.3076">
        <ele>193.7</ele>
      </trkpt>
      <trkpt lat="43.63275" lon="2.30745">
        <ele>193.6</ele>
      </trkpt>
      <trkpt lat="43.63315" lon="2.30538">
        <ele>190.7</ele>
      </trkpt>
      <trkpt lat="43.6333" lon="2.30542">
        <ele>193.9</ele>
      </trkpt>
      <trkpt lat="43.63348" lon="2.30547">
        <ele>196</ele>
      </trkpt>
      <trkpt lat="43.6338" lon="2.30561">
        <ele>202.1</ele>
      </trkpt>
      <trkpt lat="43.63401" lon="2.30574">
        <ele>204.8</ele>
      </trkpt>
      <trkpt lat="43.63416" lon="2.3058">
        <ele>205.4</ele>
      </trkpt>
      <trkpt lat="43.63489" lon="2.30558">
        <ele>217.1</ele>
        <extensions>
          <visugpx:TrkExtension xmlns:visugpx="https://www.visugpx.com/editgpx/">
            <visugpx:node>28</visugpx:node>
            </visugpx:TrkExtension>
        </extensions>
      </trkpt>
      <trkpt lat="43.63496" lon="2.30556">
        <ele>217.8</ele>
      </trkpt>
      <trkpt lat="43.63515" lon="2.30554">
        <ele>219.8</ele>
      </trkpt>
      <trkpt lat="43.63529" lon="2.30548">
        <ele>223.2</ele>
      </trkpt>
      <trkpt lat="43.63552" lon="2.30523">
        <ele>225.6</ele>
      </trkpt>
      <trkpt lat="43.636" lon="2.30487">
        <ele>236.1</ele>
      </trkpt>
      <trkpt lat="43.63618" lon="2.30476">
        <ele>240.5</ele>
      </trkpt>
      <trkpt lat="43.63636" lon="2.3047">
        <ele>241.4</ele>
      </trkpt>
      <trkpt lat="43.63643" lon="2.30465">
        <ele>242.8</ele>
      </trkpt>
      <trkpt lat="43.63655" lon="2.30459">
        <ele>242.4</ele>
      </trkpt>
      <trkpt lat="43.63684" lon="2.30414">
        <ele>252.3</ele>
      </trkpt>
      <trkpt lat="43.63692" lon="2.30405">
        <ele>254.2</ele>
      </trkpt>
      <trkpt lat="43.63726" lon="2.30386">
        <ele>260.2</ele>
      </trkpt>
      <trkpt lat="43.6374" lon="2.30371">
        <ele>264.8</ele>
      </trkpt>
      <trkpt lat="43.63748" lon="2.30367">
        <ele>265.1</ele>
      </trkpt>
      <trkpt lat="43.63757" lon="2.30359">
        <ele>266.4</ele>
      </trkpt>
      <trkpt lat="43.6378" lon="2.30343">
        <ele>270</ele>
      </trkpt>
      <trkpt lat="43.63823" lon="2.30325">
        <ele>275.7</ele>
      </trkpt>
      <trkpt lat="43.63835" lon="2.30317">
        <ele>275.7</ele>
      </trkpt>
      <trkpt lat="43.63915" lon="2.30234">
        <ele>280</ele>
      </trkpt>
      <trkpt lat="43.63966" lon="2.30163">
        <ele>285.2</ele>
      </trkpt>
      <trkpt lat="43.63987" lon="2.30145">
        <ele>288.1</ele>
      </trkpt>
      <trkpt lat="43.63991" lon="2.30134">
        <ele>288</ele>
      </trkpt>
      <trkpt lat="43.64" lon="2.30128">
        <ele>289.2</ele>
      </trkpt>
      <trkpt lat="43.64018" lon="2.30103">
        <ele>290.6</ele>
      </trkpt>
      <trkpt lat="43.6405" lon="2.30047">
        <ele>292</ele>
      </trkpt>
      <trkpt lat="43.6408" lon="2.29978">
        <ele>294.1</ele>
      </trkpt>
      <trkpt lat="43.64111" lon="2.29924">
        <ele>298.3</ele>
      </trkpt>
      <trkpt lat="43.64132" lon="2.29896">
        <ele>301.2</ele>
      </trkpt>
      <trkpt lat="43.64154" lon="2.2987">
        <ele>303.9</ele>
      </trkpt>
      <trkpt lat="43.64178" lon="2.29846">
        <ele>307.4</ele>
      </trkpt>
      <trkpt lat="43.64185" lon="2.29836">
        <ele>307.9</ele>
      </trkpt>
      <trkpt lat="43.64218" lon="2.29802">
        <ele>311.2</ele>
      </trkpt>
      <trkpt lat="43.64259" lon="2.29752">
        <ele>315.5</ele>
      </trkpt>
      <trkpt lat="43.64281" lon="2.29718">
        <ele>317.5</ele>
      </trkpt>
      <trkpt lat="43.64297" lon="2.2969">
        <ele>319.3</ele>
      </trkpt>
      <trkpt lat="43.64299" lon="2.29684">
        <ele>319.3</ele>
        <extensions>
          <visugpx:TrkExtension xmlns:visugpx="https://www.visugpx.com/editgpx/">
            <visugpx:node>29</visugpx:node>
            </visugpx:TrkExtension>
        </extensions>
      </trkpt>
      <trkpt lat="43.64309" lon="2.29662">
        <ele>319.5</ele>
      </trkpt>
      <trkpt lat="43.64331" lon="2.29624">
        <ele>320.9</ele>
      </trkpt>
      <trkpt lat="43.64351" lon="2.29594">
        <ele>323.6</ele>
      </trkpt>
      <trkpt lat="43.64358" lon="2.29587">
        <ele>324</ele>
      </trkpt>
      <trkpt lat="43.6437" lon="2.2957">
        <ele>325.3</ele>
      </trkpt>
      <trkpt lat="43.64392" lon="2.29556">
        <ele>326.6</ele>
      </trkpt>
      <trkpt lat="43.64407" lon="2.29538">
        <ele>328</ele>
      </trkpt>
      <trkpt lat="43.64411" lon="2.29539">
        <ele>328.6</ele>
      </trkpt>
      <trkpt lat="43.64421" lon="2.29566">
        <ele>333.1</ele>
      </trkpt>
      <trkpt lat="43.64428" lon="2.29573">
        <ele>335.6</ele>
      </trkpt>
      <trkpt lat="43.64447" lon="2.29587">
        <ele>341.8</ele>
      </trkpt>
      <trkpt lat="43.64457" lon="2.29586">
        <ele>343.5</ele>
      </trkpt>
      <trkpt lat="43.64563" lon="2.29523">
        <ele>354.4</ele>
      </trkpt>
      <trkpt lat="43.64578" lon="2.2952">
        <ele>356.1</ele>
      </trkpt>
      <trkpt lat="43.64589" lon="2.29514">
        <ele>356.7</ele>
      </trkpt>
      <trkpt lat="43.64594" lon="2.29508">
        <ele>356.6</ele>
      </trkpt>
      <trkpt lat="43.64591" lon="2.29525">
        <ele>358.5</ele>
      </trkpt>
      <trkpt lat="43.6459" lon="2.29537">
        <ele>359.6</ele>
      </trkpt>
      <trkpt lat="43.64592" lon="2.2957">
        <ele>362.1</ele>
      </trkpt>
      <trkpt lat="43.64607" lon="2.29609">
        <ele>363.8</ele>
      </trkpt>
      <trkpt lat="43.64626" lon="2.29645">
        <ele>363.3</ele>
      </trkpt>
      <trkpt lat="43.64646" lon="2.29666">
        <ele>363.3</ele>
      </trkpt>
      <trkpt lat="43.6468" lon="2.29681">
        <ele>362.9</ele>
      </trkpt>
      <trkpt lat="43.64709" lon="2.29703">
        <ele>362.4</ele>
      </trkpt>
      <trkpt lat="43.64758" lon="2.29747">
        <ele>362.5</ele>
      </trkpt>
      <trkpt lat="43.64791" lon="2.29784">
        <ele>361.9</ele>
      </trkpt>
      <trkpt lat="43.64835" lon="2.29835">
        <ele>364.8</ele>
      </trkpt>
      <trkpt lat="43.64907" lon="2.29917">
        <ele>366.3</ele>
      </trkpt>
      <trkpt lat="43.64938" lon="2.29948">
        <ele>368.1</ele>
      </trkpt>
      <trkpt lat="43.64946" lon="2.2996">
        <ele>368.8</ele>
      </trkpt>
      <trkpt lat="43.64983" lon="2.30055">
        <ele>370</ele>
      </trkpt>
      <trkpt lat="43.64997" lon="2.3008">
        <ele>372.3</ele>
      </trkpt>
      <trkpt lat="43.64998" lon="2.30083">
        <ele>372.7</ele>
      </trkpt>
      <trkpt lat="43.65007" lon="2.30103">
        <ele>375.2</ele>
      </trkpt>
      <trkpt lat="43.6502" lon="2.30154">
        <ele>380.5</ele>
      </trkpt>
      <trkpt lat="43.65035" lon="2.3017">
        <ele>384.3</ele>
      </trkpt>
      <trkpt lat="43.65047" lon="2.30176">
        <ele>386.9</ele>
      </trkpt>
      <trkpt lat="43.65048" lon="2.30176">
        <ele>387.1</ele>
      </trkpt>
      <trkpt lat="43.65047" lon="2.30195">
        <ele>389.2</ele>
      </trkpt>
      <trkpt lat="43.65045" lon="2.30213">
        <ele>390.7</ele>
      </trkpt>
      <trkpt lat="43.65059" lon="2.303">
        <ele>401.7</ele>
      </trkpt>
      <trkpt lat="43.65069" lon="2.30323">
        <ele>403.5</ele>
      </trkpt>
      <trkpt lat="43.65069" lon="2.30327">
        <ele>403.7</ele>
      </trkpt>
      <trkpt lat="43.65069" lon="2.30389">
        <ele>409.1</ele>
        <extensions>
          <visugpx:TrkExtension xmlns:visugpx="https://www.visugpx.com/editgpx/">
            <visugpx:node>30</visugpx:node>
            </visugpx:TrkExtension>
        </extensions>
      </trkpt>
      <trkpt lat="43.65069" lon="2.30415">
        <ele>410.9</ele>
      </trkpt>
      <trkpt lat="43.65058" lon="2.30489">
        <ele>419.6</ele>
      </trkpt>
      <trkpt lat="43.65055" lon="2.30501">
        <ele>421.1</ele>
      </trkpt>
      <trkpt lat="43.65052" lon="2.30518">
        <ele>422.3</ele>
      </trkpt>
      <trkpt lat="43.65048" lon="2.30534">
        <ele>423.4</ele>
      </trkpt>
      <trkpt lat="43.65048" lon="2.30564">
        <ele>425.3</ele>
      </trkpt>
      <trkpt lat="43.65046" lon="2.30584">
        <ele>426.7</ele>
      </trkpt>
      <trkpt lat="43.65038" lon="2.30606">
        <ele>428</ele>
      </trkpt>
      <trkpt lat="43.65036" lon="2.30612">
        <ele>428.4</ele>
      </trkpt>
      <trkpt lat="43.65033" lon="2.30629">
        <ele>429.4</ele>
      </trkpt>
      <trkpt lat="43.65026" lon="2.30657">
        <ele>430.3</ele>
      </trkpt>
      <trkpt lat="43.65025" lon="2.30694">
        <ele>431.6</ele>
      </trkpt>
      <trkpt lat="43.65025" lon="2.30695">
        <ele>431.6</ele>
      </trkpt>
      <trkpt lat="43.65024" lon="2.3073">
        <ele>431.9</ele>
        <extensions>
          <visugpx:TrkExtension xmlns:visugpx="https://www.visugpx.com/editgpx/">
            <visugpx:node>31</visugpx:node>
            </visugpx:TrkExtension>
        </extensions>
      </trkpt>
      <trkpt lat="43.65025" lon="2.30769">
        <ele>431.3</ele>
      </trkpt>
      <trkpt lat="43.65041" lon="2.30812">
        <ele>429</ele>
        <extensions>
          <visugpx:TrkExtension xmlns:visugpx="https://www.visugpx.com/editgpx/">
            <visugpx:node>32</visugpx:node>
            </visugpx:TrkExtension>
        </extensions>
      </trkpt>
      <trkpt lat="43.65042" lon="2.30805">
        <ele>429</ele>
      </trkpt>
      <trkpt lat="43.65048" lon="2.30792">
        <ele>429</ele>
      </trkpt>
      <trkpt lat="43.65069" lon="2.3077">
        <ele>427.2</ele>
      </trkpt>
      <trkpt lat="43.65111" lon="2.30704">
        <ele>418.7</ele>
      </trkpt>
      <trkpt lat="43.65128" lon="2.30667">
        <ele>416.3</ele>
      </trkpt>
      <trkpt lat="43.65174" lon="2.30616">
        <ele>408.6</ele>
      </trkpt>
      <trkpt lat="43.65246" lon="2.30577">
        <ele>398.5</ele>
      </trkpt>
      <trkpt lat="43.65309" lon="2.30541">
        <ele>391</ele>
      </trkpt>
      <trkpt lat="43.65386" lon="2.30501">
        <ele>385.1</ele>
      </trkpt>
      <trkpt lat="43.65423" lon="2.30491">
        <ele>385.8</ele>
      </trkpt>
      <trkpt lat="43.65476" lon="2.30473">
        <ele>387.2</ele>
      </trkpt>
      <trkpt lat="43.65513" lon="2.30473">
        <ele>387.5</ele>
      </trkpt>
      <trkpt lat="43.65555" lon="2.30461">
        <ele>386.2</ele>
      </trkpt>
      <trkpt lat="43.65563" lon="2.30459">
        <ele>385.9</ele>
      </trkpt>
      <trkpt lat="43.65566" lon="2.30459">
        <ele>385.9</ele>
      </trkpt>
      <trkpt lat="43.65685" lon="2.30445">
        <ele>386</ele>
      </trkpt>
      <trkpt lat="43.65705" lon="2.30439">
        <ele>385.1</ele>
      </trkpt>
      <trkpt lat="43.65723" lon="2.30436">
        <ele>384.4</ele>
      </trkpt>
      <trkpt lat="43.65799" lon="2.30429">
        <ele>382.9</ele>
      </trkpt>
      <trkpt lat="43.65834" lon="2.30428">
        <ele>381.8</ele>
      </trkpt>
      <trkpt lat="43.65846" lon="2.30431">
        <ele>381.1</ele>
      </trkpt>
      <trkpt lat="43.65852" lon="2.30434">
        <ele>380.9</ele>
      </trkpt>
      <trkpt lat="43.65877" lon="2.30441">
        <ele>379.5</ele>
      </trkpt>
      <trkpt lat="43.65949" lon="2.30472">
        <ele>373.3</ele>
      </trkpt>
      <trkpt lat="43.65986" lon="2.30494">
        <ele>368.4</ele>
      </trkpt>
      <trkpt lat="43.66004" lon="2.30465">
        <ele>364.8</ele>
      </trkpt>
      <trkpt lat="43.66008" lon="2.30455">
        <ele>363.5</ele>
        <extensions>
          <visugpx:TrkExtension xmlns:visugpx="https://www.visugpx.com/editgpx/">
            <visugpx:node>33</visugpx:node>
            </visugpx:TrkExtension>
        </extensions>
      </trkpt>
      <trkpt lat="43.6601" lon="2.3045">
        <ele>362.9</ele>
      </trkpt>
      <trkpt lat="43.66029" lon="2.30426">
        <ele>358.6</ele>
      </trkpt>
      <trkpt lat="43.66038" lon="2.30417">
        <ele>357.6</ele>
      </trkpt>
      <trkpt lat="43.66046" lon="2.30411">
        <ele>356.7</ele>
      </trkpt>
      <trkpt lat="43.66058" lon="2.30407">
        <ele>355.8</ele>
      </trkpt>
      <trkpt lat="43.66066" lon="2.30403">
        <ele>355</ele>
      </trkpt>
      <trkpt lat="43.66071" lon="2.30393">
        <ele>354.2</ele>
      </trkpt>
      <trkpt lat="43.66071" lon="2.3038">
        <ele>353.2</ele>
      </trkpt>
      <trkpt lat="43.66067" lon="2.30372">
        <ele>352.4</ele>
      </trkpt>
      <trkpt lat="43.66058" lon="2.30368">
        <ele>351.8</ele>
      </trkpt>
      <trkpt lat="43.6604" lon="2.30368">
        <ele>350.9</ele>
      </trkpt>
      <trkpt lat="43.66011" lon="2.30373">
        <ele>350.1</ele>
      </trkpt>
      <trkpt lat="43.65988" lon="2.30367">
        <ele>348.5</ele>
      </trkpt>
      <trkpt lat="43.65975" lon="2.30355">
        <ele>346.3</ele>
      </trkpt>
      <trkpt lat="43.65955" lon="2.30283">
        <ele>337.6</ele>
      </trkpt>
      <trkpt lat="43.65948" lon="2.30271">
        <ele>337.9</ele>
      </trkpt>
      <trkpt lat="43.65943" lon="2.30268">
        <ele>339</ele>
      </trkpt>
      <trkpt lat="43.65935" lon="2.30257">
        <ele>339.4</ele>
      </trkpt>
      <trkpt lat="43.65925" lon="2.30252">
        <ele>341.2</ele>
      </trkpt>
      <trkpt lat="43.6592" lon="2.30239">
        <ele>340.5</ele>
      </trkpt>
      <trkpt lat="43.65913" lon="2.30231">
        <ele>341.2</ele>
      </trkpt>
      <trkpt lat="43.6591" lon="2.30227">
        <ele>341.4</ele>
      </trkpt>
      <trkpt lat="43.65901" lon="2.30219">
        <ele>342.3</ele>
      </trkpt>
      <trkpt lat="43.65886" lon="2.30214">
        <ele>344.5</ele>
      </trkpt>
      <trkpt lat="43.65862" lon="2.30219">
        <ele>348</ele>
      </trkpt>
      <trkpt lat="43.65811" lon="2.30243">
        <ele>354</ele>
      </trkpt>
      <trkpt lat="43.65786" lon="2.30258">
        <ele>357.2</ele>
      </trkpt>
      <trkpt lat="43.65725" lon="2.30265">
        <ele>358.3</ele>
      </trkpt>
      <trkpt lat="43.65634" lon="2.30292">
        <ele>363.2</ele>
      </trkpt>
      <trkpt lat="43.65567" lon="2.30303">
        <ele>364.9</ele>
      </trkpt>
      <trkpt lat="43.65498" lon="2.30285">
        <ele>359.2</ele>
      </trkpt>
      <trkpt lat="43.65448" lon="2.30267">
        <ele>356.5</ele>
      </trkpt>
      <trkpt lat="43.65439" lon="2.30256">
        <ele>357.3</ele>
      </trkpt>
      <trkpt lat="43.65436" lon="2.30245">
        <ele>357.8</ele>
      </trkpt>
      <trkpt lat="43.65435" lon="2.30162">
        <ele>359.2</ele>
      </trkpt>
      <trkpt lat="43.65428" lon="2.30154">
        <ele>359.8</ele>
      </trkpt>
      <trkpt lat="43.65418" lon="2.30148">
        <ele>360.5</ele>
      </trkpt>
      <trkpt lat="43.65401" lon="2.30155">
        <ele>361.5</ele>
      </trkpt>
      <trkpt lat="43.65374" lon="2.30168">
        <ele>363.2</ele>
      </trkpt>
      <trkpt lat="43.65343" lon="2.30177">
        <ele>362.8</ele>
      </trkpt>
      <trkpt lat="43.65317" lon="2.3018">
        <ele>360.6</ele>
      </trkpt>
      <trkpt lat="43.65299" lon="2.30185">
        <ele>359.9</ele>
      </trkpt>
      <trkpt lat="43.65283" lon="2.30193">
        <ele>360.2</ele>
      </trkpt>
      <trkpt lat="43.65238" lon="2.30222">
        <ele>363.8</ele>
      </trkpt>
      <trkpt lat="43.65233" lon="2.30221">
        <ele>364.1</ele>
      </trkpt>
      <trkpt lat="43.65231" lon="2.30218">
        <ele>364.1</ele>
      </trkpt>
      <trkpt lat="43.65229" lon="2.30207">
        <ele>363.7</ele>
      </trkpt>
      <trkpt lat="43.65231" lon="2.30159">
        <ele>362.8</ele>
      </trkpt>
      <trkpt lat="43.6524" lon="2.30076">
        <ele>365.7</ele>
      </trkpt>
      <trkpt lat="43.65238" lon="2.30023">
        <ele>368.7</ele>
      </trkpt>
      <trkpt lat="43.65233" lon="2.29985">
        <ele>370.3</ele>
      </trkpt>
      <trkpt lat="43.65239" lon="2.29949">
        <ele>370.6</ele>
      </trkpt>
      <trkpt lat="43.65237" lon="2.29938">
        <ele>370.7</ele>
      </trkpt>
      <trkpt lat="43.65227" lon="2.29937">
        <ele>371.4</ele>
      </trkpt>
      <trkpt lat="43.65214" lon="2.29948">
        <ele>371.2</ele>
      </trkpt>
      <trkpt lat="43.65218" lon="2.29937">
        <ele>371.3</ele>
      </trkpt>
      <trkpt lat="43.65227" lon="2.29897">
        <ele>369.2</ele>
      </trkpt>
      <trkpt lat="43.65233" lon="2.29888">
        <ele>368.1</ele>
      </trkpt>
      <trkpt lat="43.65247" lon="2.29885">
        <ele>366.9</ele>
      </trkpt>
      <trkpt lat="43.65255" lon="2.29879">
        <ele>365.8</ele>
      </trkpt>
      <trkpt lat="43.6528" lon="2.29849">
        <ele>362.2</ele>
        <extensions>
          <visugpx:TrkExtension xmlns:visugpx="https://www.visugpx.com/editgpx/">
            <visugpx:node>34</visugpx:node>
            </visugpx:TrkExtension>
        </extensions>
      </trkpt>
      <trkpt lat="43.65306" lon="2.29817">
        <ele>360.7</ele>
      </trkpt>
      <trkpt lat="43.65316" lon="2.29809">
        <ele>361.2</ele>
      </trkpt>
      <trkpt lat="43.65343" lon="2.29795">
        <ele>361.9</ele>
      </trkpt>
      <trkpt lat="43.65361" lon="2.29783">
        <ele>363.2</ele>
      </trkpt>
      <trkpt lat="43.6537" lon="2.29781">
        <ele>363.9</ele>
      </trkpt>
      <trkpt lat="43.65404" lon="2.29758">
        <ele>366.4</ele>
      </trkpt>
      <trkpt lat="43.65426" lon="2.29747">
        <ele>366.7</ele>
      </trkpt>
      <trkpt lat="43.65462" lon="2.29723">
        <ele>364.7</ele>
      </trkpt>
      <trkpt lat="43.65477" lon="2.29706">
        <ele>362.5</ele>
      </trkpt>
      <trkpt lat="43.65527" lon="2.29618">
        <ele>351.3</ele>
      </trkpt>
      <trkpt lat="43.65529" lon="2.2961">
        <ele>350.7</ele>
      </trkpt>
      <trkpt lat="43.65536" lon="2.296">
        <ele>348.6</ele>
      </trkpt>
      <trkpt lat="43.65543" lon="2.29595">
        <ele>347.2</ele>
      </trkpt>
      <trkpt lat="43.65572" lon="2.29586">
        <ele>343.1</ele>
      </trkpt>
      <trkpt lat="43.6559" lon="2.29578">
        <ele>340</ele>
      </trkpt>
      <trkpt lat="43.65603" lon="2.29574">
        <ele>337.7</ele>
      </trkpt>
      <trkpt lat="43.6564" lon="2.2957">
        <ele>330.8</ele>
      </trkpt>
      <trkpt lat="43.65668" lon="2.29561">
        <ele>327.4</ele>
      </trkpt>
      <trkpt lat="43.65703" lon="2.29553">
        <ele>323.3</ele>
      </trkpt>
      <trkpt lat="43.65715" lon="2.29548">
        <ele>321</ele>
      </trkpt>
      <trkpt lat="43.65743" lon="2.2953">
        <ele>316</ele>
      </trkpt>
      <trkpt lat="43.65758" lon="2.29525">
        <ele>312.8</ele>
      </trkpt>
      <trkpt lat="43.6577" lon="2.29524">
        <ele>310.1</ele>
      </trkpt>
      <trkpt lat="43.65778" lon="2.29528">
        <ele>308.9</ele>
      </trkpt>
      <trkpt lat="43.65785" lon="2.29535">
        <ele>306.5</ele>
      </trkpt>
      <trkpt lat="43.65813" lon="2.2958">
        <ele>299</ele>
      </trkpt>
      <trkpt lat="43.65824" lon="2.29591">
        <ele>295</ele>
      </trkpt>
      <trkpt lat="43.65838" lon="2.29592">
        <ele>292.4</ele>
      </trkpt>
      <trkpt lat="43.65848" lon="2.29582">
        <ele>291.6</ele>
      </trkpt>
      <trkpt lat="43.6585" lon="2.29547">
        <ele>285.4</ele>
      </trkpt>
      <trkpt lat="43.65846" lon="2.29532">
        <ele>284.8</ele>
      </trkpt>
      <trkpt lat="43.65839" lon="2.29516">
        <ele>285.3</ele>
      </trkpt>
      <trkpt lat="43.65827" lon="2.295">
        <ele>288.5</ele>
      </trkpt>
      <trkpt lat="43.65806" lon="2.29484">
        <ele>292.2</ele>
      </trkpt>
      <trkpt lat="43.65763" lon="2.29445">
        <ele>289.4</ele>
      </trkpt>
      <trkpt lat="43.65708" lon="2.29374">
        <ele>266.2</ele>
      </trkpt>
      <trkpt lat="43.65689" lon="2.2936">
        <ele>263.5</ele>
      </trkpt>
      <trkpt lat="43.6568" lon="2.29347">
        <ele>261.3</ele>
      </trkpt>
      <trkpt lat="43.65673" lon="2.29333">
        <ele>258.3</ele>
      </trkpt>
      <trkpt lat="43.65665" lon="2.29312">
        <ele>255.3</ele>
      </trkpt>
      <trkpt lat="43.65659" lon="2.29288">
        <ele>251.6</ele>
      </trkpt>
      <trkpt lat="43.65644" lon="2.29255">
        <ele>247</ele>
      </trkpt>
      <trkpt lat="43.65643" lon="2.29247">
        <ele>245.5</ele>
      </trkpt>
      <trkpt lat="43.65645" lon="2.29242">
        <ele>244.6</ele>
      </trkpt>
      <trkpt lat="43.65649" lon="2.29214">
        <ele>238.8</ele>
      </trkpt>
      <trkpt lat="43.65653" lon="2.29201">
        <ele>236.9</ele>
      </trkpt>
      <trkpt lat="43.65656" lon="2.29177">
        <ele>228.4</ele>
      </trkpt>
      <trkpt lat="43.65661" lon="2.29172">
        <ele>225.1</ele>
      </trkpt>
      <trkpt lat="43.65677" lon="2.29181">
        <ele>225.9</ele>
      </trkpt>
      <trkpt lat="43.65681" lon="2.2918">
        <ele>224.4</ele>
      </trkpt>
      <trkpt lat="43.65682" lon="2.29173">
        <ele>221.3</ele>
      </trkpt>
      <trkpt lat="43.6567" lon="2.29156">
        <ele>217.7</ele>
      </trkpt>
      <trkpt lat="43.6565" lon="2.29142">
        <ele>217.4</ele>
        <extensions>
          <visugpx:TrkExtension xmlns:visugpx="https://www.visugpx.com/editgpx/">
            <visugpx:node>35</visugpx:node>
            </visugpx:TrkExtension>
        </extensions>
      </trkpt>
      <trkpt lat="43.65598" lon="2.29105">
        <ele>217.1</ele>
      </trkpt>
      <trkpt lat="43.65543" lon="2.29074">
        <ele>217</ele>
      </trkpt>
      <trkpt lat="43.65536" lon="2.29081">
        <ele>218.7</ele>
      </trkpt>
      <trkpt lat="43.65524" lon="2.29073">
        <ele>218.7</ele>
      </trkpt>
      <trkpt lat="43.655" lon="2.29069">
        <ele>221.4</ele>
      </trkpt>
      <trkpt lat="43.65412" lon="2.28982">
        <ele>224.2</ele>
      </trkpt>
      <trkpt lat="43.65409" lon="2.28983">
        <ele>225.5</ele>
      </trkpt>
      <trkpt lat="43.65407" lon="2.28984">
        <ele>226.5</ele>
      </trkpt>
      <trkpt lat="43.65375" lon="2.28937">
        <ele>219.6</ele>
      </trkpt>
      <trkpt lat="43.65359" lon="2.28924">
        <ele>219.7</ele>
      </trkpt>
      <trkpt lat="43.65351" lon="2.28895">
        <ele>222.6</ele>
      </trkpt>
      <trkpt lat="43.65281" lon="2.28729">
        <ele>223.4</ele>
      </trkpt>
      <trkpt lat="43.6524" lon="2.28677">
        <ele>219.8</ele>
      </trkpt>
      <trkpt lat="43.65217" lon="2.28684">
        <ele>223.8</ele>
      </trkpt>
      <trkpt lat="43.65213" lon="2.28693">
        <ele>223.9</ele>
      </trkpt>
      <trkpt lat="43.65202" lon="2.28693">
        <ele>227.1</ele>
      </trkpt>
      <trkpt lat="43.65195" lon="2.28701">
        <ele>228.6</ele>
      </trkpt>
      <trkpt lat="43.65176" lon="2.28681">
        <ele>237.2</ele>
      </trkpt>
      <trkpt lat="43.65167" lon="2.28694">
        <ele>238</ele>
      </trkpt>
      <trkpt lat="43.65162" lon="2.2869">
        <ele>240.6</ele>
      </trkpt>
      <trkpt lat="43.65161" lon="2.28659">
        <ele>245.4</ele>
      </trkpt>
      <trkpt lat="43.65159" lon="2.28639">
        <ele>249.9</ele>
        <extensions>
          <visugpx:TrkExtension xmlns:visugpx="https://www.visugpx.com/editgpx/">
            <visugpx:node>36</visugpx:node>
            </visugpx:TrkExtension>
        </extensions>
      </trkpt>
      <trkpt lat="43.65155" lon="2.28602">
        <ele>256.8</ele>
      </trkpt>
      <trkpt lat="43.65141" lon="2.28567">
        <ele>258.3</ele>
      </trkpt>
      <trkpt lat="43.6511" lon="2.28549">
        <ele>265.1</ele>
      </trkpt>
      <trkpt lat="43.6509" lon="2.28548">
        <ele>268.8</ele>
      </trkpt>
      <trkpt lat="43.65081" lon="2.28543">
        <ele>268.6</ele>
      </trkpt>
      <trkpt lat="43.65067" lon="2.28549">
        <ele>276.1</ele>
      </trkpt>
      <trkpt lat="43.65064" lon="2.28541">
        <ele>274.8</ele>
      </trkpt>
      <trkpt lat="43.65058" lon="2.28542">
        <ele>277.6</ele>
      </trkpt>
      <trkpt lat="43.65057" lon="2.28551">
        <ele>279.7</ele>
      </trkpt>
      <trkpt lat="43.65062" lon="2.28595">
        <ele>283.9</ele>
      </trkpt>
      <trkpt lat="43.6505" lon="2.28634">
        <ele>291.2</ele>
      </trkpt>
      <trkpt lat="43.65031" lon="2.28657">
        <ele>295.8</ele>
      </trkpt>
      <trkpt lat="43.65011" lon="2.28659">
        <ele>297.5</ele>
      </trkpt>
      <trkpt lat="43.64995" lon="2.28646">
        <ele>300.4</ele>
      </trkpt>
      <trkpt lat="43.6498" lon="2.28639">
        <ele>303.1</ele>
      </trkpt>
      <trkpt lat="43.64945" lon="2.28654">
        <ele>305.1</ele>
      </trkpt>
      <trkpt lat="43.64908" lon="2.28675">
        <ele>310.6</ele>
      </trkpt>
      <trkpt lat="43.64863" lon="2.28681">
        <ele>311</ele>
      </trkpt>
      <trkpt lat="43.64857" lon="2.28685">
        <ele>311.7</ele>
      </trkpt>
      <trkpt lat="43.6484" lon="2.28691">
        <ele>313.8</ele>
      </trkpt>
      <trkpt lat="43.64827" lon="2.2869">
        <ele>315</ele>
      </trkpt>
      <trkpt lat="43.6482" lon="2.28687">
        <ele>315.2</ele>
      </trkpt>
      <trkpt lat="43.64806" lon="2.28678">
        <ele>315</ele>
        <extensions>
          <visugpx:TrkExtension xmlns:visugpx="https://www.visugpx.com/editgpx/">
            <visugpx:node>37</visugpx:node>
            </visugpx:TrkExtension>
        </extensions>
      </trkpt>
      <trkpt lat="43.64797" lon="2.28672">
        <ele>315.1</ele>
      </trkpt>
      <trkpt lat="43.64766" lon="2.28638">
        <ele>315.6</ele>
      </trkpt>
      <trkpt lat="43.64752" lon="2.28617">
        <ele>316.1</ele>
      </trkpt>
      <trkpt lat="43.64737" lon="2.28603">
        <ele>315.7</ele>
      </trkpt>
      <trkpt lat="43.64732" lon="2.28602">
        <ele>315.8</ele>
      </trkpt>
      <trkpt lat="43.64727" lon="2.28601">
        <ele>315.9</ele>
      </trkpt>
      <trkpt lat="43.64717" lon="2.28578">
        <ele>315.7</ele>
      </trkpt>
      <trkpt lat="43.647" lon="2.28559">
        <ele>316.4</ele>
      </trkpt>
      <trkpt lat="43.64651" lon="2.28526">
        <ele>319.2</ele>
      </trkpt>
      <trkpt lat="43.64626" lon="2.28504">
        <ele>320.2</ele>
      </trkpt>
      <trkpt lat="43.64609" lon="2.28466">
        <ele>320.6</ele>
      </trkpt>
      <trkpt lat="43.64593" lon="2.28418">
        <ele>318.4</ele>
      </trkpt>
      <trkpt lat="43.64569" lon="2.2833">
        <ele>313.2</ele>
      </trkpt>
      <trkpt lat="43.64563" lon="2.28301">
        <ele>311</ele>
      </trkpt>
      <trkpt lat="43.64545" lon="2.28239">
        <ele>305.9</ele>
      </trkpt>
      <trkpt lat="43.64526" lon="2.28203">
        <ele>303.4</ele>
      </trkpt>
      <trkpt lat="43.64515" lon="2.28192">
        <ele>302.4</ele>
      </trkpt>
      <trkpt lat="43.64501" lon="2.28178">
        <ele>302.4</ele>
      </trkpt>
      <trkpt lat="43.64464" lon="2.28131">
        <ele>302.6</ele>
      </trkpt>
      <trkpt lat="43.64459" lon="2.28124">
        <ele>302.6</ele>
      </trkpt>
      <trkpt lat="43.64418" lon="2.28075">
        <ele>302.1</ele>
      </trkpt>
      <trkpt lat="43.64375" lon="2.28126">
        <ele>295.2</ele>
        <extensions>
          <visugpx:TrkExtension xmlns:visugpx="https://www.visugpx.com/editgpx/">
            <visugpx:node>38</visugpx:node>
            </visugpx:TrkExtension>
        </extensions>
      </trkpt>
      <trkpt lat="43.64362" lon="2.28141">
        <ele>292.8</ele>
      </trkpt>
      <trkpt lat="43.64364" lon="2.28157">
        <ele>290.5</ele>
      </trkpt>
      <trkpt lat="43.64426" lon="2.28223">
        <ele>283</ele>
      </trkpt>
      <trkpt lat="43.64426" lon="2.28233">
        <ele>282.6</ele>
      </trkpt>
      <trkpt lat="43.64407" lon="2.28252">
        <ele>278</ele>
      </trkpt>
      <trkpt lat="43.64383" lon="2.28281">
        <ele>274.1</ele>
      </trkpt>
      <trkpt lat="43.6437" lon="2.28322">
        <ele>272.6</ele>
      </trkpt>
      <trkpt lat="43.64362" lon="2.28373">
        <ele>269.9</ele>
      </trkpt>
      <trkpt lat="43.64366" lon="2.28405">
        <ele>269</ele>
      </trkpt>
      <trkpt lat="43.64368" lon="2.28415">
        <ele>268.7</ele>
      </trkpt>
      <trkpt lat="43.64373" lon="2.28434">
        <ele>268.4</ele>
      </trkpt>
      <trkpt lat="43.64374" lon="2.28451">
        <ele>266.7</ele>
      </trkpt>
      <trkpt lat="43.6439" lon="2.28496">
        <ele>264.8</ele>
      </trkpt>
      <trkpt lat="43.6441" lon="2.28522">
        <ele>267.5</ele>
      </trkpt>
      <trkpt lat="43.64414" lon="2.28524">
        <ele>268</ele>
      </trkpt>
      <trkpt lat="43.64432" lon="2.28574">
        <ele>269.3</ele>
      </trkpt>
      <trkpt lat="43.64439" lon="2.28585">
        <ele>269.9</ele>
      </trkpt>
      <trkpt lat="43.64448" lon="2.28605">
        <ele>270.6</ele>
      </trkpt>
      <trkpt lat="43.64478" lon="2.2865">
        <ele>271.2</ele>
      </trkpt>
      <trkpt lat="43.6449" lon="2.28707">
        <ele>271.9</ele>
      </trkpt>
      <trkpt lat="43.64494" lon="2.28719">
        <ele>272.3</ele>
      </trkpt>
      <trkpt lat="43.645" lon="2.2878">
        <ele>278.2</ele>
      </trkpt>
      <trkpt lat="43.64505" lon="2.28807">
        <ele>281.1</ele>
      </trkpt>
      <trkpt lat="43.6451" lon="2.28841">
        <ele>283.4</ele>
      </trkpt>
      <trkpt lat="43.6451" lon="2.28893">
        <ele>290.4</ele>
      </trkpt>
      <trkpt lat="43.64507" lon="2.28908">
        <ele>292.6</ele>
      </trkpt>
      <trkpt lat="43.64499" lon="2.28933">
        <ele>295.4</ele>
      </trkpt>
      <trkpt lat="43.64486" lon="2.28949">
        <ele>296.3</ele>
      </trkpt>
      <trkpt lat="43.64484" lon="2.28964">
        <ele>298.4</ele>
      </trkpt>
      <trkpt lat="43.64486" lon="2.28976">
        <ele>300.9</ele>
      </trkpt>
      <trkpt lat="43.64484" lon="2.28991">
        <ele>302.2</ele>
      </trkpt>
      <trkpt lat="43.64496" lon="2.29012">
        <ele>307.8</ele>
      </trkpt>
      <trkpt lat="43.64512" lon="2.29028">
        <ele>313.5</ele>
      </trkpt>
      <trkpt lat="43.64521" lon="2.29034">
        <ele>316.2</ele>
      </trkpt>
      <trkpt lat="43.64532" lon="2.29029">
        <ele>318.9</ele>
      </trkpt>
      <trkpt lat="43.64539" lon="2.29023">
        <ele>320</ele>
      </trkpt>
      <trkpt lat="43.64549" lon="2.29022">
        <ele>322</ele>
      </trkpt>
      <trkpt lat="43.64558" lon="2.2903">
        <ele>324.5</ele>
      </trkpt>
      <trkpt lat="43.64563" lon="2.29039">
        <ele>325.8</ele>
      </trkpt>
      <trkpt lat="43.64567" lon="2.29052">
        <ele>327.6</ele>
      </trkpt>
      <trkpt lat="43.64579" lon="2.29077">
        <ele>331.6</ele>
      </trkpt>
      <trkpt lat="43.64594" lon="2.29103">
        <ele>334.8</ele>
      </trkpt>
      <trkpt lat="43.64602" lon="2.29112">
        <ele>336.7</ele>
      </trkpt>
      <trkpt lat="43.64612" lon="2.29118">
        <ele>339.1</ele>
      </trkpt>
      <trkpt lat="43.64629" lon="2.29159">
        <ele>339.7</ele>
      </trkpt>
      <trkpt lat="43.64631" lon="2.29174">
        <ele>339.3</ele>
      </trkpt>
      <trkpt lat="43.64634" lon="2.29176">
        <ele>339.4</ele>
      </trkpt>
      <trkpt lat="43.64628" lon="2.29186">
        <ele>339.1</ele>
      </trkpt>
      <trkpt lat="43.64619" lon="2.29189">
        <ele>338.9</ele>
      </trkpt>
      <trkpt lat="43.64597" lon="2.29209">
        <ele>339.8</ele>
      </trkpt>
      <trkpt lat="43.6458" lon="2.29232">
        <ele>341.3</ele>
        <extensions>
          <visugpx:TrkExtension xmlns:visugpx="https://www.visugpx.com/editgpx/">
            <visugpx:node>39</visugpx:node>
            </visugpx:TrkExtension>
        </extensions>
      </trkpt>
      <trkpt lat="43.64557" lon="2.29263">
        <ele>341.1</ele>
      </trkpt>
      <trkpt lat="43.64522" lon="2.293">
        <ele>339.1</ele>
      </trkpt>
      <trkpt lat="43.6452" lon="2.29303">
        <ele>339.2</ele>
      </trkpt>
      <trkpt lat="43.64511" lon="2.29315">
        <ele>339.2</ele>
      </trkpt>
      <trkpt lat="43.64502" lon="2.2933">
        <ele>339.8</ele>
      </trkpt>
      <trkpt lat="43.64497" lon="2.29336">
        <ele>339.8</ele>
      </trkpt>
      <trkpt lat="43.64486" lon="2.29352">
        <ele>339.8</ele>
      </trkpt>
      <trkpt lat="43.64471" lon="2.29374">
        <ele>339.7</ele>
      </trkpt>
      <trkpt lat="43.64462" lon="2.29382">
        <ele>339.7</ele>
      </trkpt>
      <trkpt lat="43.64452" lon="2.29386">
        <ele>340.3</ele>
      </trkpt>
      <trkpt lat="43.64436" lon="2.29388">
        <ele>341.9</ele>
      </trkpt>
      <trkpt lat="43.64359" lon="2.29384">
        <ele>350.2</ele>
      </trkpt>
      <trkpt lat="43.64299" lon="2.29386">
        <ele>355.8</ele>
      </trkpt>
      <trkpt lat="43.64283" lon="2.2939">
        <ele>357.3</ele>
      </trkpt>
      <trkpt lat="43.6423" lon="2.29421">
        <ele>359.9</ele>
      </trkpt>
      <trkpt lat="43.64203" lon="2.29446">
        <ele>359.2</ele>
      </trkpt>
      <trkpt lat="43.64161" lon="2.29496">
        <ele>356.2</ele>
      </trkpt>
      <trkpt lat="43.64089" lon="2.29621">
        <ele>345.5</ele>
      </trkpt>
      <trkpt lat="43.64078" lon="2.29628">
        <ele>345</ele>
      </trkpt>
      <trkpt lat="43.64072" lon="2.29626">
        <ele>344.5</ele>
      </trkpt>
      <trkpt lat="43.64069" lon="2.29621">
        <ele>344.1</ele>
      </trkpt>
      <trkpt lat="43.64068" lon="2.29614">
        <ele>343.9</ele>
      </trkpt>
      <trkpt lat="43.64077" lon="2.29547">
        <ele>341.1</ele>
      </trkpt>
      <trkpt lat="43.64076" lon="2.29531">
        <ele>340.7</ele>
      </trkpt>
      <trkpt lat="43.64051" lon="2.2949">
        <ele>333.4</ele>
      </trkpt>
      <trkpt lat="43.64051" lon="2.29462">
        <ele>333.8</ele>
      </trkpt>
      <trkpt lat="43.64057" lon="2.29388">
        <ele>330.3</ele>
        <extensions>
          <visugpx:TrkExtension xmlns:visugpx="https://www.visugpx.com/editgpx/">
            <visugpx:node>40</visugpx:node>
            </visugpx:TrkExtension>
        </extensions>
      </trkpt>
      <trkpt lat="43.64069" lon="2.2924">
        <ele>324.4</ele>
      </trkpt>
      <trkpt lat="43.6407" lon="2.2919">
        <ele>325</ele>
      </trkpt>
      <trkpt lat="43.64069" lon="2.29177">
        <ele>324.6</ele>
      </trkpt>
      <trkpt lat="43.64066" lon="2.29164">
        <ele>324</ele>
      </trkpt>
      <trkpt lat="43.64066" lon="2.29152">
        <ele>324.3</ele>
      </trkpt>
      <trkpt lat="43.64068" lon="2.29137">
        <ele>324.9</ele>
      </trkpt>
      <trkpt lat="43.6407" lon="2.29123">
        <ele>324.7</ele>
      </trkpt>
      <trkpt lat="43.64065" lon="2.29111">
        <ele>324.3</ele>
      </trkpt>
      <trkpt lat="43.64032" lon="2.29036">
        <ele>323</ele>
      </trkpt>
      <trkpt lat="43.64021" lon="2.29008">
        <ele>322.7</ele>
      </trkpt>
      <trkpt lat="43.64003" lon="2.28953">
        <ele>322.1</ele>
      </trkpt>
      <trkpt lat="43.64" lon="2.28891">
        <ele>317.2</ele>
      </trkpt>
      <trkpt lat="43.63999" lon="2.28832">
        <ele>312.7</ele>
      </trkpt>
      <trkpt lat="43.63999" lon="2.28828">
        <ele>312.3</ele>
      </trkpt>
      <trkpt lat="43.64001" lon="2.28826">
        <ele>312.2</ele>
      </trkpt>
      <trkpt lat="43.64015" lon="2.28805">
        <ele>310.5</ele>
      </trkpt>
      <trkpt lat="43.64032" lon="2.28791">
        <ele>309.7</ele>
      </trkpt>
      <trkpt lat="43.64046" lon="2.28775">
        <ele>308.2</ele>
      </trkpt>
      <trkpt lat="43.64078" lon="2.28755">
        <ele>303.6</ele>
      </trkpt>
      <trkpt lat="43.64125" lon="2.28716">
        <ele>294</ele>
      </trkpt>
      <trkpt lat="43.6413" lon="2.28708">
        <ele>292.9</ele>
      </trkpt>
      <trkpt lat="43.64141" lon="2.28686">
        <ele>290.5</ele>
      </trkpt>
      <trkpt lat="43.6415" lon="2.2866">
        <ele>288.6</ele>
      </trkpt>
      <trkpt lat="43.64155" lon="2.28615">
        <ele>286.7</ele>
      </trkpt>
      <trkpt lat="43.64164" lon="2.28592">
        <ele>283.9</ele>
      </trkpt>
      <trkpt lat="43.6417" lon="2.2856">
        <ele>281.1</ele>
      </trkpt>
      <trkpt lat="43.6417" lon="2.28555">
        <ele>280.9</ele>
        <extensions>
          <visugpx:TrkExtension xmlns:visugpx="https://www.visugpx.com/editgpx/">
            <visugpx:node>41</visugpx:node>
            </visugpx:TrkExtension>
        </extensions>
      </trkpt>
      <trkpt lat="43.6417" lon="2.28549">
        <ele>280.2</ele>
      </trkpt>
      <trkpt lat="43.64181" lon="2.28514">
        <ele>273.6</ele>
      </trkpt>
      <trkpt lat="43.64185" lon="2.28489">
        <ele>270.3</ele>
      </trkpt>
      <trkpt lat="43.64186" lon="2.28468">
        <ele>268.3</ele>
      </trkpt>
      <trkpt lat="43.64191" lon="2.28455">
        <ele>265.7</ele>
      </trkpt>
      <trkpt lat="43.64197" lon="2.28422">
        <ele>262.5</ele>
      </trkpt>
      <trkpt lat="43.64198" lon="2.28407">
        <ele>261.3</ele>
      </trkpt>
      <trkpt lat="43.64194" lon="2.28391">
        <ele>261.2</ele>
      </trkpt>
      <trkpt lat="43.64187" lon="2.28374">
        <ele>259.9</ele>
      </trkpt>
      <trkpt lat="43.64161" lon="2.28323">
        <ele>255.9</ele>
      </trkpt>
      <trkpt lat="43.64155" lon="2.28302">
        <ele>253.6</ele>
      </trkpt>
      <trkpt lat="43.64136" lon="2.28263">
        <ele>250.6</ele>
      </trkpt>
      <trkpt lat="43.64127" lon="2.28249">
        <ele>249</ele>
      </trkpt>
      <trkpt lat="43.64123" lon="2.28236">
        <ele>246.5</ele>
      </trkpt>
      <trkpt lat="43.64115" lon="2.2823">
        <ele>246.2</ele>
      </trkpt>
      <trkpt lat="43.64108" lon="2.28222">
        <ele>245</ele>
      </trkpt>
      <trkpt lat="43.64085" lon="2.28204">
        <ele>241.3</ele>
      </trkpt>
      <trkpt lat="43.6408" lon="2.28194">
        <ele>238.9</ele>
      </trkpt>
      <trkpt lat="43.64073" lon="2.28187">
        <ele>237.7</ele>
      </trkpt>
      <trkpt lat="43.64062" lon="2.2818">
        <ele>236.4</ele>
      </trkpt>
      <trkpt lat="43.64034" lon="2.28171">
        <ele>235.6</ele>
      </trkpt>
      <trkpt lat="43.63996" lon="2.28164">
        <ele>234.7</ele>
      </trkpt>
      <trkpt lat="43.6397" lon="2.28156">
        <ele>233.7</ele>
      </trkpt>
      <trkpt lat="43.63938" lon="2.28153">
        <ele>233.3</ele>
      </trkpt>
      <trkpt lat="43.6392" lon="2.28145">
        <ele>231.7</ele>
      </trkpt>
      <trkpt lat="43.63894" lon="2.28137">
        <ele>231.2</ele>
      </trkpt>
      <trkpt lat="43.63883" lon="2.2813">
        <ele>229.9</ele>
      </trkpt>
      <trkpt lat="43.63851" lon="2.2812">
        <ele>227.6</ele>
      </trkpt>
      <trkpt lat="43.63841" lon="2.28118">
        <ele>227</ele>
      </trkpt>
      <trkpt lat="43.63839" lon="2.28117">
        <ele>226.7</ele>
      </trkpt>
      <trkpt lat="43.63829" lon="2.28114">
        <ele>225.7</ele>
      </trkpt>
      <trkpt lat="43.63803" lon="2.28103">
        <ele>222.2</ele>
      </trkpt>
      <trkpt lat="43.63787" lon="2.28095">
        <ele>220.2</ele>
      </trkpt>
      <trkpt lat="43.63721" lon="2.28064">
        <ele>214.6</ele>
      </trkpt>
      <trkpt lat="43.63716" lon="2.28062">
        <ele>214.4</ele>
      </trkpt>
      <trkpt lat="43.63713" lon="2.28054">
        <ele>214.6</ele>
      </trkpt>
      <trkpt lat="43.63706" lon="2.28048">
        <ele>216.9</ele>
      </trkpt>
      <trkpt lat="43.63681" lon="2.28046">
        <ele>218.1</ele>
      </trkpt>
      <trkpt lat="43.63658" lon="2.28046">
        <ele>218.8</ele>
      </trkpt>
      <trkpt lat="43.63638" lon="2.28051">
        <ele>218.4</ele>
      </trkpt>
      <trkpt lat="43.63625" lon="2.28048">
        <ele>220.6</ele>
      </trkpt>
      <trkpt lat="43.6361" lon="2.28054">
        <ele>221.3</ele>
      </trkpt>
      <trkpt lat="43.63608" lon="2.28054">
        <ele>221.3</ele>
      </trkpt>
      <trkpt lat="43.63507" lon="2.28068">
        <ele>218.3</ele>
        <extensions>
          <visugpx:TrkExtension xmlns:visugpx="https://www.visugpx.com/editgpx/">
            <visugpx:node>42</visugpx:node>
            </visugpx:TrkExtension>
        </extensions>
      </trkpt>
      <trkpt lat="43.63488" lon="2.28071">
        <ele>217.8</ele>
      </trkpt>
      <trkpt lat="43.63346" lon="2.28085">
        <ele>213.7</ele>
      </trkpt>
      <trkpt lat="43.63338" lon="2.28083">
        <ele>212.7</ele>
      </trkpt>
      <trkpt lat="43.63331" lon="2.27996">
        <ele>206.2</ele>
      </trkpt>
      <trkpt lat="43.63328" lon="2.27966">
        <ele>202.8</ele>
      </trkpt>
      <trkpt lat="43.6333" lon="2.2794">
        <ele>201.5</ele>
      </trkpt>
      <trkpt lat="43.6333" lon="2.27918">
        <ele>200.6</ele>
      </trkpt>
      <trkpt lat="43.63327" lon="2.27901">
        <ele>199.5</ele>
      </trkpt>
      <trkpt lat="43.633" lon="2.27886">
        <ele>194.9</ele>
      </trkpt>
      <trkpt lat="43.63296" lon="2.27884">
        <ele>194.1</ele>
      </trkpt>
      <trkpt lat="43.63289" lon="2.27885">
        <ele>192.8</ele>
      </trkpt>
      <trkpt lat="43.63278" lon="2.2789">
        <ele>191.2</ele>
      </trkpt>
      <trkpt lat="43.63272" lon="2.27892">
        <ele>190</ele>
      </trkpt>
      <trkpt lat="43.63261" lon="2.27906">
        <ele>188.7</ele>
      </trkpt>
      <trkpt lat="43.63257" lon="2.27914">
        <ele>188.3</ele>
        <extensions>
          <visugpx:TrkExtension xmlns:visugpx="https://www.visugpx.com/editgpx/">
            <visugpx:node>43</visugpx:node>
            </visugpx:TrkExtension>
        </extensions>
      </trkpt>
      <trkpt lat="43.6322" lon="2.27981">
        <ele>183.7</ele>
      </trkpt>
      <trkpt lat="43.63214" lon="2.27988">
        <ele>183.6</ele>
      </trkpt>
      <trkpt lat="43.63211" lon="2.27989">
        <ele>183.3</ele>
      </trkpt>
      <trkpt lat="43.63208" lon="2.27934">
        <ele>182.2</ele>
      </trkpt>
      <trkpt lat="43.63194" lon="2.27752">
        <ele>180</ele>
      </trkpt>
      <trkpt lat="43.63193" lon="2.27738">
        <ele>179.8</ele>
      </trkpt>
      <trkpt lat="43.63189" lon="2.27663">
        <ele>179.8</ele>
      </trkpt>
      <trkpt lat="43.63189" lon="2.27633">
        <ele>179.4</ele>
        <extensions>
          <visugpx:TrkExtension xmlns:visugpx="https://www.visugpx.com/editgpx/">
            <visugpx:node>44</visugpx:node>
            </visugpx:TrkExtension>
        </extensions>
      </trkpt>
      <trkpt lat="43.63189" lon="2.2763">
        <ele>179.4</ele>
      </trkpt>
      <trkpt lat="43.63192" lon="2.27594">
        <ele>179.5</ele>
      </trkpt>
      <trkpt lat="43.63194" lon="2.27582">
        <ele>179.9</ele>
      </trkpt>
      <trkpt lat="43.63208" lon="2.27485">
        <ele>179.5</ele>
      </trkpt>
      <trkpt lat="43.63211" lon="2.27462">
        <ele>179.4</ele>
      </trkpt>
      <trkpt lat="43.63213" lon="2.27447">
        <ele>179.1</ele>
      </trkpt>
      <trkpt lat="43.63208" lon="2.27442">
        <ele>179</ele>
      </trkpt>
      <trkpt lat="43.63205" lon="2.2744">
        <ele>178.9</ele>
      </trkpt>
      <trkpt lat="43.63185" lon="2.27434">
        <ele>176.7</ele>
      </trkpt>
      <trkpt lat="43.63134" lon="2.27417">
        <ele>179.5</ele>
      </trkpt>
      <trkpt lat="43.63132" lon="2.27416">
        <ele>179.8</ele>
      </trkpt>
      <trkpt lat="43.63142" lon="2.2735">
        <ele>179.2</ele>
        <extensions>
          <visugpx:TrkExtension xmlns:visugpx="https://www.visugpx.com/editgpx/">
            <visugpx:node>45</visugpx:node>
            </visugpx:TrkExtension>
        </extensions>
      </trkpt>
      <trkpt lat="43.63145" lon="2.27328">
        <ele>178.5</ele>
      </trkpt>
      <trkpt lat="43.63148" lon="2.27251">
        <ele>177.7</ele>
      </trkpt>
      <trkpt lat="43.63149" lon="2.27146">
        <ele>177.9</ele>
      </trkpt>
      <trkpt lat="43.63159" lon="2.27083">
        <ele>178.1</ele>
      </trkpt>
      <trkpt lat="43.63185" lon="2.26977">
        <ele>176.4</ele>
      </trkpt>
      <trkpt lat="43.63186" lon="2.26962">
        <ele>176.8</ele>
        <extensions>
          <visugpx:TrkExtension xmlns:visugpx="https://www.visugpx.com/editgpx/">
            <visugpx:node>46</visugpx:node>
            </visugpx:TrkExtension>
        </extensions>
      </trkpt>
      <trkpt lat="43.63189" lon="2.26927">
        <ele>178.3</ele>
      </trkpt>
      <trkpt lat="43.63185" lon="2.26927">
        <ele>178.6</ele>
      </trkpt>
      <trkpt lat="43.63152" lon="2.26933">
        <ele>180.2</ele>
        <extensions>
          <visugpx:TrkExtension xmlns:visugpx="https://www.visugpx.com/editgpx/">
            <visugpx:node>47</visugpx:node>
            </visugpx:TrkExtension>
        </extensions>
      </trkpt>
      <trkpt lat="43.63063" lon="2.2695">
        <ele>182.6</ele>
      </trkpt>
      <trkpt lat="43.63055" lon="2.26952">
        <ele>183.3</ele>
      </trkpt>
      <trkpt lat="43.63051" lon="2.26959">
        <ele>184</ele>
      </trkpt>
      <trkpt lat="43.63046" lon="2.26955">
        <ele>184.4</ele>
        <extensions>
          <visugpx:TrkExtension xmlns:visugpx="https://www.visugpx.com/editgpx/">
            <visugpx:node>48</visugpx:node>
            </visugpx:TrkExtension>
        </extensions>
      </trkpt>
    </trkseg>
  </trk>
</gpx>